<?xml version="1.0" encoding="UTF-8" standalone="no" ?>
<gpx xmlns="http://www.topografix.com/GPX/1/1" xmlns:xsi="http://www.w3.org/2001/XMLSchema-instance" xsi:schemaLocation="http://www.topografix.com/GPX/1/1 http://www.topografix.com/GPX/1/1/gpx.xsd" version="1.1" creator="VisuGPX - https://www.visugpx.com">
  <metadata>
    <name> Floressas (46700) boucle n°2</name>
    <desc><![CDATA[Circuit en boucle de moyenne difficulté. Beaux paysages variés]]></desc>
  </metadata>
  <trk>
    <name><![CDATA[001-2009/02/01-08:29:37]]></name>
    <trkseg>
      <trkpt lat="44.44436" lon="1.12105">
        <ele>265</ele>
        <time>2009-02-01T07:29:37Z</time>
      </trkpt>
      <trkpt lat="44.44436" lon="1.12071">
        <ele>250</ele>
        <time>2009-02-01T07:31:32Z</time>
      </trkpt>
      <trkpt lat="44.4444" lon="1.12066">
        <ele>250</ele>
        <time>2009-02-01T07:31:36Z</time>
      </trkpt>
      <trkpt lat="44.44444" lon="1.12063">
        <ele>250</ele>
        <time>2009-02-01T07:31:40Z</time>
      </trkpt>
      <trkpt lat="44.44443" lon="1.12059">
        <ele>250</ele>
        <time>2009-02-01T07:31:44Z</time>
      </trkpt>
      <trkpt lat="44.4444" lon="1.12062">
        <ele>250</ele>
        <time>2009-02-01T07:31:47Z</time>
      </trkpt>
      <trkpt lat="44.44437" lon="1.12066">
        <ele>250</ele>
        <time>2009-02-01T07:31:50Z</time>
      </trkpt>
      <trkpt lat="44.44433" lon="1.12076">
        <ele>250</ele>
        <time>2009-02-01T07:31:54Z</time>
      </trkpt>
      <trkpt lat="44.44427" lon="1.12087">
        <ele>249</ele>
        <time>2009-02-01T07:31:57Z</time>
      </trkpt>
      <trkpt lat="44.4442" lon="1.121">
        <ele>248</ele>
        <time>2009-02-01T07:32:00Z</time>
      </trkpt>
      <trkpt lat="44.44412" lon="1.12107">
        <ele>247</ele>
        <time>2009-02-01T07:32:03Z</time>
      </trkpt>
      <trkpt lat="44.44403" lon="1.12111">
        <ele>247</ele>
        <time>2009-02-01T07:32:06Z</time>
      </trkpt>
      <trkpt lat="44.44399" lon="1.12121">
        <ele>247</ele>
        <time>2009-02-01T07:32:09Z</time>
      </trkpt>
      <trkpt lat="44.44404" lon="1.12134">
        <ele>246</ele>
        <time>2009-02-01T07:32:12Z</time>
      </trkpt>
      <trkpt lat="44.44411" lon="1.12149">
        <ele>245</ele>
        <time>2009-02-01T07:32:15Z</time>
      </trkpt>
      <trkpt lat="44.44421" lon="1.12166">
        <ele>244</ele>
        <time>2009-02-01T07:32:18Z</time>
      </trkpt>
      <trkpt lat="44.44432" lon="1.12185">
        <ele>243</ele>
        <time>2009-02-01T07:32:21Z</time>
      </trkpt>
      <trkpt lat="44.44444" lon="1.12206">
        <ele>242</ele>
        <time>2009-02-01T07:32:24Z</time>
      </trkpt>
      <trkpt lat="44.44454" lon="1.12226">
        <ele>242</ele>
        <time>2009-02-01T07:32:27Z</time>
      </trkpt>
      <trkpt lat="44.44465" lon="1.12257">
        <ele>240</ele>
        <time>2009-02-01T07:32:31Z</time>
      </trkpt>
      <trkpt lat="44.4447" lon="1.12281">
        <ele>240</ele>
        <time>2009-02-01T07:32:34Z</time>
      </trkpt>
      <trkpt lat="44.44482" lon="1.12305">
        <ele>240</ele>
        <time>2009-02-01T07:32:37Z</time>
      </trkpt>
      <trkpt lat="44.44498" lon="1.12328">
        <ele>239</ele>
        <time>2009-02-01T07:32:40Z</time>
      </trkpt>
      <trkpt lat="44.44504" lon="1.12356">
        <ele>236</ele>
        <time>2009-02-01T07:32:43Z</time>
      </trkpt>
      <trkpt lat="44.445" lon="1.12392">
        <ele>234</ele>
        <time>2009-02-01T07:32:46Z</time>
      </trkpt>
      <trkpt lat="44.44494" lon="1.1243">
        <ele>232</ele>
        <time>2009-02-01T07:32:49Z</time>
      </trkpt>
      <trkpt lat="44.44492" lon="1.12467">
        <ele>231</ele>
        <time>2009-02-01T07:32:52Z</time>
      </trkpt>
      <trkpt lat="44.44492" lon="1.12501">
        <ele>230</ele>
        <time>2009-02-01T07:32:55Z</time>
      </trkpt>
      <trkpt lat="44.44494" lon="1.12532">
        <ele>229</ele>
        <time>2009-02-01T07:32:58Z</time>
      </trkpt>
      <trkpt lat="44.44497" lon="1.1256">
        <ele>228</ele>
        <time>2009-02-01T07:33:01Z</time>
      </trkpt>
      <trkpt lat="44.44501" lon="1.12586">
        <ele>227</ele>
        <time>2009-02-01T07:33:04Z</time>
      </trkpt>
      <trkpt lat="44.44508" lon="1.12611">
        <ele>227</ele>
        <time>2009-02-01T07:33:07Z</time>
      </trkpt>
      <trkpt lat="44.44515" lon="1.12634">
        <ele>227</ele>
        <time>2009-02-01T07:33:10Z</time>
      </trkpt>
      <trkpt lat="44.44524" lon="1.12655">
        <ele>227</ele>
        <time>2009-02-01T07:33:13Z</time>
      </trkpt>
      <trkpt lat="44.4453" lon="1.12674">
        <ele>227</ele>
        <time>2009-02-01T07:33:16Z</time>
      </trkpt>
      <trkpt lat="44.44536" lon="1.1269">
        <ele>227</ele>
        <time>2009-02-01T07:33:19Z</time>
      </trkpt>
      <trkpt lat="44.4454" lon="1.12707">
        <ele>227</ele>
        <time>2009-02-01T07:33:22Z</time>
      </trkpt>
      <trkpt lat="44.44545" lon="1.12723">
        <ele>227</ele>
        <time>2009-02-01T07:33:26Z</time>
      </trkpt>
      <trkpt lat="44.44552" lon="1.12743">
        <ele>227</ele>
        <time>2009-02-01T07:33:29Z</time>
      </trkpt>
      <trkpt lat="44.44558" lon="1.1276">
        <ele>226</ele>
        <time>2009-02-01T07:33:32Z</time>
      </trkpt>
      <trkpt lat="44.44563" lon="1.12778">
        <ele>225</ele>
        <time>2009-02-01T07:33:36Z</time>
      </trkpt>
      <trkpt lat="44.44567" lon="1.12794">
        <ele>225</ele>
        <time>2009-02-01T07:33:39Z</time>
      </trkpt>
      <trkpt lat="44.44573" lon="1.12811">
        <ele>224</ele>
        <time>2009-02-01T07:33:42Z</time>
      </trkpt>
      <trkpt lat="44.4458" lon="1.12826">
        <ele>223</ele>
        <time>2009-02-01T07:33:45Z</time>
      </trkpt>
      <trkpt lat="44.44586" lon="1.12844">
        <ele>222</ele>
        <time>2009-02-01T07:33:48Z</time>
      </trkpt>
      <trkpt lat="44.44591" lon="1.12864">
        <ele>221</ele>
        <time>2009-02-01T07:33:51Z</time>
      </trkpt>
      <trkpt lat="44.44596" lon="1.12883">
        <ele>221</ele>
        <time>2009-02-01T07:33:54Z</time>
      </trkpt>
      <trkpt lat="44.44603" lon="1.129">
        <ele>221</ele>
        <time>2009-02-01T07:33:57Z</time>
      </trkpt>
      <trkpt lat="44.4461" lon="1.12921">
        <ele>220</ele>
        <time>2009-02-01T07:34:00Z</time>
      </trkpt>
      <trkpt lat="44.44616" lon="1.12945">
        <ele>220</ele>
        <time>2009-02-01T07:34:03Z</time>
      </trkpt>
      <trkpt lat="44.44623" lon="1.12975">
        <ele>220</ele>
        <time>2009-02-01T07:34:06Z</time>
      </trkpt>
      <trkpt lat="44.44631" lon="1.13006">
        <ele>220</ele>
        <time>2009-02-01T07:34:09Z</time>
      </trkpt>
      <trkpt lat="44.44641" lon="1.13036">
        <ele>220</ele>
        <time>2009-02-01T07:34:12Z</time>
      </trkpt>
      <trkpt lat="44.44652" lon="1.13065">
        <ele>219</ele>
        <time>2009-02-01T07:34:15Z</time>
      </trkpt>
      <trkpt lat="44.44663" lon="1.13093">
        <ele>219</ele>
        <time>2009-02-01T07:34:18Z</time>
      </trkpt>
      <trkpt lat="44.44678" lon="1.13128">
        <ele>219</ele>
        <time>2009-02-01T07:34:21Z</time>
      </trkpt>
      <trkpt lat="44.44688" lon="1.1315">
        <ele>219</ele>
        <time>2009-02-01T07:34:24Z</time>
      </trkpt>
      <trkpt lat="44.44697" lon="1.13169">
        <ele>219</ele>
        <time>2009-02-01T07:34:27Z</time>
      </trkpt>
      <trkpt lat="44.44701" lon="1.13184">
        <ele>219</ele>
        <time>2009-02-01T07:34:30Z</time>
      </trkpt>
      <trkpt lat="44.44702" lon="1.13201">
        <ele>219</ele>
        <time>2009-02-01T07:34:33Z</time>
      </trkpt>
      <trkpt lat="44.44701" lon="1.13219">
        <ele>219</ele>
        <time>2009-02-01T07:34:36Z</time>
      </trkpt>
      <trkpt lat="44.447" lon="1.13238">
        <ele>219</ele>
        <time>2009-02-01T07:34:39Z</time>
      </trkpt>
      <trkpt lat="44.44697" lon="1.13259">
        <ele>219</ele>
        <time>2009-02-01T07:34:42Z</time>
      </trkpt>
      <trkpt lat="44.44694" lon="1.1328">
        <ele>219</ele>
        <time>2009-02-01T07:34:46Z</time>
      </trkpt>
      <trkpt lat="44.44687" lon="1.133">
        <ele>218</ele>
        <time>2009-02-01T07:34:49Z</time>
      </trkpt>
      <trkpt lat="44.44677" lon="1.13317">
        <ele>217</ele>
        <time>2009-02-01T07:34:52Z</time>
      </trkpt>
      <trkpt lat="44.44665" lon="1.13332">
        <ele>216</ele>
        <time>2009-02-01T07:34:55Z</time>
      </trkpt>
      <trkpt lat="44.44654" lon="1.13345">
        <ele>216</ele>
        <time>2009-02-01T07:34:58Z</time>
      </trkpt>
      <trkpt lat="44.44642" lon="1.13359">
        <ele>216</ele>
        <time>2009-02-01T07:35:01Z</time>
      </trkpt>
      <trkpt lat="44.44631" lon="1.13373">
        <ele>215</ele>
        <time>2009-02-01T07:35:04Z</time>
      </trkpt>
      <trkpt lat="44.44622" lon="1.13386">
        <ele>215</ele>
        <time>2009-02-01T07:35:07Z</time>
      </trkpt>
      <trkpt lat="44.44616" lon="1.134">
        <ele>215</ele>
        <time>2009-02-01T07:35:10Z</time>
      </trkpt>
      <trkpt lat="44.44613" lon="1.13412">
        <ele>215</ele>
        <time>2009-02-01T07:35:13Z</time>
      </trkpt>
      <trkpt lat="44.4461" lon="1.13423">
        <ele>215</ele>
        <time>2009-02-01T07:35:16Z</time>
      </trkpt>
      <trkpt lat="44.44609" lon="1.13431">
        <ele>215</ele>
        <time>2009-02-01T07:35:19Z</time>
      </trkpt>
      <trkpt lat="44.44606" lon="1.13442">
        <ele>215</ele>
        <time>2009-02-01T07:35:22Z</time>
      </trkpt>
      <trkpt lat="44.44602" lon="1.13454">
        <ele>215</ele>
        <time>2009-02-01T07:35:25Z</time>
      </trkpt>
      <trkpt lat="44.44597" lon="1.1347">
        <ele>215</ele>
        <time>2009-02-01T07:35:28Z</time>
      </trkpt>
      <trkpt lat="44.44591" lon="1.13488">
        <ele>215</ele>
        <time>2009-02-01T07:35:31Z</time>
      </trkpt>
      <trkpt lat="44.44582" lon="1.13509">
        <ele>212</ele>
        <time>2009-02-01T07:35:34Z</time>
      </trkpt>
      <trkpt lat="44.44567" lon="1.13527">
        <ele>210</ele>
        <time>2009-02-01T07:35:37Z</time>
      </trkpt>
      <trkpt lat="44.44552" lon="1.13548">
        <ele>208</ele>
        <time>2009-02-01T07:35:40Z</time>
      </trkpt>
      <trkpt lat="44.44536" lon="1.13568">
        <ele>206</ele>
        <time>2009-02-01T07:35:43Z</time>
      </trkpt>
      <trkpt lat="44.44518" lon="1.13583">
        <ele>205</ele>
        <time>2009-02-01T07:35:46Z</time>
      </trkpt>
      <trkpt lat="44.44496" lon="1.13597">
        <ele>202</ele>
        <time>2009-02-01T07:35:49Z</time>
      </trkpt>
      <trkpt lat="44.44474" lon="1.13607">
        <ele>199</ele>
        <time>2009-02-01T07:35:52Z</time>
      </trkpt>
      <trkpt lat="44.44455" lon="1.13615">
        <ele>196</ele>
        <time>2009-02-01T07:35:55Z</time>
      </trkpt>
      <trkpt lat="44.44441" lon="1.1362">
        <ele>193</ele>
        <time>2009-02-01T07:35:58Z</time>
      </trkpt>
      <trkpt lat="44.44432" lon="1.13626">
        <ele>190</ele>
        <time>2009-02-01T07:36:01Z</time>
      </trkpt>
      <trkpt lat="44.44427" lon="1.13634">
        <ele>187</ele>
        <time>2009-02-01T07:36:04Z</time>
      </trkpt>
      <trkpt lat="44.44414" lon="1.1364">
        <ele>184</ele>
        <time>2009-02-01T07:36:07Z</time>
      </trkpt>
      <trkpt lat="44.44398" lon="1.13645">
        <ele>181</ele>
        <time>2009-02-01T07:36:10Z</time>
      </trkpt>
      <trkpt lat="44.44381" lon="1.13656">
        <ele>178</ele>
        <time>2009-02-01T07:36:13Z</time>
      </trkpt>
      <trkpt lat="44.44359" lon="1.13682">
        <ele>174</ele>
        <time>2009-02-01T07:36:17Z</time>
      </trkpt>
      <trkpt lat="44.44345" lon="1.13693">
        <ele>171</ele>
        <time>2009-02-01T07:36:20Z</time>
      </trkpt>
      <trkpt lat="44.44333" lon="1.13699">
        <ele>168</ele>
        <time>2009-02-01T07:36:23Z</time>
      </trkpt>
      <trkpt lat="44.44328" lon="1.13699">
        <ele>165</ele>
        <time>2009-02-01T07:36:26Z</time>
      </trkpt>
      <trkpt lat="44.44317" lon="1.13701">
        <ele>164</ele>
        <time>2009-02-01T07:36:29Z</time>
      </trkpt>
      <trkpt lat="44.44304" lon="1.13703">
        <ele>163</ele>
        <time>2009-02-01T07:36:32Z</time>
      </trkpt>
      <trkpt lat="44.44293" lon="1.13699">
        <ele>161</ele>
        <time>2009-02-01T07:36:35Z</time>
      </trkpt>
      <trkpt lat="44.44283" lon="1.13698">
        <ele>160</ele>
        <time>2009-02-01T07:36:38Z</time>
      </trkpt>
      <trkpt lat="44.44278" lon="1.13695">
        <ele>159</ele>
        <time>2009-02-01T07:36:41Z</time>
      </trkpt>
      <trkpt lat="44.44272" lon="1.13694">
        <ele>158</ele>
        <time>2009-02-01T07:36:44Z</time>
      </trkpt>
      <trkpt lat="44.44266" lon="1.13696">
        <ele>156</ele>
        <time>2009-02-01T07:36:47Z</time>
      </trkpt>
      <trkpt lat="44.44261" lon="1.13701">
        <ele>152</ele>
        <time>2009-02-01T07:36:51Z</time>
      </trkpt>
      <trkpt lat="44.44255" lon="1.13702">
        <ele>149</ele>
        <time>2009-02-01T07:36:54Z</time>
      </trkpt>
      <trkpt lat="44.44249" lon="1.13706">
        <ele>147</ele>
        <time>2009-02-01T07:36:57Z</time>
      </trkpt>
      <trkpt lat="44.44241" lon="1.13707">
        <ele>145</ele>
        <time>2009-02-01T07:37:00Z</time>
      </trkpt>
      <trkpt lat="44.44236" lon="1.13712">
        <ele>143</ele>
        <time>2009-02-01T07:37:03Z</time>
      </trkpt>
      <trkpt lat="44.44232" lon="1.13719">
        <ele>140</ele>
        <time>2009-02-01T07:37:06Z</time>
      </trkpt>
      <trkpt lat="44.44228" lon="1.13724">
        <ele>137</ele>
        <time>2009-02-01T07:37:10Z</time>
      </trkpt>
      <trkpt lat="44.44222" lon="1.13724">
        <ele>134</ele>
        <time>2009-02-01T07:37:13Z</time>
      </trkpt>
      <trkpt lat="44.44217" lon="1.13724">
        <ele>133</ele>
        <time>2009-02-01T07:37:16Z</time>
      </trkpt>
      <trkpt lat="44.44211" lon="1.13726">
        <ele>133</ele>
        <time>2009-02-01T07:37:19Z</time>
      </trkpt>
      <trkpt lat="44.44207" lon="1.13732">
        <ele>132</ele>
        <time>2009-02-01T07:37:22Z</time>
      </trkpt>
      <trkpt lat="44.44199" lon="1.13736">
        <ele>129</ele>
        <time>2009-02-01T07:37:25Z</time>
      </trkpt>
      <trkpt lat="44.44192" lon="1.1374">
        <ele>127</ele>
        <time>2009-02-01T07:37:28Z</time>
      </trkpt>
      <trkpt lat="44.44183" lon="1.13746">
        <ele>125</ele>
        <time>2009-02-01T07:37:31Z</time>
      </trkpt>
      <trkpt lat="44.44173" lon="1.13747">
        <ele>125</ele>
        <time>2009-02-01T07:37:34Z</time>
      </trkpt>
      <trkpt lat="44.44164" lon="1.13746">
        <ele>125</ele>
        <time>2009-02-01T07:37:37Z</time>
      </trkpt>
      <trkpt lat="44.44153" lon="1.13741">
        <ele>123</ele>
        <time>2009-02-01T07:37:40Z</time>
      </trkpt>
      <trkpt lat="44.44142" lon="1.13729">
        <ele>121</ele>
        <time>2009-02-01T07:37:43Z</time>
      </trkpt>
      <trkpt lat="44.44132" lon="1.1372">
        <ele>119</ele>
        <time>2009-02-01T07:37:47Z</time>
      </trkpt>
      <trkpt lat="44.44127" lon="1.13715">
        <ele>119</ele>
        <time>2009-02-01T07:37:50Z</time>
      </trkpt>
      <trkpt lat="44.44124" lon="1.13712">
        <ele>119</ele>
        <time>2009-02-01T07:37:53Z</time>
      </trkpt>
      <trkpt lat="44.44122" lon="1.13708">
        <ele>119</ele>
        <time>2009-02-01T07:37:56Z</time>
      </trkpt>
      <trkpt lat="44.44118" lon="1.13703">
        <ele>119</ele>
        <time>2009-02-01T07:37:59Z</time>
      </trkpt>
      <trkpt lat="44.44114" lon="1.13701">
        <ele>119</ele>
        <time>2009-02-01T07:38:02Z</time>
      </trkpt>
      <trkpt lat="44.44108" lon="1.137">
        <ele>119</ele>
        <time>2009-02-01T07:38:05Z</time>
      </trkpt>
      <trkpt lat="44.44104" lon="1.13699">
        <ele>119</ele>
        <time>2009-02-01T07:38:09Z</time>
      </trkpt>
      <trkpt lat="44.44101" lon="1.13699">
        <ele>119</ele>
        <time>2009-02-01T07:38:14Z</time>
      </trkpt>
      <trkpt lat="44.441" lon="1.13698">
        <ele>119</ele>
        <time>2009-02-01T07:38:17Z</time>
      </trkpt>
      <trkpt lat="44.44097" lon="1.13695">
        <ele>119</ele>
        <time>2009-02-01T07:38:21Z</time>
      </trkpt>
      <trkpt lat="44.44094" lon="1.13692">
        <ele>119</ele>
        <time>2009-02-01T07:38:26Z</time>
      </trkpt>
      <trkpt lat="44.44094" lon="1.13687">
        <ele>119</ele>
        <time>2009-02-01T07:38:29Z</time>
      </trkpt>
      <trkpt lat="44.44096" lon="1.13685">
        <ele>119</ele>
        <time>2009-02-01T07:38:32Z</time>
      </trkpt>
      <trkpt lat="44.44097" lon="1.13683">
        <ele>119</ele>
        <time>2009-02-01T07:38:36Z</time>
      </trkpt>
      <trkpt lat="44.44098" lon="1.13681">
        <ele>119</ele>
        <time>2009-02-01T07:38:41Z</time>
      </trkpt>
      <trkpt lat="44.44101" lon="1.1368">
        <ele>119</ele>
        <time>2009-02-01T07:38:44Z</time>
      </trkpt>
      <trkpt lat="44.44104" lon="1.13678">
        <ele>119</ele>
        <time>2009-02-01T07:38:48Z</time>
      </trkpt>
      <trkpt lat="44.44107" lon="1.13674">
        <ele>119</ele>
        <time>2009-02-01T07:38:53Z</time>
      </trkpt>
      <trkpt lat="44.4411" lon="1.1367">
        <ele>119</ele>
        <time>2009-02-01T07:38:56Z</time>
      </trkpt>
      <trkpt lat="44.44114" lon="1.13669">
        <ele>119</ele>
        <time>2009-02-01T07:38:59Z</time>
      </trkpt>
      <trkpt lat="44.44118" lon="1.13666">
        <ele>119</ele>
        <time>2009-02-01T07:39:03Z</time>
      </trkpt>
      <trkpt lat="44.44119" lon="1.13662">
        <ele>119</ele>
        <time>2009-02-01T07:39:08Z</time>
      </trkpt>
      <trkpt lat="44.4412" lon="1.13658">
        <ele>119</ele>
        <time>2009-02-01T07:39:11Z</time>
      </trkpt>
      <trkpt lat="44.4412" lon="1.13652">
        <ele>119</ele>
        <time>2009-02-01T07:39:14Z</time>
      </trkpt>
      <trkpt lat="44.44121" lon="1.13648">
        <ele>119</ele>
        <time>2009-02-01T07:39:17Z</time>
      </trkpt>
      <trkpt lat="44.44122" lon="1.13642">
        <ele>119</ele>
        <time>2009-02-01T07:39:21Z</time>
      </trkpt>
      <trkpt lat="44.44124" lon="1.13636">
        <ele>119</ele>
        <time>2009-02-01T07:39:26Z</time>
      </trkpt>
      <trkpt lat="44.44125" lon="1.13632">
        <ele>119</ele>
        <time>2009-02-01T07:39:29Z</time>
      </trkpt>
      <trkpt lat="44.4413" lon="1.13626">
        <ele>119</ele>
        <time>2009-02-01T07:39:32Z</time>
      </trkpt>
      <trkpt lat="44.44134" lon="1.13622">
        <ele>120</ele>
        <time>2009-02-01T07:39:35Z</time>
      </trkpt>
      <trkpt lat="44.44138" lon="1.13615">
        <ele>122</ele>
        <time>2009-02-01T07:39:38Z</time>
      </trkpt>
      <trkpt lat="44.4414" lon="1.13609">
        <ele>122</ele>
        <time>2009-02-01T07:39:41Z</time>
      </trkpt>
      <trkpt lat="44.44142" lon="1.13605">
        <ele>122</ele>
        <time>2009-02-01T07:39:44Z</time>
      </trkpt>
      <trkpt lat="44.44143" lon="1.13601">
        <ele>124</ele>
        <time>2009-02-01T07:39:47Z</time>
      </trkpt>
      <trkpt lat="44.44144" lon="1.13596">
        <ele>126</ele>
        <time>2009-02-01T07:39:50Z</time>
      </trkpt>
      <trkpt lat="44.44145" lon="1.13591">
        <ele>128</ele>
        <time>2009-02-01T07:39:53Z</time>
      </trkpt>
      <trkpt lat="44.44146" lon="1.13585">
        <ele>129</ele>
        <time>2009-02-01T07:39:56Z</time>
      </trkpt>
      <trkpt lat="44.44149" lon="1.13579">
        <ele>131</ele>
        <time>2009-02-01T07:40:00Z</time>
      </trkpt>
      <trkpt lat="44.44151" lon="1.13572">
        <ele>131</ele>
        <time>2009-02-01T07:40:03Z</time>
      </trkpt>
      <trkpt lat="44.4415" lon="1.13565">
        <ele>131</ele>
        <time>2009-02-01T07:40:08Z</time>
      </trkpt>
      <trkpt lat="44.4415" lon="1.13559">
        <ele>132</ele>
        <time>2009-02-01T07:40:11Z</time>
      </trkpt>
      <trkpt lat="44.44151" lon="1.13553">
        <ele>132</ele>
        <time>2009-02-01T07:40:14Z</time>
      </trkpt>
      <trkpt lat="44.44154" lon="1.13546">
        <ele>132</ele>
        <time>2009-02-01T07:40:17Z</time>
      </trkpt>
      <trkpt lat="44.44155" lon="1.1354">
        <ele>133</ele>
        <time>2009-02-01T07:40:20Z</time>
      </trkpt>
      <trkpt lat="44.44156" lon="1.13535">
        <ele>133</ele>
        <time>2009-02-01T07:40:23Z</time>
      </trkpt>
      <trkpt lat="44.44156" lon="1.1353">
        <ele>133</ele>
        <time>2009-02-01T07:40:26Z</time>
      </trkpt>
      <trkpt lat="44.44156" lon="1.13524">
        <ele>133</ele>
        <time>2009-02-01T07:40:29Z</time>
      </trkpt>
      <trkpt lat="44.44159" lon="1.13518">
        <ele>132</ele>
        <time>2009-02-01T07:40:32Z</time>
      </trkpt>
      <trkpt lat="44.44163" lon="1.13511">
        <ele>131</ele>
        <time>2009-02-01T07:40:35Z</time>
      </trkpt>
      <trkpt lat="44.44165" lon="1.13506">
        <ele>130</ele>
        <time>2009-02-01T07:40:38Z</time>
      </trkpt>
      <trkpt lat="44.44166" lon="1.135">
        <ele>130</ele>
        <time>2009-02-01T07:40:41Z</time>
      </trkpt>
      <trkpt lat="44.44167" lon="1.13495">
        <ele>129</ele>
        <time>2009-02-01T07:40:44Z</time>
      </trkpt>
      <trkpt lat="44.44168" lon="1.13491">
        <ele>129</ele>
        <time>2009-02-01T07:40:47Z</time>
      </trkpt>
      <trkpt lat="44.44168" lon="1.13485">
        <ele>129</ele>
        <time>2009-02-01T07:40:50Z</time>
      </trkpt>
      <trkpt lat="44.44168" lon="1.13479">
        <ele>128</ele>
        <time>2009-02-01T07:40:53Z</time>
      </trkpt>
      <trkpt lat="44.44169" lon="1.13473">
        <ele>128</ele>
        <time>2009-02-01T07:40:56Z</time>
      </trkpt>
      <trkpt lat="44.44169" lon="1.13468">
        <ele>127</ele>
        <time>2009-02-01T07:40:59Z</time>
      </trkpt>
      <trkpt lat="44.4417" lon="1.13462">
        <ele>127</ele>
        <time>2009-02-01T07:41:02Z</time>
      </trkpt>
      <trkpt lat="44.44171" lon="1.13458">
        <ele>127</ele>
        <time>2009-02-01T07:41:05Z</time>
      </trkpt>
      <trkpt lat="44.44173" lon="1.13453">
        <ele>126</ele>
        <time>2009-02-01T07:41:08Z</time>
      </trkpt>
      <trkpt lat="44.44174" lon="1.13446">
        <ele>125</ele>
        <time>2009-02-01T07:41:12Z</time>
      </trkpt>
      <trkpt lat="44.44174" lon="1.13441">
        <ele>124</ele>
        <time>2009-02-01T07:41:15Z</time>
      </trkpt>
      <trkpt lat="44.44176" lon="1.13435">
        <ele>124</ele>
        <time>2009-02-01T07:41:19Z</time>
      </trkpt>
      <trkpt lat="44.44175" lon="1.1343">
        <ele>124</ele>
        <time>2009-02-01T07:41:22Z</time>
      </trkpt>
      <trkpt lat="44.44176" lon="1.13423">
        <ele>124</ele>
        <time>2009-02-01T07:41:25Z</time>
      </trkpt>
      <trkpt lat="44.44176" lon="1.13417">
        <ele>123</ele>
        <time>2009-02-01T07:41:28Z</time>
      </trkpt>
      <trkpt lat="44.44178" lon="1.13411">
        <ele>123</ele>
        <time>2009-02-01T07:41:31Z</time>
      </trkpt>
      <trkpt lat="44.44179" lon="1.13405">
        <ele>123</ele>
        <time>2009-02-01T07:41:34Z</time>
      </trkpt>
      <trkpt lat="44.44181" lon="1.13399">
        <ele>123</ele>
        <time>2009-02-01T07:41:37Z</time>
      </trkpt>
      <trkpt lat="44.44183" lon="1.13393">
        <ele>123</ele>
        <time>2009-02-01T07:41:40Z</time>
      </trkpt>
      <trkpt lat="44.44184" lon="1.13389">
        <ele>123</ele>
        <time>2009-02-01T07:41:43Z</time>
      </trkpt>
      <trkpt lat="44.44186" lon="1.13384">
        <ele>123</ele>
        <time>2009-02-01T07:41:46Z</time>
      </trkpt>
      <trkpt lat="44.44188" lon="1.13377">
        <ele>123</ele>
        <time>2009-02-01T07:41:51Z</time>
      </trkpt>
      <trkpt lat="44.4419" lon="1.13373">
        <ele>123</ele>
        <time>2009-02-01T07:41:54Z</time>
      </trkpt>
      <trkpt lat="44.4419" lon="1.13367">
        <ele>123</ele>
        <time>2009-02-01T07:41:57Z</time>
      </trkpt>
      <trkpt lat="44.4419" lon="1.13361">
        <ele>124</ele>
        <time>2009-02-01T07:42:00Z</time>
      </trkpt>
      <trkpt lat="44.4419" lon="1.13355">
        <ele>124</ele>
        <time>2009-02-01T07:42:03Z</time>
      </trkpt>
      <trkpt lat="44.44189" lon="1.1335">
        <ele>124</ele>
        <time>2009-02-01T07:42:06Z</time>
      </trkpt>
      <trkpt lat="44.44187" lon="1.13344">
        <ele>124</ele>
        <time>2009-02-01T07:42:09Z</time>
      </trkpt>
      <trkpt lat="44.44188" lon="1.13337">
        <ele>124</ele>
        <time>2009-02-01T07:42:12Z</time>
      </trkpt>
      <trkpt lat="44.44189" lon="1.13333">
        <ele>124</ele>
        <time>2009-02-01T07:42:15Z</time>
      </trkpt>
      <trkpt lat="44.44189" lon="1.13327">
        <ele>125</ele>
        <time>2009-02-01T07:42:18Z</time>
      </trkpt>
      <trkpt lat="44.44189" lon="1.13322">
        <ele>126</ele>
        <time>2009-02-01T07:42:21Z</time>
      </trkpt>
      <trkpt lat="44.44189" lon="1.13316">
        <ele>127</ele>
        <time>2009-02-01T07:42:25Z</time>
      </trkpt>
      <trkpt lat="44.44188" lon="1.1331">
        <ele>128</ele>
        <time>2009-02-01T07:42:28Z</time>
      </trkpt>
      <trkpt lat="44.44187" lon="1.13304">
        <ele>128</ele>
        <time>2009-02-01T07:42:31Z</time>
      </trkpt>
      <trkpt lat="44.44189" lon="1.13298">
        <ele>129</ele>
        <time>2009-02-01T07:42:34Z</time>
      </trkpt>
      <trkpt lat="44.44193" lon="1.13293">
        <ele>132</ele>
        <time>2009-02-01T07:42:37Z</time>
      </trkpt>
      <trkpt lat="44.44196" lon="1.13287">
        <ele>135</ele>
        <time>2009-02-01T07:42:40Z</time>
      </trkpt>
      <trkpt lat="44.44198" lon="1.13281">
        <ele>138</ele>
        <time>2009-02-01T07:42:43Z</time>
      </trkpt>
      <trkpt lat="44.44201" lon="1.1327">
        <ele>140</ele>
        <time>2009-02-01T07:42:46Z</time>
      </trkpt>
      <trkpt lat="44.44203" lon="1.13264">
        <ele>140</ele>
        <time>2009-02-01T07:42:49Z</time>
      </trkpt>
      <trkpt lat="44.44205" lon="1.13258">
        <ele>140</ele>
        <time>2009-02-01T07:42:52Z</time>
      </trkpt>
      <trkpt lat="44.44204" lon="1.13252">
        <ele>140</ele>
        <time>2009-02-01T07:42:55Z</time>
      </trkpt>
      <trkpt lat="44.44205" lon="1.13247">
        <ele>140</ele>
        <time>2009-02-01T07:42:59Z</time>
      </trkpt>
      <trkpt lat="44.44206" lon="1.13241">
        <ele>141</ele>
        <time>2009-02-01T07:43:02Z</time>
      </trkpt>
      <trkpt lat="44.44207" lon="1.13234">
        <ele>142</ele>
        <time>2009-02-01T07:43:05Z</time>
      </trkpt>
      <trkpt lat="44.44208" lon="1.13227">
        <ele>142</ele>
        <time>2009-02-01T07:43:08Z</time>
      </trkpt>
      <trkpt lat="44.44209" lon="1.13221">
        <ele>142</ele>
        <time>2009-02-01T07:43:11Z</time>
      </trkpt>
      <trkpt lat="44.44207" lon="1.13215">
        <ele>142</ele>
        <time>2009-02-01T07:43:14Z</time>
      </trkpt>
      <trkpt lat="44.44207" lon="1.13209">
        <ele>142</ele>
        <time>2009-02-01T07:43:18Z</time>
      </trkpt>
      <trkpt lat="44.44207" lon="1.13203">
        <ele>142</ele>
        <time>2009-02-01T07:43:21Z</time>
      </trkpt>
      <trkpt lat="44.44208" lon="1.13197">
        <ele>142</ele>
        <time>2009-02-01T07:43:24Z</time>
      </trkpt>
      <trkpt lat="44.44208" lon="1.13191">
        <ele>142</ele>
        <time>2009-02-01T07:43:27Z</time>
      </trkpt>
      <trkpt lat="44.44208" lon="1.13185">
        <ele>142</ele>
        <time>2009-02-01T07:43:30Z</time>
      </trkpt>
      <trkpt lat="44.44209" lon="1.1318">
        <ele>142</ele>
        <time>2009-02-01T07:43:33Z</time>
      </trkpt>
      <trkpt lat="44.4421" lon="1.13174">
        <ele>142</ele>
        <time>2009-02-01T07:43:36Z</time>
      </trkpt>
      <trkpt lat="44.4421" lon="1.13169">
        <ele>142</ele>
        <time>2009-02-01T07:43:39Z</time>
      </trkpt>
      <trkpt lat="44.44208" lon="1.13163">
        <ele>143</ele>
        <time>2009-02-01T07:43:42Z</time>
      </trkpt>
      <trkpt lat="44.44209" lon="1.13157">
        <ele>143</ele>
        <time>2009-02-01T07:43:46Z</time>
      </trkpt>
      <trkpt lat="44.44209" lon="1.13153">
        <ele>143</ele>
        <time>2009-02-01T07:43:49Z</time>
      </trkpt>
      <trkpt lat="44.44208" lon="1.13147">
        <ele>144</ele>
        <time>2009-02-01T07:43:52Z</time>
      </trkpt>
      <trkpt lat="44.44206" lon="1.13142">
        <ele>144</ele>
        <time>2009-02-01T07:43:55Z</time>
      </trkpt>
      <trkpt lat="44.44204" lon="1.13137">
        <ele>144</ele>
        <time>2009-02-01T07:43:58Z</time>
      </trkpt>
      <trkpt lat="44.44203" lon="1.13131">
        <ele>144</ele>
        <time>2009-02-01T07:44:02Z</time>
      </trkpt>
      <trkpt lat="44.44201" lon="1.13126">
        <ele>144</ele>
        <time>2009-02-01T07:44:05Z</time>
      </trkpt>
      <trkpt lat="44.44198" lon="1.13119">
        <ele>144</ele>
        <time>2009-02-01T07:44:09Z</time>
      </trkpt>
      <trkpt lat="44.44196" lon="1.1312">
        <ele>144</ele>
        <time>2009-02-01T07:44:14Z</time>
      </trkpt>
      <trkpt lat="44.44197" lon="1.13122">
        <ele>144</ele>
        <time>2009-02-01T07:44:17Z</time>
      </trkpt>
      <trkpt lat="44.44197" lon="1.13126">
        <ele>145</ele>
        <time>2009-02-01T07:44:20Z</time>
      </trkpt>
      <trkpt lat="44.44197" lon="1.1313">
        <ele>146</ele>
        <time>2009-02-01T07:44:23Z</time>
      </trkpt>
      <trkpt lat="44.44197" lon="1.13135">
        <ele>147</ele>
        <time>2009-02-01T07:44:27Z</time>
      </trkpt>
      <trkpt lat="44.44197" lon="1.13139">
        <ele>148</ele>
        <time>2009-02-01T07:44:31Z</time>
      </trkpt>
      <trkpt lat="44.44194" lon="1.13144">
        <ele>149</ele>
        <time>2009-02-01T07:44:36Z</time>
      </trkpt>
      <trkpt lat="44.44189" lon="1.1315">
        <ele>149</ele>
        <time>2009-02-01T07:44:39Z</time>
      </trkpt>
      <trkpt lat="44.44187" lon="1.13154">
        <ele>149</ele>
        <time>2009-02-01T07:44:42Z</time>
      </trkpt>
      <trkpt lat="44.44187" lon="1.13158">
        <ele>149</ele>
        <time>2009-02-01T07:44:45Z</time>
      </trkpt>
      <trkpt lat="44.44186" lon="1.13162">
        <ele>149</ele>
        <time>2009-02-01T07:44:48Z</time>
      </trkpt>
      <trkpt lat="44.44185" lon="1.13167">
        <ele>149</ele>
        <time>2009-02-01T07:44:52Z</time>
      </trkpt>
      <trkpt lat="44.44183" lon="1.13172">
        <ele>149</ele>
        <time>2009-02-01T07:44:56Z</time>
      </trkpt>
      <trkpt lat="44.44181" lon="1.13178">
        <ele>149</ele>
        <time>2009-02-01T07:45:01Z</time>
      </trkpt>
      <trkpt lat="44.44178" lon="1.13184">
        <ele>149</ele>
        <time>2009-02-01T07:45:04Z</time>
      </trkpt>
      <trkpt lat="44.44176" lon="1.13189">
        <ele>149</ele>
        <time>2009-02-01T07:45:07Z</time>
      </trkpt>
      <trkpt lat="44.44175" lon="1.13194">
        <ele>149</ele>
        <time>2009-02-01T07:45:11Z</time>
      </trkpt>
      <trkpt lat="44.44173" lon="1.13198">
        <ele>149</ele>
        <time>2009-02-01T07:45:14Z</time>
      </trkpt>
      <trkpt lat="44.44172" lon="1.13204">
        <ele>149</ele>
        <time>2009-02-01T07:45:17Z</time>
      </trkpt>
      <trkpt lat="44.4417" lon="1.1321">
        <ele>150</ele>
        <time>2009-02-01T07:45:20Z</time>
      </trkpt>
      <trkpt lat="44.44167" lon="1.13216">
        <ele>150</ele>
        <time>2009-02-01T07:45:24Z</time>
      </trkpt>
      <trkpt lat="44.44165" lon="1.13218">
        <ele>151</ele>
        <time>2009-02-01T07:45:27Z</time>
      </trkpt>
      <trkpt lat="44.44161" lon="1.13214">
        <ele>152</ele>
        <time>2009-02-01T07:45:32Z</time>
      </trkpt>
      <trkpt lat="44.44161" lon="1.1321">
        <ele>153</ele>
        <time>2009-02-01T07:45:35Z</time>
      </trkpt>
      <trkpt lat="44.4416" lon="1.13206">
        <ele>155</ele>
        <time>2009-02-01T07:45:39Z</time>
      </trkpt>
      <trkpt lat="44.4416" lon="1.13201">
        <ele>156</ele>
        <time>2009-02-01T07:45:44Z</time>
      </trkpt>
      <trkpt lat="44.44161" lon="1.13197">
        <ele>158</ele>
        <time>2009-02-01T07:45:48Z</time>
      </trkpt>
      <trkpt lat="44.44161" lon="1.13193">
        <ele>159</ele>
        <time>2009-02-01T07:45:51Z</time>
      </trkpt>
      <trkpt lat="44.4416" lon="1.13187">
        <ele>159</ele>
        <time>2009-02-01T07:45:54Z</time>
      </trkpt>
      <trkpt lat="44.44159" lon="1.13181">
        <ele>159</ele>
        <time>2009-02-01T07:45:59Z</time>
      </trkpt>
      <trkpt lat="44.44159" lon="1.13175">
        <ele>160</ele>
        <time>2009-02-01T07:46:02Z</time>
      </trkpt>
      <trkpt lat="44.44158" lon="1.1317">
        <ele>160</ele>
        <time>2009-02-01T07:46:05Z</time>
      </trkpt>
      <trkpt lat="44.44159" lon="1.13163">
        <ele>162</ele>
        <time>2009-02-01T07:46:09Z</time>
      </trkpt>
      <trkpt lat="44.44158" lon="1.13156">
        <ele>163</ele>
        <time>2009-02-01T07:46:13Z</time>
      </trkpt>
      <trkpt lat="44.44156" lon="1.13152">
        <ele>163</ele>
        <time>2009-02-01T07:46:16Z</time>
      </trkpt>
      <trkpt lat="44.44155" lon="1.13146">
        <ele>163</ele>
        <time>2009-02-01T07:46:19Z</time>
      </trkpt>
      <trkpt lat="44.44153" lon="1.13141">
        <ele>163</ele>
        <time>2009-02-01T07:46:22Z</time>
      </trkpt>
      <trkpt lat="44.44151" lon="1.13135">
        <ele>163</ele>
        <time>2009-02-01T07:46:25Z</time>
      </trkpt>
      <trkpt lat="44.44151" lon="1.1313">
        <ele>163</ele>
        <time>2009-02-01T07:46:28Z</time>
      </trkpt>
      <trkpt lat="44.4415" lon="1.13126">
        <ele>163</ele>
        <time>2009-02-01T07:46:31Z</time>
      </trkpt>
      <trkpt lat="44.44147" lon="1.1312">
        <ele>163</ele>
        <time>2009-02-01T07:46:35Z</time>
      </trkpt>
      <trkpt lat="44.44146" lon="1.13122">
        <ele>163</ele>
        <time>2009-02-01T07:46:39Z</time>
      </trkpt>
      <trkpt lat="44.44148" lon="1.13127">
        <ele>163</ele>
        <time>2009-02-01T07:46:43Z</time>
      </trkpt>
      <trkpt lat="44.44149" lon="1.1313">
        <ele>163</ele>
        <time>2009-02-01T07:46:46Z</time>
      </trkpt>
      <trkpt lat="44.44149" lon="1.13134">
        <ele>163</ele>
        <time>2009-02-01T07:46:50Z</time>
      </trkpt>
      <trkpt lat="44.4415" lon="1.1314">
        <ele>163</ele>
        <time>2009-02-01T07:46:54Z</time>
      </trkpt>
      <trkpt lat="44.44151" lon="1.13145">
        <ele>163</ele>
        <time>2009-02-01T07:46:57Z</time>
      </trkpt>
      <trkpt lat="44.44151" lon="1.13151">
        <ele>163</ele>
        <time>2009-02-01T07:47:00Z</time>
      </trkpt>
      <trkpt lat="44.4415" lon="1.13157">
        <ele>163</ele>
        <time>2009-02-01T07:47:03Z</time>
      </trkpt>
      <trkpt lat="44.44148" lon="1.13163">
        <ele>163</ele>
        <time>2009-02-01T07:47:07Z</time>
      </trkpt>
      <trkpt lat="44.44145" lon="1.13169">
        <ele>163</ele>
        <time>2009-02-01T07:47:11Z</time>
      </trkpt>
      <trkpt lat="44.44143" lon="1.13173">
        <ele>163</ele>
        <time>2009-02-01T07:47:14Z</time>
      </trkpt>
      <trkpt lat="44.4414" lon="1.13177">
        <ele>163</ele>
        <time>2009-02-01T07:47:17Z</time>
      </trkpt>
      <trkpt lat="44.44138" lon="1.13183">
        <ele>163</ele>
        <time>2009-02-01T07:47:21Z</time>
      </trkpt>
      <trkpt lat="44.44137" lon="1.13188">
        <ele>163</ele>
        <time>2009-02-01T07:47:24Z</time>
      </trkpt>
      <trkpt lat="44.44135" lon="1.13194">
        <ele>164</ele>
        <time>2009-02-01T07:47:28Z</time>
      </trkpt>
      <trkpt lat="44.44133" lon="1.13198">
        <ele>165</ele>
        <time>2009-02-01T07:47:31Z</time>
      </trkpt>
      <trkpt lat="44.44131" lon="1.13203">
        <ele>165</ele>
        <time>2009-02-01T07:47:34Z</time>
      </trkpt>
      <trkpt lat="44.44127" lon="1.13207">
        <ele>165</ele>
        <time>2009-02-01T07:47:37Z</time>
      </trkpt>
      <trkpt lat="44.44122" lon="1.13209">
        <ele>165</ele>
        <time>2009-02-01T07:47:40Z</time>
      </trkpt>
      <trkpt lat="44.44117" lon="1.13207">
        <ele>165</ele>
        <time>2009-02-01T07:47:44Z</time>
      </trkpt>
      <trkpt lat="44.44116" lon="1.13203">
        <ele>165</ele>
        <time>2009-02-01T07:47:47Z</time>
      </trkpt>
      <trkpt lat="44.44114" lon="1.13197">
        <ele>165</ele>
        <time>2009-02-01T07:47:51Z</time>
      </trkpt>
      <trkpt lat="44.44114" lon="1.13193">
        <ele>165</ele>
        <time>2009-02-01T07:47:54Z</time>
      </trkpt>
      <trkpt lat="44.44114" lon="1.13188">
        <ele>166</ele>
        <time>2009-02-01T07:47:58Z</time>
      </trkpt>
      <trkpt lat="44.44114" lon="1.13183">
        <ele>167</ele>
        <time>2009-02-01T07:48:02Z</time>
      </trkpt>
      <trkpt lat="44.44114" lon="1.13178">
        <ele>168</ele>
        <time>2009-02-01T07:48:05Z</time>
      </trkpt>
      <trkpt lat="44.44115" lon="1.13173">
        <ele>168</ele>
        <time>2009-02-01T07:48:08Z</time>
      </trkpt>
      <trkpt lat="44.44113" lon="1.13168">
        <ele>169</ele>
        <time>2009-02-01T07:48:11Z</time>
      </trkpt>
      <trkpt lat="44.44112" lon="1.13162">
        <ele>169</ele>
        <time>2009-02-01T07:48:14Z</time>
      </trkpt>
      <trkpt lat="44.4411" lon="1.13157">
        <ele>169</ele>
        <time>2009-02-01T07:48:17Z</time>
      </trkpt>
      <trkpt lat="44.44108" lon="1.13152">
        <ele>169</ele>
        <time>2009-02-01T07:48:21Z</time>
      </trkpt>
      <trkpt lat="44.44107" lon="1.13145">
        <ele>169</ele>
        <time>2009-02-01T07:48:26Z</time>
      </trkpt>
      <trkpt lat="44.44105" lon="1.1314">
        <ele>169</ele>
        <time>2009-02-01T07:48:29Z</time>
      </trkpt>
      <trkpt lat="44.44103" lon="1.13136">
        <ele>169</ele>
        <time>2009-02-01T07:48:32Z</time>
      </trkpt>
      <trkpt lat="44.441" lon="1.13129">
        <ele>169</ele>
        <time>2009-02-01T07:48:36Z</time>
      </trkpt>
      <trkpt lat="44.44101" lon="1.13124">
        <ele>169</ele>
        <time>2009-02-01T07:48:39Z</time>
      </trkpt>
      <trkpt lat="44.441" lon="1.13119">
        <ele>169</ele>
        <time>2009-02-01T07:48:42Z</time>
      </trkpt>
      <trkpt lat="44.44099" lon="1.13114">
        <ele>169</ele>
        <time>2009-02-01T07:48:45Z</time>
      </trkpt>
      <trkpt lat="44.44099" lon="1.13109">
        <ele>169</ele>
        <time>2009-02-01T07:48:48Z</time>
      </trkpt>
      <trkpt lat="44.44099" lon="1.13103">
        <ele>169</ele>
        <time>2009-02-01T07:48:51Z</time>
      </trkpt>
      <trkpt lat="44.44099" lon="1.13098">
        <ele>169</ele>
        <time>2009-02-01T07:48:54Z</time>
      </trkpt>
      <trkpt lat="44.44098" lon="1.13094">
        <ele>169</ele>
        <time>2009-02-01T07:48:57Z</time>
      </trkpt>
      <trkpt lat="44.44098" lon="1.13088">
        <ele>169</ele>
        <time>2009-02-01T07:49:00Z</time>
      </trkpt>
      <trkpt lat="44.44099" lon="1.13084">
        <ele>169</ele>
        <time>2009-02-01T07:49:03Z</time>
      </trkpt>
      <trkpt lat="44.44098" lon="1.13079">
        <ele>169</ele>
        <time>2009-02-01T07:49:08Z</time>
      </trkpt>
      <trkpt lat="44.44098" lon="1.13075">
        <ele>170</ele>
        <time>2009-02-01T07:49:11Z</time>
      </trkpt>
      <trkpt lat="44.44098" lon="1.13068">
        <ele>170</ele>
        <time>2009-02-01T07:49:15Z</time>
      </trkpt>
      <trkpt lat="44.44097" lon="1.13063">
        <ele>170</ele>
        <time>2009-02-01T07:49:18Z</time>
      </trkpt>
      <trkpt lat="44.44095" lon="1.13058">
        <ele>171</ele>
        <time>2009-02-01T07:49:21Z</time>
      </trkpt>
      <trkpt lat="44.44094" lon="1.13054">
        <ele>172</ele>
        <time>2009-02-01T07:49:24Z</time>
      </trkpt>
      <trkpt lat="44.44094" lon="1.13049">
        <ele>173</ele>
        <time>2009-02-01T07:49:27Z</time>
      </trkpt>
      <trkpt lat="44.44093" lon="1.13045">
        <ele>173</ele>
        <time>2009-02-01T07:49:30Z</time>
      </trkpt>
      <trkpt lat="44.44092" lon="1.1304">
        <ele>175</ele>
        <time>2009-02-01T07:49:35Z</time>
      </trkpt>
      <trkpt lat="44.44091" lon="1.13036">
        <ele>176</ele>
        <time>2009-02-01T07:49:38Z</time>
      </trkpt>
      <trkpt lat="44.4409" lon="1.1303">
        <ele>176</ele>
        <time>2009-02-01T07:49:41Z</time>
      </trkpt>
      <trkpt lat="44.4409" lon="1.13026">
        <ele>176</ele>
        <time>2009-02-01T07:49:44Z</time>
      </trkpt>
      <trkpt lat="44.44088" lon="1.13022">
        <ele>176</ele>
        <time>2009-02-01T07:49:48Z</time>
      </trkpt>
      <trkpt lat="44.44086" lon="1.13017">
        <ele>178</ele>
        <time>2009-02-01T07:49:53Z</time>
      </trkpt>
      <trkpt lat="44.44085" lon="1.13013">
        <ele>179</ele>
        <time>2009-02-01T07:49:56Z</time>
      </trkpt>
      <trkpt lat="44.44085" lon="1.13009">
        <ele>179</ele>
        <time>2009-02-01T07:49:59Z</time>
      </trkpt>
      <trkpt lat="44.44084" lon="1.13005">
        <ele>180</ele>
        <time>2009-02-01T07:50:02Z</time>
      </trkpt>
      <trkpt lat="44.44083" lon="1.13001">
        <ele>181</ele>
        <time>2009-02-01T07:50:05Z</time>
      </trkpt>
      <trkpt lat="44.44081" lon="1.12997">
        <ele>181</ele>
        <time>2009-02-01T07:50:09Z</time>
      </trkpt>
      <trkpt lat="44.44079" lon="1.12992">
        <ele>181</ele>
        <time>2009-02-01T07:50:14Z</time>
      </trkpt>
      <trkpt lat="44.44079" lon="1.12988">
        <ele>181</ele>
        <time>2009-02-01T07:50:17Z</time>
      </trkpt>
      <trkpt lat="44.44078" lon="1.12983">
        <ele>182</ele>
        <time>2009-02-01T07:50:21Z</time>
      </trkpt>
      <trkpt lat="44.44076" lon="1.12978">
        <ele>182</ele>
        <time>2009-02-01T07:50:26Z</time>
      </trkpt>
      <trkpt lat="44.44074" lon="1.12973">
        <ele>182</ele>
        <time>2009-02-01T07:50:29Z</time>
      </trkpt>
      <trkpt lat="44.44073" lon="1.12967">
        <ele>182</ele>
        <time>2009-02-01T07:50:32Z</time>
      </trkpt>
      <trkpt lat="44.4407" lon="1.12962">
        <ele>182</ele>
        <time>2009-02-01T07:50:36Z</time>
      </trkpt>
      <trkpt lat="44.44067" lon="1.12958">
        <ele>182</ele>
        <time>2009-02-01T07:50:39Z</time>
      </trkpt>
      <trkpt lat="44.44066" lon="1.12953">
        <ele>182</ele>
        <time>2009-02-01T07:50:42Z</time>
      </trkpt>
      <trkpt lat="44.44064" lon="1.12948">
        <ele>182</ele>
        <time>2009-02-01T07:50:45Z</time>
      </trkpt>
      <trkpt lat="44.44065" lon="1.12944">
        <ele>182</ele>
        <time>2009-02-01T07:50:48Z</time>
      </trkpt>
      <trkpt lat="44.44064" lon="1.1294">
        <ele>182</ele>
        <time>2009-02-01T07:50:51Z</time>
      </trkpt>
      <trkpt lat="44.44063" lon="1.12935">
        <ele>182</ele>
        <time>2009-02-01T07:50:54Z</time>
      </trkpt>
      <trkpt lat="44.44062" lon="1.12929">
        <ele>182</ele>
        <time>2009-02-01T07:50:59Z</time>
      </trkpt>
      <trkpt lat="44.4406" lon="1.12924">
        <ele>183</ele>
        <time>2009-02-01T07:51:02Z</time>
      </trkpt>
      <trkpt lat="44.4406" lon="1.1292">
        <ele>183</ele>
        <time>2009-02-01T07:51:05Z</time>
      </trkpt>
      <trkpt lat="44.4406" lon="1.12915">
        <ele>184</ele>
        <time>2009-02-01T07:51:08Z</time>
      </trkpt>
      <trkpt lat="44.44059" lon="1.12911">
        <ele>186</ele>
        <time>2009-02-01T07:51:11Z</time>
      </trkpt>
      <trkpt lat="44.44059" lon="1.12905">
        <ele>187</ele>
        <time>2009-02-01T07:51:14Z</time>
      </trkpt>
      <trkpt lat="44.44059" lon="1.12899">
        <ele>187</ele>
        <time>2009-02-01T07:51:17Z</time>
      </trkpt>
      <trkpt lat="44.44058" lon="1.12894">
        <ele>188</ele>
        <time>2009-02-01T07:51:20Z</time>
      </trkpt>
      <trkpt lat="44.44056" lon="1.1289">
        <ele>189</ele>
        <time>2009-02-01T07:51:24Z</time>
      </trkpt>
      <trkpt lat="44.44055" lon="1.12885">
        <ele>190</ele>
        <time>2009-02-01T07:51:27Z</time>
      </trkpt>
      <trkpt lat="44.44054" lon="1.1288">
        <ele>190</ele>
        <time>2009-02-01T07:51:30Z</time>
      </trkpt>
      <trkpt lat="44.44054" lon="1.12873">
        <ele>191</ele>
        <time>2009-02-01T07:51:33Z</time>
      </trkpt>
      <trkpt lat="44.44053" lon="1.12868">
        <ele>191</ele>
        <time>2009-02-01T07:51:36Z</time>
      </trkpt>
      <trkpt lat="44.44053" lon="1.12863">
        <ele>192</ele>
        <time>2009-02-01T07:51:39Z</time>
      </trkpt>
      <trkpt lat="44.44052" lon="1.12858">
        <ele>193</ele>
        <time>2009-02-01T07:51:42Z</time>
      </trkpt>
      <trkpt lat="44.44052" lon="1.12853">
        <ele>195</ele>
        <time>2009-02-01T07:51:47Z</time>
      </trkpt>
      <trkpt lat="44.44052" lon="1.12848">
        <ele>196</ele>
        <time>2009-02-01T07:51:50Z</time>
      </trkpt>
      <trkpt lat="44.44052" lon="1.12843">
        <ele>197</ele>
        <time>2009-02-01T07:51:53Z</time>
      </trkpt>
      <trkpt lat="44.44051" lon="1.12837">
        <ele>197</ele>
        <time>2009-02-01T07:51:57Z</time>
      </trkpt>
      <trkpt lat="44.4405" lon="1.12832">
        <ele>197</ele>
        <time>2009-02-01T07:52:00Z</time>
      </trkpt>
      <trkpt lat="44.4405" lon="1.12826">
        <ele>197</ele>
        <time>2009-02-01T07:52:03Z</time>
      </trkpt>
      <trkpt lat="44.44049" lon="1.12821">
        <ele>197</ele>
        <time>2009-02-01T07:52:06Z</time>
      </trkpt>
      <trkpt lat="44.44049" lon="1.12817">
        <ele>197</ele>
        <time>2009-02-01T07:52:11Z</time>
      </trkpt>
      <trkpt lat="44.4405" lon="1.12816">
        <ele>197</ele>
        <time>2009-02-01T07:52:14Z</time>
      </trkpt>
      <trkpt lat="44.44051" lon="1.12814">
        <ele>197</ele>
        <time>2009-02-01T07:52:20Z</time>
      </trkpt>
      <trkpt lat="44.44051" lon="1.12812">
        <ele>197</ele>
        <time>2009-02-01T07:52:29Z</time>
      </trkpt>
      <trkpt lat="44.4405" lon="1.12808">
        <ele>198</ele>
        <time>2009-02-01T07:52:35Z</time>
      </trkpt>
      <trkpt lat="44.4405" lon="1.1281">
        <ele>199</ele>
        <time>2009-02-01T07:52:47Z</time>
      </trkpt>
      <trkpt lat="44.44049" lon="1.12811">
        <ele>200</ele>
        <time>2009-02-01T07:52:51Z</time>
      </trkpt>
      <trkpt lat="44.44049" lon="1.12813">
        <ele>200</ele>
        <time>2009-02-01T07:52:57Z</time>
      </trkpt>
      <trkpt lat="44.44048" lon="1.12814">
        <ele>200</ele>
        <time>2009-02-01T07:53:06Z</time>
      </trkpt>
      <trkpt lat="44.44048" lon="1.12813">
        <ele>200</ele>
        <time>2009-02-01T07:53:15Z</time>
      </trkpt>
      <trkpt lat="44.44049" lon="1.12811">
        <ele>200</ele>
        <time>2009-02-01T07:53:18Z</time>
      </trkpt>
      <trkpt lat="44.4405" lon="1.12811">
        <ele>200</ele>
        <time>2009-02-01T07:53:26Z</time>
      </trkpt>
      <trkpt lat="44.44049" lon="1.12813">
        <ele>200</ele>
        <time>2009-02-01T07:53:35Z</time>
      </trkpt>
      <trkpt lat="44.44049" lon="1.12811">
        <ele>200</ele>
        <time>2009-02-01T07:53:41Z</time>
      </trkpt>
      <trkpt lat="44.44048" lon="1.12805">
        <ele>200</ele>
        <time>2009-02-01T07:53:45Z</time>
      </trkpt>
      <trkpt lat="44.44046" lon="1.128">
        <ele>200</ele>
        <time>2009-02-01T07:53:48Z</time>
      </trkpt>
      <trkpt lat="44.44046" lon="1.12795">
        <ele>200</ele>
        <time>2009-02-01T07:53:51Z</time>
      </trkpt>
      <trkpt lat="44.44046" lon="1.12789">
        <ele>200</ele>
        <time>2009-02-01T07:53:54Z</time>
      </trkpt>
      <trkpt lat="44.44047" lon="1.12781">
        <ele>200</ele>
        <time>2009-02-01T07:53:59Z</time>
      </trkpt>
      <trkpt lat="44.44046" lon="1.12774">
        <ele>200</ele>
        <time>2009-02-01T07:54:02Z</time>
      </trkpt>
      <trkpt lat="44.44045" lon="1.12768">
        <ele>200</ele>
        <time>2009-02-01T07:54:05Z</time>
      </trkpt>
      <trkpt lat="44.44045" lon="1.12762">
        <ele>200</ele>
        <time>2009-02-01T07:54:08Z</time>
      </trkpt>
      <trkpt lat="44.44045" lon="1.12754">
        <ele>200</ele>
        <time>2009-02-01T07:54:11Z</time>
      </trkpt>
      <trkpt lat="44.44045" lon="1.12747">
        <ele>200</ele>
        <time>2009-02-01T07:54:14Z</time>
      </trkpt>
      <trkpt lat="44.44045" lon="1.12739">
        <ele>200</ele>
        <time>2009-02-01T07:54:17Z</time>
      </trkpt>
      <trkpt lat="44.44045" lon="1.1273">
        <ele>200</ele>
        <time>2009-02-01T07:54:20Z</time>
      </trkpt>
      <trkpt lat="44.44044" lon="1.12722">
        <ele>200</ele>
        <time>2009-02-01T07:54:23Z</time>
      </trkpt>
      <trkpt lat="44.44044" lon="1.12714">
        <ele>200</ele>
        <time>2009-02-01T07:54:26Z</time>
      </trkpt>
      <trkpt lat="44.44044" lon="1.12705">
        <ele>200</ele>
        <time>2009-02-01T07:54:29Z</time>
      </trkpt>
      <trkpt lat="44.44044" lon="1.12697">
        <ele>200</ele>
        <time>2009-02-01T07:54:32Z</time>
      </trkpt>
      <trkpt lat="44.44044" lon="1.12687">
        <ele>200</ele>
        <time>2009-02-01T07:54:35Z</time>
      </trkpt>
      <trkpt lat="44.44044" lon="1.12678">
        <ele>200</ele>
        <time>2009-02-01T07:54:38Z</time>
      </trkpt>
      <trkpt lat="44.44044" lon="1.1267">
        <ele>200</ele>
        <time>2009-02-01T07:54:41Z</time>
      </trkpt>
      <trkpt lat="44.44043" lon="1.12662">
        <ele>200</ele>
        <time>2009-02-01T07:54:44Z</time>
      </trkpt>
      <trkpt lat="44.44042" lon="1.12654">
        <ele>200</ele>
        <time>2009-02-01T07:54:47Z</time>
      </trkpt>
      <trkpt lat="44.44041" lon="1.12647">
        <ele>200</ele>
        <time>2009-02-01T07:54:50Z</time>
      </trkpt>
      <trkpt lat="44.4404" lon="1.1264">
        <ele>200</ele>
        <time>2009-02-01T07:54:53Z</time>
      </trkpt>
      <trkpt lat="44.44039" lon="1.12634">
        <ele>200</ele>
        <time>2009-02-01T07:54:56Z</time>
      </trkpt>
      <trkpt lat="44.44038" lon="1.12627">
        <ele>200</ele>
        <time>2009-02-01T07:54:59Z</time>
      </trkpt>
      <trkpt lat="44.44037" lon="1.12621">
        <ele>200</ele>
        <time>2009-02-01T07:55:02Z</time>
      </trkpt>
      <trkpt lat="44.44036" lon="1.12614">
        <ele>200</ele>
        <time>2009-02-01T07:55:05Z</time>
      </trkpt>
      <trkpt lat="44.44035" lon="1.12607">
        <ele>200</ele>
        <time>2009-02-01T07:55:08Z</time>
      </trkpt>
      <trkpt lat="44.44035" lon="1.126">
        <ele>200</ele>
        <time>2009-02-01T07:55:11Z</time>
      </trkpt>
      <trkpt lat="44.44034" lon="1.12593">
        <ele>200</ele>
        <time>2009-02-01T07:55:14Z</time>
      </trkpt>
      <trkpt lat="44.44034" lon="1.12587">
        <ele>200</ele>
        <time>2009-02-01T07:55:17Z</time>
      </trkpt>
      <trkpt lat="44.44033" lon="1.1258">
        <ele>200</ele>
        <time>2009-02-01T07:55:20Z</time>
      </trkpt>
      <trkpt lat="44.44032" lon="1.12572">
        <ele>200</ele>
        <time>2009-02-01T07:55:23Z</time>
      </trkpt>
      <trkpt lat="44.44031" lon="1.12564">
        <ele>200</ele>
        <time>2009-02-01T07:55:26Z</time>
      </trkpt>
      <trkpt lat="44.4403" lon="1.12557">
        <ele>200</ele>
        <time>2009-02-01T07:55:29Z</time>
      </trkpt>
      <trkpt lat="44.4403" lon="1.1255">
        <ele>200</ele>
        <time>2009-02-01T07:55:32Z</time>
      </trkpt>
      <trkpt lat="44.44029" lon="1.12542">
        <ele>200</ele>
        <time>2009-02-01T07:55:35Z</time>
      </trkpt>
      <trkpt lat="44.44028" lon="1.12535">
        <ele>200</ele>
        <time>2009-02-01T07:55:38Z</time>
      </trkpt>
      <trkpt lat="44.44026" lon="1.12528">
        <ele>200</ele>
        <time>2009-02-01T07:55:41Z</time>
      </trkpt>
      <trkpt lat="44.44025" lon="1.12518">
        <ele>201</ele>
        <time>2009-02-01T07:55:44Z</time>
      </trkpt>
      <trkpt lat="44.44023" lon="1.12511">
        <ele>201</ele>
        <time>2009-02-01T07:55:47Z</time>
      </trkpt>
      <trkpt lat="44.44022" lon="1.12502">
        <ele>201</ele>
        <time>2009-02-01T07:55:50Z</time>
      </trkpt>
      <trkpt lat="44.44022" lon="1.12492">
        <ele>201</ele>
        <time>2009-02-01T07:55:53Z</time>
      </trkpt>
      <trkpt lat="44.44021" lon="1.12481">
        <ele>201</ele>
        <time>2009-02-01T07:55:56Z</time>
      </trkpt>
      <trkpt lat="44.4402" lon="1.12474">
        <ele>201</ele>
        <time>2009-02-01T07:55:59Z</time>
      </trkpt>
      <trkpt lat="44.44019" lon="1.12466">
        <ele>201</ele>
        <time>2009-02-01T07:56:02Z</time>
      </trkpt>
      <trkpt lat="44.44018" lon="1.12457">
        <ele>201</ele>
        <time>2009-02-01T07:56:05Z</time>
      </trkpt>
      <trkpt lat="44.44015" lon="1.1245">
        <ele>201</ele>
        <time>2009-02-01T07:56:08Z</time>
      </trkpt>
      <trkpt lat="44.44013" lon="1.1244">
        <ele>201</ele>
        <time>2009-02-01T07:56:11Z</time>
      </trkpt>
      <trkpt lat="44.44011" lon="1.12432">
        <ele>201</ele>
        <time>2009-02-01T07:56:14Z</time>
      </trkpt>
      <trkpt lat="44.4401" lon="1.12423">
        <ele>201</ele>
        <time>2009-02-01T07:56:17Z</time>
      </trkpt>
      <trkpt lat="44.44007" lon="1.12416">
        <ele>201</ele>
        <time>2009-02-01T07:56:20Z</time>
      </trkpt>
      <trkpt lat="44.44005" lon="1.12408">
        <ele>201</ele>
        <time>2009-02-01T07:56:23Z</time>
      </trkpt>
      <trkpt lat="44.44003" lon="1.12401">
        <ele>202</ele>
        <time>2009-02-01T07:56:26Z</time>
      </trkpt>
      <trkpt lat="44.44" lon="1.12392">
        <ele>202</ele>
        <time>2009-02-01T07:56:29Z</time>
      </trkpt>
      <trkpt lat="44.43997" lon="1.12384">
        <ele>202</ele>
        <time>2009-02-01T07:56:32Z</time>
      </trkpt>
      <trkpt lat="44.43994" lon="1.12377">
        <ele>202</ele>
        <time>2009-02-01T07:56:35Z</time>
      </trkpt>
      <trkpt lat="44.43991" lon="1.12369">
        <ele>202</ele>
        <time>2009-02-01T07:56:38Z</time>
      </trkpt>
      <trkpt lat="44.4399" lon="1.1236">
        <ele>202</ele>
        <time>2009-02-01T07:56:41Z</time>
      </trkpt>
      <trkpt lat="44.4399" lon="1.12351">
        <ele>202</ele>
        <time>2009-02-01T07:56:44Z</time>
      </trkpt>
      <trkpt lat="44.43991" lon="1.12342">
        <ele>202</ele>
        <time>2009-02-01T07:56:47Z</time>
      </trkpt>
      <trkpt lat="44.43994" lon="1.12334">
        <ele>202</ele>
        <time>2009-02-01T07:56:50Z</time>
      </trkpt>
      <trkpt lat="44.43997" lon="1.12327">
        <ele>202</ele>
        <time>2009-02-01T07:56:53Z</time>
      </trkpt>
      <trkpt lat="44.44001" lon="1.12322">
        <ele>203</ele>
        <time>2009-02-01T07:56:56Z</time>
      </trkpt>
      <trkpt lat="44.44004" lon="1.12316">
        <ele>203</ele>
        <time>2009-02-01T07:56:59Z</time>
      </trkpt>
      <trkpt lat="44.44008" lon="1.1231">
        <ele>204</ele>
        <time>2009-02-01T07:57:02Z</time>
      </trkpt>
      <trkpt lat="44.44011" lon="1.12306">
        <ele>204</ele>
        <time>2009-02-01T07:57:05Z</time>
      </trkpt>
      <trkpt lat="44.44015" lon="1.12301">
        <ele>204</ele>
        <time>2009-02-01T07:57:08Z</time>
      </trkpt>
      <trkpt lat="44.44019" lon="1.12296">
        <ele>204</ele>
        <time>2009-02-01T07:57:11Z</time>
      </trkpt>
      <trkpt lat="44.44023" lon="1.12292">
        <ele>204</ele>
        <time>2009-02-01T07:57:14Z</time>
      </trkpt>
      <trkpt lat="44.44028" lon="1.12288">
        <ele>204</ele>
        <time>2009-02-01T07:57:17Z</time>
      </trkpt>
      <trkpt lat="44.44032" lon="1.12283">
        <ele>204</ele>
        <time>2009-02-01T07:57:21Z</time>
      </trkpt>
      <trkpt lat="44.44035" lon="1.12279">
        <ele>204</ele>
        <time>2009-02-01T07:57:24Z</time>
      </trkpt>
      <trkpt lat="44.44037" lon="1.12275">
        <ele>204</ele>
        <time>2009-02-01T07:57:27Z</time>
      </trkpt>
      <trkpt lat="44.44041" lon="1.12271">
        <ele>204</ele>
        <time>2009-02-01T07:57:30Z</time>
      </trkpt>
      <trkpt lat="44.44045" lon="1.12267">
        <ele>204</ele>
        <time>2009-02-01T07:57:33Z</time>
      </trkpt>
      <trkpt lat="44.44048" lon="1.12262">
        <ele>204</ele>
        <time>2009-02-01T07:57:36Z</time>
      </trkpt>
      <trkpt lat="44.44051" lon="1.12257">
        <ele>205</ele>
        <time>2009-02-01T07:57:39Z</time>
      </trkpt>
      <trkpt lat="44.44054" lon="1.12253">
        <ele>206</ele>
        <time>2009-02-01T07:57:42Z</time>
      </trkpt>
      <trkpt lat="44.44058" lon="1.12248">
        <ele>207</ele>
        <time>2009-02-01T07:57:45Z</time>
      </trkpt>
      <trkpt lat="44.44061" lon="1.12244">
        <ele>208</ele>
        <time>2009-02-01T07:57:48Z</time>
      </trkpt>
      <trkpt lat="44.44065" lon="1.12239">
        <ele>209</ele>
        <time>2009-02-01T07:57:51Z</time>
      </trkpt>
      <trkpt lat="44.44067" lon="1.12234">
        <ele>209</ele>
        <time>2009-02-01T07:57:54Z</time>
      </trkpt>
      <trkpt lat="44.4407" lon="1.12228">
        <ele>210</ele>
        <time>2009-02-01T07:57:57Z</time>
      </trkpt>
      <trkpt lat="44.44073" lon="1.12222">
        <ele>210</ele>
        <time>2009-02-01T07:58:00Z</time>
      </trkpt>
      <trkpt lat="44.44076" lon="1.12217">
        <ele>210</ele>
        <time>2009-02-01T07:58:03Z</time>
      </trkpt>
      <trkpt lat="44.4408" lon="1.12211">
        <ele>210</ele>
        <time>2009-02-01T07:58:06Z</time>
      </trkpt>
      <trkpt lat="44.44084" lon="1.12208">
        <ele>211</ele>
        <time>2009-02-01T07:58:09Z</time>
      </trkpt>
      <trkpt lat="44.44088" lon="1.12205">
        <ele>211</ele>
        <time>2009-02-01T07:58:12Z</time>
      </trkpt>
      <trkpt lat="44.44093" lon="1.12203">
        <ele>211</ele>
        <time>2009-02-01T07:58:15Z</time>
      </trkpt>
      <trkpt lat="44.44099" lon="1.12202">
        <ele>211</ele>
        <time>2009-02-01T07:58:18Z</time>
      </trkpt>
      <trkpt lat="44.44104" lon="1.12201">
        <ele>211</ele>
        <time>2009-02-01T07:58:21Z</time>
      </trkpt>
      <trkpt lat="44.44109" lon="1.122">
        <ele>211</ele>
        <time>2009-02-01T07:58:24Z</time>
      </trkpt>
      <trkpt lat="44.44114" lon="1.122">
        <ele>211</ele>
        <time>2009-02-01T07:58:27Z</time>
      </trkpt>
      <trkpt lat="44.44119" lon="1.122">
        <ele>211</ele>
        <time>2009-02-01T07:58:30Z</time>
      </trkpt>
      <trkpt lat="44.44125" lon="1.12201">
        <ele>212</ele>
        <time>2009-02-01T07:58:33Z</time>
      </trkpt>
      <trkpt lat="44.4413" lon="1.122">
        <ele>213</ele>
        <time>2009-02-01T07:58:36Z</time>
      </trkpt>
      <trkpt lat="44.44134" lon="1.122">
        <ele>213</ele>
        <time>2009-02-01T07:58:39Z</time>
      </trkpt>
      <trkpt lat="44.44139" lon="1.12199">
        <ele>214</ele>
        <time>2009-02-01T07:58:42Z</time>
      </trkpt>
      <trkpt lat="44.44144" lon="1.12198">
        <ele>214</ele>
        <time>2009-02-01T07:58:45Z</time>
      </trkpt>
      <trkpt lat="44.44148" lon="1.12198">
        <ele>214</ele>
        <time>2009-02-01T07:58:48Z</time>
      </trkpt>
      <trkpt lat="44.44153" lon="1.12198">
        <ele>215</ele>
        <time>2009-02-01T07:58:51Z</time>
      </trkpt>
      <trkpt lat="44.44158" lon="1.12198">
        <ele>215</ele>
        <time>2009-02-01T07:58:54Z</time>
      </trkpt>
      <trkpt lat="44.44163" lon="1.12198">
        <ele>216</ele>
        <time>2009-02-01T07:58:57Z</time>
      </trkpt>
      <trkpt lat="44.44167" lon="1.12198">
        <ele>216</ele>
        <time>2009-02-01T07:59:00Z</time>
      </trkpt>
      <trkpt lat="44.44172" lon="1.12197">
        <ele>217</ele>
        <time>2009-02-01T07:59:03Z</time>
      </trkpt>
      <trkpt lat="44.44178" lon="1.12198">
        <ele>218</ele>
        <time>2009-02-01T07:59:06Z</time>
      </trkpt>
      <trkpt lat="44.44182" lon="1.12195">
        <ele>220</ele>
        <time>2009-02-01T07:59:09Z</time>
      </trkpt>
      <trkpt lat="44.44186" lon="1.12193">
        <ele>220</ele>
        <time>2009-02-01T07:59:12Z</time>
      </trkpt>
      <trkpt lat="44.44191" lon="1.1219">
        <ele>221</ele>
        <time>2009-02-01T07:59:15Z</time>
      </trkpt>
      <trkpt lat="44.44196" lon="1.12187">
        <ele>221</ele>
        <time>2009-02-01T07:59:18Z</time>
      </trkpt>
      <trkpt lat="44.442" lon="1.12183">
        <ele>222</ele>
        <time>2009-02-01T07:59:21Z</time>
      </trkpt>
      <trkpt lat="44.44204" lon="1.12179">
        <ele>222</ele>
        <time>2009-02-01T07:59:24Z</time>
      </trkpt>
      <trkpt lat="44.44207" lon="1.12175">
        <ele>223</ele>
        <time>2009-02-01T07:59:27Z</time>
      </trkpt>
      <trkpt lat="44.4421" lon="1.1217">
        <ele>223</ele>
        <time>2009-02-01T07:59:30Z</time>
      </trkpt>
      <trkpt lat="44.44214" lon="1.12167">
        <ele>223</ele>
        <time>2009-02-01T07:59:33Z</time>
      </trkpt>
      <trkpt lat="44.44218" lon="1.12163">
        <ele>223</ele>
        <time>2009-02-01T07:59:36Z</time>
      </trkpt>
      <trkpt lat="44.44222" lon="1.12159">
        <ele>224</ele>
        <time>2009-02-01T07:59:39Z</time>
      </trkpt>
      <trkpt lat="44.44226" lon="1.12156">
        <ele>224</ele>
        <time>2009-02-01T07:59:42Z</time>
      </trkpt>
      <trkpt lat="44.4423" lon="1.12153">
        <ele>224</ele>
        <time>2009-02-01T07:59:45Z</time>
      </trkpt>
      <trkpt lat="44.44234" lon="1.1215">
        <ele>225</ele>
        <time>2009-02-01T07:59:48Z</time>
      </trkpt>
      <trkpt lat="44.44239" lon="1.12147">
        <ele>225</ele>
        <time>2009-02-01T07:59:51Z</time>
      </trkpt>
      <trkpt lat="44.44243" lon="1.12144">
        <ele>225</ele>
        <time>2009-02-01T07:59:54Z</time>
      </trkpt>
      <trkpt lat="44.44247" lon="1.12141">
        <ele>226</ele>
        <time>2009-02-01T07:59:57Z</time>
      </trkpt>
      <trkpt lat="44.44251" lon="1.12138">
        <ele>226</ele>
        <time>2009-02-01T08:00:00Z</time>
      </trkpt>
      <trkpt lat="44.44256" lon="1.12136">
        <ele>227</ele>
        <time>2009-02-01T08:00:03Z</time>
      </trkpt>
      <trkpt lat="44.4426" lon="1.12134">
        <ele>227</ele>
        <time>2009-02-01T08:00:06Z</time>
      </trkpt>
      <trkpt lat="44.44264" lon="1.12132">
        <ele>228</ele>
        <time>2009-02-01T08:00:09Z</time>
      </trkpt>
      <trkpt lat="44.44269" lon="1.12129">
        <ele>229</ele>
        <time>2009-02-01T08:00:12Z</time>
      </trkpt>
      <trkpt lat="44.44273" lon="1.12127">
        <ele>230</ele>
        <time>2009-02-01T08:00:15Z</time>
      </trkpt>
      <trkpt lat="44.44277" lon="1.12125">
        <ele>230</ele>
        <time>2009-02-01T08:00:18Z</time>
      </trkpt>
      <trkpt lat="44.44281" lon="1.12123">
        <ele>231</ele>
        <time>2009-02-01T08:00:21Z</time>
      </trkpt>
      <trkpt lat="44.44285" lon="1.1212">
        <ele>231</ele>
        <time>2009-02-01T08:00:24Z</time>
      </trkpt>
      <trkpt lat="44.44289" lon="1.12118">
        <ele>232</ele>
        <time>2009-02-01T08:00:27Z</time>
      </trkpt>
      <trkpt lat="44.44293" lon="1.12116">
        <ele>232</ele>
        <time>2009-02-01T08:00:30Z</time>
      </trkpt>
      <trkpt lat="44.44298" lon="1.12114">
        <ele>233</ele>
        <time>2009-02-01T08:00:33Z</time>
      </trkpt>
      <trkpt lat="44.44303" lon="1.12113">
        <ele>234</ele>
        <time>2009-02-01T08:00:36Z</time>
      </trkpt>
      <trkpt lat="44.44307" lon="1.12111">
        <ele>235</ele>
        <time>2009-02-01T08:00:39Z</time>
      </trkpt>
      <trkpt lat="44.44311" lon="1.1211">
        <ele>235</ele>
        <time>2009-02-01T08:00:42Z</time>
      </trkpt>
      <trkpt lat="44.44316" lon="1.12109">
        <ele>236</ele>
        <time>2009-02-01T08:00:45Z</time>
      </trkpt>
      <trkpt lat="44.44321" lon="1.12107">
        <ele>236</ele>
        <time>2009-02-01T08:00:48Z</time>
      </trkpt>
      <trkpt lat="44.44325" lon="1.12107">
        <ele>236</ele>
        <time>2009-02-01T08:00:51Z</time>
      </trkpt>
      <trkpt lat="44.4433" lon="1.12105">
        <ele>236</ele>
        <time>2009-02-01T08:00:54Z</time>
      </trkpt>
      <trkpt lat="44.44335" lon="1.12103">
        <ele>236</ele>
        <time>2009-02-01T08:00:57Z</time>
      </trkpt>
      <trkpt lat="44.4434" lon="1.12102">
        <ele>236</ele>
        <time>2009-02-01T08:01:00Z</time>
      </trkpt>
      <trkpt lat="44.44345" lon="1.12102">
        <ele>236</ele>
        <time>2009-02-01T08:01:03Z</time>
      </trkpt>
      <trkpt lat="44.4435" lon="1.12101">
        <ele>236</ele>
        <time>2009-02-01T08:01:06Z</time>
      </trkpt>
      <trkpt lat="44.44356" lon="1.12101">
        <ele>236</ele>
        <time>2009-02-01T08:01:09Z</time>
      </trkpt>
      <trkpt lat="44.44362" lon="1.12101">
        <ele>237</ele>
        <time>2009-02-01T08:01:12Z</time>
      </trkpt>
      <trkpt lat="44.44367" lon="1.121">
        <ele>238</ele>
        <time>2009-02-01T08:01:15Z</time>
      </trkpt>
      <trkpt lat="44.44373" lon="1.12102">
        <ele>239</ele>
        <time>2009-02-01T08:01:18Z</time>
      </trkpt>
      <trkpt lat="44.4438" lon="1.12104">
        <ele>239</ele>
        <time>2009-02-01T08:01:22Z</time>
      </trkpt>
      <trkpt lat="44.44385" lon="1.12104">
        <ele>239</ele>
        <time>2009-02-01T08:01:25Z</time>
      </trkpt>
      <trkpt lat="44.44391" lon="1.12105">
        <ele>240</ele>
        <time>2009-02-01T08:01:28Z</time>
      </trkpt>
      <trkpt lat="44.44399" lon="1.12106">
        <ele>241</ele>
        <time>2009-02-01T08:01:31Z</time>
      </trkpt>
      <trkpt lat="44.44406" lon="1.12106">
        <ele>241</ele>
        <time>2009-02-01T08:01:34Z</time>
      </trkpt>
      <trkpt lat="44.44415" lon="1.12108">
        <ele>241</ele>
        <time>2009-02-01T08:01:37Z</time>
      </trkpt>
      <trkpt lat="44.44421" lon="1.12106">
        <ele>241</ele>
        <time>2009-02-01T08:01:40Z</time>
      </trkpt>
      <trkpt lat="44.44426" lon="1.12104">
        <ele>241</ele>
        <time>2009-02-01T08:01:43Z</time>
      </trkpt>
      <trkpt lat="44.4443" lon="1.12104">
        <ele>242</ele>
        <time>2009-02-01T08:01:46Z</time>
      </trkpt>
      <trkpt lat="44.44433" lon="1.12105">
        <ele>243</ele>
        <time>2009-02-01T08:01:50Z</time>
      </trkpt>
      <trkpt lat="44.44436" lon="1.12106">
        <ele>244</ele>
        <time>2009-02-01T08:01:54Z</time>
      </trkpt>
      <trkpt lat="44.44439" lon="1.12105">
        <ele>245</ele>
        <time>2009-02-01T08:01:59Z</time>
      </trkpt>
      <trkpt lat="44.44442" lon="1.12105">
        <ele>246</ele>
        <time>2009-02-01T08:02:02Z</time>
      </trkpt>
      <trkpt lat="44.44443" lon="1.12106">
        <ele>248</ele>
        <time>2009-02-01T08:02:06Z</time>
      </trkpt>
      <trkpt lat="44.44444" lon="1.12105">
        <ele>250</ele>
        <time>2009-02-01T08:02:12Z</time>
      </trkpt>
      <trkpt lat="44.44444" lon="1.12105">
        <ele>252</ele>
        <time>2009-02-01T08:02:17Z</time>
      </trkpt>
      <trkpt lat="44.44443" lon="1.12104">
        <ele>254</ele>
        <time>2009-02-01T08:02:30Z</time>
      </trkpt>
      <trkpt lat="44.44443" lon="1.12103">
        <ele>254</ele>
        <time>2009-02-01T08:02:38Z</time>
      </trkpt>
      <trkpt lat="44.44442" lon="1.12101">
        <ele>253</ele>
        <time>2009-02-01T08:02:43Z</time>
      </trkpt>
      <trkpt lat="44.44442" lon="1.121">
        <ele>251</ele>
        <time>2009-02-01T08:02:50Z</time>
      </trkpt>
      <trkpt lat="44.44442" lon="1.12098">
        <ele>251</ele>
        <time>2009-02-01T08:02:54Z</time>
      </trkpt>
      <trkpt lat="44.44441" lon="1.12097">
        <ele>251</ele>
        <time>2009-02-01T08:03:06Z</time>
      </trkpt>
      <trkpt lat="44.4444" lon="1.12098">
        <ele>251</ele>
        <time>2009-02-01T08:03:13Z</time>
      </trkpt>
      <trkpt lat="44.44442" lon="1.121">
        <ele>251</ele>
        <time>2009-02-01T08:03:27Z</time>
      </trkpt>
      <trkpt lat="44.44442" lon="1.12101">
        <ele>251</ele>
        <time>2009-02-01T08:03:34Z</time>
      </trkpt>
      <trkpt lat="44.44443" lon="1.121">
        <ele>250</ele>
        <time>2009-02-01T08:04:08Z</time>
      </trkpt>
      <trkpt lat="44.44442" lon="1.121">
        <ele>249</ele>
        <time>2009-02-01T08:04:54Z</time>
      </trkpt>
      <trkpt lat="44.44441" lon="1.12099">
        <ele>249</ele>
        <time>2009-02-01T08:04:57Z</time>
      </trkpt>
      <trkpt lat="44.44441" lon="1.121">
        <ele>249</ele>
        <time>2009-02-01T08:05:00Z</time>
      </trkpt>
      <trkpt lat="44.44442" lon="1.12102">
        <ele>249</ele>
        <time>2009-02-01T08:05:06Z</time>
      </trkpt>
      <trkpt lat="44.44443" lon="1.12103">
        <ele>249</ele>
        <time>2009-02-01T08:05:18Z</time>
      </trkpt>
      <trkpt lat="44.44444" lon="1.12105">
        <ele>249</ele>
        <time>2009-02-01T08:05:26Z</time>
      </trkpt>
      <trkpt lat="44.44444" lon="1.12107">
        <ele>250</ele>
        <time>2009-02-01T08:05:41Z</time>
      </trkpt>
      <trkpt lat="44.44444" lon="1.12108">
        <ele>252</ele>
        <time>2009-02-01T08:05:54Z</time>
      </trkpt>
      <trkpt lat="44.44444" lon="1.1211">
        <ele>253</ele>
        <time>2009-02-01T08:06:15Z</time>
      </trkpt>
      <trkpt lat="44.44445" lon="1.12112">
        <ele>254</ele>
        <time>2009-02-01T08:06:42Z</time>
      </trkpt>
      <trkpt lat="44.44446" lon="1.12112">
        <ele>254</ele>
        <time>2009-02-01T08:06:48Z</time>
      </trkpt>
      <trkpt lat="44.44447" lon="1.12111">
        <ele>252</ele>
        <time>2009-02-01T08:06:54Z</time>
      </trkpt>
      <trkpt lat="44.44448" lon="1.12112">
        <ele>247</ele>
        <time>2009-02-01T08:07:04Z</time>
      </trkpt>
      <trkpt lat="44.44448" lon="1.12114">
        <ele>247</ele>
        <time>2009-02-01T08:07:13Z</time>
      </trkpt>
      <trkpt lat="44.44447" lon="1.12115">
        <ele>247</ele>
        <time>2009-02-01T08:07:22Z</time>
      </trkpt>
      <trkpt lat="44.44447" lon="1.12117">
        <ele>247</ele>
        <time>2009-02-01T08:07:31Z</time>
      </trkpt>
      <trkpt lat="44.44447" lon="1.12115">
        <ele>247</ele>
        <time>2009-02-01T08:07:59Z</time>
      </trkpt>
      <trkpt lat="44.44449" lon="1.12115">
        <ele>247</ele>
        <time>2009-02-01T08:08:23Z</time>
      </trkpt>
      <trkpt lat="44.44449" lon="1.12116">
        <ele>247</ele>
        <time>2009-02-01T08:08:34Z</time>
      </trkpt>
      <trkpt lat="44.4445" lon="1.12115">
        <ele>246</ele>
        <time>2009-02-01T08:09:18Z</time>
      </trkpt>
      <trkpt lat="44.4445" lon="1.12113">
        <ele>245</ele>
        <time>2009-02-01T08:09:21Z</time>
      </trkpt>
      <trkpt lat="44.44449" lon="1.12112">
        <ele>245</ele>
        <time>2009-02-01T08:09:40Z</time>
      </trkpt>
      <trkpt lat="44.44448" lon="1.12113">
        <ele>247</ele>
        <time>2009-02-01T08:09:57Z</time>
      </trkpt>
      <trkpt lat="44.44447" lon="1.12113">
        <ele>248</ele>
        <time>2009-02-01T08:10:01Z</time>
      </trkpt>
      <trkpt lat="44.44445" lon="1.12111">
        <ele>249</ele>
        <time>2009-02-01T08:10:07Z</time>
      </trkpt>
      <trkpt lat="44.44445" lon="1.12107">
        <ele>249</ele>
        <time>2009-02-01T08:10:12Z</time>
      </trkpt>
      <trkpt lat="44.44445" lon="1.12106">
        <ele>251</ele>
        <time>2009-02-01T08:10:16Z</time>
      </trkpt>
      <trkpt lat="44.44443" lon="1.12106">
        <ele>251</ele>
        <time>2009-02-01T08:10:19Z</time>
      </trkpt>
      <trkpt lat="44.4444" lon="1.12108">
        <ele>251</ele>
        <time>2009-02-01T08:10:22Z</time>
      </trkpt>
      <trkpt lat="44.44437" lon="1.12109">
        <ele>251</ele>
        <time>2009-02-01T08:10:25Z</time>
      </trkpt>
      <trkpt lat="44.44434" lon="1.12108">
        <ele>251</ele>
        <time>2009-02-01T08:10:28Z</time>
      </trkpt>
      <trkpt lat="44.44435" lon="1.12108">
        <ele>251</ele>
        <time>2009-02-01T08:10:34Z</time>
      </trkpt>
      <trkpt lat="44.44434" lon="1.12107">
        <ele>251</ele>
        <time>2009-02-01T08:10:44Z</time>
      </trkpt>
      <trkpt lat="44.44431" lon="1.12107">
        <ele>251</ele>
        <time>2009-02-01T08:10:47Z</time>
      </trkpt>
      <trkpt lat="44.44428" lon="1.12101">
        <ele>250</ele>
        <time>2009-02-01T08:10:50Z</time>
      </trkpt>
      <trkpt lat="44.44429" lon="1.12095">
        <ele>250</ele>
        <time>2009-02-01T08:10:53Z</time>
      </trkpt>
      <trkpt lat="44.44429" lon="1.12089">
        <ele>250</ele>
        <time>2009-02-01T08:10:56Z</time>
      </trkpt>
      <trkpt lat="44.44432" lon="1.12082">
        <ele>250</ele>
        <time>2009-02-01T08:10:59Z</time>
      </trkpt>
      <trkpt lat="44.44434" lon="1.12076">
        <ele>250</ele>
        <time>2009-02-01T08:11:02Z</time>
      </trkpt>
      <trkpt lat="44.44438" lon="1.12071">
        <ele>250</ele>
        <time>2009-02-01T08:11:05Z</time>
      </trkpt>
      <trkpt lat="44.44441" lon="1.12065">
        <ele>250</ele>
        <time>2009-02-01T08:11:08Z</time>
      </trkpt>
      <trkpt lat="44.44444" lon="1.1206">
        <ele>250</ele>
        <time>2009-02-01T08:11:11Z</time>
      </trkpt>
      <trkpt lat="44.44449" lon="1.12052">
        <ele>250</ele>
        <time>2009-02-01T08:11:15Z</time>
      </trkpt>
      <trkpt lat="44.44454" lon="1.12043">
        <ele>250</ele>
        <time>2009-02-01T08:11:18Z</time>
      </trkpt>
      <trkpt lat="44.4446" lon="1.1203">
        <ele>250</ele>
        <time>2009-02-01T08:11:21Z</time>
      </trkpt>
      <trkpt lat="44.44465" lon="1.12019">
        <ele>250</ele>
        <time>2009-02-01T08:11:24Z</time>
      </trkpt>
      <trkpt lat="44.44469" lon="1.12006">
        <ele>250</ele>
        <time>2009-02-01T08:11:27Z</time>
      </trkpt>
      <trkpt lat="44.44471" lon="1.11993">
        <ele>250</ele>
        <time>2009-02-01T08:11:30Z</time>
      </trkpt>
      <trkpt lat="44.4447" lon="1.11978">
        <ele>250</ele>
        <time>2009-02-01T08:11:33Z</time>
      </trkpt>
      <trkpt lat="44.44468" lon="1.11964">
        <ele>250</ele>
        <time>2009-02-01T08:11:36Z</time>
      </trkpt>
      <trkpt lat="44.44467" lon="1.1195">
        <ele>250</ele>
        <time>2009-02-01T08:11:39Z</time>
      </trkpt>
      <trkpt lat="44.44468" lon="1.11936">
        <ele>250</ele>
        <time>2009-02-01T08:11:42Z</time>
      </trkpt>
      <trkpt lat="44.44471" lon="1.1192">
        <ele>250</ele>
        <time>2009-02-01T08:11:46Z</time>
      </trkpt>
      <trkpt lat="44.44477" lon="1.11898">
        <ele>250</ele>
        <time>2009-02-01T08:11:49Z</time>
      </trkpt>
      <trkpt lat="44.44481" lon="1.11882">
        <ele>250</ele>
        <time>2009-02-01T08:11:52Z</time>
      </trkpt>
      <trkpt lat="44.44486" lon="1.11863">
        <ele>250</ele>
        <time>2009-02-01T08:11:55Z</time>
      </trkpt>
      <trkpt lat="44.44493" lon="1.11844">
        <ele>250</ele>
        <time>2009-02-01T08:11:58Z</time>
      </trkpt>
      <trkpt lat="44.44498" lon="1.11825">
        <ele>250</ele>
        <time>2009-02-01T08:12:01Z</time>
      </trkpt>
      <trkpt lat="44.44505" lon="1.11804">
        <ele>250</ele>
        <time>2009-02-01T08:12:04Z</time>
      </trkpt>
      <trkpt lat="44.44511" lon="1.11784">
        <ele>250</ele>
        <time>2009-02-01T08:12:08Z</time>
      </trkpt>
      <trkpt lat="44.44526" lon="1.1176">
        <ele>250</ele>
        <time>2009-02-01T08:12:11Z</time>
      </trkpt>
      <trkpt lat="44.4454" lon="1.11747">
        <ele>249</ele>
        <time>2009-02-01T08:12:14Z</time>
      </trkpt>
      <trkpt lat="44.44554" lon="1.11737">
        <ele>248</ele>
        <time>2009-02-01T08:12:17Z</time>
      </trkpt>
      <trkpt lat="44.44568" lon="1.11726">
        <ele>248</ele>
        <time>2009-02-01T08:12:20Z</time>
      </trkpt>
      <trkpt lat="44.44581" lon="1.11716">
        <ele>248</ele>
        <time>2009-02-01T08:12:23Z</time>
      </trkpt>
      <trkpt lat="44.44594" lon="1.11704">
        <ele>248</ele>
        <time>2009-02-01T08:12:26Z</time>
      </trkpt>
      <trkpt lat="44.44607" lon="1.1169">
        <ele>248</ele>
        <time>2009-02-01T08:12:30Z</time>
      </trkpt>
      <trkpt lat="44.44625" lon="1.1167">
        <ele>247</ele>
        <time>2009-02-01T08:12:33Z</time>
      </trkpt>
      <trkpt lat="44.44641" lon="1.11653">
        <ele>247</ele>
        <time>2009-02-01T08:12:36Z</time>
      </trkpt>
      <trkpt lat="44.44657" lon="1.11634">
        <ele>247</ele>
        <time>2009-02-01T08:12:39Z</time>
      </trkpt>
      <trkpt lat="44.44673" lon="1.11612">
        <ele>246</ele>
        <time>2009-02-01T08:12:42Z</time>
      </trkpt>
      <trkpt lat="44.44688" lon="1.11584">
        <ele>244</ele>
        <time>2009-02-01T08:12:45Z</time>
      </trkpt>
      <trkpt lat="44.447" lon="1.11552">
        <ele>241</ele>
        <time>2009-02-01T08:12:48Z</time>
      </trkpt>
      <trkpt lat="44.44713" lon="1.11519">
        <ele>239</ele>
        <time>2009-02-01T08:12:51Z</time>
      </trkpt>
      <trkpt lat="44.44725" lon="1.11486">
        <ele>239</ele>
        <time>2009-02-01T08:12:55Z</time>
      </trkpt>
      <trkpt lat="44.44741" lon="1.11445">
        <ele>239</ele>
        <time>2009-02-01T08:12:58Z</time>
      </trkpt>
      <trkpt lat="44.44754" lon="1.11416">
        <ele>239</ele>
        <time>2009-02-01T08:13:01Z</time>
      </trkpt>
      <trkpt lat="44.44766" lon="1.11388">
        <ele>238</ele>
        <time>2009-02-01T08:13:04Z</time>
      </trkpt>
      <trkpt lat="44.44778" lon="1.1136">
        <ele>238</ele>
        <time>2009-02-01T08:13:07Z</time>
      </trkpt>
      <trkpt lat="44.44791" lon="1.1133">
        <ele>237</ele>
        <time>2009-02-01T08:13:10Z</time>
      </trkpt>
      <trkpt lat="44.44804" lon="1.11297">
        <ele>235</ele>
        <time>2009-02-01T08:13:13Z</time>
      </trkpt>
      <trkpt lat="44.44817" lon="1.11264">
        <ele>234</ele>
        <time>2009-02-01T08:13:16Z</time>
      </trkpt>
      <trkpt lat="44.4483" lon="1.11233">
        <ele>234</ele>
        <time>2009-02-01T08:13:19Z</time>
      </trkpt>
      <trkpt lat="44.44842" lon="1.11205">
        <ele>234</ele>
        <time>2009-02-01T08:13:22Z</time>
      </trkpt>
      <trkpt lat="44.44852" lon="1.11182">
        <ele>234</ele>
        <time>2009-02-01T08:13:25Z</time>
      </trkpt>
      <trkpt lat="44.4486" lon="1.11162">
        <ele>234</ele>
        <time>2009-02-01T08:13:28Z</time>
      </trkpt>
      <trkpt lat="44.44868" lon="1.11144">
        <ele>234</ele>
        <time>2009-02-01T08:13:31Z</time>
      </trkpt>
      <trkpt lat="44.44874" lon="1.11127">
        <ele>234</ele>
        <time>2009-02-01T08:13:34Z</time>
      </trkpt>
      <trkpt lat="44.44879" lon="1.11111">
        <ele>234</ele>
        <time>2009-02-01T08:13:37Z</time>
      </trkpt>
      <trkpt lat="44.44882" lon="1.11095">
        <ele>234</ele>
        <time>2009-02-01T08:13:40Z</time>
      </trkpt>
      <trkpt lat="44.44885" lon="1.11078">
        <ele>234</ele>
        <time>2009-02-01T08:13:43Z</time>
      </trkpt>
      <trkpt lat="44.44888" lon="1.11061">
        <ele>234</ele>
        <time>2009-02-01T08:13:46Z</time>
      </trkpt>
      <trkpt lat="44.44893" lon="1.11044">
        <ele>234</ele>
        <time>2009-02-01T08:13:49Z</time>
      </trkpt>
      <trkpt lat="44.44899" lon="1.11026">
        <ele>234</ele>
        <time>2009-02-01T08:13:52Z</time>
      </trkpt>
      <trkpt lat="44.44904" lon="1.11015">
        <ele>234</ele>
        <time>2009-02-01T08:13:55Z</time>
      </trkpt>
      <trkpt lat="44.44903" lon="1.1101">
        <ele>234</ele>
        <time>2009-02-01T08:13:59Z</time>
      </trkpt>
      <trkpt lat="44.44902" lon="1.11016">
        <ele>234</ele>
        <time>2009-02-01T08:14:02Z</time>
      </trkpt>
      <trkpt lat="44.44901" lon="1.11025">
        <ele>234</ele>
        <time>2009-02-01T08:14:05Z</time>
      </trkpt>
      <trkpt lat="44.44898" lon="1.11034">
        <ele>234</ele>
        <time>2009-02-01T08:14:08Z</time>
      </trkpt>
      <trkpt lat="44.44897" lon="1.11041">
        <ele>234</ele>
        <time>2009-02-01T08:14:11Z</time>
      </trkpt>
      <trkpt lat="44.44897" lon="1.11047">
        <ele>234</ele>
        <time>2009-02-01T08:14:14Z</time>
      </trkpt>
      <trkpt lat="44.44901" lon="1.1105">
        <ele>234</ele>
        <time>2009-02-01T08:14:17Z</time>
      </trkpt>
      <trkpt lat="44.44908" lon="1.11052">
        <ele>234</ele>
        <time>2009-02-01T08:14:20Z</time>
      </trkpt>
      <trkpt lat="44.44916" lon="1.11053">
        <ele>234</ele>
        <time>2009-02-01T08:14:23Z</time>
      </trkpt>
      <trkpt lat="44.44923" lon="1.11054">
        <ele>234</ele>
        <time>2009-02-01T08:14:26Z</time>
      </trkpt>
      <trkpt lat="44.44931" lon="1.11056">
        <ele>234</ele>
        <time>2009-02-01T08:14:29Z</time>
      </trkpt>
      <trkpt lat="44.44939" lon="1.11057">
        <ele>234</ele>
        <time>2009-02-01T08:14:32Z</time>
      </trkpt>
      <trkpt lat="44.44946" lon="1.11058">
        <ele>234</ele>
        <time>2009-02-01T08:14:35Z</time>
      </trkpt>
      <trkpt lat="44.44954" lon="1.11059">
        <ele>234</ele>
        <time>2009-02-01T08:14:38Z</time>
      </trkpt>
      <trkpt lat="44.44962" lon="1.11058">
        <ele>234</ele>
        <time>2009-02-01T08:14:41Z</time>
      </trkpt>
      <trkpt lat="44.44969" lon="1.11058">
        <ele>234</ele>
        <time>2009-02-01T08:14:44Z</time>
      </trkpt>
      <trkpt lat="44.44977" lon="1.11058">
        <ele>234</ele>
        <time>2009-02-01T08:14:47Z</time>
      </trkpt>
      <trkpt lat="44.44988" lon="1.11058">
        <ele>234</ele>
        <time>2009-02-01T08:14:51Z</time>
      </trkpt>
      <trkpt lat="44.44996" lon="1.11059">
        <ele>234</ele>
        <time>2009-02-01T08:14:54Z</time>
      </trkpt>
      <trkpt lat="44.45004" lon="1.11059">
        <ele>234</ele>
        <time>2009-02-01T08:14:57Z</time>
      </trkpt>
      <trkpt lat="44.45011" lon="1.1106">
        <ele>234</ele>
        <time>2009-02-01T08:15:00Z</time>
      </trkpt>
      <trkpt lat="44.45018" lon="1.11061">
        <ele>234</ele>
        <time>2009-02-01T08:15:03Z</time>
      </trkpt>
      <trkpt lat="44.45025" lon="1.11063">
        <ele>234</ele>
        <time>2009-02-01T08:15:06Z</time>
      </trkpt>
      <trkpt lat="44.45031" lon="1.11066">
        <ele>234</ele>
        <time>2009-02-01T08:15:09Z</time>
      </trkpt>
      <trkpt lat="44.45038" lon="1.11067">
        <ele>234</ele>
        <time>2009-02-01T08:15:12Z</time>
      </trkpt>
      <trkpt lat="44.45043" lon="1.11067">
        <ele>234</ele>
        <time>2009-02-01T08:15:16Z</time>
      </trkpt>
      <trkpt lat="44.45044" lon="1.11068">
        <ele>234</ele>
        <time>2009-02-01T08:15:20Z</time>
      </trkpt>
      <trkpt lat="44.45045" lon="1.11069">
        <ele>234</ele>
        <time>2009-02-01T08:15:29Z</time>
      </trkpt>
      <trkpt lat="44.45046" lon="1.11069">
        <ele>234</ele>
        <time>2009-02-01T08:15:34Z</time>
      </trkpt>
      <trkpt lat="44.45049" lon="1.11064">
        <ele>234</ele>
        <time>2009-02-01T08:15:37Z</time>
      </trkpt>
      <trkpt lat="44.45053" lon="1.11052">
        <ele>234</ele>
        <time>2009-02-01T08:15:41Z</time>
      </trkpt>
      <trkpt lat="44.45056" lon="1.11042">
        <ele>234</ele>
        <time>2009-02-01T08:15:44Z</time>
      </trkpt>
      <trkpt lat="44.45061" lon="1.11028">
        <ele>234</ele>
        <time>2009-02-01T08:15:48Z</time>
      </trkpt>
      <trkpt lat="44.45065" lon="1.11015">
        <ele>234</ele>
        <time>2009-02-01T08:15:51Z</time>
      </trkpt>
      <trkpt lat="44.45069" lon="1.11003">
        <ele>234</ele>
        <time>2009-02-01T08:15:54Z</time>
      </trkpt>
      <trkpt lat="44.45074" lon="1.10993">
        <ele>234</ele>
        <time>2009-02-01T08:15:57Z</time>
      </trkpt>
      <trkpt lat="44.45076" lon="1.10987">
        <ele>234</ele>
        <time>2009-02-01T08:16:01Z</time>
      </trkpt>
      <trkpt lat="44.45077" lon="1.10985">
        <ele>234</ele>
        <time>2009-02-01T08:16:05Z</time>
      </trkpt>
      <trkpt lat="44.45076" lon="1.10984">
        <ele>234</ele>
        <time>2009-02-01T08:16:17Z</time>
      </trkpt>
      <trkpt lat="44.45076" lon="1.10982">
        <ele>234</ele>
        <time>2009-02-01T08:16:21Z</time>
      </trkpt>
      <trkpt lat="44.45079" lon="1.10977">
        <ele>234</ele>
        <time>2009-02-01T08:16:24Z</time>
      </trkpt>
      <trkpt lat="44.45084" lon="1.10971">
        <ele>234</ele>
        <time>2009-02-01T08:16:27Z</time>
      </trkpt>
      <trkpt lat="44.4509" lon="1.10965">
        <ele>234</ele>
        <time>2009-02-01T08:16:30Z</time>
      </trkpt>
      <trkpt lat="44.45096" lon="1.10959">
        <ele>234</ele>
        <time>2009-02-01T08:16:33Z</time>
      </trkpt>
      <trkpt lat="44.451" lon="1.1095">
        <ele>234</ele>
        <time>2009-02-01T08:16:36Z</time>
      </trkpt>
      <trkpt lat="44.45106" lon="1.10942">
        <ele>234</ele>
        <time>2009-02-01T08:16:39Z</time>
      </trkpt>
      <trkpt lat="44.4511" lon="1.10934">
        <ele>234</ele>
        <time>2009-02-01T08:16:42Z</time>
      </trkpt>
      <trkpt lat="44.45115" lon="1.10927">
        <ele>234</ele>
        <time>2009-02-01T08:16:45Z</time>
      </trkpt>
      <trkpt lat="44.4512" lon="1.1092">
        <ele>234</ele>
        <time>2009-02-01T08:16:48Z</time>
      </trkpt>
      <trkpt lat="44.45123" lon="1.10913">
        <ele>234</ele>
        <time>2009-02-01T08:16:51Z</time>
      </trkpt>
      <trkpt lat="44.45126" lon="1.10905">
        <ele>234</ele>
        <time>2009-02-01T08:16:54Z</time>
      </trkpt>
      <trkpt lat="44.45128" lon="1.10897">
        <ele>234</ele>
        <time>2009-02-01T08:16:57Z</time>
      </trkpt>
      <trkpt lat="44.45131" lon="1.10889">
        <ele>234</ele>
        <time>2009-02-01T08:17:00Z</time>
      </trkpt>
      <trkpt lat="44.45135" lon="1.10881">
        <ele>234</ele>
        <time>2009-02-01T08:17:03Z</time>
      </trkpt>
      <trkpt lat="44.45137" lon="1.10874">
        <ele>235</ele>
        <time>2009-02-01T08:17:06Z</time>
      </trkpt>
      <trkpt lat="44.4514" lon="1.10867">
        <ele>235</ele>
        <time>2009-02-01T08:17:09Z</time>
      </trkpt>
      <trkpt lat="44.45142" lon="1.10861">
        <ele>235</ele>
        <time>2009-02-01T08:17:12Z</time>
      </trkpt>
      <trkpt lat="44.45143" lon="1.10859">
        <ele>235</ele>
        <time>2009-02-01T08:17:15Z</time>
      </trkpt>
      <trkpt lat="44.45144" lon="1.10857">
        <ele>236</ele>
        <time>2009-02-01T08:17:20Z</time>
      </trkpt>
      <trkpt lat="44.45145" lon="1.10853">
        <ele>236</ele>
        <time>2009-02-01T08:17:23Z</time>
      </trkpt>
      <trkpt lat="44.45148" lon="1.10847">
        <ele>236</ele>
        <time>2009-02-01T08:17:26Z</time>
      </trkpt>
      <trkpt lat="44.4515" lon="1.10841">
        <ele>237</ele>
        <time>2009-02-01T08:17:29Z</time>
      </trkpt>
      <trkpt lat="44.45153" lon="1.10836">
        <ele>237</ele>
        <time>2009-02-01T08:17:32Z</time>
      </trkpt>
      <trkpt lat="44.45156" lon="1.10832">
        <ele>237</ele>
        <time>2009-02-01T08:17:35Z</time>
      </trkpt>
      <trkpt lat="44.45158" lon="1.10827">
        <ele>237</ele>
        <time>2009-02-01T08:17:38Z</time>
      </trkpt>
      <trkpt lat="44.45161" lon="1.10823">
        <ele>237</ele>
        <time>2009-02-01T08:17:41Z</time>
      </trkpt>
      <trkpt lat="44.45164" lon="1.1082">
        <ele>238</ele>
        <time>2009-02-01T08:17:45Z</time>
      </trkpt>
      <trkpt lat="44.45167" lon="1.10816">
        <ele>239</ele>
        <time>2009-02-01T08:17:48Z</time>
      </trkpt>
      <trkpt lat="44.4517" lon="1.10813">
        <ele>239</ele>
        <time>2009-02-01T08:17:51Z</time>
      </trkpt>
      <trkpt lat="44.45174" lon="1.10808">
        <ele>240</ele>
        <time>2009-02-01T08:17:55Z</time>
      </trkpt>
      <trkpt lat="44.45178" lon="1.10804">
        <ele>241</ele>
        <time>2009-02-01T08:17:59Z</time>
      </trkpt>
      <trkpt lat="44.45182" lon="1.10801">
        <ele>241</ele>
        <time>2009-02-01T08:18:02Z</time>
      </trkpt>
      <trkpt lat="44.45185" lon="1.10797">
        <ele>242</ele>
        <time>2009-02-01T08:18:06Z</time>
      </trkpt>
      <trkpt lat="44.45188" lon="1.10792">
        <ele>243</ele>
        <time>2009-02-01T08:18:10Z</time>
      </trkpt>
      <trkpt lat="44.45189" lon="1.10787">
        <ele>243</ele>
        <time>2009-02-01T08:18:13Z</time>
      </trkpt>
      <trkpt lat="44.45193" lon="1.10782">
        <ele>244</ele>
        <time>2009-02-01T08:18:17Z</time>
      </trkpt>
      <trkpt lat="44.45195" lon="1.10778">
        <ele>245</ele>
        <time>2009-02-01T08:18:20Z</time>
      </trkpt>
      <trkpt lat="44.45199" lon="1.10774">
        <ele>245</ele>
        <time>2009-02-01T08:18:24Z</time>
      </trkpt>
      <trkpt lat="44.45201" lon="1.1077">
        <ele>245</ele>
        <time>2009-02-01T08:18:27Z</time>
      </trkpt>
      <trkpt lat="44.45202" lon="1.10766">
        <ele>246</ele>
        <time>2009-02-01T08:18:30Z</time>
      </trkpt>
      <trkpt lat="44.45205" lon="1.10762">
        <ele>247</ele>
        <time>2009-02-01T08:18:33Z</time>
      </trkpt>
      <trkpt lat="44.45204" lon="1.10757">
        <ele>247</ele>
        <time>2009-02-01T08:18:36Z</time>
      </trkpt>
      <trkpt lat="44.45201" lon="1.10752">
        <ele>247</ele>
        <time>2009-02-01T08:18:40Z</time>
      </trkpt>
      <trkpt lat="44.45202" lon="1.1075">
        <ele>247</ele>
        <time>2009-02-01T08:18:46Z</time>
      </trkpt>
      <trkpt lat="44.45203" lon="1.10752">
        <ele>248</ele>
        <time>2009-02-01T08:18:49Z</time>
      </trkpt>
      <trkpt lat="44.45206" lon="1.10753">
        <ele>250</ele>
        <time>2009-02-01T08:18:57Z</time>
      </trkpt>
      <trkpt lat="44.45208" lon="1.10752">
        <ele>252</ele>
        <time>2009-02-01T08:19:00Z</time>
      </trkpt>
      <trkpt lat="44.45209" lon="1.10751">
        <ele>257</ele>
        <time>2009-02-01T08:19:06Z</time>
      </trkpt>
      <trkpt lat="44.45209" lon="1.10749">
        <ele>259</ele>
        <time>2009-02-01T08:19:09Z</time>
      </trkpt>
      <trkpt lat="44.45206" lon="1.10744">
        <ele>259</ele>
        <time>2009-02-01T08:19:12Z</time>
      </trkpt>
      <trkpt lat="44.45203" lon="1.10737">
        <ele>259</ele>
        <time>2009-02-01T08:19:15Z</time>
      </trkpt>
      <trkpt lat="44.452" lon="1.1073">
        <ele>259</ele>
        <time>2009-02-01T08:19:18Z</time>
      </trkpt>
      <trkpt lat="44.45193" lon="1.10721">
        <ele>259</ele>
        <time>2009-02-01T08:19:21Z</time>
      </trkpt>
      <trkpt lat="44.45186" lon="1.1071">
        <ele>259</ele>
        <time>2009-02-01T08:19:24Z</time>
      </trkpt>
      <trkpt lat="44.45179" lon="1.10695">
        <ele>259</ele>
        <time>2009-02-01T08:19:27Z</time>
      </trkpt>
      <trkpt lat="44.45169" lon="1.10675">
        <ele>258</ele>
        <time>2009-02-01T08:19:30Z</time>
      </trkpt>
      <trkpt lat="44.45157" lon="1.10647">
        <ele>257</ele>
        <time>2009-02-01T08:19:33Z</time>
      </trkpt>
      <trkpt lat="44.45143" lon="1.10613">
        <ele>255</ele>
        <time>2009-02-01T08:19:36Z</time>
      </trkpt>
      <trkpt lat="44.45128" lon="1.10579">
        <ele>252</ele>
        <time>2009-02-01T08:19:39Z</time>
      </trkpt>
      <trkpt lat="44.4512" lon="1.10544">
        <ele>249</ele>
        <time>2009-02-01T08:19:42Z</time>
      </trkpt>
      <trkpt lat="44.4512" lon="1.10508">
        <ele>246</ele>
        <time>2009-02-01T08:19:45Z</time>
      </trkpt>
      <trkpt lat="44.45119" lon="1.10475">
        <ele>245</ele>
        <time>2009-02-01T08:19:48Z</time>
      </trkpt>
      <trkpt lat="44.45118" lon="1.10444">
        <ele>244</ele>
        <time>2009-02-01T08:19:51Z</time>
      </trkpt>
      <trkpt lat="44.4512" lon="1.10417">
        <ele>242</ele>
        <time>2009-02-01T08:19:54Z</time>
      </trkpt>
      <trkpt lat="44.45124" lon="1.1039">
        <ele>240</ele>
        <time>2009-02-01T08:19:57Z</time>
      </trkpt>
      <trkpt lat="44.45128" lon="1.10365">
        <ele>240</ele>
        <time>2009-02-01T08:20:00Z</time>
      </trkpt>
      <trkpt lat="44.45133" lon="1.1034">
        <ele>239</ele>
        <time>2009-02-01T08:20:03Z</time>
      </trkpt>
      <trkpt lat="44.4514" lon="1.10316">
        <ele>239</ele>
        <time>2009-02-01T08:20:06Z</time>
      </trkpt>
      <trkpt lat="44.45149" lon="1.10292">
        <ele>239</ele>
        <time>2009-02-01T08:20:09Z</time>
      </trkpt>
      <trkpt lat="44.45156" lon="1.10268">
        <ele>239</ele>
        <time>2009-02-01T08:20:12Z</time>
      </trkpt>
      <trkpt lat="44.45164" lon="1.10242">
        <ele>239</ele>
        <time>2009-02-01T08:20:15Z</time>
      </trkpt>
      <trkpt lat="44.45172" lon="1.10213">
        <ele>239</ele>
        <time>2009-02-01T08:20:18Z</time>
      </trkpt>
      <trkpt lat="44.45183" lon="1.10183">
        <ele>238</ele>
        <time>2009-02-01T08:20:21Z</time>
      </trkpt>
      <trkpt lat="44.45198" lon="1.10152">
        <ele>237</ele>
        <time>2009-02-01T08:20:24Z</time>
      </trkpt>
      <trkpt lat="44.4522" lon="1.10106">
        <ele>234</ele>
        <time>2009-02-01T08:20:28Z</time>
      </trkpt>
      <trkpt lat="44.45239" lon="1.10072">
        <ele>233</ele>
        <time>2009-02-01T08:20:31Z</time>
      </trkpt>
      <trkpt lat="44.45262" lon="1.10045">
        <ele>230</ele>
        <time>2009-02-01T08:20:34Z</time>
      </trkpt>
      <trkpt lat="44.45285" lon="1.10035">
        <ele>227</ele>
        <time>2009-02-01T08:20:37Z</time>
      </trkpt>
      <trkpt lat="44.45301" lon="1.10033">
        <ele>227</ele>
        <time>2009-02-01T08:20:40Z</time>
      </trkpt>
      <trkpt lat="44.45313" lon="1.10031">
        <ele>227</ele>
        <time>2009-02-01T08:20:43Z</time>
      </trkpt>
      <trkpt lat="44.45322" lon="1.10031">
        <ele>227</ele>
        <time>2009-02-01T08:20:46Z</time>
      </trkpt>
      <trkpt lat="44.45329" lon="1.10031">
        <ele>227</ele>
        <time>2009-02-01T08:20:49Z</time>
      </trkpt>
      <trkpt lat="44.45335" lon="1.1003">
        <ele>227</ele>
        <time>2009-02-01T08:20:52Z</time>
      </trkpt>
      <trkpt lat="44.45341" lon="1.10029">
        <ele>227</ele>
        <time>2009-02-01T08:20:55Z</time>
      </trkpt>
      <trkpt lat="44.45347" lon="1.10029">
        <ele>227</ele>
        <time>2009-02-01T08:20:58Z</time>
      </trkpt>
      <trkpt lat="44.45353" lon="1.10029">
        <ele>227</ele>
        <time>2009-02-01T08:21:01Z</time>
      </trkpt>
      <trkpt lat="44.45357" lon="1.10028">
        <ele>227</ele>
        <time>2009-02-01T08:21:04Z</time>
      </trkpt>
      <trkpt lat="44.45363" lon="1.10028">
        <ele>227</ele>
        <time>2009-02-01T08:21:07Z</time>
      </trkpt>
      <trkpt lat="44.45369" lon="1.10027">
        <ele>227</ele>
        <time>2009-02-01T08:21:10Z</time>
      </trkpt>
      <trkpt lat="44.45375" lon="1.10026">
        <ele>227</ele>
        <time>2009-02-01T08:21:13Z</time>
      </trkpt>
      <trkpt lat="44.45379" lon="1.10024">
        <ele>227</ele>
        <time>2009-02-01T08:21:16Z</time>
      </trkpt>
      <trkpt lat="44.45384" lon="1.10022">
        <ele>227</ele>
        <time>2009-02-01T08:21:19Z</time>
      </trkpt>
      <trkpt lat="44.4539" lon="1.10021">
        <ele>227</ele>
        <time>2009-02-01T08:21:22Z</time>
      </trkpt>
      <trkpt lat="44.45394" lon="1.10019">
        <ele>227</ele>
        <time>2009-02-01T08:21:25Z</time>
      </trkpt>
      <trkpt lat="44.45399" lon="1.10017">
        <ele>227</ele>
        <time>2009-02-01T08:21:28Z</time>
      </trkpt>
      <trkpt lat="44.45403" lon="1.10016">
        <ele>228</ele>
        <time>2009-02-01T08:21:31Z</time>
      </trkpt>
      <trkpt lat="44.45406" lon="1.10017">
        <ele>230</ele>
        <time>2009-02-01T08:21:44Z</time>
      </trkpt>
      <trkpt lat="44.45408" lon="1.10015">
        <ele>231</ele>
        <time>2009-02-01T08:21:47Z</time>
      </trkpt>
      <trkpt lat="44.45413" lon="1.10014">
        <ele>232</ele>
        <time>2009-02-01T08:21:50Z</time>
      </trkpt>
      <trkpt lat="44.45418" lon="1.10012">
        <ele>232</ele>
        <time>2009-02-01T08:21:53Z</time>
      </trkpt>
      <trkpt lat="44.45425" lon="1.10011">
        <ele>232</ele>
        <time>2009-02-01T08:21:56Z</time>
      </trkpt>
      <trkpt lat="44.45431" lon="1.10009">
        <ele>233</ele>
        <time>2009-02-01T08:21:59Z</time>
      </trkpt>
      <trkpt lat="44.45438" lon="1.10007">
        <ele>233</ele>
        <time>2009-02-01T08:22:02Z</time>
      </trkpt>
      <trkpt lat="44.45446" lon="1.10004">
        <ele>234</ele>
        <time>2009-02-01T08:22:05Z</time>
      </trkpt>
      <trkpt lat="44.45455" lon="1.09999">
        <ele>234</ele>
        <time>2009-02-01T08:22:08Z</time>
      </trkpt>
      <trkpt lat="44.45465" lon="1.09995">
        <ele>234</ele>
        <time>2009-02-01T08:22:11Z</time>
      </trkpt>
      <trkpt lat="44.45475" lon="1.09991">
        <ele>234</ele>
        <time>2009-02-01T08:22:14Z</time>
      </trkpt>
      <trkpt lat="44.45485" lon="1.09985">
        <ele>234</ele>
        <time>2009-02-01T08:22:17Z</time>
      </trkpt>
      <trkpt lat="44.45495" lon="1.09977">
        <ele>234</ele>
        <time>2009-02-01T08:22:20Z</time>
      </trkpt>
      <trkpt lat="44.45506" lon="1.09969">
        <ele>234</ele>
        <time>2009-02-01T08:22:23Z</time>
      </trkpt>
      <trkpt lat="44.45517" lon="1.09961">
        <ele>234</ele>
        <time>2009-02-01T08:22:26Z</time>
      </trkpt>
      <trkpt lat="44.45527" lon="1.09957">
        <ele>234</ele>
        <time>2009-02-01T08:22:29Z</time>
      </trkpt>
      <trkpt lat="44.45537" lon="1.0995">
        <ele>234</ele>
        <time>2009-02-01T08:22:32Z</time>
      </trkpt>
      <trkpt lat="44.45545" lon="1.09943">
        <ele>234</ele>
        <time>2009-02-01T08:22:35Z</time>
      </trkpt>
      <trkpt lat="44.45553" lon="1.09937">
        <ele>234</ele>
        <time>2009-02-01T08:22:38Z</time>
      </trkpt>
      <trkpt lat="44.45562" lon="1.09931">
        <ele>234</ele>
        <time>2009-02-01T08:22:41Z</time>
      </trkpt>
      <trkpt lat="44.45571" lon="1.09924">
        <ele>234</ele>
        <time>2009-02-01T08:22:44Z</time>
      </trkpt>
      <trkpt lat="44.4558" lon="1.0992">
        <ele>234</ele>
        <time>2009-02-01T08:22:47Z</time>
      </trkpt>
      <trkpt lat="44.45592" lon="1.09912">
        <ele>236</ele>
        <time>2009-02-01T08:22:51Z</time>
      </trkpt>
      <trkpt lat="44.45601" lon="1.09905">
        <ele>237</ele>
        <time>2009-02-01T08:22:54Z</time>
      </trkpt>
      <trkpt lat="44.4561" lon="1.099">
        <ele>238</ele>
        <time>2009-02-01T08:22:57Z</time>
      </trkpt>
      <trkpt lat="44.45618" lon="1.09894">
        <ele>239</ele>
        <time>2009-02-01T08:23:00Z</time>
      </trkpt>
      <trkpt lat="44.45628" lon="1.09887">
        <ele>240</ele>
        <time>2009-02-01T08:23:03Z</time>
      </trkpt>
      <trkpt lat="44.45636" lon="1.0988">
        <ele>241</ele>
        <time>2009-02-01T08:23:06Z</time>
      </trkpt>
      <trkpt lat="44.45643" lon="1.09873">
        <ele>241</ele>
        <time>2009-02-01T08:23:09Z</time>
      </trkpt>
      <trkpt lat="44.45651" lon="1.09867">
        <ele>241</ele>
        <time>2009-02-01T08:23:12Z</time>
      </trkpt>
      <trkpt lat="44.45658" lon="1.09859">
        <ele>241</ele>
        <time>2009-02-01T08:23:15Z</time>
      </trkpt>
      <trkpt lat="44.45666" lon="1.09851">
        <ele>241</ele>
        <time>2009-02-01T08:23:18Z</time>
      </trkpt>
      <trkpt lat="44.45675" lon="1.09844">
        <ele>241</ele>
        <time>2009-02-01T08:23:21Z</time>
      </trkpt>
      <trkpt lat="44.45683" lon="1.09835">
        <ele>241</ele>
        <time>2009-02-01T08:23:24Z</time>
      </trkpt>
      <trkpt lat="44.45692" lon="1.09829">
        <ele>241</ele>
        <time>2009-02-01T08:23:27Z</time>
      </trkpt>
      <trkpt lat="44.457" lon="1.09823">
        <ele>241</ele>
        <time>2009-02-01T08:23:30Z</time>
      </trkpt>
      <trkpt lat="44.45708" lon="1.09818">
        <ele>241</ele>
        <time>2009-02-01T08:23:33Z</time>
      </trkpt>
      <trkpt lat="44.45719" lon="1.09813">
        <ele>241</ele>
        <time>2009-02-01T08:23:36Z</time>
      </trkpt>
      <trkpt lat="44.45728" lon="1.09808">
        <ele>241</ele>
        <time>2009-02-01T08:23:39Z</time>
      </trkpt>
      <trkpt lat="44.45738" lon="1.09804">
        <ele>239</ele>
        <time>2009-02-01T08:23:42Z</time>
      </trkpt>
      <trkpt lat="44.45746" lon="1.09799">
        <ele>236</ele>
        <time>2009-02-01T08:23:45Z</time>
      </trkpt>
      <trkpt lat="44.45756" lon="1.09793">
        <ele>234</ele>
        <time>2009-02-01T08:23:48Z</time>
      </trkpt>
      <trkpt lat="44.45771" lon="1.09785">
        <ele>233</ele>
        <time>2009-02-01T08:23:52Z</time>
      </trkpt>
      <trkpt lat="44.45783" lon="1.09779">
        <ele>232</ele>
        <time>2009-02-01T08:23:55Z</time>
      </trkpt>
      <trkpt lat="44.45796" lon="1.09773">
        <ele>231</ele>
        <time>2009-02-01T08:23:58Z</time>
      </trkpt>
      <trkpt lat="44.45812" lon="1.09768">
        <ele>229</ele>
        <time>2009-02-01T08:24:01Z</time>
      </trkpt>
      <trkpt lat="44.45828" lon="1.09762">
        <ele>228</ele>
        <time>2009-02-01T08:24:04Z</time>
      </trkpt>
      <trkpt lat="44.45843" lon="1.09755">
        <ele>227</ele>
        <time>2009-02-01T08:24:07Z</time>
      </trkpt>
      <trkpt lat="44.45854" lon="1.09746">
        <ele>227</ele>
        <time>2009-02-01T08:24:10Z</time>
      </trkpt>
      <trkpt lat="44.45864" lon="1.09734">
        <ele>227</ele>
        <time>2009-02-01T08:24:13Z</time>
      </trkpt>
      <trkpt lat="44.45874" lon="1.09722">
        <ele>227</ele>
        <time>2009-02-01T08:24:16Z</time>
      </trkpt>
      <trkpt lat="44.45882" lon="1.09709">
        <ele>227</ele>
        <time>2009-02-01T08:24:19Z</time>
      </trkpt>
      <trkpt lat="44.4589" lon="1.09697">
        <ele>227</ele>
        <time>2009-02-01T08:24:22Z</time>
      </trkpt>
      <trkpt lat="44.45896" lon="1.09684">
        <ele>227</ele>
        <time>2009-02-01T08:24:25Z</time>
      </trkpt>
      <trkpt lat="44.45903" lon="1.0967">
        <ele>227</ele>
        <time>2009-02-01T08:24:28Z</time>
      </trkpt>
      <trkpt lat="44.45909" lon="1.09654">
        <ele>227</ele>
        <time>2009-02-01T08:24:31Z</time>
      </trkpt>
      <trkpt lat="44.45915" lon="1.09637">
        <ele>227</ele>
        <time>2009-02-01T08:24:34Z</time>
      </trkpt>
      <trkpt lat="44.45921" lon="1.09617">
        <ele>227</ele>
        <time>2009-02-01T08:24:37Z</time>
      </trkpt>
      <trkpt lat="44.45927" lon="1.09596">
        <ele>227</ele>
        <time>2009-02-01T08:24:40Z</time>
      </trkpt>
      <trkpt lat="44.45933" lon="1.09574">
        <ele>227</ele>
        <time>2009-02-01T08:24:43Z</time>
      </trkpt>
      <trkpt lat="44.4594" lon="1.09555">
        <ele>227</ele>
        <time>2009-02-01T08:24:46Z</time>
      </trkpt>
      <trkpt lat="44.45947" lon="1.09539">
        <ele>227</ele>
        <time>2009-02-01T08:24:49Z</time>
      </trkpt>
      <trkpt lat="44.45952" lon="1.09523">
        <ele>227</ele>
        <time>2009-02-01T08:24:52Z</time>
      </trkpt>
      <trkpt lat="44.4596" lon="1.09508">
        <ele>227</ele>
        <time>2009-02-01T08:24:55Z</time>
      </trkpt>
      <trkpt lat="44.4597" lon="1.09484">
        <ele>227</ele>
        <time>2009-02-01T08:24:59Z</time>
      </trkpt>
      <trkpt lat="44.4598" lon="1.09468">
        <ele>227</ele>
        <time>2009-02-01T08:25:02Z</time>
      </trkpt>
      <trkpt lat="44.4599" lon="1.09452">
        <ele>227</ele>
        <time>2009-02-01T08:25:05Z</time>
      </trkpt>
      <trkpt lat="44.46002" lon="1.09436">
        <ele>227</ele>
        <time>2009-02-01T08:25:08Z</time>
      </trkpt>
      <trkpt lat="44.46015" lon="1.09421">
        <ele>226</ele>
        <time>2009-02-01T08:25:11Z</time>
      </trkpt>
      <trkpt lat="44.46027" lon="1.09402">
        <ele>224</ele>
        <time>2009-02-01T08:25:14Z</time>
      </trkpt>
      <trkpt lat="44.46039" lon="1.09387">
        <ele>223</ele>
        <time>2009-02-01T08:25:17Z</time>
      </trkpt>
      <trkpt lat="44.46052" lon="1.09372">
        <ele>223</ele>
        <time>2009-02-01T08:25:20Z</time>
      </trkpt>
      <trkpt lat="44.46063" lon="1.09357">
        <ele>223</ele>
        <time>2009-02-01T08:25:23Z</time>
      </trkpt>
      <trkpt lat="44.46074" lon="1.09342">
        <ele>223</ele>
        <time>2009-02-01T08:25:26Z</time>
      </trkpt>
      <trkpt lat="44.46085" lon="1.09327">
        <ele>223</ele>
        <time>2009-02-01T08:25:29Z</time>
      </trkpt>
      <trkpt lat="44.46099" lon="1.09315">
        <ele>223</ele>
        <time>2009-02-01T08:25:32Z</time>
      </trkpt>
      <trkpt lat="44.46121" lon="1.09306">
        <ele>222</ele>
        <time>2009-02-01T08:25:36Z</time>
      </trkpt>
      <trkpt lat="44.46141" lon="1.093">
        <ele>219</ele>
        <time>2009-02-01T08:25:39Z</time>
      </trkpt>
      <trkpt lat="44.46162" lon="1.09296">
        <ele>216</ele>
        <time>2009-02-01T08:25:42Z</time>
      </trkpt>
      <trkpt lat="44.4618" lon="1.09295">
        <ele>213</ele>
        <time>2009-02-01T08:25:45Z</time>
      </trkpt>
      <trkpt lat="44.46194" lon="1.09292">
        <ele>212</ele>
        <time>2009-02-01T08:25:48Z</time>
      </trkpt>
      <trkpt lat="44.46206" lon="1.0929">
        <ele>212</ele>
        <time>2009-02-01T08:25:51Z</time>
      </trkpt>
      <trkpt lat="44.46216" lon="1.09287">
        <ele>212</ele>
        <time>2009-02-01T08:25:54Z</time>
      </trkpt>
      <trkpt lat="44.46225" lon="1.09284">
        <ele>212</ele>
        <time>2009-02-01T08:25:57Z</time>
      </trkpt>
      <trkpt lat="44.46233" lon="1.09281">
        <ele>212</ele>
        <time>2009-02-01T08:26:00Z</time>
      </trkpt>
      <trkpt lat="44.46245" lon="1.09278">
        <ele>212</ele>
        <time>2009-02-01T08:26:04Z</time>
      </trkpt>
      <trkpt lat="44.46254" lon="1.09277">
        <ele>212</ele>
        <time>2009-02-01T08:26:07Z</time>
      </trkpt>
      <trkpt lat="44.46261" lon="1.09274">
        <ele>212</ele>
        <time>2009-02-01T08:26:10Z</time>
      </trkpt>
      <trkpt lat="44.46267" lon="1.09272">
        <ele>212</ele>
        <time>2009-02-01T08:26:13Z</time>
      </trkpt>
      <trkpt lat="44.46275" lon="1.09271">
        <ele>212</ele>
        <time>2009-02-01T08:26:16Z</time>
      </trkpt>
      <trkpt lat="44.46282" lon="1.0927">
        <ele>212</ele>
        <time>2009-02-01T08:26:19Z</time>
      </trkpt>
      <trkpt lat="44.46291" lon="1.0927">
        <ele>212</ele>
        <time>2009-02-01T08:26:22Z</time>
      </trkpt>
      <trkpt lat="44.46299" lon="1.09268">
        <ele>212</ele>
        <time>2009-02-01T08:26:25Z</time>
      </trkpt>
      <trkpt lat="44.4631" lon="1.09265">
        <ele>212</ele>
        <time>2009-02-01T08:26:29Z</time>
      </trkpt>
      <trkpt lat="44.46317" lon="1.09262">
        <ele>212</ele>
        <time>2009-02-01T08:26:32Z</time>
      </trkpt>
      <trkpt lat="44.46325" lon="1.09258">
        <ele>213</ele>
        <time>2009-02-01T08:26:35Z</time>
      </trkpt>
      <trkpt lat="44.46332" lon="1.09255">
        <ele>213</ele>
        <time>2009-02-01T08:26:38Z</time>
      </trkpt>
      <trkpt lat="44.46339" lon="1.09251">
        <ele>213</ele>
        <time>2009-02-01T08:26:41Z</time>
      </trkpt>
      <trkpt lat="44.46347" lon="1.09247">
        <ele>213</ele>
        <time>2009-02-01T08:26:44Z</time>
      </trkpt>
      <trkpt lat="44.46354" lon="1.09243">
        <ele>213</ele>
        <time>2009-02-01T08:26:47Z</time>
      </trkpt>
      <trkpt lat="44.46362" lon="1.0924">
        <ele>214</ele>
        <time>2009-02-01T08:26:50Z</time>
      </trkpt>
      <trkpt lat="44.46372" lon="1.09236">
        <ele>214</ele>
        <time>2009-02-01T08:26:54Z</time>
      </trkpt>
      <trkpt lat="44.4638" lon="1.09232">
        <ele>214</ele>
        <time>2009-02-01T08:26:57Z</time>
      </trkpt>
      <trkpt lat="44.46387" lon="1.09229">
        <ele>214</ele>
        <time>2009-02-01T08:27:00Z</time>
      </trkpt>
      <trkpt lat="44.46394" lon="1.09225">
        <ele>214</ele>
        <time>2009-02-01T08:27:03Z</time>
      </trkpt>
      <trkpt lat="44.464" lon="1.09222">
        <ele>215</ele>
        <time>2009-02-01T08:27:06Z</time>
      </trkpt>
      <trkpt lat="44.46405" lon="1.0922">
        <ele>215</ele>
        <time>2009-02-01T08:27:09Z</time>
      </trkpt>
      <trkpt lat="44.46413" lon="1.09216">
        <ele>215</ele>
        <time>2009-02-01T08:27:12Z</time>
      </trkpt>
      <trkpt lat="44.46422" lon="1.09211">
        <ele>216</ele>
        <time>2009-02-01T08:27:16Z</time>
      </trkpt>
      <trkpt lat="44.46429" lon="1.09207">
        <ele>216</ele>
        <time>2009-02-01T08:27:19Z</time>
      </trkpt>
      <trkpt lat="44.46437" lon="1.09205">
        <ele>216</ele>
        <time>2009-02-01T08:27:22Z</time>
      </trkpt>
      <trkpt lat="44.46445" lon="1.09202">
        <ele>216</ele>
        <time>2009-02-01T08:27:25Z</time>
      </trkpt>
      <trkpt lat="44.46452" lon="1.092">
        <ele>216</ele>
        <time>2009-02-01T08:27:28Z</time>
      </trkpt>
      <trkpt lat="44.46457" lon="1.09196">
        <ele>216</ele>
        <time>2009-02-01T08:27:31Z</time>
      </trkpt>
      <trkpt lat="44.46463" lon="1.09189">
        <ele>216</ele>
        <time>2009-02-01T08:27:34Z</time>
      </trkpt>
      <trkpt lat="44.46471" lon="1.09179">
        <ele>216</ele>
        <time>2009-02-01T08:27:38Z</time>
      </trkpt>
      <trkpt lat="44.46477" lon="1.09172">
        <ele>216</ele>
        <time>2009-02-01T08:27:41Z</time>
      </trkpt>
      <trkpt lat="44.46482" lon="1.09163">
        <ele>216</ele>
        <time>2009-02-01T08:27:44Z</time>
      </trkpt>
      <trkpt lat="44.46487" lon="1.09155">
        <ele>216</ele>
        <time>2009-02-01T08:27:47Z</time>
      </trkpt>
      <trkpt lat="44.46493" lon="1.09147">
        <ele>216</ele>
        <time>2009-02-01T08:27:50Z</time>
      </trkpt>
      <trkpt lat="44.46499" lon="1.09139">
        <ele>217</ele>
        <time>2009-02-01T08:27:53Z</time>
      </trkpt>
      <trkpt lat="44.46504" lon="1.0913">
        <ele>218</ele>
        <time>2009-02-01T08:27:56Z</time>
      </trkpt>
      <trkpt lat="44.4651" lon="1.09117">
        <ele>218</ele>
        <time>2009-02-01T08:28:00Z</time>
      </trkpt>
      <trkpt lat="44.46515" lon="1.09108">
        <ele>219</ele>
        <time>2009-02-01T08:28:03Z</time>
      </trkpt>
      <trkpt lat="44.4652" lon="1.09098">
        <ele>219</ele>
        <time>2009-02-01T08:28:06Z</time>
      </trkpt>
      <trkpt lat="44.46525" lon="1.09089">
        <ele>219</ele>
        <time>2009-02-01T08:28:09Z</time>
      </trkpt>
      <trkpt lat="44.4653" lon="1.09079">
        <ele>220</ele>
        <time>2009-02-01T08:28:12Z</time>
      </trkpt>
      <trkpt lat="44.46536" lon="1.09071">
        <ele>220</ele>
        <time>2009-02-01T08:28:15Z</time>
      </trkpt>
      <trkpt lat="44.46541" lon="1.09062">
        <ele>220</ele>
        <time>2009-02-01T08:28:18Z</time>
      </trkpt>
      <trkpt lat="44.46546" lon="1.09049">
        <ele>221</ele>
        <time>2009-02-01T08:28:22Z</time>
      </trkpt>
      <trkpt lat="44.46551" lon="1.09042">
        <ele>221</ele>
        <time>2009-02-01T08:28:25Z</time>
      </trkpt>
      <trkpt lat="44.46555" lon="1.09032">
        <ele>221</ele>
        <time>2009-02-01T08:28:28Z</time>
      </trkpt>
      <trkpt lat="44.4656" lon="1.09023">
        <ele>221</ele>
        <time>2009-02-01T08:28:31Z</time>
      </trkpt>
      <trkpt lat="44.46565" lon="1.09014">
        <ele>221</ele>
        <time>2009-02-01T08:28:34Z</time>
      </trkpt>
      <trkpt lat="44.4657" lon="1.09006">
        <ele>222</ele>
        <time>2009-02-01T08:28:37Z</time>
      </trkpt>
      <trkpt lat="44.46579" lon="1.09011">
        <ele>223</ele>
        <time>2009-02-01T08:28:41Z</time>
      </trkpt>
      <trkpt lat="44.46583" lon="1.09017">
        <ele>223</ele>
        <time>2009-02-01T08:28:44Z</time>
      </trkpt>
      <trkpt lat="44.46587" lon="1.09021">
        <ele>224</ele>
        <time>2009-02-01T08:28:47Z</time>
      </trkpt>
      <trkpt lat="44.46591" lon="1.09026">
        <ele>224</ele>
        <time>2009-02-01T08:28:50Z</time>
      </trkpt>
      <trkpt lat="44.46596" lon="1.09032">
        <ele>224</ele>
        <time>2009-02-01T08:28:53Z</time>
      </trkpt>
      <trkpt lat="44.46601" lon="1.09038">
        <ele>224</ele>
        <time>2009-02-01T08:28:56Z</time>
      </trkpt>
      <trkpt lat="44.46609" lon="1.09047">
        <ele>224</ele>
        <time>2009-02-01T08:29:00Z</time>
      </trkpt>
      <trkpt lat="44.46614" lon="1.09053">
        <ele>224</ele>
        <time>2009-02-01T08:29:03Z</time>
      </trkpt>
      <trkpt lat="44.46619" lon="1.0906">
        <ele>224</ele>
        <time>2009-02-01T08:29:06Z</time>
      </trkpt>
      <trkpt lat="44.46623" lon="1.09066">
        <ele>224</ele>
        <time>2009-02-01T08:29:09Z</time>
      </trkpt>
      <trkpt lat="44.46628" lon="1.09072">
        <ele>225</ele>
        <time>2009-02-01T08:29:12Z</time>
      </trkpt>
      <trkpt lat="44.46633" lon="1.09079">
        <ele>225</ele>
        <time>2009-02-01T08:29:15Z</time>
      </trkpt>
      <trkpt lat="44.46639" lon="1.09086">
        <ele>226</ele>
        <time>2009-02-01T08:29:18Z</time>
      </trkpt>
      <trkpt lat="44.46646" lon="1.09095">
        <ele>227</ele>
        <time>2009-02-01T08:29:21Z</time>
      </trkpt>
      <trkpt lat="44.46653" lon="1.09103">
        <ele>227</ele>
        <time>2009-02-01T08:29:24Z</time>
      </trkpt>
      <trkpt lat="44.46662" lon="1.09112">
        <ele>227</ele>
        <time>2009-02-01T08:29:27Z</time>
      </trkpt>
      <trkpt lat="44.4667" lon="1.09121">
        <ele>227</ele>
        <time>2009-02-01T08:29:30Z</time>
      </trkpt>
      <trkpt lat="44.46682" lon="1.09135">
        <ele>227</ele>
        <time>2009-02-01T08:29:33Z</time>
      </trkpt>
      <trkpt lat="44.46692" lon="1.09152">
        <ele>227</ele>
        <time>2009-02-01T08:29:36Z</time>
      </trkpt>
      <trkpt lat="44.46701" lon="1.09166">
        <ele>227</ele>
        <time>2009-02-01T08:29:39Z</time>
      </trkpt>
      <trkpt lat="44.46714" lon="1.09181">
        <ele>227</ele>
        <time>2009-02-01T08:29:42Z</time>
      </trkpt>
      <trkpt lat="44.46726" lon="1.09199">
        <ele>227</ele>
        <time>2009-02-01T08:29:45Z</time>
      </trkpt>
      <trkpt lat="44.46736" lon="1.09225">
        <ele>227</ele>
        <time>2009-02-01T08:29:48Z</time>
      </trkpt>
      <trkpt lat="44.46747" lon="1.09251">
        <ele>225</ele>
        <time>2009-02-01T08:29:51Z</time>
      </trkpt>
      <trkpt lat="44.46758" lon="1.09271">
        <ele>223</ele>
        <time>2009-02-01T08:29:54Z</time>
      </trkpt>
      <trkpt lat="44.46763" lon="1.09261">
        <ele>220</ele>
        <time>2009-02-01T08:29:57Z</time>
      </trkpt>
      <trkpt lat="44.46769" lon="1.09244">
        <ele>218</ele>
        <time>2009-02-01T08:30:00Z</time>
      </trkpt>
      <trkpt lat="44.46777" lon="1.09223">
        <ele>215</ele>
        <time>2009-02-01T08:30:03Z</time>
      </trkpt>
      <trkpt lat="44.46782" lon="1.092">
        <ele>214</ele>
        <time>2009-02-01T08:30:06Z</time>
      </trkpt>
      <trkpt lat="44.4679" lon="1.09177">
        <ele>214</ele>
        <time>2009-02-01T08:30:09Z</time>
      </trkpt>
      <trkpt lat="44.46801" lon="1.09156">
        <ele>214</ele>
        <time>2009-02-01T08:30:12Z</time>
      </trkpt>
      <trkpt lat="44.46813" lon="1.09142">
        <ele>214</ele>
        <time>2009-02-01T08:30:15Z</time>
      </trkpt>
      <trkpt lat="44.46816" lon="1.09134">
        <ele>214</ele>
        <time>2009-02-01T08:30:18Z</time>
      </trkpt>
      <trkpt lat="44.46834" lon="1.09119">
        <ele>215</ele>
        <time>2009-02-01T08:30:22Z</time>
      </trkpt>
      <trkpt lat="44.46857" lon="1.09102">
        <ele>215</ele>
        <time>2009-02-01T08:30:25Z</time>
      </trkpt>
      <trkpt lat="44.46873" lon="1.0909">
        <ele>215</ele>
        <time>2009-02-01T08:30:28Z</time>
      </trkpt>
      <trkpt lat="44.46881" lon="1.09094">
        <ele>213</ele>
        <time>2009-02-01T08:30:31Z</time>
      </trkpt>
      <trkpt lat="44.46869" lon="1.09105">
        <ele>210</ele>
        <time>2009-02-01T08:30:34Z</time>
      </trkpt>
      <trkpt lat="44.46857" lon="1.09122">
        <ele>206</ele>
        <time>2009-02-01T08:30:37Z</time>
      </trkpt>
      <trkpt lat="44.46844" lon="1.09146">
        <ele>202</ele>
        <time>2009-02-01T08:30:40Z</time>
      </trkpt>
      <trkpt lat="44.46853" lon="1.09165">
        <ele>199</ele>
        <time>2009-02-01T08:30:43Z</time>
      </trkpt>
      <trkpt lat="44.46878" lon="1.09165">
        <ele>193</ele>
        <time>2009-02-01T08:30:46Z</time>
      </trkpt>
      <trkpt lat="44.46904" lon="1.09166">
        <ele>187</ele>
        <time>2009-02-01T08:30:49Z</time>
      </trkpt>
      <trkpt lat="44.46931" lon="1.0916">
        <ele>181</ele>
        <time>2009-02-01T08:30:52Z</time>
      </trkpt>
      <trkpt lat="44.46963" lon="1.09154">
        <ele>178</ele>
        <time>2009-02-01T08:30:55Z</time>
      </trkpt>
      <trkpt lat="44.46997" lon="1.09149">
        <ele>173</ele>
        <time>2009-02-01T08:30:58Z</time>
      </trkpt>
      <trkpt lat="44.47022" lon="1.09159">
        <ele>170</ele>
        <time>2009-02-01T08:31:01Z</time>
      </trkpt>
      <trkpt lat="44.47052" lon="1.09177">
        <ele>167</ele>
        <time>2009-02-01T08:31:04Z</time>
      </trkpt>
      <trkpt lat="44.47078" lon="1.0919">
        <ele>164</ele>
        <time>2009-02-01T08:31:07Z</time>
      </trkpt>
      <trkpt lat="44.47108" lon="1.09201">
        <ele>161</ele>
        <time>2009-02-01T08:31:10Z</time>
      </trkpt>
      <trkpt lat="44.47136" lon="1.09209">
        <ele>158</ele>
        <time>2009-02-01T08:31:13Z</time>
      </trkpt>
      <trkpt lat="44.47164" lon="1.09217">
        <ele>157</ele>
        <time>2009-02-01T08:31:16Z</time>
      </trkpt>
      <trkpt lat="44.47192" lon="1.09228">
        <ele>154</ele>
        <time>2009-02-01T08:31:19Z</time>
      </trkpt>
      <trkpt lat="44.47219" lon="1.09236">
        <ele>151</ele>
        <time>2009-02-01T08:31:22Z</time>
      </trkpt>
      <trkpt lat="44.47246" lon="1.09245">
        <ele>148</ele>
        <time>2009-02-01T08:31:25Z</time>
      </trkpt>
      <trkpt lat="44.47271" lon="1.09255">
        <ele>145</ele>
        <time>2009-02-01T08:31:28Z</time>
      </trkpt>
      <trkpt lat="44.47298" lon="1.09265">
        <ele>142</ele>
        <time>2009-02-01T08:31:31Z</time>
      </trkpt>
      <trkpt lat="44.47327" lon="1.0928">
        <ele>140</ele>
        <time>2009-02-01T08:31:34Z</time>
      </trkpt>
      <trkpt lat="44.47352" lon="1.09296">
        <ele>137</ele>
        <time>2009-02-01T08:31:37Z</time>
      </trkpt>
      <trkpt lat="44.47375" lon="1.09321">
        <ele>134</ele>
        <time>2009-02-01T08:31:40Z</time>
      </trkpt>
      <trkpt lat="44.47399" lon="1.0935">
        <ele>131</ele>
        <time>2009-02-01T08:31:43Z</time>
      </trkpt>
      <trkpt lat="44.47421" lon="1.0938">
        <ele>128</ele>
        <time>2009-02-01T08:31:46Z</time>
      </trkpt>
      <trkpt lat="44.47441" lon="1.09406">
        <ele>125</ele>
        <time>2009-02-01T08:31:49Z</time>
      </trkpt>
      <trkpt lat="44.47455" lon="1.0942">
        <ele>122</ele>
        <time>2009-02-01T08:31:52Z</time>
      </trkpt>
      <trkpt lat="44.4746" lon="1.09425">
        <ele>119</ele>
        <time>2009-02-01T08:31:56Z</time>
      </trkpt>
      <trkpt lat="44.47458" lon="1.09424">
        <ele>114</ele>
        <time>2009-02-01T08:32:05Z</time>
      </trkpt>
      <trkpt lat="44.47457" lon="1.09423">
        <ele>114</ele>
        <time>2009-02-01T08:32:08Z</time>
      </trkpt>
      <trkpt lat="44.47453" lon="1.09419">
        <ele>114</ele>
        <time>2009-02-01T08:32:13Z</time>
      </trkpt>
      <trkpt lat="44.47458" lon="1.0942">
        <ele>117</ele>
        <time>2009-02-01T08:32:16Z</time>
      </trkpt>
      <trkpt lat="44.47461" lon="1.09422">
        <ele>120</ele>
        <time>2009-02-01T08:32:19Z</time>
      </trkpt>
      <trkpt lat="44.47461" lon="1.09423">
        <ele>122</ele>
        <time>2009-02-01T08:32:29Z</time>
      </trkpt>
      <trkpt lat="44.47457" lon="1.09422">
        <ele>121</ele>
        <time>2009-02-01T08:32:32Z</time>
      </trkpt>
      <trkpt lat="44.47452" lon="1.09421">
        <ele>117</ele>
        <time>2009-02-01T08:32:37Z</time>
      </trkpt>
      <trkpt lat="44.47453" lon="1.09422">
        <ele>114</ele>
        <time>2009-02-01T08:32:40Z</time>
      </trkpt>
      <trkpt lat="44.47456" lon="1.09424">
        <ele>111</ele>
        <time>2009-02-01T08:32:46Z</time>
      </trkpt>
      <trkpt lat="44.47457" lon="1.09428">
        <ele>110</ele>
        <time>2009-02-01T08:32:52Z</time>
      </trkpt>
      <trkpt lat="44.47457" lon="1.09429">
        <ele>110</ele>
        <time>2009-02-01T08:32:55Z</time>
      </trkpt>
      <trkpt lat="44.47458" lon="1.09431">
        <ele>112</ele>
        <time>2009-02-01T08:33:02Z</time>
      </trkpt>
      <trkpt lat="44.47459" lon="1.09431">
        <ele>117</ele>
        <time>2009-02-01T08:33:08Z</time>
      </trkpt>
      <trkpt lat="44.47461" lon="1.09431">
        <ele>123</ele>
        <time>2009-02-01T08:33:20Z</time>
      </trkpt>
      <trkpt lat="44.47463" lon="1.09431">
        <ele>125</ele>
        <time>2009-02-01T08:33:23Z</time>
      </trkpt>
      <trkpt lat="44.4747" lon="1.09435">
        <ele>125</ele>
        <time>2009-02-01T08:33:26Z</time>
      </trkpt>
      <trkpt lat="44.47472" lon="1.09445">
        <ele>125</ele>
        <time>2009-02-01T08:33:29Z</time>
      </trkpt>
      <trkpt lat="44.47467" lon="1.09455">
        <ele>125</ele>
        <time>2009-02-01T08:33:32Z</time>
      </trkpt>
      <trkpt lat="44.47463" lon="1.09464">
        <ele>125</ele>
        <time>2009-02-01T08:33:35Z</time>
      </trkpt>
      <trkpt lat="44.47457" lon="1.09476">
        <ele>123</ele>
        <time>2009-02-01T08:33:38Z</time>
      </trkpt>
      <trkpt lat="44.47452" lon="1.09489">
        <ele>121</ele>
        <time>2009-02-01T08:33:41Z</time>
      </trkpt>
      <trkpt lat="44.47447" lon="1.09503">
        <ele>120</ele>
        <time>2009-02-01T08:33:44Z</time>
      </trkpt>
      <trkpt lat="44.47443" lon="1.09516">
        <ele>120</ele>
        <time>2009-02-01T08:33:47Z</time>
      </trkpt>
      <trkpt lat="44.47436" lon="1.09528">
        <ele>120</ele>
        <time>2009-02-01T08:33:50Z</time>
      </trkpt>
      <trkpt lat="44.47429" lon="1.0954">
        <ele>119</ele>
        <time>2009-02-01T08:33:53Z</time>
      </trkpt>
      <trkpt lat="44.47422" lon="1.09551">
        <ele>119</ele>
        <time>2009-02-01T08:33:56Z</time>
      </trkpt>
      <trkpt lat="44.47415" lon="1.09561">
        <ele>119</ele>
        <time>2009-02-01T08:33:59Z</time>
      </trkpt>
      <trkpt lat="44.47409" lon="1.09569">
        <ele>119</ele>
        <time>2009-02-01T08:34:02Z</time>
      </trkpt>
      <trkpt lat="44.47406" lon="1.09576">
        <ele>119</ele>
        <time>2009-02-01T08:34:05Z</time>
      </trkpt>
      <trkpt lat="44.47403" lon="1.0958">
        <ele>119</ele>
        <time>2009-02-01T08:34:08Z</time>
      </trkpt>
      <trkpt lat="44.47402" lon="1.09581">
        <ele>117</ele>
        <time>2009-02-01T08:34:13Z</time>
      </trkpt>
      <trkpt lat="44.47404" lon="1.09583">
        <ele>117</ele>
        <time>2009-02-01T08:34:16Z</time>
      </trkpt>
      <trkpt lat="44.47407" lon="1.09584">
        <ele>117</ele>
        <time>2009-02-01T08:34:19Z</time>
      </trkpt>
      <trkpt lat="44.47411" lon="1.09586">
        <ele>117</ele>
        <time>2009-02-01T08:34:23Z</time>
      </trkpt>
      <trkpt lat="44.47409" lon="1.09586">
        <ele>120</ele>
        <time>2009-02-01T08:34:28Z</time>
      </trkpt>
      <trkpt lat="44.47406" lon="1.09585">
        <ele>123</ele>
        <time>2009-02-01T08:34:34Z</time>
      </trkpt>
      <trkpt lat="44.47403" lon="1.09585">
        <ele>123</ele>
        <time>2009-02-01T08:34:40Z</time>
      </trkpt>
      <trkpt lat="44.474" lon="1.09584">
        <ele>123</ele>
        <time>2009-02-01T08:34:46Z</time>
      </trkpt>
      <trkpt lat="44.47399" lon="1.09584">
        <ele>124</ele>
        <time>2009-02-01T08:34:52Z</time>
      </trkpt>
      <trkpt lat="44.47399" lon="1.09585">
        <ele>124</ele>
        <time>2009-02-01T08:34:55Z</time>
      </trkpt>
      <trkpt lat="44.47398" lon="1.09587">
        <ele>124</ele>
        <time>2009-02-01T08:34:59Z</time>
      </trkpt>
      <trkpt lat="44.47399" lon="1.09595">
        <ele>124</ele>
        <time>2009-02-01T08:35:02Z</time>
      </trkpt>
      <trkpt lat="44.474" lon="1.09602">
        <ele>124</ele>
        <time>2009-02-01T08:35:05Z</time>
      </trkpt>
      <trkpt lat="44.47402" lon="1.09609">
        <ele>123</ele>
        <time>2009-02-01T08:35:08Z</time>
      </trkpt>
      <trkpt lat="44.47404" lon="1.09614">
        <ele>123</ele>
        <time>2009-02-01T08:35:11Z</time>
      </trkpt>
      <trkpt lat="44.47405" lon="1.09619">
        <ele>123</ele>
        <time>2009-02-01T08:35:14Z</time>
      </trkpt>
      <trkpt lat="44.47407" lon="1.09623">
        <ele>123</ele>
        <time>2009-02-01T08:35:17Z</time>
      </trkpt>
      <trkpt lat="44.4741" lon="1.09628">
        <ele>123</ele>
        <time>2009-02-01T08:35:20Z</time>
      </trkpt>
      <trkpt lat="44.47413" lon="1.09631">
        <ele>122</ele>
        <time>2009-02-01T08:35:23Z</time>
      </trkpt>
      <trkpt lat="44.47417" lon="1.09635">
        <ele>121</ele>
        <time>2009-02-01T08:35:26Z</time>
      </trkpt>
      <trkpt lat="44.47421" lon="1.09638">
        <ele>120</ele>
        <time>2009-02-01T08:35:29Z</time>
      </trkpt>
      <trkpt lat="44.47423" lon="1.09641">
        <ele>119</ele>
        <time>2009-02-01T08:35:32Z</time>
      </trkpt>
      <trkpt lat="44.47424" lon="1.09647">
        <ele>118</ele>
        <time>2009-02-01T08:35:35Z</time>
      </trkpt>
      <trkpt lat="44.47422" lon="1.09653">
        <ele>117</ele>
        <time>2009-02-01T08:35:40Z</time>
      </trkpt>
      <trkpt lat="44.47419" lon="1.09657">
        <ele>116</ele>
        <time>2009-02-01T08:35:43Z</time>
      </trkpt>
      <trkpt lat="44.47416" lon="1.09662">
        <ele>116</ele>
        <time>2009-02-01T08:35:47Z</time>
      </trkpt>
      <trkpt lat="44.47414" lon="1.09666">
        <ele>116</ele>
        <time>2009-02-01T08:35:50Z</time>
      </trkpt>
      <trkpt lat="44.4741" lon="1.0967">
        <ele>116</ele>
        <time>2009-02-01T08:35:55Z</time>
      </trkpt>
      <trkpt lat="44.47406" lon="1.09674">
        <ele>116</ele>
        <time>2009-02-01T08:35:58Z</time>
      </trkpt>
      <trkpt lat="44.47401" lon="1.09681">
        <ele>116</ele>
        <time>2009-02-01T08:36:01Z</time>
      </trkpt>
      <trkpt lat="44.47397" lon="1.09686">
        <ele>116</ele>
        <time>2009-02-01T08:36:04Z</time>
      </trkpt>
      <trkpt lat="44.47393" lon="1.0969">
        <ele>116</ele>
        <time>2009-02-01T08:36:07Z</time>
      </trkpt>
      <trkpt lat="44.47389" lon="1.09695">
        <ele>116</ele>
        <time>2009-02-01T08:36:10Z</time>
      </trkpt>
      <trkpt lat="44.47385" lon="1.097">
        <ele>116</ele>
        <time>2009-02-01T08:36:13Z</time>
      </trkpt>
      <trkpt lat="44.4738" lon="1.09706">
        <ele>116</ele>
        <time>2009-02-01T08:36:16Z</time>
      </trkpt>
      <trkpt lat="44.47377" lon="1.09711">
        <ele>116</ele>
        <time>2009-02-01T08:36:19Z</time>
      </trkpt>
      <trkpt lat="44.47373" lon="1.09716">
        <ele>116</ele>
        <time>2009-02-01T08:36:22Z</time>
      </trkpt>
      <trkpt lat="44.47369" lon="1.09721">
        <ele>116</ele>
        <time>2009-02-01T08:36:25Z</time>
      </trkpt>
      <trkpt lat="44.47364" lon="1.09726">
        <ele>116</ele>
        <time>2009-02-01T08:36:28Z</time>
      </trkpt>
      <trkpt lat="44.47359" lon="1.09731">
        <ele>116</ele>
        <time>2009-02-01T08:36:31Z</time>
      </trkpt>
      <trkpt lat="44.47355" lon="1.09737">
        <ele>116</ele>
        <time>2009-02-01T08:36:34Z</time>
      </trkpt>
      <trkpt lat="44.47351" lon="1.09741">
        <ele>116</ele>
        <time>2009-02-01T08:36:37Z</time>
      </trkpt>
      <trkpt lat="44.47346" lon="1.09746">
        <ele>116</ele>
        <time>2009-02-01T08:36:40Z</time>
      </trkpt>
      <trkpt lat="44.4734" lon="1.09749">
        <ele>116</ele>
        <time>2009-02-01T08:36:43Z</time>
      </trkpt>
      <trkpt lat="44.47335" lon="1.09753">
        <ele>116</ele>
        <time>2009-02-01T08:36:46Z</time>
      </trkpt>
      <trkpt lat="44.4733" lon="1.09757">
        <ele>116</ele>
        <time>2009-02-01T08:36:49Z</time>
      </trkpt>
      <trkpt lat="44.47324" lon="1.09761">
        <ele>116</ele>
        <time>2009-02-01T08:36:52Z</time>
      </trkpt>
      <trkpt lat="44.4732" lon="1.09765">
        <ele>116</ele>
        <time>2009-02-01T08:36:55Z</time>
      </trkpt>
      <trkpt lat="44.47314" lon="1.0977">
        <ele>117</ele>
        <time>2009-02-01T08:36:58Z</time>
      </trkpt>
      <trkpt lat="44.47309" lon="1.09774">
        <ele>117</ele>
        <time>2009-02-01T08:37:01Z</time>
      </trkpt>
      <trkpt lat="44.47305" lon="1.0978">
        <ele>117</ele>
        <time>2009-02-01T08:37:04Z</time>
      </trkpt>
      <trkpt lat="44.47303" lon="1.09787">
        <ele>117</ele>
        <time>2009-02-01T08:37:07Z</time>
      </trkpt>
      <trkpt lat="44.473" lon="1.09792">
        <ele>117</ele>
        <time>2009-02-01T08:37:10Z</time>
      </trkpt>
      <trkpt lat="44.47299" lon="1.09796">
        <ele>117</ele>
        <time>2009-02-01T08:37:13Z</time>
      </trkpt>
      <trkpt lat="44.47297" lon="1.09797">
        <ele>117</ele>
        <time>2009-02-01T08:37:17Z</time>
      </trkpt>
      <trkpt lat="44.47296" lon="1.09799">
        <ele>117</ele>
        <time>2009-02-01T08:37:25Z</time>
      </trkpt>
      <trkpt lat="44.47295" lon="1.09805">
        <ele>117</ele>
        <time>2009-02-01T08:37:28Z</time>
      </trkpt>
      <trkpt lat="44.47294" lon="1.09812">
        <ele>117</ele>
        <time>2009-02-01T08:37:31Z</time>
      </trkpt>
      <trkpt lat="44.47293" lon="1.09818">
        <ele>117</ele>
        <time>2009-02-01T08:37:34Z</time>
      </trkpt>
      <trkpt lat="44.47292" lon="1.09825">
        <ele>117</ele>
        <time>2009-02-01T08:37:37Z</time>
      </trkpt>
      <trkpt lat="44.47289" lon="1.0983">
        <ele>117</ele>
        <time>2009-02-01T08:37:40Z</time>
      </trkpt>
      <trkpt lat="44.47289" lon="1.09836">
        <ele>117</ele>
        <time>2009-02-01T08:37:43Z</time>
      </trkpt>
      <trkpt lat="44.47288" lon="1.09841">
        <ele>117</ele>
        <time>2009-02-01T08:37:46Z</time>
      </trkpt>
      <trkpt lat="44.47287" lon="1.09846">
        <ele>116</ele>
        <time>2009-02-01T08:37:49Z</time>
      </trkpt>
      <trkpt lat="44.47287" lon="1.09851">
        <ele>114</ele>
        <time>2009-02-01T08:37:52Z</time>
      </trkpt>
      <trkpt lat="44.47286" lon="1.09856">
        <ele>113</ele>
        <time>2009-02-01T08:37:55Z</time>
      </trkpt>
      <trkpt lat="44.47286" lon="1.09863">
        <ele>111</ele>
        <time>2009-02-01T08:37:58Z</time>
      </trkpt>
      <trkpt lat="44.47285" lon="1.09869">
        <ele>110</ele>
        <time>2009-02-01T08:38:01Z</time>
      </trkpt>
      <trkpt lat="44.47283" lon="1.09874">
        <ele>108</ele>
        <time>2009-02-01T08:38:05Z</time>
      </trkpt>
      <trkpt lat="44.47283" lon="1.09881">
        <ele>105</ele>
        <time>2009-02-01T08:38:10Z</time>
      </trkpt>
      <trkpt lat="44.47282" lon="1.09886">
        <ele>103</ele>
        <time>2009-02-01T08:38:13Z</time>
      </trkpt>
      <trkpt lat="44.47282" lon="1.09893">
        <ele>101</ele>
        <time>2009-02-01T08:38:16Z</time>
      </trkpt>
      <trkpt lat="44.47281" lon="1.099">
        <ele>101</ele>
        <time>2009-02-01T08:38:19Z</time>
      </trkpt>
      <trkpt lat="44.47281" lon="1.09906">
        <ele>101</ele>
        <time>2009-02-01T08:38:22Z</time>
      </trkpt>
      <trkpt lat="44.4728" lon="1.09911">
        <ele>101</ele>
        <time>2009-02-01T08:38:25Z</time>
      </trkpt>
      <trkpt lat="44.47279" lon="1.09916">
        <ele>101</ele>
        <time>2009-02-01T08:38:28Z</time>
      </trkpt>
      <trkpt lat="44.47277" lon="1.0992">
        <ele>101</ele>
        <time>2009-02-01T08:38:31Z</time>
      </trkpt>
      <trkpt lat="44.47274" lon="1.09926">
        <ele>101</ele>
        <time>2009-02-01T08:38:34Z</time>
      </trkpt>
      <trkpt lat="44.47272" lon="1.09933">
        <ele>100</ele>
        <time>2009-02-01T08:38:37Z</time>
      </trkpt>
      <trkpt lat="44.47272" lon="1.09938">
        <ele>99</ele>
        <time>2009-02-01T08:38:40Z</time>
      </trkpt>
      <trkpt lat="44.4727" lon="1.09944">
        <ele>98</ele>
        <time>2009-02-01T08:38:43Z</time>
      </trkpt>
      <trkpt lat="44.47269" lon="1.0995">
        <ele>97</ele>
        <time>2009-02-01T08:38:47Z</time>
      </trkpt>
      <trkpt lat="44.47269" lon="1.09956">
        <ele>97</ele>
        <time>2009-02-01T08:38:50Z</time>
      </trkpt>
      <trkpt lat="44.47269" lon="1.09962">
        <ele>97</ele>
        <time>2009-02-01T08:38:53Z</time>
      </trkpt>
      <trkpt lat="44.47268" lon="1.09967">
        <ele>97</ele>
        <time>2009-02-01T08:38:56Z</time>
      </trkpt>
      <trkpt lat="44.47269" lon="1.09973">
        <ele>97</ele>
        <time>2009-02-01T08:39:01Z</time>
      </trkpt>
      <trkpt lat="44.47268" lon="1.09979">
        <ele>97</ele>
        <time>2009-02-01T08:39:04Z</time>
      </trkpt>
      <trkpt lat="44.47265" lon="1.09984">
        <ele>97</ele>
        <time>2009-02-01T08:39:07Z</time>
      </trkpt>
      <trkpt lat="44.47265" lon="1.09989">
        <ele>97</ele>
        <time>2009-02-01T08:39:10Z</time>
      </trkpt>
      <trkpt lat="44.47264" lon="1.09995">
        <ele>97</ele>
        <time>2009-02-01T08:39:13Z</time>
      </trkpt>
      <trkpt lat="44.47262" lon="1.10001">
        <ele>97</ele>
        <time>2009-02-01T08:39:16Z</time>
      </trkpt>
      <trkpt lat="44.4726" lon="1.10009">
        <ele>97</ele>
        <time>2009-02-01T08:39:19Z</time>
      </trkpt>
      <trkpt lat="44.47258" lon="1.10014">
        <ele>96</ele>
        <time>2009-02-01T08:39:22Z</time>
      </trkpt>
      <trkpt lat="44.47257" lon="1.1002">
        <ele>96</ele>
        <time>2009-02-01T08:39:26Z</time>
      </trkpt>
      <trkpt lat="44.47255" lon="1.10025">
        <ele>96</ele>
        <time>2009-02-01T08:39:29Z</time>
      </trkpt>
      <trkpt lat="44.47254" lon="1.10029">
        <ele>96</ele>
        <time>2009-02-01T08:39:32Z</time>
      </trkpt>
      <trkpt lat="44.47251" lon="1.10035">
        <ele>95</ele>
        <time>2009-02-01T08:39:37Z</time>
      </trkpt>
      <trkpt lat="44.4725" lon="1.1004">
        <ele>95</ele>
        <time>2009-02-01T08:39:40Z</time>
      </trkpt>
      <trkpt lat="44.47249" lon="1.10046">
        <ele>95</ele>
        <time>2009-02-01T08:39:43Z</time>
      </trkpt>
      <trkpt lat="44.47247" lon="1.10051">
        <ele>95</ele>
        <time>2009-02-01T08:39:46Z</time>
      </trkpt>
      <trkpt lat="44.47246" lon="1.10057">
        <ele>95</ele>
        <time>2009-02-01T08:39:50Z</time>
      </trkpt>
      <trkpt lat="44.47246" lon="1.10062">
        <ele>95</ele>
        <time>2009-02-01T08:39:53Z</time>
      </trkpt>
      <trkpt lat="44.47244" lon="1.10067">
        <ele>95</ele>
        <time>2009-02-01T08:39:56Z</time>
      </trkpt>
      <trkpt lat="44.47242" lon="1.10072">
        <ele>95</ele>
        <time>2009-02-01T08:39:59Z</time>
      </trkpt>
      <trkpt lat="44.47242" lon="1.10077">
        <ele>97</ele>
        <time>2009-02-01T08:40:02Z</time>
      </trkpt>
      <trkpt lat="44.47241" lon="1.10082">
        <ele>98</ele>
        <time>2009-02-01T08:40:07Z</time>
      </trkpt>
      <trkpt lat="44.47238" lon="1.10086">
        <ele>98</ele>
        <time>2009-02-01T08:40:10Z</time>
      </trkpt>
      <trkpt lat="44.47238" lon="1.10092">
        <ele>99</ele>
        <time>2009-02-01T08:40:13Z</time>
      </trkpt>
      <trkpt lat="44.47237" lon="1.10097">
        <ele>101</ele>
        <time>2009-02-01T08:40:16Z</time>
      </trkpt>
      <trkpt lat="44.47236" lon="1.101">
        <ele>105</ele>
        <time>2009-02-01T08:40:19Z</time>
      </trkpt>
      <trkpt lat="44.47236" lon="1.10104">
        <ele>107</ele>
        <time>2009-02-01T08:40:23Z</time>
      </trkpt>
      <trkpt lat="44.47234" lon="1.10107">
        <ele>109</ele>
        <time>2009-02-01T08:40:28Z</time>
      </trkpt>
      <trkpt lat="44.47233" lon="1.10111">
        <ele>111</ele>
        <time>2009-02-01T08:40:31Z</time>
      </trkpt>
      <trkpt lat="44.47233" lon="1.10115">
        <ele>117</ele>
        <time>2009-02-01T08:40:37Z</time>
      </trkpt>
      <trkpt lat="44.47233" lon="1.10119">
        <ele>120</ele>
        <time>2009-02-01T08:40:40Z</time>
      </trkpt>
      <trkpt lat="44.47235" lon="1.10122">
        <ele>120</ele>
        <time>2009-02-01T08:40:43Z</time>
      </trkpt>
      <trkpt lat="44.47234" lon="1.10126">
        <ele>122</ele>
        <time>2009-02-01T08:40:46Z</time>
      </trkpt>
      <trkpt lat="44.47234" lon="1.10132">
        <ele>122</ele>
        <time>2009-02-01T08:40:50Z</time>
      </trkpt>
      <trkpt lat="44.47234" lon="1.10137">
        <ele>123</ele>
        <time>2009-02-01T08:40:53Z</time>
      </trkpt>
      <trkpt lat="44.47234" lon="1.10142">
        <ele>125</ele>
        <time>2009-02-01T08:40:56Z</time>
      </trkpt>
      <trkpt lat="44.47234" lon="1.10147">
        <ele>128</ele>
        <time>2009-02-01T08:41:01Z</time>
      </trkpt>
      <trkpt lat="44.47235" lon="1.10152">
        <ele>128</ele>
        <time>2009-02-01T08:41:04Z</time>
      </trkpt>
      <trkpt lat="44.47239" lon="1.10159">
        <ele>128</ele>
        <time>2009-02-01T08:41:07Z</time>
      </trkpt>
      <trkpt lat="44.4724" lon="1.10162">
        <ele>129</ele>
        <time>2009-02-01T08:41:10Z</time>
      </trkpt>
      <trkpt lat="44.47241" lon="1.10167">
        <ele>131</ele>
        <time>2009-02-01T08:41:13Z</time>
      </trkpt>
      <trkpt lat="44.47243" lon="1.10172">
        <ele>132</ele>
        <time>2009-02-01T08:41:16Z</time>
      </trkpt>
      <trkpt lat="44.47246" lon="1.10177">
        <ele>134</ele>
        <time>2009-02-01T08:41:19Z</time>
      </trkpt>
      <trkpt lat="44.47248" lon="1.10182">
        <ele>136</ele>
        <time>2009-02-01T08:41:23Z</time>
      </trkpt>
      <trkpt lat="44.4725" lon="1.10186">
        <ele>138</ele>
        <time>2009-02-01T08:41:26Z</time>
      </trkpt>
      <trkpt lat="44.4725" lon="1.10189">
        <ele>140</ele>
        <time>2009-02-01T08:41:29Z</time>
      </trkpt>
      <trkpt lat="44.47251" lon="1.10193">
        <ele>141</ele>
        <time>2009-02-01T08:41:34Z</time>
      </trkpt>
      <trkpt lat="44.47254" lon="1.10198">
        <ele>143</ele>
        <time>2009-02-01T08:41:37Z</time>
      </trkpt>
      <trkpt lat="44.47257" lon="1.10202">
        <ele>143</ele>
        <time>2009-02-01T08:41:40Z</time>
      </trkpt>
      <trkpt lat="44.47258" lon="1.10206">
        <ele>144</ele>
        <time>2009-02-01T08:41:44Z</time>
      </trkpt>
      <trkpt lat="44.4726" lon="1.1021">
        <ele>145</ele>
        <time>2009-02-01T08:41:49Z</time>
      </trkpt>
      <trkpt lat="44.47262" lon="1.10212">
        <ele>146</ele>
        <time>2009-02-01T08:41:53Z</time>
      </trkpt>
      <trkpt lat="44.47264" lon="1.10213">
        <ele>146</ele>
        <time>2009-02-01T08:41:56Z</time>
      </trkpt>
      <trkpt lat="44.47265" lon="1.10216">
        <ele>148</ele>
        <time>2009-02-01T08:42:01Z</time>
      </trkpt>
      <trkpt lat="44.47265" lon="1.10218">
        <ele>148</ele>
        <time>2009-02-01T08:42:10Z</time>
      </trkpt>
      <trkpt lat="44.47264" lon="1.1022">
        <ele>148</ele>
        <time>2009-02-01T08:42:17Z</time>
      </trkpt>
      <trkpt lat="44.47265" lon="1.1022">
        <ele>147</ele>
        <time>2009-02-01T08:42:20Z</time>
      </trkpt>
      <trkpt lat="44.47266" lon="1.10222">
        <ele>147</ele>
        <time>2009-02-01T08:42:23Z</time>
      </trkpt>
      <trkpt lat="44.4727" lon="1.10224">
        <ele>150</ele>
        <time>2009-02-01T08:42:26Z</time>
      </trkpt>
      <trkpt lat="44.47273" lon="1.10228">
        <ele>154</ele>
        <time>2009-02-01T08:42:31Z</time>
      </trkpt>
      <trkpt lat="44.47276" lon="1.10232">
        <ele>158</ele>
        <time>2009-02-01T08:42:34Z</time>
      </trkpt>
      <trkpt lat="44.47277" lon="1.10234">
        <ele>159</ele>
        <time>2009-02-01T08:42:37Z</time>
      </trkpt>
      <trkpt lat="44.47278" lon="1.10235">
        <ele>160</ele>
        <time>2009-02-01T08:42:40Z</time>
      </trkpt>
      <trkpt lat="44.47279" lon="1.10238">
        <ele>161</ele>
        <time>2009-02-01T08:42:43Z</time>
      </trkpt>
      <trkpt lat="44.47281" lon="1.10241">
        <ele>164</ele>
        <time>2009-02-01T08:42:46Z</time>
      </trkpt>
      <trkpt lat="44.47282" lon="1.10243">
        <ele>165</ele>
        <time>2009-02-01T08:42:49Z</time>
      </trkpt>
      <trkpt lat="44.47285" lon="1.10246">
        <ele>165</ele>
        <time>2009-02-01T08:42:55Z</time>
      </trkpt>
      <trkpt lat="44.47286" lon="1.10247">
        <ele>165</ele>
        <time>2009-02-01T08:42:59Z</time>
      </trkpt>
      <trkpt lat="44.47288" lon="1.10249">
        <ele>165</ele>
        <time>2009-02-01T08:43:04Z</time>
      </trkpt>
      <trkpt lat="44.47291" lon="1.10252">
        <ele>165</ele>
        <time>2009-02-01T08:43:08Z</time>
      </trkpt>
      <trkpt lat="44.47291" lon="1.10254">
        <ele>165</ele>
        <time>2009-02-01T08:43:13Z</time>
      </trkpt>
      <trkpt lat="44.47294" lon="1.10257">
        <ele>166</ele>
        <time>2009-02-01T08:43:19Z</time>
      </trkpt>
      <trkpt lat="44.47295" lon="1.10259">
        <ele>166</ele>
        <time>2009-02-01T08:43:22Z</time>
      </trkpt>
      <trkpt lat="44.47296" lon="1.1026">
        <ele>166</ele>
        <time>2009-02-01T08:43:25Z</time>
      </trkpt>
      <trkpt lat="44.47299" lon="1.10263">
        <ele>166</ele>
        <time>2009-02-01T08:43:29Z</time>
      </trkpt>
      <trkpt lat="44.47301" lon="1.10263">
        <ele>166</ele>
        <time>2009-02-01T08:43:34Z</time>
      </trkpt>
      <trkpt lat="44.47303" lon="1.10262">
        <ele>166</ele>
        <time>2009-02-01T08:43:40Z</time>
      </trkpt>
      <trkpt lat="44.47304" lon="1.10264">
        <ele>166</ele>
        <time>2009-02-01T08:43:47Z</time>
      </trkpt>
      <trkpt lat="44.47305" lon="1.10264">
        <ele>166</ele>
        <time>2009-02-01T08:43:55Z</time>
      </trkpt>
      <trkpt lat="44.47304" lon="1.10263">
        <ele>166</ele>
        <time>2009-02-01T08:44:01Z</time>
      </trkpt>
      <trkpt lat="44.473" lon="1.10262">
        <ele>165</ele>
        <time>2009-02-01T08:44:05Z</time>
      </trkpt>
      <trkpt lat="44.47298" lon="1.1026">
        <ele>165</ele>
        <time>2009-02-01T08:44:11Z</time>
      </trkpt>
      <trkpt lat="44.47295" lon="1.10256">
        <ele>167</ele>
        <time>2009-02-01T08:44:14Z</time>
      </trkpt>
      <trkpt lat="44.47296" lon="1.10256">
        <ele>170</ele>
        <time>2009-02-01T08:44:19Z</time>
      </trkpt>
      <trkpt lat="44.473" lon="1.10258">
        <ele>171</ele>
        <time>2009-02-01T08:44:22Z</time>
      </trkpt>
      <trkpt lat="44.47303" lon="1.1026">
        <ele>172</ele>
        <time>2009-02-01T08:44:25Z</time>
      </trkpt>
      <trkpt lat="44.47307" lon="1.10262">
        <ele>173</ele>
        <time>2009-02-01T08:44:28Z</time>
      </trkpt>
      <trkpt lat="44.47312" lon="1.10265">
        <ele>173</ele>
        <time>2009-02-01T08:44:31Z</time>
      </trkpt>
      <trkpt lat="44.47316" lon="1.10267">
        <ele>173</ele>
        <time>2009-02-01T08:44:34Z</time>
      </trkpt>
      <trkpt lat="44.47319" lon="1.10269">
        <ele>173</ele>
        <time>2009-02-01T08:44:38Z</time>
      </trkpt>
      <trkpt lat="44.47322" lon="1.10271">
        <ele>174</ele>
        <time>2009-02-01T08:44:41Z</time>
      </trkpt>
      <trkpt lat="44.47326" lon="1.10273">
        <ele>174</ele>
        <time>2009-02-01T08:44:46Z</time>
      </trkpt>
      <trkpt lat="44.47328" lon="1.10276">
        <ele>174</ele>
        <time>2009-02-01T08:44:49Z</time>
      </trkpt>
      <trkpt lat="44.47333" lon="1.10281">
        <ele>174</ele>
        <time>2009-02-01T08:44:52Z</time>
      </trkpt>
      <trkpt lat="44.47336" lon="1.10287">
        <ele>174</ele>
        <time>2009-02-01T08:44:55Z</time>
      </trkpt>
      <trkpt lat="44.47338" lon="1.10291">
        <ele>174</ele>
        <time>2009-02-01T08:44:58Z</time>
      </trkpt>
      <trkpt lat="44.47339" lon="1.10295">
        <ele>174</ele>
        <time>2009-02-01T08:45:01Z</time>
      </trkpt>
      <trkpt lat="44.47339" lon="1.10299">
        <ele>174</ele>
        <time>2009-02-01T08:45:04Z</time>
      </trkpt>
      <trkpt lat="44.47341" lon="1.10303">
        <ele>174</ele>
        <time>2009-02-01T08:45:07Z</time>
      </trkpt>
      <trkpt lat="44.47345" lon="1.10308">
        <ele>174</ele>
        <time>2009-02-01T08:45:10Z</time>
      </trkpt>
      <trkpt lat="44.47349" lon="1.10309">
        <ele>174</ele>
        <time>2009-02-01T08:45:14Z</time>
      </trkpt>
      <trkpt lat="44.47352" lon="1.10312">
        <ele>174</ele>
        <time>2009-02-01T08:45:17Z</time>
      </trkpt>
      <trkpt lat="44.47355" lon="1.10317">
        <ele>174</ele>
        <time>2009-02-01T08:45:22Z</time>
      </trkpt>
      <trkpt lat="44.47358" lon="1.10322">
        <ele>174</ele>
        <time>2009-02-01T08:45:25Z</time>
      </trkpt>
      <trkpt lat="44.47361" lon="1.10327">
        <ele>174</ele>
        <time>2009-02-01T08:45:29Z</time>
      </trkpt>
      <trkpt lat="44.47363" lon="1.10329">
        <ele>175</ele>
        <time>2009-02-01T08:45:34Z</time>
      </trkpt>
      <trkpt lat="44.47366" lon="1.1033">
        <ele>176</ele>
        <time>2009-02-01T08:45:37Z</time>
      </trkpt>
      <trkpt lat="44.47369" lon="1.10333">
        <ele>177</ele>
        <time>2009-02-01T08:45:41Z</time>
      </trkpt>
      <trkpt lat="44.47372" lon="1.10336">
        <ele>177</ele>
        <time>2009-02-01T08:45:46Z</time>
      </trkpt>
      <trkpt lat="44.47373" lon="1.10339">
        <ele>178</ele>
        <time>2009-02-01T08:45:49Z</time>
      </trkpt>
      <trkpt lat="44.47375" lon="1.10343">
        <ele>179</ele>
        <time>2009-02-01T08:45:52Z</time>
      </trkpt>
      <trkpt lat="44.47377" lon="1.10347">
        <ele>179</ele>
        <time>2009-02-01T08:45:55Z</time>
      </trkpt>
      <trkpt lat="44.4738" lon="1.10352">
        <ele>180</ele>
        <time>2009-02-01T08:45:59Z</time>
      </trkpt>
      <trkpt lat="44.47382" lon="1.10357">
        <ele>180</ele>
        <time>2009-02-01T08:46:04Z</time>
      </trkpt>
      <trkpt lat="44.47385" lon="1.10361">
        <ele>181</ele>
        <time>2009-02-01T08:46:07Z</time>
      </trkpt>
      <trkpt lat="44.47385" lon="1.10365">
        <ele>182</ele>
        <time>2009-02-01T08:46:11Z</time>
      </trkpt>
      <trkpt lat="44.47386" lon="1.10367">
        <ele>183</ele>
        <time>2009-02-01T08:46:16Z</time>
      </trkpt>
      <trkpt lat="44.47387" lon="1.1037">
        <ele>183</ele>
        <time>2009-02-01T08:46:22Z</time>
      </trkpt>
      <trkpt lat="44.47388" lon="1.10372">
        <ele>185</ele>
        <time>2009-02-01T08:46:37Z</time>
      </trkpt>
      <trkpt lat="44.4739" lon="1.10374">
        <ele>185</ele>
        <time>2009-02-01T08:46:40Z</time>
      </trkpt>
      <trkpt lat="44.47391" lon="1.10374">
        <ele>186</ele>
        <time>2009-02-01T08:46:43Z</time>
      </trkpt>
      <trkpt lat="44.47392" lon="1.10374">
        <ele>186</ele>
        <time>2009-02-01T08:46:46Z</time>
      </trkpt>
      <trkpt lat="44.47395" lon="1.10374">
        <ele>188</ele>
        <time>2009-02-01T08:46:50Z</time>
      </trkpt>
      <trkpt lat="44.47398" lon="1.10373">
        <ele>189</ele>
        <time>2009-02-01T08:46:55Z</time>
      </trkpt>
      <trkpt lat="44.47399" lon="1.10374">
        <ele>189</ele>
        <time>2009-02-01T08:46:59Z</time>
      </trkpt>
      <trkpt lat="44.47401" lon="1.10372">
        <ele>189</ele>
        <time>2009-02-01T08:47:04Z</time>
      </trkpt>
      <trkpt lat="44.47403" lon="1.10372">
        <ele>189</ele>
        <time>2009-02-01T08:47:10Z</time>
      </trkpt>
      <trkpt lat="44.47404" lon="1.10372">
        <ele>189</ele>
        <time>2009-02-01T08:47:14Z</time>
      </trkpt>
      <trkpt lat="44.47406" lon="1.10371">
        <ele>189</ele>
        <time>2009-02-01T08:47:17Z</time>
      </trkpt>
      <trkpt lat="44.47408" lon="1.10369">
        <ele>190</ele>
        <time>2009-02-01T08:47:22Z</time>
      </trkpt>
      <trkpt lat="44.47411" lon="1.10367">
        <ele>190</ele>
        <time>2009-02-01T08:47:28Z</time>
      </trkpt>
      <trkpt lat="44.47414" lon="1.10368">
        <ele>190</ele>
        <time>2009-02-01T08:47:34Z</time>
      </trkpt>
      <trkpt lat="44.47417" lon="1.1037">
        <ele>190</ele>
        <time>2009-02-01T08:47:37Z</time>
      </trkpt>
      <trkpt lat="44.4742" lon="1.10371">
        <ele>191</ele>
        <time>2009-02-01T08:47:41Z</time>
      </trkpt>
      <trkpt lat="44.47422" lon="1.10373">
        <ele>192</ele>
        <time>2009-02-01T08:47:46Z</time>
      </trkpt>
      <trkpt lat="44.47425" lon="1.10376">
        <ele>193</ele>
        <time>2009-02-01T08:47:52Z</time>
      </trkpt>
      <trkpt lat="44.47426" lon="1.10381">
        <ele>193</ele>
        <time>2009-02-01T08:47:55Z</time>
      </trkpt>
      <trkpt lat="44.47427" lon="1.10382">
        <ele>193</ele>
        <time>2009-02-01T08:47:58Z</time>
      </trkpt>
      <trkpt lat="44.47427" lon="1.10384">
        <ele>203</ele>
        <time>2009-02-01T08:48:16Z</time>
      </trkpt>
      <trkpt lat="44.47427" lon="1.10386">
        <ele>204</ele>
        <time>2009-02-01T08:48:22Z</time>
      </trkpt>
      <trkpt lat="44.47428" lon="1.1039">
        <ele>204</ele>
        <time>2009-02-01T08:48:25Z</time>
      </trkpt>
      <trkpt lat="44.47429" lon="1.10394">
        <ele>204</ele>
        <time>2009-02-01T08:48:28Z</time>
      </trkpt>
      <trkpt lat="44.4743" lon="1.10399">
        <ele>204</ele>
        <time>2009-02-01T08:48:31Z</time>
      </trkpt>
      <trkpt lat="44.4743" lon="1.10406">
        <ele>204</ele>
        <time>2009-02-01T08:48:34Z</time>
      </trkpt>
      <trkpt lat="44.47431" lon="1.10412">
        <ele>204</ele>
        <time>2009-02-01T08:48:37Z</time>
      </trkpt>
      <trkpt lat="44.4743" lon="1.10417">
        <ele>202</ele>
        <time>2009-02-01T08:48:40Z</time>
      </trkpt>
      <trkpt lat="44.47431" lon="1.10423">
        <ele>200</ele>
        <time>2009-02-01T08:48:44Z</time>
      </trkpt>
      <trkpt lat="44.47431" lon="1.10428">
        <ele>198</ele>
        <time>2009-02-01T08:48:47Z</time>
      </trkpt>
      <trkpt lat="44.4743" lon="1.10434">
        <ele>197</ele>
        <time>2009-02-01T08:48:50Z</time>
      </trkpt>
      <trkpt lat="44.4743" lon="1.10439">
        <ele>196</ele>
        <time>2009-02-01T08:48:53Z</time>
      </trkpt>
      <trkpt lat="44.4743" lon="1.10445">
        <ele>194</ele>
        <time>2009-02-01T08:48:58Z</time>
      </trkpt>
      <trkpt lat="44.47429" lon="1.10452">
        <ele>193</ele>
        <time>2009-02-01T08:49:01Z</time>
      </trkpt>
      <trkpt lat="44.47429" lon="1.10459">
        <ele>193</ele>
        <time>2009-02-01T08:49:04Z</time>
      </trkpt>
      <trkpt lat="44.47427" lon="1.10464">
        <ele>193</ele>
        <time>2009-02-01T08:49:07Z</time>
      </trkpt>
      <trkpt lat="44.47427" lon="1.1047">
        <ele>193</ele>
        <time>2009-02-01T08:49:10Z</time>
      </trkpt>
      <trkpt lat="44.47427" lon="1.10474">
        <ele>194</ele>
        <time>2009-02-01T08:49:13Z</time>
      </trkpt>
      <trkpt lat="44.47426" lon="1.1048">
        <ele>195</ele>
        <time>2009-02-01T08:49:16Z</time>
      </trkpt>
      <trkpt lat="44.47425" lon="1.10486">
        <ele>195</ele>
        <time>2009-02-01T08:49:20Z</time>
      </trkpt>
      <trkpt lat="44.47423" lon="1.1049">
        <ele>195</ele>
        <time>2009-02-01T08:49:23Z</time>
      </trkpt>
      <trkpt lat="44.47422" lon="1.10495">
        <ele>196</ele>
        <time>2009-02-01T08:49:26Z</time>
      </trkpt>
      <trkpt lat="44.47422" lon="1.10499">
        <ele>198</ele>
        <time>2009-02-01T08:49:29Z</time>
      </trkpt>
      <trkpt lat="44.4742" lon="1.10503">
        <ele>200</ele>
        <time>2009-02-01T08:49:32Z</time>
      </trkpt>
      <trkpt lat="44.47418" lon="1.10508">
        <ele>201</ele>
        <time>2009-02-01T08:49:37Z</time>
      </trkpt>
      <trkpt lat="44.47418" lon="1.10513">
        <ele>202</ele>
        <time>2009-02-01T08:49:40Z</time>
      </trkpt>
      <trkpt lat="44.47416" lon="1.10518">
        <ele>202</ele>
        <time>2009-02-01T08:49:44Z</time>
      </trkpt>
      <trkpt lat="44.47413" lon="1.10522">
        <ele>202</ele>
        <time>2009-02-01T08:49:49Z</time>
      </trkpt>
      <trkpt lat="44.47411" lon="1.10528">
        <ele>202</ele>
        <time>2009-02-01T08:49:52Z</time>
      </trkpt>
      <trkpt lat="44.4741" lon="1.10533">
        <ele>202</ele>
        <time>2009-02-01T08:49:56Z</time>
      </trkpt>
      <trkpt lat="44.47408" lon="1.10538">
        <ele>202</ele>
        <time>2009-02-01T08:49:59Z</time>
      </trkpt>
      <trkpt lat="44.47407" lon="1.10543">
        <ele>202</ele>
        <time>2009-02-01T08:50:02Z</time>
      </trkpt>
      <trkpt lat="44.47405" lon="1.10547">
        <ele>202</ele>
        <time>2009-02-01T08:50:05Z</time>
      </trkpt>
      <trkpt lat="44.47405" lon="1.10552">
        <ele>203</ele>
        <time>2009-02-01T08:50:10Z</time>
      </trkpt>
      <trkpt lat="44.47405" lon="1.10558">
        <ele>203</ele>
        <time>2009-02-01T08:50:13Z</time>
      </trkpt>
      <trkpt lat="44.47404" lon="1.10562">
        <ele>204</ele>
        <time>2009-02-01T08:50:17Z</time>
      </trkpt>
      <trkpt lat="44.47403" lon="1.10566">
        <ele>204</ele>
        <time>2009-02-01T08:50:22Z</time>
      </trkpt>
      <trkpt lat="44.47402" lon="1.1057">
        <ele>204</ele>
        <time>2009-02-01T08:50:25Z</time>
      </trkpt>
      <trkpt lat="44.474" lon="1.10575">
        <ele>205</ele>
        <time>2009-02-01T08:50:29Z</time>
      </trkpt>
      <trkpt lat="44.47399" lon="1.10579">
        <ele>207</ele>
        <time>2009-02-01T08:50:34Z</time>
      </trkpt>
      <trkpt lat="44.47398" lon="1.10584">
        <ele>208</ele>
        <time>2009-02-01T08:50:37Z</time>
      </trkpt>
      <trkpt lat="44.47397" lon="1.10587">
        <ele>210</ele>
        <time>2009-02-01T08:50:40Z</time>
      </trkpt>
      <trkpt lat="44.47394" lon="1.10592">
        <ele>212</ele>
        <time>2009-02-01T08:50:44Z</time>
      </trkpt>
      <trkpt lat="44.47393" lon="1.10596">
        <ele>213</ele>
        <time>2009-02-01T08:50:49Z</time>
      </trkpt>
      <trkpt lat="44.47392" lon="1.10599">
        <ele>215</ele>
        <time>2009-02-01T08:50:52Z</time>
      </trkpt>
      <trkpt lat="44.47392" lon="1.10601">
        <ele>218</ele>
        <time>2009-02-01T08:50:56Z</time>
      </trkpt>
      <trkpt lat="44.47393" lon="1.10602">
        <ele>221</ele>
        <time>2009-02-01T08:51:02Z</time>
      </trkpt>
      <trkpt lat="44.47391" lon="1.10602">
        <ele>221</ele>
        <time>2009-02-01T08:51:07Z</time>
      </trkpt>
      <trkpt lat="44.47393" lon="1.106">
        <ele>222</ele>
        <time>2009-02-01T08:51:20Z</time>
      </trkpt>
      <trkpt lat="44.47394" lon="1.10601">
        <ele>222</ele>
        <time>2009-02-01T08:51:23Z</time>
      </trkpt>
      <trkpt lat="44.47394" lon="1.10603">
        <ele>222</ele>
        <time>2009-02-01T08:51:32Z</time>
      </trkpt>
      <trkpt lat="44.47394" lon="1.10605">
        <ele>222</ele>
        <time>2009-02-01T08:51:35Z</time>
      </trkpt>
      <trkpt lat="44.47394" lon="1.10606">
        <ele>223</ele>
        <time>2009-02-01T08:51:38Z</time>
      </trkpt>
      <trkpt lat="44.47392" lon="1.10608">
        <ele>224</ele>
        <time>2009-02-01T08:51:58Z</time>
      </trkpt>
      <trkpt lat="44.47389" lon="1.10611">
        <ele>224</ele>
        <time>2009-02-01T08:52:02Z</time>
      </trkpt>
      <trkpt lat="44.47387" lon="1.10615">
        <ele>225</ele>
        <time>2009-02-01T08:52:07Z</time>
      </trkpt>
      <trkpt lat="44.47386" lon="1.10619">
        <ele>226</ele>
        <time>2009-02-01T08:52:10Z</time>
      </trkpt>
      <trkpt lat="44.47384" lon="1.10623">
        <ele>226</ele>
        <time>2009-02-01T08:52:14Z</time>
      </trkpt>
      <trkpt lat="44.47383" lon="1.10627">
        <ele>227</ele>
        <time>2009-02-01T08:52:19Z</time>
      </trkpt>
      <trkpt lat="44.47382" lon="1.10632">
        <ele>228</ele>
        <time>2009-02-01T08:52:22Z</time>
      </trkpt>
      <trkpt lat="44.4738" lon="1.10637">
        <ele>229</ele>
        <time>2009-02-01T08:52:26Z</time>
      </trkpt>
      <trkpt lat="44.47378" lon="1.10641">
        <ele>230</ele>
        <time>2009-02-01T08:52:31Z</time>
      </trkpt>
      <trkpt lat="44.47376" lon="1.10645">
        <ele>231</ele>
        <time>2009-02-01T08:52:34Z</time>
      </trkpt>
      <trkpt lat="44.47374" lon="1.10648">
        <ele>231</ele>
        <time>2009-02-01T08:52:38Z</time>
      </trkpt>
      <trkpt lat="44.47372" lon="1.10652">
        <ele>232</ele>
        <time>2009-02-01T08:52:43Z</time>
      </trkpt>
      <trkpt lat="44.47372" lon="1.10655">
        <ele>233</ele>
        <time>2009-02-01T08:52:47Z</time>
      </trkpt>
      <trkpt lat="44.47372" lon="1.10657">
        <ele>234</ele>
        <time>2009-02-01T08:52:52Z</time>
      </trkpt>
      <trkpt lat="44.47371" lon="1.10661">
        <ele>234</ele>
        <time>2009-02-01T08:52:55Z</time>
      </trkpt>
      <trkpt lat="44.4737" lon="1.10665">
        <ele>236</ele>
        <time>2009-02-01T08:53:01Z</time>
      </trkpt>
      <trkpt lat="44.47368" lon="1.10669">
        <ele>237</ele>
        <time>2009-02-01T08:53:04Z</time>
      </trkpt>
      <trkpt lat="44.47367" lon="1.10672">
        <ele>238</ele>
        <time>2009-02-01T08:53:08Z</time>
      </trkpt>
      <trkpt lat="44.47366" lon="1.10676">
        <ele>238</ele>
        <time>2009-02-01T08:53:13Z</time>
      </trkpt>
      <trkpt lat="44.47364" lon="1.1068">
        <ele>238</ele>
        <time>2009-02-01T08:53:16Z</time>
      </trkpt>
      <trkpt lat="44.47362" lon="1.10684">
        <ele>238</ele>
        <time>2009-02-01T08:53:20Z</time>
      </trkpt>
      <trkpt lat="44.47362" lon="1.10689">
        <ele>238</ele>
        <time>2009-02-01T08:53:25Z</time>
      </trkpt>
      <trkpt lat="44.47361" lon="1.10694">
        <ele>239</ele>
        <time>2009-02-01T08:53:28Z</time>
      </trkpt>
      <trkpt lat="44.47361" lon="1.10699">
        <ele>240</ele>
        <time>2009-02-01T08:53:31Z</time>
      </trkpt>
      <trkpt lat="44.47362" lon="1.10702">
        <ele>242</ele>
        <time>2009-02-01T08:53:35Z</time>
      </trkpt>
      <trkpt lat="44.47361" lon="1.10703">
        <ele>243</ele>
        <time>2009-02-01T08:53:38Z</time>
      </trkpt>
      <trkpt lat="44.47359" lon="1.10703">
        <ele>244</ele>
        <time>2009-02-01T08:53:43Z</time>
      </trkpt>
      <trkpt lat="44.47359" lon="1.10705">
        <ele>245</ele>
        <time>2009-02-01T08:53:46Z</time>
      </trkpt>
      <trkpt lat="44.47358" lon="1.1071">
        <ele>245</ele>
        <time>2009-02-01T08:53:49Z</time>
      </trkpt>
      <trkpt lat="44.47357" lon="1.10716">
        <ele>245</ele>
        <time>2009-02-01T08:53:52Z</time>
      </trkpt>
      <trkpt lat="44.47358" lon="1.10721">
        <ele>245</ele>
        <time>2009-02-01T08:53:55Z</time>
      </trkpt>
      <trkpt lat="44.47359" lon="1.10726">
        <ele>245</ele>
        <time>2009-02-01T08:53:58Z</time>
      </trkpt>
      <trkpt lat="44.47359" lon="1.10733">
        <ele>245</ele>
        <time>2009-02-01T08:54:01Z</time>
      </trkpt>
      <trkpt lat="44.4736" lon="1.10738">
        <ele>245</ele>
        <time>2009-02-01T08:54:04Z</time>
      </trkpt>
      <trkpt lat="44.47361" lon="1.10744">
        <ele>245</ele>
        <time>2009-02-01T08:54:07Z</time>
      </trkpt>
      <trkpt lat="44.47362" lon="1.1075">
        <ele>245</ele>
        <time>2009-02-01T08:54:10Z</time>
      </trkpt>
      <trkpt lat="44.47364" lon="1.10755">
        <ele>245</ele>
        <time>2009-02-01T08:54:13Z</time>
      </trkpt>
      <trkpt lat="44.47365" lon="1.10761">
        <ele>245</ele>
        <time>2009-02-01T08:54:16Z</time>
      </trkpt>
      <trkpt lat="44.47367" lon="1.10767">
        <ele>245</ele>
        <time>2009-02-01T08:54:19Z</time>
      </trkpt>
      <trkpt lat="44.47369" lon="1.10773">
        <ele>245</ele>
        <time>2009-02-01T08:54:22Z</time>
      </trkpt>
      <trkpt lat="44.4737" lon="1.10779">
        <ele>245</ele>
        <time>2009-02-01T08:54:25Z</time>
      </trkpt>
      <trkpt lat="44.47371" lon="1.10785">
        <ele>245</ele>
        <time>2009-02-01T08:54:28Z</time>
      </trkpt>
      <trkpt lat="44.47373" lon="1.10792">
        <ele>245</ele>
        <time>2009-02-01T08:54:31Z</time>
      </trkpt>
      <trkpt lat="44.47374" lon="1.10799">
        <ele>245</ele>
        <time>2009-02-01T08:54:34Z</time>
      </trkpt>
      <trkpt lat="44.47373" lon="1.10803">
        <ele>245</ele>
        <time>2009-02-01T08:54:37Z</time>
      </trkpt>
      <trkpt lat="44.47372" lon="1.10808">
        <ele>245</ele>
        <time>2009-02-01T08:54:40Z</time>
      </trkpt>
      <trkpt lat="44.47373" lon="1.10814">
        <ele>245</ele>
        <time>2009-02-01T08:54:44Z</time>
      </trkpt>
      <trkpt lat="44.47373" lon="1.1082">
        <ele>245</ele>
        <time>2009-02-01T08:54:47Z</time>
      </trkpt>
      <trkpt lat="44.47374" lon="1.10825">
        <ele>243</ele>
        <time>2009-02-01T08:54:50Z</time>
      </trkpt>
      <trkpt lat="44.47373" lon="1.10831">
        <ele>242</ele>
        <time>2009-02-01T08:54:53Z</time>
      </trkpt>
      <trkpt lat="44.47372" lon="1.10839">
        <ele>242</ele>
        <time>2009-02-01T08:54:56Z</time>
      </trkpt>
      <trkpt lat="44.47371" lon="1.10844">
        <ele>242</ele>
        <time>2009-02-01T08:54:59Z</time>
      </trkpt>
      <trkpt lat="44.4737" lon="1.10851">
        <ele>242</ele>
        <time>2009-02-01T08:55:02Z</time>
      </trkpt>
      <trkpt lat="44.4737" lon="1.1086">
        <ele>242</ele>
        <time>2009-02-01T08:55:05Z</time>
      </trkpt>
      <trkpt lat="44.47368" lon="1.10868">
        <ele>242</ele>
        <time>2009-02-01T08:55:08Z</time>
      </trkpt>
      <trkpt lat="44.47366" lon="1.10875">
        <ele>242</ele>
        <time>2009-02-01T08:55:11Z</time>
      </trkpt>
      <trkpt lat="44.47364" lon="1.10882">
        <ele>242</ele>
        <time>2009-02-01T08:55:14Z</time>
      </trkpt>
      <trkpt lat="44.47362" lon="1.10888">
        <ele>242</ele>
        <time>2009-02-01T08:55:17Z</time>
      </trkpt>
      <trkpt lat="44.47361" lon="1.10897">
        <ele>242</ele>
        <time>2009-02-01T08:55:20Z</time>
      </trkpt>
      <trkpt lat="44.47359" lon="1.10905">
        <ele>242</ele>
        <time>2009-02-01T08:55:23Z</time>
      </trkpt>
      <trkpt lat="44.47357" lon="1.10912">
        <ele>243</ele>
        <time>2009-02-01T08:55:26Z</time>
      </trkpt>
      <trkpt lat="44.47355" lon="1.1092">
        <ele>244</ele>
        <time>2009-02-01T08:55:29Z</time>
      </trkpt>
      <trkpt lat="44.47352" lon="1.10928">
        <ele>244</ele>
        <time>2009-02-01T08:55:32Z</time>
      </trkpt>
      <trkpt lat="44.4735" lon="1.10936">
        <ele>244</ele>
        <time>2009-02-01T08:55:35Z</time>
      </trkpt>
      <trkpt lat="44.47348" lon="1.10946">
        <ele>245</ele>
        <time>2009-02-01T08:55:38Z</time>
      </trkpt>
      <trkpt lat="44.47349" lon="1.10956">
        <ele>245</ele>
        <time>2009-02-01T08:55:41Z</time>
      </trkpt>
      <trkpt lat="44.4735" lon="1.10963">
        <ele>245</ele>
        <time>2009-02-01T08:55:44Z</time>
      </trkpt>
      <trkpt lat="44.47351" lon="1.1097">
        <ele>245</ele>
        <time>2009-02-01T08:55:47Z</time>
      </trkpt>
      <trkpt lat="44.47352" lon="1.10978">
        <ele>245</ele>
        <time>2009-02-01T08:55:50Z</time>
      </trkpt>
      <trkpt lat="44.47352" lon="1.10985">
        <ele>245</ele>
        <time>2009-02-01T08:55:53Z</time>
      </trkpt>
      <trkpt lat="44.47352" lon="1.10995">
        <ele>246</ele>
        <time>2009-02-01T08:55:56Z</time>
      </trkpt>
      <trkpt lat="44.47353" lon="1.11006">
        <ele>246</ele>
        <time>2009-02-01T08:56:01Z</time>
      </trkpt>
      <trkpt lat="44.47354" lon="1.11014">
        <ele>246</ele>
        <time>2009-02-01T08:56:04Z</time>
      </trkpt>
      <trkpt lat="44.47355" lon="1.11022">
        <ele>246</ele>
        <time>2009-02-01T08:56:07Z</time>
      </trkpt>
      <trkpt lat="44.47356" lon="1.11031">
        <ele>247</ele>
        <time>2009-02-01T08:56:10Z</time>
      </trkpt>
      <trkpt lat="44.47357" lon="1.1104">
        <ele>247</ele>
        <time>2009-02-01T08:56:13Z</time>
      </trkpt>
      <trkpt lat="44.47358" lon="1.11048">
        <ele>248</ele>
        <time>2009-02-01T08:56:16Z</time>
      </trkpt>
      <trkpt lat="44.47359" lon="1.11056">
        <ele>248</ele>
        <time>2009-02-01T08:56:19Z</time>
      </trkpt>
      <trkpt lat="44.4736" lon="1.11063">
        <ele>248</ele>
        <time>2009-02-01T08:56:22Z</time>
      </trkpt>
      <trkpt lat="44.47361" lon="1.11071">
        <ele>249</ele>
        <time>2009-02-01T08:56:25Z</time>
      </trkpt>
      <trkpt lat="44.47363" lon="1.11079">
        <ele>249</ele>
        <time>2009-02-01T08:56:28Z</time>
      </trkpt>
      <trkpt lat="44.47366" lon="1.11086">
        <ele>249</ele>
        <time>2009-02-01T08:56:31Z</time>
      </trkpt>
      <trkpt lat="44.4737" lon="1.11094">
        <ele>249</ele>
        <time>2009-02-01T08:56:34Z</time>
      </trkpt>
      <trkpt lat="44.47373" lon="1.11101">
        <ele>249</ele>
        <time>2009-02-01T08:56:37Z</time>
      </trkpt>
      <trkpt lat="44.47375" lon="1.11106">
        <ele>249</ele>
        <time>2009-02-01T08:56:40Z</time>
      </trkpt>
      <trkpt lat="44.47377" lon="1.11113">
        <ele>249</ele>
        <time>2009-02-01T08:56:43Z</time>
      </trkpt>
      <trkpt lat="44.47379" lon="1.11117">
        <ele>249</ele>
        <time>2009-02-01T08:56:46Z</time>
      </trkpt>
      <trkpt lat="44.47379" lon="1.11123">
        <ele>249</ele>
        <time>2009-02-01T08:56:49Z</time>
      </trkpt>
      <trkpt lat="44.47381" lon="1.11129">
        <ele>249</ele>
        <time>2009-02-01T08:56:52Z</time>
      </trkpt>
      <trkpt lat="44.47382" lon="1.11134">
        <ele>249</ele>
        <time>2009-02-01T08:56:55Z</time>
      </trkpt>
      <trkpt lat="44.47384" lon="1.11141">
        <ele>250</ele>
        <time>2009-02-01T08:56:58Z</time>
      </trkpt>
      <trkpt lat="44.47386" lon="1.11146">
        <ele>250</ele>
        <time>2009-02-01T08:57:01Z</time>
      </trkpt>
      <trkpt lat="44.47387" lon="1.11152">
        <ele>251</ele>
        <time>2009-02-01T08:57:04Z</time>
      </trkpt>
      <trkpt lat="44.47388" lon="1.11158">
        <ele>251</ele>
        <time>2009-02-01T08:57:07Z</time>
      </trkpt>
      <trkpt lat="44.4739" lon="1.11163">
        <ele>251</ele>
        <time>2009-02-01T08:57:10Z</time>
      </trkpt>
      <trkpt lat="44.47391" lon="1.11168">
        <ele>252</ele>
        <time>2009-02-01T08:57:13Z</time>
      </trkpt>
      <trkpt lat="44.47395" lon="1.11173">
        <ele>253</ele>
        <time>2009-02-01T08:57:17Z</time>
      </trkpt>
      <trkpt lat="44.47398" lon="1.11177">
        <ele>253</ele>
        <time>2009-02-01T08:57:22Z</time>
      </trkpt>
      <trkpt lat="44.474" lon="1.11182">
        <ele>253</ele>
        <time>2009-02-01T08:57:25Z</time>
      </trkpt>
      <trkpt lat="44.47401" lon="1.11189">
        <ele>253</ele>
        <time>2009-02-01T08:57:28Z</time>
      </trkpt>
      <trkpt lat="44.47401" lon="1.11195">
        <ele>253</ele>
        <time>2009-02-01T08:57:31Z</time>
      </trkpt>
      <trkpt lat="44.474" lon="1.112">
        <ele>253</ele>
        <time>2009-02-01T08:57:34Z</time>
      </trkpt>
      <trkpt lat="44.47399" lon="1.11205">
        <ele>253</ele>
        <time>2009-02-01T08:57:37Z</time>
      </trkpt>
      <trkpt lat="44.47397" lon="1.1121">
        <ele>253</ele>
        <time>2009-02-01T08:57:40Z</time>
      </trkpt>
      <trkpt lat="44.47395" lon="1.11215">
        <ele>253</ele>
        <time>2009-02-01T08:57:43Z</time>
      </trkpt>
      <trkpt lat="44.47394" lon="1.1122">
        <ele>253</ele>
        <time>2009-02-01T08:57:46Z</time>
      </trkpt>
      <trkpt lat="44.47392" lon="1.11226">
        <ele>253</ele>
        <time>2009-02-01T08:57:49Z</time>
      </trkpt>
      <trkpt lat="44.47392" lon="1.11232">
        <ele>253</ele>
        <time>2009-02-01T08:57:53Z</time>
      </trkpt>
      <trkpt lat="44.47392" lon="1.11236">
        <ele>253</ele>
        <time>2009-02-01T08:57:58Z</time>
      </trkpt>
      <trkpt lat="44.47392" lon="1.11241">
        <ele>253</ele>
        <time>2009-02-01T08:58:01Z</time>
      </trkpt>
      <trkpt lat="44.47393" lon="1.11246">
        <ele>253</ele>
        <time>2009-02-01T08:58:04Z</time>
      </trkpt>
      <trkpt lat="44.47392" lon="1.11251">
        <ele>254</ele>
        <time>2009-02-01T08:58:07Z</time>
      </trkpt>
      <trkpt lat="44.47392" lon="1.11255">
        <ele>254</ele>
        <time>2009-02-01T08:58:10Z</time>
      </trkpt>
      <trkpt lat="44.47393" lon="1.1126">
        <ele>254</ele>
        <time>2009-02-01T08:58:13Z</time>
      </trkpt>
      <trkpt lat="44.47395" lon="1.11264">
        <ele>255</ele>
        <time>2009-02-01T08:58:16Z</time>
      </trkpt>
      <trkpt lat="44.47398" lon="1.11268">
        <ele>256</ele>
        <time>2009-02-01T08:58:19Z</time>
      </trkpt>
      <trkpt lat="44.474" lon="1.11272">
        <ele>257</ele>
        <time>2009-02-01T08:58:22Z</time>
      </trkpt>
      <trkpt lat="44.47404" lon="1.11277">
        <ele>257</ele>
        <time>2009-02-01T08:58:25Z</time>
      </trkpt>
      <trkpt lat="44.47407" lon="1.1128">
        <ele>257</ele>
        <time>2009-02-01T08:58:28Z</time>
      </trkpt>
      <trkpt lat="44.47411" lon="1.11284">
        <ele>257</ele>
        <time>2009-02-01T08:58:31Z</time>
      </trkpt>
      <trkpt lat="44.47414" lon="1.11289">
        <ele>257</ele>
        <time>2009-02-01T08:58:34Z</time>
      </trkpt>
      <trkpt lat="44.47419" lon="1.11294">
        <ele>257</ele>
        <time>2009-02-01T08:58:37Z</time>
      </trkpt>
      <trkpt lat="44.47422" lon="1.11298">
        <ele>257</ele>
        <time>2009-02-01T08:58:40Z</time>
      </trkpt>
      <trkpt lat="44.47425" lon="1.11303">
        <ele>257</ele>
        <time>2009-02-01T08:58:43Z</time>
      </trkpt>
      <trkpt lat="44.47427" lon="1.11308">
        <ele>258</ele>
        <time>2009-02-01T08:58:46Z</time>
      </trkpt>
      <trkpt lat="44.47428" lon="1.11313">
        <ele>259</ele>
        <time>2009-02-01T08:58:49Z</time>
      </trkpt>
      <trkpt lat="44.47429" lon="1.1132">
        <ele>259</ele>
        <time>2009-02-01T08:58:52Z</time>
      </trkpt>
      <trkpt lat="44.47428" lon="1.11327">
        <ele>259</ele>
        <time>2009-02-01T08:58:55Z</time>
      </trkpt>
      <trkpt lat="44.47426" lon="1.11333">
        <ele>259</ele>
        <time>2009-02-01T08:58:58Z</time>
      </trkpt>
      <trkpt lat="44.47425" lon="1.11338">
        <ele>259</ele>
        <time>2009-02-01T08:59:01Z</time>
      </trkpt>
      <trkpt lat="44.47425" lon="1.11343">
        <ele>259</ele>
        <time>2009-02-01T08:59:04Z</time>
      </trkpt>
      <trkpt lat="44.47427" lon="1.11348">
        <ele>259</ele>
        <time>2009-02-01T08:59:08Z</time>
      </trkpt>
      <trkpt lat="44.47431" lon="1.11351">
        <ele>259</ele>
        <time>2009-02-01T08:59:13Z</time>
      </trkpt>
      <trkpt lat="44.47434" lon="1.11356">
        <ele>259</ele>
        <time>2009-02-01T08:59:16Z</time>
      </trkpt>
      <trkpt lat="44.47439" lon="1.11358">
        <ele>260</ele>
        <time>2009-02-01T08:59:19Z</time>
      </trkpt>
      <trkpt lat="44.47443" lon="1.11361">
        <ele>260</ele>
        <time>2009-02-01T08:59:22Z</time>
      </trkpt>
      <trkpt lat="44.47449" lon="1.1136">
        <ele>260</ele>
        <time>2009-02-01T08:59:25Z</time>
      </trkpt>
      <trkpt lat="44.47453" lon="1.11358">
        <ele>260</ele>
        <time>2009-02-01T08:59:28Z</time>
      </trkpt>
      <trkpt lat="44.47457" lon="1.1136">
        <ele>260</ele>
        <time>2009-02-01T08:59:31Z</time>
      </trkpt>
      <trkpt lat="44.47461" lon="1.11364">
        <ele>260</ele>
        <time>2009-02-01T08:59:34Z</time>
      </trkpt>
      <trkpt lat="44.47465" lon="1.11371">
        <ele>260</ele>
        <time>2009-02-01T08:59:37Z</time>
      </trkpt>
      <trkpt lat="44.4747" lon="1.11375">
        <ele>260</ele>
        <time>2009-02-01T08:59:40Z</time>
      </trkpt>
      <trkpt lat="44.47476" lon="1.11379">
        <ele>260</ele>
        <time>2009-02-01T08:59:44Z</time>
      </trkpt>
      <trkpt lat="44.47481" lon="1.11383">
        <ele>260</ele>
        <time>2009-02-01T08:59:47Z</time>
      </trkpt>
      <trkpt lat="44.47485" lon="1.11386">
        <ele>260</ele>
        <time>2009-02-01T08:59:50Z</time>
      </trkpt>
      <trkpt lat="44.47491" lon="1.1139">
        <ele>260</ele>
        <time>2009-02-01T08:59:53Z</time>
      </trkpt>
      <trkpt lat="44.47497" lon="1.11396">
        <ele>260</ele>
        <time>2009-02-01T08:59:56Z</time>
      </trkpt>
      <trkpt lat="44.47501" lon="1.11402">
        <ele>260</ele>
        <time>2009-02-01T08:59:59Z</time>
      </trkpt>
      <trkpt lat="44.47504" lon="1.11407">
        <ele>260</ele>
        <time>2009-02-01T09:00:02Z</time>
      </trkpt>
      <trkpt lat="44.4751" lon="1.11413">
        <ele>260</ele>
        <time>2009-02-01T09:00:05Z</time>
      </trkpt>
      <trkpt lat="44.47514" lon="1.11419">
        <ele>260</ele>
        <time>2009-02-01T09:00:08Z</time>
      </trkpt>
      <trkpt lat="44.47515" lon="1.11426">
        <ele>260</ele>
        <time>2009-02-01T09:00:11Z</time>
      </trkpt>
      <trkpt lat="44.47519" lon="1.11431">
        <ele>260</ele>
        <time>2009-02-01T09:00:14Z</time>
      </trkpt>
      <trkpt lat="44.47522" lon="1.11435">
        <ele>260</ele>
        <time>2009-02-01T09:00:17Z</time>
      </trkpt>
      <trkpt lat="44.47523" lon="1.11443">
        <ele>260</ele>
        <time>2009-02-01T09:00:20Z</time>
      </trkpt>
      <trkpt lat="44.47523" lon="1.11449">
        <ele>260</ele>
        <time>2009-02-01T09:00:23Z</time>
      </trkpt>
      <trkpt lat="44.47522" lon="1.11456">
        <ele>260</ele>
        <time>2009-02-01T09:00:26Z</time>
      </trkpt>
      <trkpt lat="44.4752" lon="1.1146">
        <ele>260</ele>
        <time>2009-02-01T09:00:29Z</time>
      </trkpt>
      <trkpt lat="44.47519" lon="1.11462">
        <ele>260</ele>
        <time>2009-02-01T09:00:32Z</time>
      </trkpt>
      <trkpt lat="44.47519" lon="1.11464">
        <ele>262</ele>
        <time>2009-02-01T09:00:38Z</time>
      </trkpt>
      <trkpt lat="44.4752" lon="1.11465">
        <ele>263</ele>
        <time>2009-02-01T09:00:43Z</time>
      </trkpt>
      <trkpt lat="44.47519" lon="1.11464">
        <ele>263</ele>
        <time>2009-02-01T09:00:46Z</time>
      </trkpt>
      <trkpt lat="44.47518" lon="1.11462">
        <ele>263</ele>
        <time>2009-02-01T09:00:49Z</time>
      </trkpt>
      <trkpt lat="44.47517" lon="1.11461">
        <ele>264</ele>
        <time>2009-02-01T09:00:53Z</time>
      </trkpt>
      <trkpt lat="44.47515" lon="1.1146">
        <ele>265</ele>
        <time>2009-02-01T09:00:58Z</time>
      </trkpt>
      <trkpt lat="44.47514" lon="1.11462">
        <ele>265</ele>
        <time>2009-02-01T09:01:04Z</time>
      </trkpt>
      <trkpt lat="44.47514" lon="1.11469">
        <ele>265</ele>
        <time>2009-02-01T09:01:07Z</time>
      </trkpt>
      <trkpt lat="44.47512" lon="1.11476">
        <ele>265</ele>
        <time>2009-02-01T09:01:10Z</time>
      </trkpt>
      <trkpt lat="44.4751" lon="1.11486">
        <ele>265</ele>
        <time>2009-02-01T09:01:13Z</time>
      </trkpt>
      <trkpt lat="44.47506" lon="1.11496">
        <ele>265</ele>
        <time>2009-02-01T09:01:16Z</time>
      </trkpt>
      <trkpt lat="44.47503" lon="1.11506">
        <ele>265</ele>
        <time>2009-02-01T09:01:19Z</time>
      </trkpt>
      <trkpt lat="44.475" lon="1.11515">
        <ele>265</ele>
        <time>2009-02-01T09:01:22Z</time>
      </trkpt>
      <trkpt lat="44.47497" lon="1.11522">
        <ele>265</ele>
        <time>2009-02-01T09:01:25Z</time>
      </trkpt>
      <trkpt lat="44.47494" lon="1.11529">
        <ele>265</ele>
        <time>2009-02-01T09:01:28Z</time>
      </trkpt>
      <trkpt lat="44.4749" lon="1.11536">
        <ele>265</ele>
        <time>2009-02-01T09:01:31Z</time>
      </trkpt>
      <trkpt lat="44.47485" lon="1.11541">
        <ele>265</ele>
        <time>2009-02-01T09:01:34Z</time>
      </trkpt>
      <trkpt lat="44.47481" lon="1.11546">
        <ele>265</ele>
        <time>2009-02-01T09:01:37Z</time>
      </trkpt>
      <trkpt lat="44.47476" lon="1.11549">
        <ele>265</ele>
        <time>2009-02-01T09:01:40Z</time>
      </trkpt>
      <trkpt lat="44.4747" lon="1.11552">
        <ele>265</ele>
        <time>2009-02-01T09:01:43Z</time>
      </trkpt>
      <trkpt lat="44.47464" lon="1.11555">
        <ele>265</ele>
        <time>2009-02-01T09:01:46Z</time>
      </trkpt>
      <trkpt lat="44.47458" lon="1.11558">
        <ele>265</ele>
        <time>2009-02-01T09:01:49Z</time>
      </trkpt>
      <trkpt lat="44.47453" lon="1.11562">
        <ele>265</ele>
        <time>2009-02-01T09:01:52Z</time>
      </trkpt>
      <trkpt lat="44.47447" lon="1.11566">
        <ele>265</ele>
        <time>2009-02-01T09:01:55Z</time>
      </trkpt>
      <trkpt lat="44.47442" lon="1.1157">
        <ele>265</ele>
        <time>2009-02-01T09:01:58Z</time>
      </trkpt>
      <trkpt lat="44.47437" lon="1.11574">
        <ele>265</ele>
        <time>2009-02-01T09:02:01Z</time>
      </trkpt>
      <trkpt lat="44.47433" lon="1.11579">
        <ele>265</ele>
        <time>2009-02-01T09:02:04Z</time>
      </trkpt>
      <trkpt lat="44.47429" lon="1.11584">
        <ele>266</ele>
        <time>2009-02-01T09:02:07Z</time>
      </trkpt>
      <trkpt lat="44.47424" lon="1.1159">
        <ele>266</ele>
        <time>2009-02-01T09:02:10Z</time>
      </trkpt>
      <trkpt lat="44.47423" lon="1.11598">
        <ele>267</ele>
        <time>2009-02-01T09:02:13Z</time>
      </trkpt>
      <trkpt lat="44.47424" lon="1.11604">
        <ele>268</ele>
        <time>2009-02-01T09:02:16Z</time>
      </trkpt>
      <trkpt lat="44.47427" lon="1.1161">
        <ele>268</ele>
        <time>2009-02-01T09:02:20Z</time>
      </trkpt>
      <trkpt lat="44.4743" lon="1.11615">
        <ele>269</ele>
        <time>2009-02-01T09:02:23Z</time>
      </trkpt>
      <trkpt lat="44.47434" lon="1.11622">
        <ele>269</ele>
        <time>2009-02-01T09:02:26Z</time>
      </trkpt>
      <trkpt lat="44.47437" lon="1.11628">
        <ele>269</ele>
        <time>2009-02-01T09:02:29Z</time>
      </trkpt>
      <trkpt lat="44.47437" lon="1.11636">
        <ele>269</ele>
        <time>2009-02-01T09:02:32Z</time>
      </trkpt>
      <trkpt lat="44.47437" lon="1.11645">
        <ele>269</ele>
        <time>2009-02-01T09:02:35Z</time>
      </trkpt>
      <trkpt lat="44.47434" lon="1.11653">
        <ele>269</ele>
        <time>2009-02-01T09:02:38Z</time>
      </trkpt>
      <trkpt lat="44.47431" lon="1.11662">
        <ele>269</ele>
        <time>2009-02-01T09:02:41Z</time>
      </trkpt>
      <trkpt lat="44.47428" lon="1.1167">
        <ele>269</ele>
        <time>2009-02-01T09:02:44Z</time>
      </trkpt>
      <trkpt lat="44.47425" lon="1.11678">
        <ele>269</ele>
        <time>2009-02-01T09:02:47Z</time>
      </trkpt>
      <trkpt lat="44.47424" lon="1.11686">
        <ele>269</ele>
        <time>2009-02-01T09:02:50Z</time>
      </trkpt>
      <trkpt lat="44.47423" lon="1.11695">
        <ele>269</ele>
        <time>2009-02-01T09:02:53Z</time>
      </trkpt>
      <trkpt lat="44.47422" lon="1.11707">
        <ele>269</ele>
        <time>2009-02-01T09:02:58Z</time>
      </trkpt>
      <trkpt lat="44.47422" lon="1.11716">
        <ele>269</ele>
        <time>2009-02-01T09:03:01Z</time>
      </trkpt>
      <trkpt lat="44.47424" lon="1.11725">
        <ele>269</ele>
        <time>2009-02-01T09:03:04Z</time>
      </trkpt>
      <trkpt lat="44.47424" lon="1.11733">
        <ele>269</ele>
        <time>2009-02-01T09:03:07Z</time>
      </trkpt>
      <trkpt lat="44.47425" lon="1.11741">
        <ele>269</ele>
        <time>2009-02-01T09:03:10Z</time>
      </trkpt>
      <trkpt lat="44.47425" lon="1.1175">
        <ele>269</ele>
        <time>2009-02-01T09:03:13Z</time>
      </trkpt>
      <trkpt lat="44.47424" lon="1.1176">
        <ele>269</ele>
        <time>2009-02-01T09:03:16Z</time>
      </trkpt>
      <trkpt lat="44.47423" lon="1.11766">
        <ele>269</ele>
        <time>2009-02-01T09:03:19Z</time>
      </trkpt>
      <trkpt lat="44.47425" lon="1.11775">
        <ele>269</ele>
        <time>2009-02-01T09:03:23Z</time>
      </trkpt>
      <trkpt lat="44.47428" lon="1.11782">
        <ele>269</ele>
        <time>2009-02-01T09:03:28Z</time>
      </trkpt>
      <trkpt lat="44.47429" lon="1.11786">
        <ele>269</ele>
        <time>2009-02-01T09:03:31Z</time>
      </trkpt>
      <trkpt lat="44.47432" lon="1.11794">
        <ele>269</ele>
        <time>2009-02-01T09:03:34Z</time>
      </trkpt>
      <trkpt lat="44.47436" lon="1.11802">
        <ele>269</ele>
        <time>2009-02-01T09:03:37Z</time>
      </trkpt>
      <trkpt lat="44.4744" lon="1.11812">
        <ele>269</ele>
        <time>2009-02-01T09:03:40Z</time>
      </trkpt>
      <trkpt lat="44.47446" lon="1.11822">
        <ele>269</ele>
        <time>2009-02-01T09:03:43Z</time>
      </trkpt>
      <trkpt lat="44.47452" lon="1.11832">
        <ele>269</ele>
        <time>2009-02-01T09:03:46Z</time>
      </trkpt>
      <trkpt lat="44.47456" lon="1.11843">
        <ele>269</ele>
        <time>2009-02-01T09:03:49Z</time>
      </trkpt>
      <trkpt lat="44.47457" lon="1.11851">
        <ele>268</ele>
        <time>2009-02-01T09:03:52Z</time>
      </trkpt>
      <trkpt lat="44.47461" lon="1.11858">
        <ele>268</ele>
        <time>2009-02-01T09:03:55Z</time>
      </trkpt>
      <trkpt lat="44.47471" lon="1.11863">
        <ele>267</ele>
        <time>2009-02-01T09:03:58Z</time>
      </trkpt>
      <trkpt lat="44.47483" lon="1.1187">
        <ele>266</ele>
        <time>2009-02-01T09:04:01Z</time>
      </trkpt>
      <trkpt lat="44.47503" lon="1.11889">
        <ele>263</ele>
        <time>2009-02-01T09:04:04Z</time>
      </trkpt>
      <trkpt lat="44.47524" lon="1.1192">
        <ele>260</ele>
        <time>2009-02-01T09:04:08Z</time>
      </trkpt>
      <trkpt lat="44.47539" lon="1.11946">
        <ele>258</ele>
        <time>2009-02-01T09:04:11Z</time>
      </trkpt>
      <trkpt lat="44.47555" lon="1.11972">
        <ele>255</ele>
        <time>2009-02-01T09:04:14Z</time>
      </trkpt>
      <trkpt lat="44.47573" lon="1.11995">
        <ele>252</ele>
        <time>2009-02-01T09:04:17Z</time>
      </trkpt>
      <trkpt lat="44.47592" lon="1.12015">
        <ele>251</ele>
        <time>2009-02-01T09:04:20Z</time>
      </trkpt>
      <trkpt lat="44.47611" lon="1.12033">
        <ele>249</ele>
        <time>2009-02-01T09:04:23Z</time>
      </trkpt>
      <trkpt lat="44.47632" lon="1.12046">
        <ele>247</ele>
        <time>2009-02-01T09:04:26Z</time>
      </trkpt>
      <trkpt lat="44.47656" lon="1.12049">
        <ele>244</ele>
        <time>2009-02-01T09:04:29Z</time>
      </trkpt>
      <trkpt lat="44.47686" lon="1.12048">
        <ele>241</ele>
        <time>2009-02-01T09:04:32Z</time>
      </trkpt>
      <trkpt lat="44.47718" lon="1.12057">
        <ele>238</ele>
        <time>2009-02-01T09:04:35Z</time>
      </trkpt>
      <trkpt lat="44.47737" lon="1.1207">
        <ele>235</ele>
        <time>2009-02-01T09:04:38Z</time>
      </trkpt>
      <trkpt lat="44.47744" lon="1.12077">
        <ele>232</ele>
        <time>2009-02-01T09:04:41Z</time>
      </trkpt>
      <trkpt lat="44.47743" lon="1.12085">
        <ele>230</ele>
        <time>2009-02-01T09:04:44Z</time>
      </trkpt>
      <trkpt lat="44.47743" lon="1.12095">
        <ele>229</ele>
        <time>2009-02-01T09:04:47Z</time>
      </trkpt>
      <trkpt lat="44.47749" lon="1.12108">
        <ele>229</ele>
        <time>2009-02-01T09:04:50Z</time>
      </trkpt>
      <trkpt lat="44.47755" lon="1.12126">
        <ele>228</ele>
        <time>2009-02-01T09:04:53Z</time>
      </trkpt>
      <trkpt lat="44.47761" lon="1.12146">
        <ele>227</ele>
        <time>2009-02-01T09:04:56Z</time>
      </trkpt>
      <trkpt lat="44.47766" lon="1.12165">
        <ele>226</ele>
        <time>2009-02-01T09:04:59Z</time>
      </trkpt>
      <trkpt lat="44.4777" lon="1.12181">
        <ele>225</ele>
        <time>2009-02-01T09:05:02Z</time>
      </trkpt>
      <trkpt lat="44.47773" lon="1.12192">
        <ele>225</ele>
        <time>2009-02-01T09:05:05Z</time>
      </trkpt>
      <trkpt lat="44.47775" lon="1.122">
        <ele>225</ele>
        <time>2009-02-01T09:05:08Z</time>
      </trkpt>
      <trkpt lat="44.47775" lon="1.1221">
        <ele>225</ele>
        <time>2009-02-01T09:05:11Z</time>
      </trkpt>
      <trkpt lat="44.47775" lon="1.12221">
        <ele>225</ele>
        <time>2009-02-01T09:05:14Z</time>
      </trkpt>
      <trkpt lat="44.47771" lon="1.12233">
        <ele>224</ele>
        <time>2009-02-01T09:05:17Z</time>
      </trkpt>
      <trkpt lat="44.4777" lon="1.12246">
        <ele>222</ele>
        <time>2009-02-01T09:05:20Z</time>
      </trkpt>
      <trkpt lat="44.4777" lon="1.12256">
        <ele>221</ele>
        <time>2009-02-01T09:05:23Z</time>
      </trkpt>
      <trkpt lat="44.4777" lon="1.12265">
        <ele>221</ele>
        <time>2009-02-01T09:05:26Z</time>
      </trkpt>
      <trkpt lat="44.4777" lon="1.12273">
        <ele>221</ele>
        <time>2009-02-01T09:05:29Z</time>
      </trkpt>
      <trkpt lat="44.4777" lon="1.12282">
        <ele>221</ele>
        <time>2009-02-01T09:05:32Z</time>
      </trkpt>
      <trkpt lat="44.4777" lon="1.12289">
        <ele>221</ele>
        <time>2009-02-01T09:05:35Z</time>
      </trkpt>
      <trkpt lat="44.47772" lon="1.12297">
        <ele>221</ele>
        <time>2009-02-01T09:05:38Z</time>
      </trkpt>
      <trkpt lat="44.47772" lon="1.12304">
        <ele>221</ele>
        <time>2009-02-01T09:05:41Z</time>
      </trkpt>
      <trkpt lat="44.47771" lon="1.12309">
        <ele>221</ele>
        <time>2009-02-01T09:05:44Z</time>
      </trkpt>
      <trkpt lat="44.47769" lon="1.12314">
        <ele>221</ele>
        <time>2009-02-01T09:05:47Z</time>
      </trkpt>
      <trkpt lat="44.47768" lon="1.1232">
        <ele>222</ele>
        <time>2009-02-01T09:05:50Z</time>
      </trkpt>
      <trkpt lat="44.47768" lon="1.12326">
        <ele>222</ele>
        <time>2009-02-01T09:05:53Z</time>
      </trkpt>
      <trkpt lat="44.47767" lon="1.12332">
        <ele>222</ele>
        <time>2009-02-01T09:05:56Z</time>
      </trkpt>
      <trkpt lat="44.47766" lon="1.12338">
        <ele>222</ele>
        <time>2009-02-01T09:05:59Z</time>
      </trkpt>
      <trkpt lat="44.47765" lon="1.12344">
        <ele>222</ele>
        <time>2009-02-01T09:06:03Z</time>
      </trkpt>
      <trkpt lat="44.47764" lon="1.12348">
        <ele>223</ele>
        <time>2009-02-01T09:06:06Z</time>
      </trkpt>
      <trkpt lat="44.47765" lon="1.12351">
        <ele>224</ele>
        <time>2009-02-01T09:06:12Z</time>
      </trkpt>
      <trkpt lat="44.47765" lon="1.12353">
        <ele>226</ele>
        <time>2009-02-01T09:06:23Z</time>
      </trkpt>
      <trkpt lat="44.47765" lon="1.12359">
        <ele>226</ele>
        <time>2009-02-01T09:06:26Z</time>
      </trkpt>
      <trkpt lat="44.47765" lon="1.12364">
        <ele>226</ele>
        <time>2009-02-01T09:06:29Z</time>
      </trkpt>
      <trkpt lat="44.47764" lon="1.1237">
        <ele>227</ele>
        <time>2009-02-01T09:06:32Z</time>
      </trkpt>
      <trkpt lat="44.47765" lon="1.12376">
        <ele>227</ele>
        <time>2009-02-01T09:06:35Z</time>
      </trkpt>
      <trkpt lat="44.47766" lon="1.12383">
        <ele>228</ele>
        <time>2009-02-01T09:06:38Z</time>
      </trkpt>
      <trkpt lat="44.47766" lon="1.12389">
        <ele>229</ele>
        <time>2009-02-01T09:06:41Z</time>
      </trkpt>
      <trkpt lat="44.47767" lon="1.12396">
        <ele>230</ele>
        <time>2009-02-01T09:06:44Z</time>
      </trkpt>
      <trkpt lat="44.47766" lon="1.12402">
        <ele>230</ele>
        <time>2009-02-01T09:06:47Z</time>
      </trkpt>
      <trkpt lat="44.47765" lon="1.12409">
        <ele>230</ele>
        <time>2009-02-01T09:06:50Z</time>
      </trkpt>
      <trkpt lat="44.47765" lon="1.12416">
        <ele>230</ele>
        <time>2009-02-01T09:06:53Z</time>
      </trkpt>
      <trkpt lat="44.47767" lon="1.12424">
        <ele>230</ele>
        <time>2009-02-01T09:06:56Z</time>
      </trkpt>
      <trkpt lat="44.47768" lon="1.12431">
        <ele>230</ele>
        <time>2009-02-01T09:06:59Z</time>
      </trkpt>
      <trkpt lat="44.47769" lon="1.12439">
        <ele>231</ele>
        <time>2009-02-01T09:07:02Z</time>
      </trkpt>
      <trkpt lat="44.47771" lon="1.12448">
        <ele>231</ele>
        <time>2009-02-01T09:07:05Z</time>
      </trkpt>
      <trkpt lat="44.47773" lon="1.12457">
        <ele>231</ele>
        <time>2009-02-01T09:07:08Z</time>
      </trkpt>
      <trkpt lat="44.47776" lon="1.12469">
        <ele>231</ele>
        <time>2009-02-01T09:07:11Z</time>
      </trkpt>
      <trkpt lat="44.47781" lon="1.12482">
        <ele>231</ele>
        <time>2009-02-01T09:07:14Z</time>
      </trkpt>
      <trkpt lat="44.47785" lon="1.12492">
        <ele>231</ele>
        <time>2009-02-01T09:07:17Z</time>
      </trkpt>
      <trkpt lat="44.47787" lon="1.12506">
        <ele>231</ele>
        <time>2009-02-01T09:07:20Z</time>
      </trkpt>
      <trkpt lat="44.4779" lon="1.12523">
        <ele>231</ele>
        <time>2009-02-01T09:07:23Z</time>
      </trkpt>
      <trkpt lat="44.47794" lon="1.12544">
        <ele>231</ele>
        <time>2009-02-01T09:07:26Z</time>
      </trkpt>
      <trkpt lat="44.47794" lon="1.1256">
        <ele>231</ele>
        <time>2009-02-01T09:07:29Z</time>
      </trkpt>
      <trkpt lat="44.47792" lon="1.12573">
        <ele>231</ele>
        <time>2009-02-01T09:07:32Z</time>
      </trkpt>
      <trkpt lat="44.47789" lon="1.12581">
        <ele>231</ele>
        <time>2009-02-01T09:07:35Z</time>
      </trkpt>
      <trkpt lat="44.47785" lon="1.1259">
        <ele>230</ele>
        <time>2009-02-01T09:07:38Z</time>
      </trkpt>
      <trkpt lat="44.47785" lon="1.12598">
        <ele>230</ele>
        <time>2009-02-01T09:07:41Z</time>
      </trkpt>
      <trkpt lat="44.47781" lon="1.12607">
        <ele>229</ele>
        <time>2009-02-01T09:07:44Z</time>
      </trkpt>
      <trkpt lat="44.47775" lon="1.12615">
        <ele>228</ele>
        <time>2009-02-01T09:07:47Z</time>
      </trkpt>
      <trkpt lat="44.47767" lon="1.12624">
        <ele>227</ele>
        <time>2009-02-01T09:07:50Z</time>
      </trkpt>
      <trkpt lat="44.47761" lon="1.12636">
        <ele>227</ele>
        <time>2009-02-01T09:07:53Z</time>
      </trkpt>
      <trkpt lat="44.47757" lon="1.12648">
        <ele>227</ele>
        <time>2009-02-01T09:07:56Z</time>
      </trkpt>
      <trkpt lat="44.47754" lon="1.12656">
        <ele>227</ele>
        <time>2009-02-01T09:07:59Z</time>
      </trkpt>
      <trkpt lat="44.47751" lon="1.12663">
        <ele>227</ele>
        <time>2009-02-01T09:08:02Z</time>
      </trkpt>
      <trkpt lat="44.47748" lon="1.1267">
        <ele>227</ele>
        <time>2009-02-01T09:08:06Z</time>
      </trkpt>
      <trkpt lat="44.47746" lon="1.12678">
        <ele>227</ele>
        <time>2009-02-01T09:08:09Z</time>
      </trkpt>
      <trkpt lat="44.47742" lon="1.12685">
        <ele>227</ele>
        <time>2009-02-01T09:08:12Z</time>
      </trkpt>
      <trkpt lat="44.4774" lon="1.12693">
        <ele>227</ele>
        <time>2009-02-01T09:08:15Z</time>
      </trkpt>
      <trkpt lat="44.47737" lon="1.127">
        <ele>227</ele>
        <time>2009-02-01T09:08:18Z</time>
      </trkpt>
      <trkpt lat="44.47735" lon="1.12707">
        <ele>227</ele>
        <time>2009-02-01T09:08:21Z</time>
      </trkpt>
      <trkpt lat="44.47731" lon="1.12713">
        <ele>227</ele>
        <time>2009-02-01T09:08:24Z</time>
      </trkpt>
      <trkpt lat="44.47722" lon="1.12719">
        <ele>227</ele>
        <time>2009-02-01T09:08:27Z</time>
      </trkpt>
      <trkpt lat="44.47712" lon="1.12729">
        <ele>227</ele>
        <time>2009-02-01T09:08:30Z</time>
      </trkpt>
      <trkpt lat="44.47706" lon="1.12737">
        <ele>227</ele>
        <time>2009-02-01T09:08:33Z</time>
      </trkpt>
      <trkpt lat="44.47703" lon="1.12741">
        <ele>227</ele>
        <time>2009-02-01T09:08:36Z</time>
      </trkpt>
      <trkpt lat="44.477" lon="1.12746">
        <ele>227</ele>
        <time>2009-02-01T09:08:39Z</time>
      </trkpt>
      <trkpt lat="44.47697" lon="1.1275">
        <ele>227</ele>
        <time>2009-02-01T09:08:42Z</time>
      </trkpt>
      <trkpt lat="44.47692" lon="1.12755">
        <ele>227</ele>
        <time>2009-02-01T09:08:46Z</time>
      </trkpt>
      <trkpt lat="44.47689" lon="1.12761">
        <ele>227</ele>
        <time>2009-02-01T09:08:50Z</time>
      </trkpt>
      <trkpt lat="44.47686" lon="1.12767">
        <ele>227</ele>
        <time>2009-02-01T09:08:54Z</time>
      </trkpt>
      <trkpt lat="44.47688" lon="1.12771">
        <ele>227</ele>
        <time>2009-02-01T09:08:57Z</time>
      </trkpt>
      <trkpt lat="44.47688" lon="1.12776">
        <ele>227</ele>
        <time>2009-02-01T09:09:01Z</time>
      </trkpt>
      <trkpt lat="44.47689" lon="1.12781">
        <ele>227</ele>
        <time>2009-02-01T09:09:04Z</time>
      </trkpt>
      <trkpt lat="44.47691" lon="1.12785">
        <ele>227</ele>
        <time>2009-02-01T09:09:07Z</time>
      </trkpt>
      <trkpt lat="44.47693" lon="1.12789">
        <ele>227</ele>
        <time>2009-02-01T09:09:11Z</time>
      </trkpt>
      <trkpt lat="44.47694" lon="1.12794">
        <ele>227</ele>
        <time>2009-02-01T09:09:15Z</time>
      </trkpt>
      <trkpt lat="44.47695" lon="1.12798">
        <ele>229</ele>
        <time>2009-02-01T09:09:19Z</time>
      </trkpt>
      <trkpt lat="44.47698" lon="1.12803">
        <ele>230</ele>
        <time>2009-02-01T09:09:23Z</time>
      </trkpt>
      <trkpt lat="44.477" lon="1.12807">
        <ele>231</ele>
        <time>2009-02-01T09:09:31Z</time>
      </trkpt>
      <trkpt lat="44.47701" lon="1.12809">
        <ele>232</ele>
        <time>2009-02-01T09:09:34Z</time>
      </trkpt>
      <trkpt lat="44.47701" lon="1.12813">
        <ele>232</ele>
        <time>2009-02-01T09:09:37Z</time>
      </trkpt>
      <trkpt lat="44.47698" lon="1.12816">
        <ele>232</ele>
        <time>2009-02-01T09:09:40Z</time>
      </trkpt>
      <trkpt lat="44.47694" lon="1.12817">
        <ele>232</ele>
        <time>2009-02-01T09:09:43Z</time>
      </trkpt>
      <trkpt lat="44.4769" lon="1.12818">
        <ele>232</ele>
        <time>2009-02-01T09:09:46Z</time>
      </trkpt>
      <trkpt lat="44.47685" lon="1.12819">
        <ele>232</ele>
        <time>2009-02-01T09:09:49Z</time>
      </trkpt>
      <trkpt lat="44.47679" lon="1.12821">
        <ele>232</ele>
        <time>2009-02-01T09:09:52Z</time>
      </trkpt>
      <trkpt lat="44.47674" lon="1.12823">
        <ele>232</ele>
        <time>2009-02-01T09:09:55Z</time>
      </trkpt>
      <trkpt lat="44.4767" lon="1.12825">
        <ele>232</ele>
        <time>2009-02-01T09:09:58Z</time>
      </trkpt>
      <trkpt lat="44.47665" lon="1.12828">
        <ele>233</ele>
        <time>2009-02-01T09:10:01Z</time>
      </trkpt>
      <trkpt lat="44.47659" lon="1.12832">
        <ele>233</ele>
        <time>2009-02-01T09:10:04Z</time>
      </trkpt>
      <trkpt lat="44.47654" lon="1.12836">
        <ele>233</ele>
        <time>2009-02-01T09:10:07Z</time>
      </trkpt>
      <trkpt lat="44.47648" lon="1.12839">
        <ele>234</ele>
        <time>2009-02-01T09:10:10Z</time>
      </trkpt>
      <trkpt lat="44.47642" lon="1.12841">
        <ele>234</ele>
        <time>2009-02-01T09:10:13Z</time>
      </trkpt>
      <trkpt lat="44.47636" lon="1.12843">
        <ele>235</ele>
        <time>2009-02-01T09:10:16Z</time>
      </trkpt>
      <trkpt lat="44.4763" lon="1.12844">
        <ele>235</ele>
        <time>2009-02-01T09:10:19Z</time>
      </trkpt>
      <trkpt lat="44.47624" lon="1.12849">
        <ele>235</ele>
        <time>2009-02-01T09:10:22Z</time>
      </trkpt>
      <trkpt lat="44.47617" lon="1.12852">
        <ele>235</ele>
        <time>2009-02-01T09:10:25Z</time>
      </trkpt>
      <trkpt lat="44.47613" lon="1.12857">
        <ele>235</ele>
        <time>2009-02-01T09:10:32Z</time>
      </trkpt>
      <trkpt lat="44.47613" lon="1.12855">
        <ele>236</ele>
        <time>2009-02-01T09:10:42Z</time>
      </trkpt>
      <trkpt lat="44.47611" lon="1.12854">
        <ele>236</ele>
        <time>2009-02-01T09:10:51Z</time>
      </trkpt>
      <trkpt lat="44.4761" lon="1.12854">
        <ele>236</ele>
        <time>2009-02-01T09:11:04Z</time>
      </trkpt>
      <trkpt lat="44.47609" lon="1.12853">
        <ele>237</ele>
        <time>2009-02-01T09:11:25Z</time>
      </trkpt>
      <trkpt lat="44.47608" lon="1.12853">
        <ele>237</ele>
        <time>2009-02-01T09:11:43Z</time>
      </trkpt>
      <trkpt lat="44.47607" lon="1.12853">
        <ele>237</ele>
        <time>2009-02-01T09:12:07Z</time>
      </trkpt>
      <trkpt lat="44.47606" lon="1.12852">
        <ele>237</ele>
        <time>2009-02-01T09:12:43Z</time>
      </trkpt>
      <trkpt lat="44.47604" lon="1.12852">
        <ele>237</ele>
        <time>2009-02-01T09:13:19Z</time>
      </trkpt>
      <trkpt lat="44.47606" lon="1.12852">
        <ele>238</ele>
        <time>2009-02-01T09:13:43Z</time>
      </trkpt>
      <trkpt lat="44.47607" lon="1.12853">
        <ele>239</ele>
        <time>2009-02-01T09:14:33Z</time>
      </trkpt>
      <trkpt lat="44.47608" lon="1.12853">
        <ele>239</ele>
        <time>2009-02-01T09:14:47Z</time>
      </trkpt>
      <trkpt lat="44.47609" lon="1.12853">
        <ele>239</ele>
        <time>2009-02-01T09:15:29Z</time>
      </trkpt>
      <trkpt lat="44.4761" lon="1.12853">
        <ele>239</ele>
        <time>2009-02-01T09:15:35Z</time>
      </trkpt>
      <trkpt lat="44.47611" lon="1.12853">
        <ele>239</ele>
        <time>2009-02-01T09:15:42Z</time>
      </trkpt>
      <trkpt lat="44.4761" lon="1.12853">
        <ele>239</ele>
        <time>2009-02-01T09:15:55Z</time>
      </trkpt>
      <trkpt lat="44.47609" lon="1.12853">
        <ele>239</ele>
        <time>2009-02-01T09:15:59Z</time>
      </trkpt>
      <trkpt lat="44.47608" lon="1.12854">
        <ele>239</ele>
        <time>2009-02-01T09:16:08Z</time>
      </trkpt>
      <trkpt lat="44.47607" lon="1.12854">
        <ele>239</ele>
        <time>2009-02-01T09:16:26Z</time>
      </trkpt>
      <trkpt lat="44.47604" lon="1.12853">
        <ele>240</ele>
        <time>2009-02-01T09:16:46Z</time>
      </trkpt>
      <trkpt lat="44.47605" lon="1.12853">
        <ele>240</ele>
        <time>2009-02-01T09:16:49Z</time>
      </trkpt>
      <trkpt lat="44.47609" lon="1.12853">
        <ele>240</ele>
        <time>2009-02-01T09:16:54Z</time>
      </trkpt>
      <trkpt lat="44.4761" lon="1.12855">
        <ele>240</ele>
        <time>2009-02-01T09:17:00Z</time>
      </trkpt>
      <trkpt lat="44.47608" lon="1.12855">
        <ele>240</ele>
        <time>2009-02-01T09:17:06Z</time>
      </trkpt>
      <trkpt lat="44.47606" lon="1.12855">
        <ele>240</ele>
        <time>2009-02-01T09:17:18Z</time>
      </trkpt>
      <trkpt lat="44.47599" lon="1.12853">
        <ele>239</ele>
        <time>2009-02-01T09:17:21Z</time>
      </trkpt>
      <trkpt lat="44.4759" lon="1.12849">
        <ele>238</ele>
        <time>2009-02-01T09:17:24Z</time>
      </trkpt>
      <trkpt lat="44.47583" lon="1.12846">
        <ele>236</ele>
        <time>2009-02-01T09:17:27Z</time>
      </trkpt>
      <trkpt lat="44.47577" lon="1.12846">
        <ele>235</ele>
        <time>2009-02-01T09:17:30Z</time>
      </trkpt>
      <trkpt lat="44.47569" lon="1.12844">
        <ele>233</ele>
        <time>2009-02-01T09:17:33Z</time>
      </trkpt>
      <trkpt lat="44.47557" lon="1.12842">
        <ele>231</ele>
        <time>2009-02-01T09:17:36Z</time>
      </trkpt>
      <trkpt lat="44.47548" lon="1.12835">
        <ele>228</ele>
        <time>2009-02-01T09:17:39Z</time>
      </trkpt>
      <trkpt lat="44.4754" lon="1.12835">
        <ele>225</ele>
        <time>2009-02-01T09:17:43Z</time>
      </trkpt>
      <trkpt lat="44.47535" lon="1.12837">
        <ele>222</ele>
        <time>2009-02-01T09:17:46Z</time>
      </trkpt>
      <trkpt lat="44.47534" lon="1.12835">
        <ele>220</ele>
        <time>2009-02-01T09:17:52Z</time>
      </trkpt>
      <trkpt lat="44.47527" lon="1.12832">
        <ele>219</ele>
        <time>2009-02-01T09:17:55Z</time>
      </trkpt>
      <trkpt lat="44.47519" lon="1.12826">
        <ele>217</ele>
        <time>2009-02-01T09:17:58Z</time>
      </trkpt>
      <trkpt lat="44.47508" lon="1.12831">
        <ele>215</ele>
        <time>2009-02-01T09:18:01Z</time>
      </trkpt>
      <trkpt lat="44.47501" lon="1.12838">
        <ele>213</ele>
        <time>2009-02-01T09:18:04Z</time>
      </trkpt>
      <trkpt lat="44.47494" lon="1.12846">
        <ele>211</ele>
        <time>2009-02-01T09:18:07Z</time>
      </trkpt>
      <trkpt lat="44.47493" lon="1.12856">
        <ele>209</ele>
        <time>2009-02-01T09:18:10Z</time>
      </trkpt>
      <trkpt lat="44.47492" lon="1.12863">
        <ele>207</ele>
        <time>2009-02-01T09:18:13Z</time>
      </trkpt>
      <trkpt lat="44.47489" lon="1.12867">
        <ele>205</ele>
        <time>2009-02-01T09:18:16Z</time>
      </trkpt>
      <trkpt lat="44.47484" lon="1.12867">
        <ele>204</ele>
        <time>2009-02-01T09:18:19Z</time>
      </trkpt>
      <trkpt lat="44.47478" lon="1.12868">
        <ele>202</ele>
        <time>2009-02-01T09:18:22Z</time>
      </trkpt>
      <trkpt lat="44.47472" lon="1.12869">
        <ele>200</ele>
        <time>2009-02-01T09:18:25Z</time>
      </trkpt>
      <trkpt lat="44.47469" lon="1.12871">
        <ele>198</ele>
        <time>2009-02-01T09:18:28Z</time>
      </trkpt>
      <trkpt lat="44.47465" lon="1.12872">
        <ele>196</ele>
        <time>2009-02-01T09:18:31Z</time>
      </trkpt>
      <trkpt lat="44.4746" lon="1.1287">
        <ele>194</ele>
        <time>2009-02-01T09:18:34Z</time>
      </trkpt>
      <trkpt lat="44.47454" lon="1.12871">
        <ele>193</ele>
        <time>2009-02-01T09:18:38Z</time>
      </trkpt>
      <trkpt lat="44.4745" lon="1.12871">
        <ele>191</ele>
        <time>2009-02-01T09:18:41Z</time>
      </trkpt>
      <trkpt lat="44.47445" lon="1.12869">
        <ele>190</ele>
        <time>2009-02-01T09:18:44Z</time>
      </trkpt>
      <trkpt lat="44.4744" lon="1.12869">
        <ele>188</ele>
        <time>2009-02-01T09:18:47Z</time>
      </trkpt>
      <trkpt lat="44.47435" lon="1.12866">
        <ele>187</ele>
        <time>2009-02-01T09:18:50Z</time>
      </trkpt>
      <trkpt lat="44.47429" lon="1.12863">
        <ele>186</ele>
        <time>2009-02-01T09:18:53Z</time>
      </trkpt>
      <trkpt lat="44.47422" lon="1.1286">
        <ele>183</ele>
        <time>2009-02-01T09:18:56Z</time>
      </trkpt>
      <trkpt lat="44.47416" lon="1.12859">
        <ele>181</ele>
        <time>2009-02-01T09:18:59Z</time>
      </trkpt>
      <trkpt lat="44.47411" lon="1.12862">
        <ele>179</ele>
        <time>2009-02-01T09:19:03Z</time>
      </trkpt>
      <trkpt lat="44.47407" lon="1.12861">
        <ele>177</ele>
        <time>2009-02-01T09:19:06Z</time>
      </trkpt>
      <trkpt lat="44.47401" lon="1.1286">
        <ele>176</ele>
        <time>2009-02-01T09:19:09Z</time>
      </trkpt>
      <trkpt lat="44.47396" lon="1.12858">
        <ele>174</ele>
        <time>2009-02-01T09:19:12Z</time>
      </trkpt>
      <trkpt lat="44.47392" lon="1.12856">
        <ele>173</ele>
        <time>2009-02-01T09:19:15Z</time>
      </trkpt>
      <trkpt lat="44.47387" lon="1.12854">
        <ele>171</ele>
        <time>2009-02-01T09:19:18Z</time>
      </trkpt>
      <trkpt lat="44.47382" lon="1.12851">
        <ele>169</ele>
        <time>2009-02-01T09:19:21Z</time>
      </trkpt>
      <trkpt lat="44.47377" lon="1.1285">
        <ele>167</ele>
        <time>2009-02-01T09:19:24Z</time>
      </trkpt>
      <trkpt lat="44.47372" lon="1.1285">
        <ele>165</ele>
        <time>2009-02-01T09:19:27Z</time>
      </trkpt>
      <trkpt lat="44.47368" lon="1.12847">
        <ele>162</ele>
        <time>2009-02-01T09:19:30Z</time>
      </trkpt>
      <trkpt lat="44.47364" lon="1.12841">
        <ele>161</ele>
        <time>2009-02-01T09:19:34Z</time>
      </trkpt>
      <trkpt lat="44.47359" lon="1.12841">
        <ele>160</ele>
        <time>2009-02-01T09:19:37Z</time>
      </trkpt>
      <trkpt lat="44.47354" lon="1.12841">
        <ele>159</ele>
        <time>2009-02-01T09:19:40Z</time>
      </trkpt>
      <trkpt lat="44.4735" lon="1.12842">
        <ele>158</ele>
        <time>2009-02-01T09:19:43Z</time>
      </trkpt>
      <trkpt lat="44.47345" lon="1.12842">
        <ele>157</ele>
        <time>2009-02-01T09:19:47Z</time>
      </trkpt>
      <trkpt lat="44.47341" lon="1.12842">
        <ele>155</ele>
        <time>2009-02-01T09:19:50Z</time>
      </trkpt>
      <trkpt lat="44.47336" lon="1.12841">
        <ele>152</ele>
        <time>2009-02-01T09:19:54Z</time>
      </trkpt>
      <trkpt lat="44.47332" lon="1.12842">
        <ele>150</ele>
        <time>2009-02-01T09:19:57Z</time>
      </trkpt>
      <trkpt lat="44.47327" lon="1.12845">
        <ele>146</ele>
        <time>2009-02-01T09:20:01Z</time>
      </trkpt>
      <trkpt lat="44.47324" lon="1.12848">
        <ele>142</ele>
        <time>2009-02-01T09:20:05Z</time>
      </trkpt>
      <trkpt lat="44.4732" lon="1.1285">
        <ele>140</ele>
        <time>2009-02-01T09:20:08Z</time>
      </trkpt>
      <trkpt lat="44.47313" lon="1.12851">
        <ele>138</ele>
        <time>2009-02-01T09:20:11Z</time>
      </trkpt>
      <trkpt lat="44.47307" lon="1.12855">
        <ele>135</ele>
        <time>2009-02-01T09:20:14Z</time>
      </trkpt>
      <trkpt lat="44.47304" lon="1.12854">
        <ele>133</ele>
        <time>2009-02-01T09:20:19Z</time>
      </trkpt>
      <trkpt lat="44.47303" lon="1.12853">
        <ele>133</ele>
        <time>2009-02-01T09:20:22Z</time>
      </trkpt>
      <trkpt lat="44.47301" lon="1.12852">
        <ele>133</ele>
        <time>2009-02-01T09:20:25Z</time>
      </trkpt>
      <trkpt lat="44.473" lon="1.12851">
        <ele>133</ele>
        <time>2009-02-01T09:20:28Z</time>
      </trkpt>
      <trkpt lat="44.47299" lon="1.12853">
        <ele>133</ele>
        <time>2009-02-01T09:20:32Z</time>
      </trkpt>
      <trkpt lat="44.47298" lon="1.12854">
        <ele>133</ele>
        <time>2009-02-01T09:20:38Z</time>
      </trkpt>
      <trkpt lat="44.47298" lon="1.12856">
        <ele>132</ele>
        <time>2009-02-01T09:20:51Z</time>
      </trkpt>
      <trkpt lat="44.47297" lon="1.12859">
        <ele>131</ele>
        <time>2009-02-01T09:20:55Z</time>
      </trkpt>
      <trkpt lat="44.47297" lon="1.12861">
        <ele>128</ele>
        <time>2009-02-01T09:21:02Z</time>
      </trkpt>
      <trkpt lat="44.47293" lon="1.12862">
        <ele>127</ele>
        <time>2009-02-01T09:21:06Z</time>
      </trkpt>
      <trkpt lat="44.47289" lon="1.12863">
        <ele>125</ele>
        <time>2009-02-01T09:21:10Z</time>
      </trkpt>
      <trkpt lat="44.47287" lon="1.12866">
        <ele>122</ele>
        <time>2009-02-01T09:21:15Z</time>
      </trkpt>
      <trkpt lat="44.47285" lon="1.12867">
        <ele>122</ele>
        <time>2009-02-01T09:21:20Z</time>
      </trkpt>
      <trkpt lat="44.47283" lon="1.12869">
        <ele>122</ele>
        <time>2009-02-01T09:21:24Z</time>
      </trkpt>
      <trkpt lat="44.47283" lon="1.1287">
        <ele>122</ele>
        <time>2009-02-01T09:21:27Z</time>
      </trkpt>
      <trkpt lat="44.47283" lon="1.12872">
        <ele>121</ele>
        <time>2009-02-01T09:21:30Z</time>
      </trkpt>
      <trkpt lat="44.47281" lon="1.12876">
        <ele>119</ele>
        <time>2009-02-01T09:21:35Z</time>
      </trkpt>
      <trkpt lat="44.47279" lon="1.12879">
        <ele>118</ele>
        <time>2009-02-01T09:21:39Z</time>
      </trkpt>
      <trkpt lat="44.47276" lon="1.12881">
        <ele>117</ele>
        <time>2009-02-01T09:21:43Z</time>
      </trkpt>
      <trkpt lat="44.47276" lon="1.12883">
        <ele>117</ele>
        <time>2009-02-01T09:21:48Z</time>
      </trkpt>
      <trkpt lat="44.47274" lon="1.12884">
        <ele>117</ele>
        <time>2009-02-01T09:21:51Z</time>
      </trkpt>
      <trkpt lat="44.47271" lon="1.12884">
        <ele>116</ele>
        <time>2009-02-01T09:21:54Z</time>
      </trkpt>
      <trkpt lat="44.47269" lon="1.12885">
        <ele>115</ele>
        <time>2009-02-01T09:22:00Z</time>
      </trkpt>
      <trkpt lat="44.47268" lon="1.12887">
        <ele>114</ele>
        <time>2009-02-01T09:22:03Z</time>
      </trkpt>
      <trkpt lat="44.47267" lon="1.12887">
        <ele>113</ele>
        <time>2009-02-01T09:22:07Z</time>
      </trkpt>
      <trkpt lat="44.47266" lon="1.12887">
        <ele>111</ele>
        <time>2009-02-01T09:22:12Z</time>
      </trkpt>
      <trkpt lat="44.47264" lon="1.12886">
        <ele>110</ele>
        <time>2009-02-01T09:22:18Z</time>
      </trkpt>
      <trkpt lat="44.47262" lon="1.12884">
        <ele>108</ele>
        <time>2009-02-01T09:22:23Z</time>
      </trkpt>
      <trkpt lat="44.4726" lon="1.12882">
        <ele>107</ele>
        <time>2009-02-01T09:22:28Z</time>
      </trkpt>
      <trkpt lat="44.47258" lon="1.12881">
        <ele>107</ele>
        <time>2009-02-01T09:22:31Z</time>
      </trkpt>
      <trkpt lat="44.47257" lon="1.12881">
        <ele>107</ele>
        <time>2009-02-01T09:22:35Z</time>
      </trkpt>
      <trkpt lat="44.47256" lon="1.12878">
        <ele>107</ele>
        <time>2009-02-01T09:22:38Z</time>
      </trkpt>
      <trkpt lat="44.47256" lon="1.12876">
        <ele>106</ele>
        <time>2009-02-01T09:22:48Z</time>
      </trkpt>
      <trkpt lat="44.47255" lon="1.12875">
        <ele>106</ele>
        <time>2009-02-01T09:22:51Z</time>
      </trkpt>
      <trkpt lat="44.47254" lon="1.12877">
        <ele>103</ele>
        <time>2009-02-01T09:22:58Z</time>
      </trkpt>
      <trkpt lat="44.47248" lon="1.12887">
        <ele>101</ele>
        <time>2009-02-01T09:23:01Z</time>
      </trkpt>
      <trkpt lat="44.47242" lon="1.12894">
        <ele>101</ele>
        <time>2009-02-01T09:23:04Z</time>
      </trkpt>
      <trkpt lat="44.47238" lon="1.12894">
        <ele>101</ele>
        <time>2009-02-01T09:23:08Z</time>
      </trkpt>
      <trkpt lat="44.47237" lon="1.12889">
        <ele>101</ele>
        <time>2009-02-01T09:23:11Z</time>
      </trkpt>
      <trkpt lat="44.47236" lon="1.12884">
        <ele>101</ele>
        <time>2009-02-01T09:23:14Z</time>
      </trkpt>
      <trkpt lat="44.47232" lon="1.12876">
        <ele>101</ele>
        <time>2009-02-01T09:23:17Z</time>
      </trkpt>
      <trkpt lat="44.47229" lon="1.12871">
        <ele>101</ele>
        <time>2009-02-01T09:23:20Z</time>
      </trkpt>
      <trkpt lat="44.47226" lon="1.12864">
        <ele>101</ele>
        <time>2009-02-01T09:23:23Z</time>
      </trkpt>
      <trkpt lat="44.47222" lon="1.12857">
        <ele>101</ele>
        <time>2009-02-01T09:23:26Z</time>
      </trkpt>
      <trkpt lat="44.47216" lon="1.12849">
        <ele>101</ele>
        <time>2009-02-01T09:23:29Z</time>
      </trkpt>
      <trkpt lat="44.47212" lon="1.1284">
        <ele>101</ele>
        <time>2009-02-01T09:23:32Z</time>
      </trkpt>
      <trkpt lat="44.47206" lon="1.12832">
        <ele>101</ele>
        <time>2009-02-01T09:23:35Z</time>
      </trkpt>
      <trkpt lat="44.472" lon="1.12824">
        <ele>101</ele>
        <time>2009-02-01T09:23:38Z</time>
      </trkpt>
      <trkpt lat="44.47194" lon="1.12816">
        <ele>101</ele>
        <time>2009-02-01T09:23:41Z</time>
      </trkpt>
      <trkpt lat="44.47187" lon="1.12811">
        <ele>101</ele>
        <time>2009-02-01T09:23:45Z</time>
      </trkpt>
      <trkpt lat="44.47179" lon="1.12807">
        <ele>101</ele>
        <time>2009-02-01T09:23:48Z</time>
      </trkpt>
      <trkpt lat="44.47171" lon="1.12805">
        <ele>101</ele>
        <time>2009-02-01T09:23:51Z</time>
      </trkpt>
      <trkpt lat="44.47161" lon="1.12798">
        <ele>101</ele>
        <time>2009-02-01T09:23:54Z</time>
      </trkpt>
      <trkpt lat="44.47154" lon="1.12793">
        <ele>101</ele>
        <time>2009-02-01T09:23:57Z</time>
      </trkpt>
      <trkpt lat="44.47145" lon="1.12789">
        <ele>101</ele>
        <time>2009-02-01T09:24:00Z</time>
      </trkpt>
      <trkpt lat="44.47137" lon="1.12783">
        <ele>101</ele>
        <time>2009-02-01T09:24:03Z</time>
      </trkpt>
      <trkpt lat="44.47128" lon="1.12777">
        <ele>101</ele>
        <time>2009-02-01T09:24:06Z</time>
      </trkpt>
      <trkpt lat="44.47119" lon="1.12772">
        <ele>101</ele>
        <time>2009-02-01T09:24:09Z</time>
      </trkpt>
      <trkpt lat="44.4711" lon="1.12769">
        <ele>101</ele>
        <time>2009-02-01T09:24:12Z</time>
      </trkpt>
      <trkpt lat="44.47101" lon="1.12764">
        <ele>101</ele>
        <time>2009-02-01T09:24:15Z</time>
      </trkpt>
      <trkpt lat="44.47093" lon="1.12762">
        <ele>101</ele>
        <time>2009-02-01T09:24:18Z</time>
      </trkpt>
      <trkpt lat="44.47084" lon="1.12759">
        <ele>101</ele>
        <time>2009-02-01T09:24:22Z</time>
      </trkpt>
      <trkpt lat="44.47075" lon="1.12758">
        <ele>101</ele>
        <time>2009-02-01T09:24:25Z</time>
      </trkpt>
      <trkpt lat="44.47061" lon="1.12756">
        <ele>101</ele>
        <time>2009-02-01T09:24:28Z</time>
      </trkpt>
      <trkpt lat="44.47052" lon="1.12753">
        <ele>101</ele>
        <time>2009-02-01T09:24:31Z</time>
      </trkpt>
      <trkpt lat="44.47043" lon="1.12751">
        <ele>102</ele>
        <time>2009-02-01T09:24:34Z</time>
      </trkpt>
      <trkpt lat="44.47033" lon="1.12744">
        <ele>103</ele>
        <time>2009-02-01T09:24:37Z</time>
      </trkpt>
      <trkpt lat="44.47025" lon="1.12735">
        <ele>104</ele>
        <time>2009-02-01T09:24:40Z</time>
      </trkpt>
      <trkpt lat="44.47016" lon="1.12724">
        <ele>105</ele>
        <time>2009-02-01T09:24:43Z</time>
      </trkpt>
      <trkpt lat="44.47006" lon="1.12717">
        <ele>105</ele>
        <time>2009-02-01T09:24:46Z</time>
      </trkpt>
      <trkpt lat="44.46995" lon="1.1271">
        <ele>105</ele>
        <time>2009-02-01T09:24:49Z</time>
      </trkpt>
      <trkpt lat="44.46985" lon="1.12709">
        <ele>105</ele>
        <time>2009-02-01T09:24:52Z</time>
      </trkpt>
      <trkpt lat="44.46977" lon="1.1271">
        <ele>105</ele>
        <time>2009-02-01T09:24:56Z</time>
      </trkpt>
      <trkpt lat="44.46968" lon="1.12712">
        <ele>105</ele>
        <time>2009-02-01T09:24:59Z</time>
      </trkpt>
      <trkpt lat="44.46956" lon="1.12712">
        <ele>105</ele>
        <time>2009-02-01T09:25:02Z</time>
      </trkpt>
      <trkpt lat="44.46947" lon="1.12715">
        <ele>105</ele>
        <time>2009-02-01T09:25:05Z</time>
      </trkpt>
      <trkpt lat="44.46937" lon="1.12716">
        <ele>106</ele>
        <time>2009-02-01T09:25:08Z</time>
      </trkpt>
      <trkpt lat="44.46927" lon="1.12719">
        <ele>106</ele>
        <time>2009-02-01T09:25:11Z</time>
      </trkpt>
      <trkpt lat="44.46917" lon="1.12722">
        <ele>107</ele>
        <time>2009-02-01T09:25:14Z</time>
      </trkpt>
      <trkpt lat="44.46907" lon="1.12722">
        <ele>107</ele>
        <time>2009-02-01T09:25:17Z</time>
      </trkpt>
      <trkpt lat="44.46898" lon="1.12721">
        <ele>107</ele>
        <time>2009-02-01T09:25:20Z</time>
      </trkpt>
      <trkpt lat="44.4689" lon="1.12722">
        <ele>107</ele>
        <time>2009-02-01T09:25:23Z</time>
      </trkpt>
      <trkpt lat="44.46881" lon="1.12721">
        <ele>107</ele>
        <time>2009-02-01T09:25:27Z</time>
      </trkpt>
      <trkpt lat="44.46872" lon="1.12715">
        <ele>107</ele>
        <time>2009-02-01T09:25:30Z</time>
      </trkpt>
      <trkpt lat="44.46862" lon="1.12707">
        <ele>107</ele>
        <time>2009-02-01T09:25:33Z</time>
      </trkpt>
      <trkpt lat="44.46855" lon="1.12702">
        <ele>107</ele>
        <time>2009-02-01T09:25:36Z</time>
      </trkpt>
      <trkpt lat="44.4685" lon="1.12699">
        <ele>107</ele>
        <time>2009-02-01T09:25:39Z</time>
      </trkpt>
      <trkpt lat="44.46847" lon="1.12696">
        <ele>107</ele>
        <time>2009-02-01T09:25:42Z</time>
      </trkpt>
      <trkpt lat="44.46845" lon="1.12692">
        <ele>107</ele>
        <time>2009-02-01T09:25:45Z</time>
      </trkpt>
      <trkpt lat="44.46845" lon="1.12684">
        <ele>107</ele>
        <time>2009-02-01T09:25:49Z</time>
      </trkpt>
      <trkpt lat="44.46842" lon="1.12679">
        <ele>107</ele>
        <time>2009-02-01T09:25:52Z</time>
      </trkpt>
      <trkpt lat="44.4684" lon="1.12671">
        <ele>107</ele>
        <time>2009-02-01T09:25:55Z</time>
      </trkpt>
      <trkpt lat="44.46837" lon="1.12663">
        <ele>107</ele>
        <time>2009-02-01T09:25:58Z</time>
      </trkpt>
      <trkpt lat="44.46833" lon="1.12658">
        <ele>107</ele>
        <time>2009-02-01T09:26:01Z</time>
      </trkpt>
      <trkpt lat="44.46829" lon="1.12652">
        <ele>107</ele>
        <time>2009-02-01T09:26:04Z</time>
      </trkpt>
      <trkpt lat="44.46827" lon="1.12647">
        <ele>106</ele>
        <time>2009-02-01T09:26:07Z</time>
      </trkpt>
      <trkpt lat="44.46824" lon="1.12641">
        <ele>106</ele>
        <time>2009-02-01T09:26:10Z</time>
      </trkpt>
      <trkpt lat="44.46822" lon="1.12635">
        <ele>106</ele>
        <time>2009-02-01T09:26:13Z</time>
      </trkpt>
      <trkpt lat="44.46819" lon="1.1263">
        <ele>105</ele>
        <time>2009-02-01T09:26:16Z</time>
      </trkpt>
      <trkpt lat="44.46814" lon="1.12622">
        <ele>105</ele>
        <time>2009-02-01T09:26:19Z</time>
      </trkpt>
      <trkpt lat="44.4681" lon="1.12616">
        <ele>104</ele>
        <time>2009-02-01T09:26:22Z</time>
      </trkpt>
      <trkpt lat="44.46808" lon="1.12612">
        <ele>104</ele>
        <time>2009-02-01T09:26:25Z</time>
      </trkpt>
      <trkpt lat="44.46806" lon="1.12604">
        <ele>104</ele>
        <time>2009-02-01T09:26:28Z</time>
      </trkpt>
      <trkpt lat="44.46803" lon="1.12597">
        <ele>104</ele>
        <time>2009-02-01T09:26:32Z</time>
      </trkpt>
      <trkpt lat="44.46798" lon="1.1259">
        <ele>104</ele>
        <time>2009-02-01T09:26:35Z</time>
      </trkpt>
      <trkpt lat="44.46795" lon="1.12583">
        <ele>104</ele>
        <time>2009-02-01T09:26:38Z</time>
      </trkpt>
      <trkpt lat="44.46795" lon="1.12577">
        <ele>104</ele>
        <time>2009-02-01T09:26:41Z</time>
      </trkpt>
      <trkpt lat="44.46794" lon="1.12571">
        <ele>104</ele>
        <time>2009-02-01T09:26:44Z</time>
      </trkpt>
      <trkpt lat="44.46793" lon="1.12566">
        <ele>105</ele>
        <time>2009-02-01T09:26:47Z</time>
      </trkpt>
      <trkpt lat="44.46792" lon="1.1256">
        <ele>106</ele>
        <time>2009-02-01T09:26:50Z</time>
      </trkpt>
      <trkpt lat="44.46792" lon="1.12554">
        <ele>106</ele>
        <time>2009-02-01T09:26:53Z</time>
      </trkpt>
      <trkpt lat="44.46789" lon="1.1255">
        <ele>106</ele>
        <time>2009-02-01T09:26:56Z</time>
      </trkpt>
      <trkpt lat="44.46788" lon="1.12546">
        <ele>106</ele>
        <time>2009-02-01T09:26:59Z</time>
      </trkpt>
      <trkpt lat="44.46787" lon="1.12542">
        <ele>107</ele>
        <time>2009-02-01T09:27:03Z</time>
      </trkpt>
      <trkpt lat="44.46784" lon="1.12535">
        <ele>108</ele>
        <time>2009-02-01T09:27:07Z</time>
      </trkpt>
      <trkpt lat="44.46782" lon="1.12529">
        <ele>109</ele>
        <time>2009-02-01T09:27:10Z</time>
      </trkpt>
      <trkpt lat="44.4678" lon="1.12523">
        <ele>111</ele>
        <time>2009-02-01T09:27:13Z</time>
      </trkpt>
      <trkpt lat="44.46777" lon="1.12519">
        <ele>113</ele>
        <time>2009-02-01T09:27:17Z</time>
      </trkpt>
      <trkpt lat="44.46774" lon="1.12513">
        <ele>114</ele>
        <time>2009-02-01T09:27:20Z</time>
      </trkpt>
      <trkpt lat="44.46771" lon="1.12505">
        <ele>116</ele>
        <time>2009-02-01T09:27:23Z</time>
      </trkpt>
      <trkpt lat="44.4677" lon="1.12499">
        <ele>116</ele>
        <time>2009-02-01T09:27:26Z</time>
      </trkpt>
      <trkpt lat="44.46768" lon="1.12495">
        <ele>116</ele>
        <time>2009-02-01T09:27:29Z</time>
      </trkpt>
      <trkpt lat="44.46765" lon="1.1249">
        <ele>116</ele>
        <time>2009-02-01T09:27:32Z</time>
      </trkpt>
      <trkpt lat="44.46763" lon="1.12486">
        <ele>116</ele>
        <time>2009-02-01T09:27:35Z</time>
      </trkpt>
      <trkpt lat="44.4676" lon="1.12483">
        <ele>116</ele>
        <time>2009-02-01T09:27:38Z</time>
      </trkpt>
      <trkpt lat="44.4676" lon="1.12476">
        <ele>116</ele>
        <time>2009-02-01T09:27:41Z</time>
      </trkpt>
      <trkpt lat="44.46759" lon="1.12473">
        <ele>116</ele>
        <time>2009-02-01T09:27:44Z</time>
      </trkpt>
      <trkpt lat="44.46758" lon="1.12472">
        <ele>116</ele>
        <time>2009-02-01T09:27:47Z</time>
      </trkpt>
      <trkpt lat="44.46759" lon="1.12472">
        <ele>116</ele>
        <time>2009-02-01T09:27:52Z</time>
      </trkpt>
      <trkpt lat="44.46764" lon="1.12474">
        <ele>116</ele>
        <time>2009-02-01T09:27:55Z</time>
      </trkpt>
      <trkpt lat="44.46763" lon="1.12478">
        <ele>119</ele>
        <time>2009-02-01T09:28:00Z</time>
      </trkpt>
      <trkpt lat="44.46761" lon="1.12476">
        <ele>119</ele>
        <time>2009-02-01T09:28:03Z</time>
      </trkpt>
      <trkpt lat="44.46759" lon="1.12472">
        <ele>119</ele>
        <time>2009-02-01T09:28:06Z</time>
      </trkpt>
      <trkpt lat="44.46757" lon="1.12466">
        <ele>119</ele>
        <time>2009-02-01T09:28:09Z</time>
      </trkpt>
      <trkpt lat="44.46754" lon="1.1246">
        <ele>119</ele>
        <time>2009-02-01T09:28:13Z</time>
      </trkpt>
      <trkpt lat="44.46753" lon="1.12457">
        <ele>119</ele>
        <time>2009-02-01T09:28:17Z</time>
      </trkpt>
      <trkpt lat="44.4675" lon="1.1245">
        <ele>119</ele>
        <time>2009-02-01T09:28:20Z</time>
      </trkpt>
      <trkpt lat="44.46749" lon="1.12443">
        <ele>119</ele>
        <time>2009-02-01T09:28:23Z</time>
      </trkpt>
      <trkpt lat="44.46747" lon="1.12437">
        <ele>118</ele>
        <time>2009-02-01T09:28:26Z</time>
      </trkpt>
      <trkpt lat="44.46747" lon="1.1243">
        <ele>117</ele>
        <time>2009-02-01T09:28:29Z</time>
      </trkpt>
      <trkpt lat="44.46746" lon="1.12423">
        <ele>117</ele>
        <time>2009-02-01T09:28:34Z</time>
      </trkpt>
      <trkpt lat="44.46747" lon="1.12418">
        <ele>117</ele>
        <time>2009-02-01T09:28:37Z</time>
      </trkpt>
      <trkpt lat="44.46747" lon="1.12412">
        <ele>117</ele>
        <time>2009-02-01T09:28:40Z</time>
      </trkpt>
      <trkpt lat="44.46749" lon="1.12404">
        <ele>117</ele>
        <time>2009-02-01T09:28:43Z</time>
      </trkpt>
      <trkpt lat="44.46751" lon="1.12397">
        <ele>117</ele>
        <time>2009-02-01T09:28:46Z</time>
      </trkpt>
      <trkpt lat="44.46751" lon="1.12391">
        <ele>117</ele>
        <time>2009-02-01T09:28:49Z</time>
      </trkpt>
      <trkpt lat="44.46751" lon="1.12385">
        <ele>117</ele>
        <time>2009-02-01T09:28:52Z</time>
      </trkpt>
      <trkpt lat="44.46753" lon="1.1238">
        <ele>117</ele>
        <time>2009-02-01T09:28:55Z</time>
      </trkpt>
      <trkpt lat="44.46754" lon="1.12374">
        <ele>118</ele>
        <time>2009-02-01T09:28:59Z</time>
      </trkpt>
      <trkpt lat="44.46753" lon="1.12367">
        <ele>119</ele>
        <time>2009-02-01T09:29:02Z</time>
      </trkpt>
      <trkpt lat="44.46752" lon="1.1236">
        <ele>119</ele>
        <time>2009-02-01T09:29:05Z</time>
      </trkpt>
      <trkpt lat="44.4675" lon="1.12354">
        <ele>119</ele>
        <time>2009-02-01T09:29:08Z</time>
      </trkpt>
      <trkpt lat="44.46749" lon="1.12348">
        <ele>119</ele>
        <time>2009-02-01T09:29:11Z</time>
      </trkpt>
      <trkpt lat="44.46747" lon="1.12342">
        <ele>119</ele>
        <time>2009-02-01T09:29:14Z</time>
      </trkpt>
      <trkpt lat="44.46745" lon="1.12336">
        <ele>119</ele>
        <time>2009-02-01T09:29:17Z</time>
      </trkpt>
      <trkpt lat="44.46743" lon="1.12329">
        <ele>119</ele>
        <time>2009-02-01T09:29:20Z</time>
      </trkpt>
      <trkpt lat="44.4674" lon="1.12322">
        <ele>119</ele>
        <time>2009-02-01T09:29:24Z</time>
      </trkpt>
      <trkpt lat="44.46737" lon="1.12315">
        <ele>119</ele>
        <time>2009-02-01T09:29:27Z</time>
      </trkpt>
      <trkpt lat="44.46736" lon="1.12309">
        <ele>121</ele>
        <time>2009-02-01T09:29:30Z</time>
      </trkpt>
      <trkpt lat="44.46734" lon="1.12303">
        <ele>121</ele>
        <time>2009-02-01T09:29:33Z</time>
      </trkpt>
      <trkpt lat="44.46732" lon="1.12298">
        <ele>121</ele>
        <time>2009-02-01T09:29:36Z</time>
      </trkpt>
      <trkpt lat="44.46728" lon="1.12291">
        <ele>121</ele>
        <time>2009-02-01T09:29:40Z</time>
      </trkpt>
      <trkpt lat="44.46727" lon="1.12286">
        <ele>121</ele>
        <time>2009-02-01T09:29:43Z</time>
      </trkpt>
      <trkpt lat="44.46725" lon="1.1228">
        <ele>121</ele>
        <time>2009-02-01T09:29:46Z</time>
      </trkpt>
      <trkpt lat="44.46721" lon="1.12277">
        <ele>121</ele>
        <time>2009-02-01T09:29:49Z</time>
      </trkpt>
      <trkpt lat="44.46716" lon="1.12273">
        <ele>121</ele>
        <time>2009-02-01T09:29:52Z</time>
      </trkpt>
      <trkpt lat="44.46711" lon="1.12271">
        <ele>121</ele>
        <time>2009-02-01T09:29:55Z</time>
      </trkpt>
      <trkpt lat="44.46707" lon="1.12268">
        <ele>121</ele>
        <time>2009-02-01T09:29:58Z</time>
      </trkpt>
      <trkpt lat="44.46703" lon="1.12266">
        <ele>121</ele>
        <time>2009-02-01T09:30:01Z</time>
      </trkpt>
      <trkpt lat="44.46701" lon="1.12262">
        <ele>122</ele>
        <time>2009-02-01T09:30:04Z</time>
      </trkpt>
      <trkpt lat="44.46697" lon="1.12256">
        <ele>122</ele>
        <time>2009-02-01T09:30:07Z</time>
      </trkpt>
      <trkpt lat="44.46693" lon="1.12254">
        <ele>122</ele>
        <time>2009-02-01T09:30:10Z</time>
      </trkpt>
      <trkpt lat="44.46689" lon="1.12252">
        <ele>122</ele>
        <time>2009-02-01T09:30:13Z</time>
      </trkpt>
      <trkpt lat="44.46685" lon="1.1225">
        <ele>123</ele>
        <time>2009-02-01T09:30:17Z</time>
      </trkpt>
      <trkpt lat="44.4668" lon="1.12246">
        <ele>124</ele>
        <time>2009-02-01T09:30:20Z</time>
      </trkpt>
      <trkpt lat="44.46677" lon="1.12242">
        <ele>124</ele>
        <time>2009-02-01T09:30:23Z</time>
      </trkpt>
      <trkpt lat="44.46675" lon="1.12237">
        <ele>124</ele>
        <time>2009-02-01T09:30:27Z</time>
      </trkpt>
      <trkpt lat="44.4667" lon="1.12232">
        <ele>124</ele>
        <time>2009-02-01T09:30:30Z</time>
      </trkpt>
      <trkpt lat="44.46667" lon="1.12229">
        <ele>124</ele>
        <time>2009-02-01T09:30:33Z</time>
      </trkpt>
      <trkpt lat="44.46663" lon="1.12226">
        <ele>124</ele>
        <time>2009-02-01T09:30:36Z</time>
      </trkpt>
      <trkpt lat="44.46658" lon="1.12219">
        <ele>124</ele>
        <time>2009-02-01T09:30:39Z</time>
      </trkpt>
      <trkpt lat="44.46655" lon="1.12214">
        <ele>123</ele>
        <time>2009-02-01T09:30:43Z</time>
      </trkpt>
      <trkpt lat="44.4665" lon="1.12208">
        <ele>122</ele>
        <time>2009-02-01T09:30:47Z</time>
      </trkpt>
      <trkpt lat="44.46645" lon="1.12205">
        <ele>122</ele>
        <time>2009-02-01T09:30:50Z</time>
      </trkpt>
      <trkpt lat="44.46642" lon="1.122">
        <ele>122</ele>
        <time>2009-02-01T09:30:53Z</time>
      </trkpt>
      <trkpt lat="44.46638" lon="1.12194">
        <ele>122</ele>
        <time>2009-02-01T09:30:56Z</time>
      </trkpt>
      <trkpt lat="44.46636" lon="1.12189">
        <ele>122</ele>
        <time>2009-02-01T09:30:59Z</time>
      </trkpt>
      <trkpt lat="44.46635" lon="1.12185">
        <ele>122</ele>
        <time>2009-02-01T09:31:02Z</time>
      </trkpt>
      <trkpt lat="44.46631" lon="1.1218">
        <ele>122</ele>
        <time>2009-02-01T09:31:05Z</time>
      </trkpt>
      <trkpt lat="44.4663" lon="1.12174">
        <ele>122</ele>
        <time>2009-02-01T09:31:08Z</time>
      </trkpt>
      <trkpt lat="44.46627" lon="1.12169">
        <ele>122</ele>
        <time>2009-02-01T09:31:11Z</time>
      </trkpt>
      <trkpt lat="44.46624" lon="1.12164">
        <ele>122</ele>
        <time>2009-02-01T09:31:14Z</time>
      </trkpt>
      <trkpt lat="44.46621" lon="1.1216">
        <ele>122</ele>
        <time>2009-02-01T09:31:18Z</time>
      </trkpt>
      <trkpt lat="44.46617" lon="1.12152">
        <ele>123</ele>
        <time>2009-02-01T09:31:21Z</time>
      </trkpt>
      <trkpt lat="44.46613" lon="1.12147">
        <ele>123</ele>
        <time>2009-02-01T09:31:24Z</time>
      </trkpt>
      <trkpt lat="44.4661" lon="1.12143">
        <ele>123</ele>
        <time>2009-02-01T09:31:27Z</time>
      </trkpt>
      <trkpt lat="44.46607" lon="1.12137">
        <ele>123</ele>
        <time>2009-02-01T09:31:30Z</time>
      </trkpt>
      <trkpt lat="44.46603" lon="1.12131">
        <ele>123</ele>
        <time>2009-02-01T09:31:34Z</time>
      </trkpt>
      <trkpt lat="44.46599" lon="1.12125">
        <ele>123</ele>
        <time>2009-02-01T09:31:37Z</time>
      </trkpt>
      <trkpt lat="44.46596" lon="1.1212">
        <ele>123</ele>
        <time>2009-02-01T09:31:40Z</time>
      </trkpt>
      <trkpt lat="44.46592" lon="1.12116">
        <ele>123</ele>
        <time>2009-02-01T09:31:43Z</time>
      </trkpt>
      <trkpt lat="44.46588" lon="1.12112">
        <ele>123</ele>
        <time>2009-02-01T09:31:46Z</time>
      </trkpt>
      <trkpt lat="44.46586" lon="1.12105">
        <ele>124</ele>
        <time>2009-02-01T09:31:49Z</time>
      </trkpt>
      <trkpt lat="44.46583" lon="1.12098">
        <ele>126</ele>
        <time>2009-02-01T09:31:52Z</time>
      </trkpt>
      <trkpt lat="44.4658" lon="1.12092">
        <ele>127</ele>
        <time>2009-02-01T09:31:55Z</time>
      </trkpt>
      <trkpt lat="44.46576" lon="1.12084">
        <ele>127</ele>
        <time>2009-02-01T09:31:58Z</time>
      </trkpt>
      <trkpt lat="44.46573" lon="1.12078">
        <ele>127</ele>
        <time>2009-02-01T09:32:01Z</time>
      </trkpt>
      <trkpt lat="44.46572" lon="1.12069">
        <ele>128</ele>
        <time>2009-02-01T09:32:04Z</time>
      </trkpt>
      <trkpt lat="44.46569" lon="1.12065">
        <ele>128</ele>
        <time>2009-02-01T09:32:08Z</time>
      </trkpt>
      <trkpt lat="44.46562" lon="1.1206">
        <ele>129</ele>
        <time>2009-02-01T09:32:11Z</time>
      </trkpt>
      <trkpt lat="44.4656" lon="1.12054">
        <ele>130</ele>
        <time>2009-02-01T09:32:14Z</time>
      </trkpt>
      <trkpt lat="44.46559" lon="1.12048">
        <ele>130</ele>
        <time>2009-02-01T09:32:17Z</time>
      </trkpt>
      <trkpt lat="44.46559" lon="1.12041">
        <ele>130</ele>
        <time>2009-02-01T09:32:20Z</time>
      </trkpt>
      <trkpt lat="44.46557" lon="1.12033">
        <ele>131</ele>
        <time>2009-02-01T09:32:23Z</time>
      </trkpt>
      <trkpt lat="44.46555" lon="1.12028">
        <ele>132</ele>
        <time>2009-02-01T09:32:26Z</time>
      </trkpt>
      <trkpt lat="44.46551" lon="1.12023">
        <ele>132</ele>
        <time>2009-02-01T09:32:29Z</time>
      </trkpt>
      <trkpt lat="44.46548" lon="1.12012">
        <ele>132</ele>
        <time>2009-02-01T09:32:33Z</time>
      </trkpt>
      <trkpt lat="44.46546" lon="1.12007">
        <ele>133</ele>
        <time>2009-02-01T09:32:36Z</time>
      </trkpt>
      <trkpt lat="44.46545" lon="1.11999">
        <ele>135</ele>
        <time>2009-02-01T09:32:39Z</time>
      </trkpt>
      <trkpt lat="44.46541" lon="1.11993">
        <ele>135</ele>
        <time>2009-02-01T09:32:43Z</time>
      </trkpt>
      <trkpt lat="44.46536" lon="1.11989">
        <ele>135</ele>
        <time>2009-02-01T09:32:46Z</time>
      </trkpt>
      <trkpt lat="44.46532" lon="1.1198">
        <ele>135</ele>
        <time>2009-02-01T09:32:49Z</time>
      </trkpt>
      <trkpt lat="44.46532" lon="1.11972">
        <ele>135</ele>
        <time>2009-02-01T09:32:52Z</time>
      </trkpt>
      <trkpt lat="44.46532" lon="1.11962">
        <ele>135</ele>
        <time>2009-02-01T09:32:55Z</time>
      </trkpt>
      <trkpt lat="44.46531" lon="1.11953">
        <ele>135</ele>
        <time>2009-02-01T09:32:58Z</time>
      </trkpt>
      <trkpt lat="44.46529" lon="1.11945">
        <ele>135</ele>
        <time>2009-02-01T09:33:01Z</time>
      </trkpt>
      <trkpt lat="44.46526" lon="1.11938">
        <ele>135</ele>
        <time>2009-02-01T09:33:04Z</time>
      </trkpt>
      <trkpt lat="44.46523" lon="1.11932">
        <ele>135</ele>
        <time>2009-02-01T09:33:07Z</time>
      </trkpt>
      <trkpt lat="44.46519" lon="1.11925">
        <ele>135</ele>
        <time>2009-02-01T09:33:10Z</time>
      </trkpt>
      <trkpt lat="44.46517" lon="1.11922">
        <ele>135</ele>
        <time>2009-02-01T09:33:13Z</time>
      </trkpt>
      <trkpt lat="44.46514" lon="1.11917">
        <ele>135</ele>
        <time>2009-02-01T09:33:16Z</time>
      </trkpt>
      <trkpt lat="44.4651" lon="1.11912">
        <ele>135</ele>
        <time>2009-02-01T09:33:20Z</time>
      </trkpt>
      <trkpt lat="44.46507" lon="1.11908">
        <ele>135</ele>
        <time>2009-02-01T09:33:23Z</time>
      </trkpt>
      <trkpt lat="44.46503" lon="1.11905">
        <ele>135</ele>
        <time>2009-02-01T09:33:26Z</time>
      </trkpt>
      <trkpt lat="44.46498" lon="1.11899">
        <ele>135</ele>
        <time>2009-02-01T09:33:29Z</time>
      </trkpt>
      <trkpt lat="44.46494" lon="1.11897">
        <ele>135</ele>
        <time>2009-02-01T09:33:32Z</time>
      </trkpt>
      <trkpt lat="44.4649" lon="1.11894">
        <ele>135</ele>
        <time>2009-02-01T09:33:35Z</time>
      </trkpt>
      <trkpt lat="44.46486" lon="1.11892">
        <ele>135</ele>
        <time>2009-02-01T09:33:38Z</time>
      </trkpt>
      <trkpt lat="44.4648" lon="1.11889">
        <ele>139</ele>
        <time>2009-02-01T09:33:44Z</time>
      </trkpt>
      <trkpt lat="44.46482" lon="1.11888">
        <ele>139</ele>
        <time>2009-02-01T09:33:51Z</time>
      </trkpt>
      <trkpt lat="44.4648" lon="1.11887">
        <ele>139</ele>
        <time>2009-02-01T09:34:01Z</time>
      </trkpt>
      <trkpt lat="44.46476" lon="1.11884">
        <ele>139</ele>
        <time>2009-02-01T09:34:04Z</time>
      </trkpt>
      <trkpt lat="44.46472" lon="1.11882">
        <ele>139</ele>
        <time>2009-02-01T09:34:07Z</time>
      </trkpt>
      <trkpt lat="44.46467" lon="1.11881">
        <ele>139</ele>
        <time>2009-02-01T09:34:11Z</time>
      </trkpt>
      <trkpt lat="44.46462" lon="1.11878">
        <ele>139</ele>
        <time>2009-02-01T09:34:14Z</time>
      </trkpt>
      <trkpt lat="44.46458" lon="1.11875">
        <ele>139</ele>
        <time>2009-02-01T09:34:17Z</time>
      </trkpt>
      <trkpt lat="44.46454" lon="1.11873">
        <ele>139</ele>
        <time>2009-02-01T09:34:20Z</time>
      </trkpt>
      <trkpt lat="44.46449" lon="1.1187">
        <ele>139</ele>
        <time>2009-02-01T09:34:24Z</time>
      </trkpt>
      <trkpt lat="44.46444" lon="1.11867">
        <ele>139</ele>
        <time>2009-02-01T09:34:27Z</time>
      </trkpt>
      <trkpt lat="44.46438" lon="1.11861">
        <ele>139</ele>
        <time>2009-02-01T09:34:31Z</time>
      </trkpt>
      <trkpt lat="44.46433" lon="1.11857">
        <ele>139</ele>
        <time>2009-02-01T09:34:34Z</time>
      </trkpt>
      <trkpt lat="44.46428" lon="1.11854">
        <ele>139</ele>
        <time>2009-02-01T09:34:37Z</time>
      </trkpt>
      <trkpt lat="44.46423" lon="1.1185">
        <ele>139</ele>
        <time>2009-02-01T09:34:40Z</time>
      </trkpt>
      <trkpt lat="44.46419" lon="1.11846">
        <ele>139</ele>
        <time>2009-02-01T09:34:44Z</time>
      </trkpt>
      <trkpt lat="44.46414" lon="1.11845">
        <ele>139</ele>
        <time>2009-02-01T09:34:48Z</time>
      </trkpt>
      <trkpt lat="44.4641" lon="1.11841">
        <ele>139</ele>
        <time>2009-02-01T09:34:51Z</time>
      </trkpt>
      <trkpt lat="44.46405" lon="1.11839">
        <ele>139</ele>
        <time>2009-02-01T09:34:55Z</time>
      </trkpt>
      <trkpt lat="44.46402" lon="1.11838">
        <ele>141</ele>
        <time>2009-02-01T09:34:58Z</time>
      </trkpt>
      <trkpt lat="44.46396" lon="1.11836">
        <ele>142</ele>
        <time>2009-02-01T09:35:01Z</time>
      </trkpt>
      <trkpt lat="44.46391" lon="1.11833">
        <ele>142</ele>
        <time>2009-02-01T09:35:05Z</time>
      </trkpt>
      <trkpt lat="44.46387" lon="1.1183">
        <ele>142</ele>
        <time>2009-02-01T09:35:08Z</time>
      </trkpt>
      <trkpt lat="44.46382" lon="1.1183">
        <ele>143</ele>
        <time>2009-02-01T09:35:11Z</time>
      </trkpt>
      <trkpt lat="44.46378" lon="1.11829">
        <ele>143</ele>
        <time>2009-02-01T09:35:14Z</time>
      </trkpt>
      <trkpt lat="44.46372" lon="1.1183">
        <ele>143</ele>
        <time>2009-02-01T09:35:17Z</time>
      </trkpt>
      <trkpt lat="44.46365" lon="1.11831">
        <ele>143</ele>
        <time>2009-02-01T09:35:20Z</time>
      </trkpt>
      <trkpt lat="44.46362" lon="1.11833">
        <ele>143</ele>
        <time>2009-02-01T09:35:23Z</time>
      </trkpt>
      <trkpt lat="44.46358" lon="1.11836">
        <ele>143</ele>
        <time>2009-02-01T09:35:26Z</time>
      </trkpt>
      <trkpt lat="44.46352" lon="1.11837">
        <ele>143</ele>
        <time>2009-02-01T09:35:29Z</time>
      </trkpt>
      <trkpt lat="44.46346" lon="1.11837">
        <ele>143</ele>
        <time>2009-02-01T09:35:32Z</time>
      </trkpt>
      <trkpt lat="44.46341" lon="1.1184">
        <ele>143</ele>
        <time>2009-02-01T09:35:36Z</time>
      </trkpt>
      <trkpt lat="44.46337" lon="1.11842">
        <ele>143</ele>
        <time>2009-02-01T09:35:39Z</time>
      </trkpt>
      <trkpt lat="44.46331" lon="1.11842">
        <ele>143</ele>
        <time>2009-02-01T09:35:42Z</time>
      </trkpt>
      <trkpt lat="44.46325" lon="1.11845">
        <ele>143</ele>
        <time>2009-02-01T09:35:45Z</time>
      </trkpt>
      <trkpt lat="44.46321" lon="1.11847">
        <ele>143</ele>
        <time>2009-02-01T09:35:48Z</time>
      </trkpt>
      <trkpt lat="44.46317" lon="1.11849">
        <ele>143</ele>
        <time>2009-02-01T09:35:51Z</time>
      </trkpt>
      <trkpt lat="44.46313" lon="1.11849">
        <ele>145</ele>
        <time>2009-02-01T09:35:54Z</time>
      </trkpt>
      <trkpt lat="44.46308" lon="1.11853">
        <ele>147</ele>
        <time>2009-02-01T09:35:57Z</time>
      </trkpt>
      <trkpt lat="44.46303" lon="1.11854">
        <ele>148</ele>
        <time>2009-02-01T09:36:00Z</time>
      </trkpt>
      <trkpt lat="44.46297" lon="1.11854">
        <ele>149</ele>
        <time>2009-02-01T09:36:03Z</time>
      </trkpt>
      <trkpt lat="44.46291" lon="1.11855">
        <ele>149</ele>
        <time>2009-02-01T09:36:06Z</time>
      </trkpt>
      <trkpt lat="44.46286" lon="1.11854">
        <ele>149</ele>
        <time>2009-02-01T09:36:10Z</time>
      </trkpt>
      <trkpt lat="44.4628" lon="1.11854">
        <ele>149</ele>
        <time>2009-02-01T09:36:13Z</time>
      </trkpt>
      <trkpt lat="44.46273" lon="1.11854">
        <ele>149</ele>
        <time>2009-02-01T09:36:16Z</time>
      </trkpt>
      <trkpt lat="44.46268" lon="1.11853">
        <ele>149</ele>
        <time>2009-02-01T09:36:19Z</time>
      </trkpt>
      <trkpt lat="44.46264" lon="1.1185">
        <ele>150</ele>
        <time>2009-02-01T09:36:22Z</time>
      </trkpt>
      <trkpt lat="44.46262" lon="1.11845">
        <ele>150</ele>
        <time>2009-02-01T09:36:26Z</time>
      </trkpt>
      <trkpt lat="44.46258" lon="1.11845">
        <ele>150</ele>
        <time>2009-02-01T09:36:29Z</time>
      </trkpt>
      <trkpt lat="44.46252" lon="1.11843">
        <ele>150</ele>
        <time>2009-02-01T09:36:32Z</time>
      </trkpt>
      <trkpt lat="44.46247" lon="1.11844">
        <ele>150</ele>
        <time>2009-02-01T09:36:35Z</time>
      </trkpt>
      <trkpt lat="44.46244" lon="1.11841">
        <ele>150</ele>
        <time>2009-02-01T09:36:38Z</time>
      </trkpt>
      <trkpt lat="44.4624" lon="1.11838">
        <ele>150</ele>
        <time>2009-02-01T09:36:41Z</time>
      </trkpt>
      <trkpt lat="44.46236" lon="1.11838">
        <ele>150</ele>
        <time>2009-02-01T09:36:44Z</time>
      </trkpt>
      <trkpt lat="44.46233" lon="1.11837">
        <ele>150</ele>
        <time>2009-02-01T09:36:47Z</time>
      </trkpt>
      <trkpt lat="44.4623" lon="1.11835">
        <ele>150</ele>
        <time>2009-02-01T09:36:50Z</time>
      </trkpt>
      <trkpt lat="44.46224" lon="1.11834">
        <ele>150</ele>
        <time>2009-02-01T09:36:53Z</time>
      </trkpt>
      <trkpt lat="44.46221" lon="1.11833">
        <ele>150</ele>
        <time>2009-02-01T09:36:56Z</time>
      </trkpt>
      <trkpt lat="44.46215" lon="1.11833">
        <ele>150</ele>
        <time>2009-02-01T09:37:00Z</time>
      </trkpt>
      <trkpt lat="44.46211" lon="1.11832">
        <ele>150</ele>
        <time>2009-02-01T09:37:03Z</time>
      </trkpt>
      <trkpt lat="44.46207" lon="1.11829">
        <ele>150</ele>
        <time>2009-02-01T09:37:07Z</time>
      </trkpt>
      <trkpt lat="44.46201" lon="1.11829">
        <ele>150</ele>
        <time>2009-02-01T09:37:10Z</time>
      </trkpt>
      <trkpt lat="44.46198" lon="1.11828">
        <ele>151</ele>
        <time>2009-02-01T09:37:13Z</time>
      </trkpt>
      <trkpt lat="44.46193" lon="1.11828">
        <ele>153</ele>
        <time>2009-02-01T09:37:16Z</time>
      </trkpt>
      <trkpt lat="44.4619" lon="1.11827">
        <ele>154</ele>
        <time>2009-02-01T09:37:19Z</time>
      </trkpt>
      <trkpt lat="44.46183" lon="1.11824">
        <ele>156</ele>
        <time>2009-02-01T09:37:22Z</time>
      </trkpt>
      <trkpt lat="44.46179" lon="1.11819">
        <ele>156</ele>
        <time>2009-02-01T09:37:25Z</time>
      </trkpt>
      <trkpt lat="44.46174" lon="1.11815">
        <ele>156</ele>
        <time>2009-02-01T09:37:28Z</time>
      </trkpt>
      <trkpt lat="44.4617" lon="1.11815">
        <ele>155</ele>
        <time>2009-02-01T09:37:31Z</time>
      </trkpt>
      <trkpt lat="44.46166" lon="1.11817">
        <ele>154</ele>
        <time>2009-02-01T09:37:34Z</time>
      </trkpt>
      <trkpt lat="44.46161" lon="1.11817">
        <ele>154</ele>
        <time>2009-02-01T09:37:37Z</time>
      </trkpt>
      <trkpt lat="44.46156" lon="1.11818">
        <ele>154</ele>
        <time>2009-02-01T09:37:41Z</time>
      </trkpt>
      <trkpt lat="44.46152" lon="1.11816">
        <ele>154</ele>
        <time>2009-02-01T09:37:45Z</time>
      </trkpt>
      <trkpt lat="44.46147" lon="1.11813">
        <ele>154</ele>
        <time>2009-02-01T09:37:49Z</time>
      </trkpt>
      <trkpt lat="44.46139" lon="1.11811">
        <ele>154</ele>
        <time>2009-02-01T09:37:52Z</time>
      </trkpt>
      <trkpt lat="44.46134" lon="1.11809">
        <ele>154</ele>
        <time>2009-02-01T09:37:55Z</time>
      </trkpt>
      <trkpt lat="44.46129" lon="1.11806">
        <ele>154</ele>
        <time>2009-02-01T09:37:58Z</time>
      </trkpt>
      <trkpt lat="44.46124" lon="1.11804">
        <ele>154</ele>
        <time>2009-02-01T09:38:02Z</time>
      </trkpt>
      <trkpt lat="44.46119" lon="1.11804">
        <ele>154</ele>
        <time>2009-02-01T09:38:05Z</time>
      </trkpt>
      <trkpt lat="44.46113" lon="1.11804">
        <ele>155</ele>
        <time>2009-02-01T09:38:09Z</time>
      </trkpt>
      <trkpt lat="44.46109" lon="1.11801">
        <ele>156</ele>
        <time>2009-02-01T09:38:12Z</time>
      </trkpt>
      <trkpt lat="44.46105" lon="1.11798">
        <ele>156</ele>
        <time>2009-02-01T09:38:15Z</time>
      </trkpt>
      <trkpt lat="44.46099" lon="1.11794">
        <ele>156</ele>
        <time>2009-02-01T09:38:18Z</time>
      </trkpt>
      <trkpt lat="44.46095" lon="1.11795">
        <ele>156</ele>
        <time>2009-02-01T09:38:22Z</time>
      </trkpt>
      <trkpt lat="44.4609" lon="1.11792">
        <ele>156</ele>
        <time>2009-02-01T09:38:25Z</time>
      </trkpt>
      <trkpt lat="44.46087" lon="1.1179">
        <ele>156</ele>
        <time>2009-02-01T09:38:28Z</time>
      </trkpt>
      <trkpt lat="44.46081" lon="1.11787">
        <ele>156</ele>
        <time>2009-02-01T09:38:31Z</time>
      </trkpt>
      <trkpt lat="44.46077" lon="1.11785">
        <ele>157</ele>
        <time>2009-02-01T09:38:34Z</time>
      </trkpt>
      <trkpt lat="44.46073" lon="1.11784">
        <ele>158</ele>
        <time>2009-02-01T09:38:37Z</time>
      </trkpt>
      <trkpt lat="44.46067" lon="1.11781">
        <ele>158</ele>
        <time>2009-02-01T09:38:42Z</time>
      </trkpt>
      <trkpt lat="44.46064" lon="1.11781">
        <ele>160</ele>
        <time>2009-02-01T09:38:45Z</time>
      </trkpt>
      <trkpt lat="44.46061" lon="1.11781">
        <ele>162</ele>
        <time>2009-02-01T09:38:48Z</time>
      </trkpt>
      <trkpt lat="44.46056" lon="1.11781">
        <ele>163</ele>
        <time>2009-02-01T09:38:51Z</time>
      </trkpt>
      <trkpt lat="44.4605" lon="1.11781">
        <ele>163</ele>
        <time>2009-02-01T09:38:54Z</time>
      </trkpt>
      <trkpt lat="44.46045" lon="1.11781">
        <ele>163</ele>
        <time>2009-02-01T09:38:57Z</time>
      </trkpt>
      <trkpt lat="44.46039" lon="1.1178">
        <ele>163</ele>
        <time>2009-02-01T09:39:00Z</time>
      </trkpt>
      <trkpt lat="44.46034" lon="1.11781">
        <ele>163</ele>
        <time>2009-02-01T09:39:03Z</time>
      </trkpt>
      <trkpt lat="44.46029" lon="1.11782">
        <ele>163</ele>
        <time>2009-02-01T09:39:06Z</time>
      </trkpt>
      <trkpt lat="44.46023" lon="1.11779">
        <ele>163</ele>
        <time>2009-02-01T09:39:09Z</time>
      </trkpt>
      <trkpt lat="44.46017" lon="1.11779">
        <ele>163</ele>
        <time>2009-02-01T09:39:12Z</time>
      </trkpt>
      <trkpt lat="44.46013" lon="1.11779">
        <ele>163</ele>
        <time>2009-02-01T09:39:15Z</time>
      </trkpt>
      <trkpt lat="44.46008" lon="1.11775">
        <ele>163</ele>
        <time>2009-02-01T09:39:19Z</time>
      </trkpt>
      <trkpt lat="44.46003" lon="1.11773">
        <ele>163</ele>
        <time>2009-02-01T09:39:22Z</time>
      </trkpt>
      <trkpt lat="44.45998" lon="1.1177">
        <ele>163</ele>
        <time>2009-02-01T09:39:25Z</time>
      </trkpt>
      <trkpt lat="44.45991" lon="1.11765">
        <ele>163</ele>
        <time>2009-02-01T09:39:28Z</time>
      </trkpt>
      <trkpt lat="44.45986" lon="1.11759">
        <ele>163</ele>
        <time>2009-02-01T09:39:31Z</time>
      </trkpt>
      <trkpt lat="44.45981" lon="1.11755">
        <ele>162</ele>
        <time>2009-02-01T09:39:35Z</time>
      </trkpt>
      <trkpt lat="44.45979" lon="1.1175">
        <ele>162</ele>
        <time>2009-02-01T09:39:39Z</time>
      </trkpt>
      <trkpt lat="44.45975" lon="1.11744">
        <ele>162</ele>
        <time>2009-02-01T09:39:43Z</time>
      </trkpt>
      <trkpt lat="44.45972" lon="1.11742">
        <ele>162</ele>
        <time>2009-02-01T09:39:46Z</time>
      </trkpt>
      <trkpt lat="44.45969" lon="1.11738">
        <ele>162</ele>
        <time>2009-02-01T09:39:50Z</time>
      </trkpt>
      <trkpt lat="44.45965" lon="1.11733">
        <ele>161</ele>
        <time>2009-02-01T09:39:54Z</time>
      </trkpt>
      <trkpt lat="44.4596" lon="1.11728">
        <ele>161</ele>
        <time>2009-02-01T09:39:57Z</time>
      </trkpt>
      <trkpt lat="44.45957" lon="1.11726">
        <ele>160</ele>
        <time>2009-02-01T09:40:00Z</time>
      </trkpt>
      <trkpt lat="44.45954" lon="1.11722">
        <ele>160</ele>
        <time>2009-02-01T09:40:03Z</time>
      </trkpt>
      <trkpt lat="44.4595" lon="1.11718">
        <ele>160</ele>
        <time>2009-02-01T09:40:06Z</time>
      </trkpt>
      <trkpt lat="44.45945" lon="1.11714">
        <ele>160</ele>
        <time>2009-02-01T09:40:09Z</time>
      </trkpt>
      <trkpt lat="44.45942" lon="1.1171">
        <ele>160</ele>
        <time>2009-02-01T09:40:12Z</time>
      </trkpt>
      <trkpt lat="44.45938" lon="1.11707">
        <ele>161</ele>
        <time>2009-02-01T09:40:16Z</time>
      </trkpt>
      <trkpt lat="44.45934" lon="1.11705">
        <ele>162</ele>
        <time>2009-02-01T09:40:19Z</time>
      </trkpt>
      <trkpt lat="44.4593" lon="1.11704">
        <ele>163</ele>
        <time>2009-02-01T09:40:22Z</time>
      </trkpt>
      <trkpt lat="44.45926" lon="1.11702">
        <ele>165</ele>
        <time>2009-02-01T09:40:25Z</time>
      </trkpt>
      <trkpt lat="44.45922" lon="1.117">
        <ele>167</ele>
        <time>2009-02-01T09:40:28Z</time>
      </trkpt>
      <trkpt lat="44.4592" lon="1.11698">
        <ele>169</ele>
        <time>2009-02-01T09:40:31Z</time>
      </trkpt>
      <trkpt lat="44.45916" lon="1.11695">
        <ele>170</ele>
        <time>2009-02-01T09:40:34Z</time>
      </trkpt>
      <trkpt lat="44.45913" lon="1.11694">
        <ele>170</ele>
        <time>2009-02-01T09:40:38Z</time>
      </trkpt>
      <trkpt lat="44.45911" lon="1.11692">
        <ele>170</ele>
        <time>2009-02-01T09:40:41Z</time>
      </trkpt>
      <trkpt lat="44.45909" lon="1.11689">
        <ele>170</ele>
        <time>2009-02-01T09:40:44Z</time>
      </trkpt>
      <trkpt lat="44.45905" lon="1.11687">
        <ele>171</ele>
        <time>2009-02-01T09:40:47Z</time>
      </trkpt>
      <trkpt lat="44.45901" lon="1.11686">
        <ele>171</ele>
        <time>2009-02-01T09:40:50Z</time>
      </trkpt>
      <trkpt lat="44.45898" lon="1.11685">
        <ele>173</ele>
        <time>2009-02-01T09:40:53Z</time>
      </trkpt>
      <trkpt lat="44.45893" lon="1.11683">
        <ele>173</ele>
        <time>2009-02-01T09:40:56Z</time>
      </trkpt>
      <trkpt lat="44.45889" lon="1.1168">
        <ele>173</ele>
        <time>2009-02-01T09:41:00Z</time>
      </trkpt>
      <trkpt lat="44.45886" lon="1.11678">
        <ele>173</ele>
        <time>2009-02-01T09:41:03Z</time>
      </trkpt>
      <trkpt lat="44.45883" lon="1.11675">
        <ele>173</ele>
        <time>2009-02-01T09:41:06Z</time>
      </trkpt>
      <trkpt lat="44.4588" lon="1.11673">
        <ele>173</ele>
        <time>2009-02-01T09:41:09Z</time>
      </trkpt>
      <trkpt lat="44.45877" lon="1.11671">
        <ele>173</ele>
        <time>2009-02-01T09:41:12Z</time>
      </trkpt>
      <trkpt lat="44.45873" lon="1.11669">
        <ele>173</ele>
        <time>2009-02-01T09:41:15Z</time>
      </trkpt>
      <trkpt lat="44.45869" lon="1.11667">
        <ele>173</ele>
        <time>2009-02-01T09:41:18Z</time>
      </trkpt>
      <trkpt lat="44.45865" lon="1.11665">
        <ele>173</ele>
        <time>2009-02-01T09:41:21Z</time>
      </trkpt>
      <trkpt lat="44.45859" lon="1.1166">
        <ele>173</ele>
        <time>2009-02-01T09:41:25Z</time>
      </trkpt>
      <trkpt lat="44.45856" lon="1.11658">
        <ele>173</ele>
        <time>2009-02-01T09:41:28Z</time>
      </trkpt>
      <trkpt lat="44.4585" lon="1.11656">
        <ele>173</ele>
        <time>2009-02-01T09:41:32Z</time>
      </trkpt>
      <trkpt lat="44.45843" lon="1.11655">
        <ele>173</ele>
        <time>2009-02-01T09:41:35Z</time>
      </trkpt>
      <trkpt lat="44.45837" lon="1.11651">
        <ele>173</ele>
        <time>2009-02-01T09:41:39Z</time>
      </trkpt>
      <trkpt lat="44.45833" lon="1.11648">
        <ele>173</ele>
        <time>2009-02-01T09:41:42Z</time>
      </trkpt>
      <trkpt lat="44.45828" lon="1.11646">
        <ele>173</ele>
        <time>2009-02-01T09:41:45Z</time>
      </trkpt>
      <trkpt lat="44.45824" lon="1.11644">
        <ele>173</ele>
        <time>2009-02-01T09:41:48Z</time>
      </trkpt>
      <trkpt lat="44.4582" lon="1.11639">
        <ele>173</ele>
        <time>2009-02-01T09:41:51Z</time>
      </trkpt>
      <trkpt lat="44.45815" lon="1.11635">
        <ele>174</ele>
        <time>2009-02-01T09:41:55Z</time>
      </trkpt>
      <trkpt lat="44.4581" lon="1.11633">
        <ele>176</ele>
        <time>2009-02-01T09:41:58Z</time>
      </trkpt>
      <trkpt lat="44.45807" lon="1.11629">
        <ele>178</ele>
        <time>2009-02-01T09:42:01Z</time>
      </trkpt>
      <trkpt lat="44.45805" lon="1.11626">
        <ele>179</ele>
        <time>2009-02-01T09:42:04Z</time>
      </trkpt>
      <trkpt lat="44.45801" lon="1.11622">
        <ele>179</ele>
        <time>2009-02-01T09:42:07Z</time>
      </trkpt>
      <trkpt lat="44.458" lon="1.11618">
        <ele>179</ele>
        <time>2009-02-01T09:42:10Z</time>
      </trkpt>
      <trkpt lat="44.45796" lon="1.11612">
        <ele>179</ele>
        <time>2009-02-01T09:42:14Z</time>
      </trkpt>
      <trkpt lat="44.45794" lon="1.11607">
        <ele>179</ele>
        <time>2009-02-01T09:42:17Z</time>
      </trkpt>
      <trkpt lat="44.45793" lon="1.11604">
        <ele>179</ele>
        <time>2009-02-01T09:42:20Z</time>
      </trkpt>
      <trkpt lat="44.45791" lon="1.11599">
        <ele>179</ele>
        <time>2009-02-01T09:42:23Z</time>
      </trkpt>
      <trkpt lat="44.45791" lon="1.11593">
        <ele>180</ele>
        <time>2009-02-01T09:42:27Z</time>
      </trkpt>
      <trkpt lat="44.45789" lon="1.11588">
        <ele>181</ele>
        <time>2009-02-01T09:42:30Z</time>
      </trkpt>
      <trkpt lat="44.45788" lon="1.11583">
        <ele>182</ele>
        <time>2009-02-01T09:42:33Z</time>
      </trkpt>
      <trkpt lat="44.45787" lon="1.11579">
        <ele>182</ele>
        <time>2009-02-01T09:42:36Z</time>
      </trkpt>
      <trkpt lat="44.45784" lon="1.11577">
        <ele>182</ele>
        <time>2009-02-01T09:42:41Z</time>
      </trkpt>
      <trkpt lat="44.45782" lon="1.11581">
        <ele>182</ele>
        <time>2009-02-01T09:42:45Z</time>
      </trkpt>
      <trkpt lat="44.45779" lon="1.11587">
        <ele>182</ele>
        <time>2009-02-01T09:42:49Z</time>
      </trkpt>
      <trkpt lat="44.45777" lon="1.11591">
        <ele>182</ele>
        <time>2009-02-01T09:42:53Z</time>
      </trkpt>
      <trkpt lat="44.45774" lon="1.11595">
        <ele>182</ele>
        <time>2009-02-01T09:42:57Z</time>
      </trkpt>
      <trkpt lat="44.45769" lon="1.11599">
        <ele>182</ele>
        <time>2009-02-01T09:43:00Z</time>
      </trkpt>
      <trkpt lat="44.45765" lon="1.11602">
        <ele>182</ele>
        <time>2009-02-01T09:43:03Z</time>
      </trkpt>
      <trkpt lat="44.45761" lon="1.11606">
        <ele>182</ele>
        <time>2009-02-01T09:43:06Z</time>
      </trkpt>
      <trkpt lat="44.45757" lon="1.11608">
        <ele>182</ele>
        <time>2009-02-01T09:43:09Z</time>
      </trkpt>
      <trkpt lat="44.45753" lon="1.1161">
        <ele>183</ele>
        <time>2009-02-01T09:43:12Z</time>
      </trkpt>
      <trkpt lat="44.45748" lon="1.11611">
        <ele>184</ele>
        <time>2009-02-01T09:43:15Z</time>
      </trkpt>
      <trkpt lat="44.45743" lon="1.11612">
        <ele>185</ele>
        <time>2009-02-01T09:43:18Z</time>
      </trkpt>
      <trkpt lat="44.45739" lon="1.11613">
        <ele>185</ele>
        <time>2009-02-01T09:43:21Z</time>
      </trkpt>
      <trkpt lat="44.45734" lon="1.11615">
        <ele>187</ele>
        <time>2009-02-01T09:43:24Z</time>
      </trkpt>
      <trkpt lat="44.45729" lon="1.11617">
        <ele>188</ele>
        <time>2009-02-01T09:43:27Z</time>
      </trkpt>
      <trkpt lat="44.45724" lon="1.11619">
        <ele>190</ele>
        <time>2009-02-01T09:43:31Z</time>
      </trkpt>
      <trkpt lat="44.4572" lon="1.11622">
        <ele>192</ele>
        <time>2009-02-01T09:43:34Z</time>
      </trkpt>
      <trkpt lat="44.45716" lon="1.11622">
        <ele>194</ele>
        <time>2009-02-01T09:43:37Z</time>
      </trkpt>
      <trkpt lat="44.45712" lon="1.11623">
        <ele>194</ele>
        <time>2009-02-01T09:43:40Z</time>
      </trkpt>
      <trkpt lat="44.45703" lon="1.11624">
        <ele>194</ele>
        <time>2009-02-01T09:43:43Z</time>
      </trkpt>
      <trkpt lat="44.45696" lon="1.11625">
        <ele>193</ele>
        <time>2009-02-01T09:43:47Z</time>
      </trkpt>
      <trkpt lat="44.4569" lon="1.11625">
        <ele>192</ele>
        <time>2009-02-01T09:43:50Z</time>
      </trkpt>
      <trkpt lat="44.45685" lon="1.11627">
        <ele>190</ele>
        <time>2009-02-01T09:43:53Z</time>
      </trkpt>
      <trkpt lat="44.4568" lon="1.11629">
        <ele>190</ele>
        <time>2009-02-01T09:43:57Z</time>
      </trkpt>
      <trkpt lat="44.45678" lon="1.11633">
        <ele>190</ele>
        <time>2009-02-01T09:44:01Z</time>
      </trkpt>
      <trkpt lat="44.45673" lon="1.11636">
        <ele>190</ele>
        <time>2009-02-01T09:44:05Z</time>
      </trkpt>
      <trkpt lat="44.4567" lon="1.11638">
        <ele>190</ele>
        <time>2009-02-01T09:44:08Z</time>
      </trkpt>
      <trkpt lat="44.45667" lon="1.11641">
        <ele>190</ele>
        <time>2009-02-01T09:44:11Z</time>
      </trkpt>
      <trkpt lat="44.45664" lon="1.11642">
        <ele>190</ele>
        <time>2009-02-01T09:44:14Z</time>
      </trkpt>
      <trkpt lat="44.4566" lon="1.11644">
        <ele>190</ele>
        <time>2009-02-01T09:44:17Z</time>
      </trkpt>
      <trkpt lat="44.45654" lon="1.11645">
        <ele>190</ele>
        <time>2009-02-01T09:44:20Z</time>
      </trkpt>
      <trkpt lat="44.45651" lon="1.11646">
        <ele>190</ele>
        <time>2009-02-01T09:44:23Z</time>
      </trkpt>
      <trkpt lat="44.45646" lon="1.11648">
        <ele>190</ele>
        <time>2009-02-01T09:44:26Z</time>
      </trkpt>
      <trkpt lat="44.45643" lon="1.1165">
        <ele>190</ele>
        <time>2009-02-01T09:44:29Z</time>
      </trkpt>
      <trkpt lat="44.4564" lon="1.11652">
        <ele>190</ele>
        <time>2009-02-01T09:44:32Z</time>
      </trkpt>
      <trkpt lat="44.45637" lon="1.11655">
        <ele>190</ele>
        <time>2009-02-01T09:44:35Z</time>
      </trkpt>
      <trkpt lat="44.45634" lon="1.11657">
        <ele>190</ele>
        <time>2009-02-01T09:44:38Z</time>
      </trkpt>
      <trkpt lat="44.45628" lon="1.11657">
        <ele>190</ele>
        <time>2009-02-01T09:44:42Z</time>
      </trkpt>
      <trkpt lat="44.45621" lon="1.11658">
        <ele>190</ele>
        <time>2009-02-01T09:44:45Z</time>
      </trkpt>
      <trkpt lat="44.45617" lon="1.11659">
        <ele>190</ele>
        <time>2009-02-01T09:44:48Z</time>
      </trkpt>
      <trkpt lat="44.45612" lon="1.11661">
        <ele>190</ele>
        <time>2009-02-01T09:44:51Z</time>
      </trkpt>
      <trkpt lat="44.45609" lon="1.11664">
        <ele>190</ele>
        <time>2009-02-01T09:44:54Z</time>
      </trkpt>
      <trkpt lat="44.45604" lon="1.11666">
        <ele>190</ele>
        <time>2009-02-01T09:44:57Z</time>
      </trkpt>
      <trkpt lat="44.456" lon="1.11667">
        <ele>190</ele>
        <time>2009-02-01T09:45:00Z</time>
      </trkpt>
      <trkpt lat="44.45595" lon="1.11668">
        <ele>190</ele>
        <time>2009-02-01T09:45:03Z</time>
      </trkpt>
      <trkpt lat="44.4559" lon="1.11669">
        <ele>191</ele>
        <time>2009-02-01T09:45:06Z</time>
      </trkpt>
      <trkpt lat="44.45585" lon="1.1167">
        <ele>191</ele>
        <time>2009-02-01T09:45:09Z</time>
      </trkpt>
      <trkpt lat="44.45578" lon="1.11671">
        <ele>191</ele>
        <time>2009-02-01T09:45:12Z</time>
      </trkpt>
      <trkpt lat="44.45572" lon="1.11671">
        <ele>191</ele>
        <time>2009-02-01T09:45:15Z</time>
      </trkpt>
      <trkpt lat="44.45569" lon="1.11672">
        <ele>191</ele>
        <time>2009-02-01T09:45:18Z</time>
      </trkpt>
      <trkpt lat="44.45563" lon="1.11672">
        <ele>191</ele>
        <time>2009-02-01T09:45:21Z</time>
      </trkpt>
      <trkpt lat="44.45553" lon="1.11674">
        <ele>191</ele>
        <time>2009-02-01T09:45:24Z</time>
      </trkpt>
      <trkpt lat="44.45542" lon="1.11682">
        <ele>191</ele>
        <time>2009-02-01T09:45:27Z</time>
      </trkpt>
      <trkpt lat="44.45533" lon="1.11688">
        <ele>191</ele>
        <time>2009-02-01T09:45:31Z</time>
      </trkpt>
      <trkpt lat="44.45528" lon="1.11691">
        <ele>191</ele>
        <time>2009-02-01T09:45:34Z</time>
      </trkpt>
      <trkpt lat="44.45524" lon="1.11695">
        <ele>191</ele>
        <time>2009-02-01T09:45:38Z</time>
      </trkpt>
      <trkpt lat="44.45521" lon="1.11698">
        <ele>191</ele>
        <time>2009-02-01T09:45:41Z</time>
      </trkpt>
      <trkpt lat="44.45517" lon="1.11702">
        <ele>189</ele>
        <time>2009-02-01T09:45:44Z</time>
      </trkpt>
      <trkpt lat="44.45514" lon="1.11707">
        <ele>189</ele>
        <time>2009-02-01T09:45:47Z</time>
      </trkpt>
      <trkpt lat="44.45508" lon="1.11713">
        <ele>189</ele>
        <time>2009-02-01T09:45:50Z</time>
      </trkpt>
      <trkpt lat="44.45503" lon="1.11716">
        <ele>189</ele>
        <time>2009-02-01T09:45:53Z</time>
      </trkpt>
      <trkpt lat="44.45498" lon="1.1172">
        <ele>189</ele>
        <time>2009-02-01T09:45:56Z</time>
      </trkpt>
      <trkpt lat="44.45493" lon="1.11726">
        <ele>187</ele>
        <time>2009-02-01T09:46:00Z</time>
      </trkpt>
      <trkpt lat="44.45489" lon="1.11729">
        <ele>187</ele>
        <time>2009-02-01T09:46:03Z</time>
      </trkpt>
      <trkpt lat="44.45485" lon="1.11732">
        <ele>187</ele>
        <time>2009-02-01T09:46:06Z</time>
      </trkpt>
      <trkpt lat="44.45479" lon="1.11736">
        <ele>187</ele>
        <time>2009-02-01T09:46:09Z</time>
      </trkpt>
      <trkpt lat="44.45475" lon="1.1174">
        <ele>187</ele>
        <time>2009-02-01T09:46:12Z</time>
      </trkpt>
      <trkpt lat="44.45471" lon="1.11743">
        <ele>187</ele>
        <time>2009-02-01T09:46:15Z</time>
      </trkpt>
      <trkpt lat="44.45468" lon="1.11745">
        <ele>187</ele>
        <time>2009-02-01T09:46:18Z</time>
      </trkpt>
      <trkpt lat="44.45464" lon="1.11748">
        <ele>187</ele>
        <time>2009-02-01T09:46:21Z</time>
      </trkpt>
      <trkpt lat="44.4546" lon="1.1175">
        <ele>187</ele>
        <time>2009-02-01T09:46:24Z</time>
      </trkpt>
      <trkpt lat="44.45457" lon="1.1175">
        <ele>187</ele>
        <time>2009-02-01T09:46:27Z</time>
      </trkpt>
      <trkpt lat="44.45453" lon="1.1175">
        <ele>187</ele>
        <time>2009-02-01T09:46:30Z</time>
      </trkpt>
      <trkpt lat="44.45448" lon="1.1175">
        <ele>188</ele>
        <time>2009-02-01T09:46:33Z</time>
      </trkpt>
      <trkpt lat="44.45444" lon="1.11747">
        <ele>189</ele>
        <time>2009-02-01T09:46:36Z</time>
      </trkpt>
      <trkpt lat="44.4544" lon="1.11747">
        <ele>191</ele>
        <time>2009-02-01T09:46:39Z</time>
      </trkpt>
      <trkpt lat="44.45436" lon="1.11744">
        <ele>192</ele>
        <time>2009-02-01T09:46:42Z</time>
      </trkpt>
      <trkpt lat="44.45433" lon="1.11743">
        <ele>193</ele>
        <time>2009-02-01T09:46:46Z</time>
      </trkpt>
      <trkpt lat="44.45428" lon="1.11742">
        <ele>195</ele>
        <time>2009-02-01T09:46:51Z</time>
      </trkpt>
      <trkpt lat="44.45423" lon="1.11741">
        <ele>195</ele>
        <time>2009-02-01T09:46:54Z</time>
      </trkpt>
      <trkpt lat="44.45419" lon="1.1174">
        <ele>195</ele>
        <time>2009-02-01T09:46:57Z</time>
      </trkpt>
      <trkpt lat="44.45414" lon="1.11739">
        <ele>195</ele>
        <time>2009-02-01T09:47:00Z</time>
      </trkpt>
      <trkpt lat="44.4541" lon="1.11738">
        <ele>196</ele>
        <time>2009-02-01T09:47:04Z</time>
      </trkpt>
      <trkpt lat="44.45407" lon="1.11737">
        <ele>197</ele>
        <time>2009-02-01T09:47:07Z</time>
      </trkpt>
      <trkpt lat="44.45401" lon="1.11736">
        <ele>199</ele>
        <time>2009-02-01T09:47:12Z</time>
      </trkpt>
      <trkpt lat="44.45398" lon="1.11737">
        <ele>201</ele>
        <time>2009-02-01T09:47:15Z</time>
      </trkpt>
      <trkpt lat="44.45393" lon="1.11737">
        <ele>202</ele>
        <time>2009-02-01T09:47:18Z</time>
      </trkpt>
      <trkpt lat="44.45388" lon="1.11737">
        <ele>203</ele>
        <time>2009-02-01T09:47:21Z</time>
      </trkpt>
      <trkpt lat="44.45382" lon="1.11737">
        <ele>204</ele>
        <time>2009-02-01T09:47:24Z</time>
      </trkpt>
      <trkpt lat="44.45377" lon="1.11736">
        <ele>204</ele>
        <time>2009-02-01T09:47:28Z</time>
      </trkpt>
      <trkpt lat="44.45373" lon="1.11736">
        <ele>204</ele>
        <time>2009-02-01T09:47:31Z</time>
      </trkpt>
      <trkpt lat="44.45369" lon="1.11734">
        <ele>204</ele>
        <time>2009-02-01T09:47:34Z</time>
      </trkpt>
      <trkpt lat="44.45364" lon="1.11735">
        <ele>204</ele>
        <time>2009-02-01T09:47:40Z</time>
      </trkpt>
      <trkpt lat="44.45361" lon="1.11737">
        <ele>204</ele>
        <time>2009-02-01T09:47:43Z</time>
      </trkpt>
      <trkpt lat="44.45357" lon="1.11737">
        <ele>204</ele>
        <time>2009-02-01T09:47:46Z</time>
      </trkpt>
      <trkpt lat="44.45353" lon="1.1174">
        <ele>204</ele>
        <time>2009-02-01T09:47:49Z</time>
      </trkpt>
      <trkpt lat="44.45352" lon="1.11746">
        <ele>204</ele>
        <time>2009-02-01T09:47:52Z</time>
      </trkpt>
      <trkpt lat="44.45351" lon="1.11752">
        <ele>204</ele>
        <time>2009-02-01T09:47:55Z</time>
      </trkpt>
      <trkpt lat="44.45348" lon="1.11758">
        <ele>204</ele>
        <time>2009-02-01T09:47:58Z</time>
      </trkpt>
      <trkpt lat="44.45347" lon="1.11765">
        <ele>204</ele>
        <time>2009-02-01T09:48:01Z</time>
      </trkpt>
      <trkpt lat="44.45347" lon="1.11771">
        <ele>204</ele>
        <time>2009-02-01T09:48:04Z</time>
      </trkpt>
      <trkpt lat="44.45345" lon="1.11777">
        <ele>204</ele>
        <time>2009-02-01T09:48:07Z</time>
      </trkpt>
      <trkpt lat="44.45344" lon="1.11782">
        <ele>204</ele>
        <time>2009-02-01T09:48:10Z</time>
      </trkpt>
      <trkpt lat="44.45343" lon="1.11786">
        <ele>204</ele>
        <time>2009-02-01T09:48:13Z</time>
      </trkpt>
      <trkpt lat="44.45343" lon="1.11792">
        <ele>204</ele>
        <time>2009-02-01T09:48:17Z</time>
      </trkpt>
      <trkpt lat="44.45341" lon="1.11797">
        <ele>204</ele>
        <time>2009-02-01T09:48:20Z</time>
      </trkpt>
      <trkpt lat="44.45338" lon="1.11801">
        <ele>204</ele>
        <time>2009-02-01T09:48:23Z</time>
      </trkpt>
      <trkpt lat="44.45334" lon="1.11805">
        <ele>204</ele>
        <time>2009-02-01T09:48:26Z</time>
      </trkpt>
      <trkpt lat="44.45332" lon="1.1181">
        <ele>204</ele>
        <time>2009-02-01T09:48:29Z</time>
      </trkpt>
      <trkpt lat="44.45327" lon="1.11816">
        <ele>205</ele>
        <time>2009-02-01T09:48:35Z</time>
      </trkpt>
      <trkpt lat="44.45325" lon="1.1182">
        <ele>206</ele>
        <time>2009-02-01T09:48:38Z</time>
      </trkpt>
      <trkpt lat="44.45321" lon="1.11825">
        <ele>207</ele>
        <time>2009-02-01T09:48:41Z</time>
      </trkpt>
      <trkpt lat="44.45318" lon="1.11828">
        <ele>208</ele>
        <time>2009-02-01T09:48:44Z</time>
      </trkpt>
      <trkpt lat="44.45315" lon="1.11832">
        <ele>209</ele>
        <time>2009-02-01T09:48:47Z</time>
      </trkpt>
      <trkpt lat="44.45311" lon="1.11835">
        <ele>209</ele>
        <time>2009-02-01T09:48:50Z</time>
      </trkpt>
      <trkpt lat="44.45307" lon="1.1184">
        <ele>210</ele>
        <time>2009-02-01T09:48:53Z</time>
      </trkpt>
      <trkpt lat="44.45302" lon="1.11844">
        <ele>212</ele>
        <time>2009-02-01T09:48:57Z</time>
      </trkpt>
      <trkpt lat="44.45299" lon="1.11847">
        <ele>212</ele>
        <time>2009-02-01T09:49:00Z</time>
      </trkpt>
      <trkpt lat="44.45295" lon="1.1185">
        <ele>213</ele>
        <time>2009-02-01T09:49:03Z</time>
      </trkpt>
      <trkpt lat="44.45292" lon="1.11853">
        <ele>213</ele>
        <time>2009-02-01T09:49:06Z</time>
      </trkpt>
      <trkpt lat="44.45288" lon="1.11856">
        <ele>214</ele>
        <time>2009-02-01T09:49:11Z</time>
      </trkpt>
      <trkpt lat="44.45285" lon="1.1186">
        <ele>215</ele>
        <time>2009-02-01T09:49:14Z</time>
      </trkpt>
      <trkpt lat="44.45283" lon="1.11866">
        <ele>216</ele>
        <time>2009-02-01T09:49:17Z</time>
      </trkpt>
      <trkpt lat="44.45285" lon="1.11871">
        <ele>216</ele>
        <time>2009-02-01T09:49:20Z</time>
      </trkpt>
      <trkpt lat="44.4529" lon="1.11879">
        <ele>216</ele>
        <time>2009-02-01T09:49:23Z</time>
      </trkpt>
      <trkpt lat="44.45298" lon="1.11887">
        <ele>216</ele>
        <time>2009-02-01T09:49:26Z</time>
      </trkpt>
      <trkpt lat="44.4531" lon="1.119">
        <ele>216</ele>
        <time>2009-02-01T09:49:29Z</time>
      </trkpt>
      <trkpt lat="44.4532" lon="1.11912">
        <ele>216</ele>
        <time>2009-02-01T09:49:32Z</time>
      </trkpt>
      <trkpt lat="44.45333" lon="1.11925">
        <ele>216</ele>
        <time>2009-02-01T09:49:36Z</time>
      </trkpt>
      <trkpt lat="44.45346" lon="1.1194">
        <ele>216</ele>
        <time>2009-02-01T09:49:39Z</time>
      </trkpt>
      <trkpt lat="44.4536" lon="1.11956">
        <ele>215</ele>
        <time>2009-02-01T09:49:42Z</time>
      </trkpt>
      <trkpt lat="44.45374" lon="1.11972">
        <ele>214</ele>
        <time>2009-02-01T09:49:45Z</time>
      </trkpt>
      <trkpt lat="44.45387" lon="1.11973">
        <ele>214</ele>
        <time>2009-02-01T09:49:48Z</time>
      </trkpt>
      <trkpt lat="44.45397" lon="1.11975">
        <ele>214</ele>
        <time>2009-02-01T09:49:51Z</time>
      </trkpt>
      <trkpt lat="44.45402" lon="1.11975">
        <ele>214</ele>
        <time>2009-02-01T09:49:54Z</time>
      </trkpt>
      <trkpt lat="44.45407" lon="1.11974">
        <ele>214</ele>
        <time>2009-02-01T09:49:57Z</time>
      </trkpt>
      <trkpt lat="44.45412" lon="1.11974">
        <ele>216</ele>
        <time>2009-02-01T09:50:00Z</time>
      </trkpt>
      <trkpt lat="44.45417" lon="1.11974">
        <ele>216</ele>
        <time>2009-02-01T09:50:03Z</time>
      </trkpt>
      <trkpt lat="44.45423" lon="1.11975">
        <ele>217</ele>
        <time>2009-02-01T09:50:06Z</time>
      </trkpt>
      <trkpt lat="44.45429" lon="1.11977">
        <ele>218</ele>
        <time>2009-02-01T09:50:09Z</time>
      </trkpt>
      <trkpt lat="44.45435" lon="1.11977">
        <ele>218</ele>
        <time>2009-02-01T09:50:12Z</time>
      </trkpt>
      <trkpt lat="44.45441" lon="1.11976">
        <ele>218</ele>
        <time>2009-02-01T09:50:15Z</time>
      </trkpt>
      <trkpt lat="44.45447" lon="1.11976">
        <ele>218</ele>
        <time>2009-02-01T09:50:18Z</time>
      </trkpt>
      <trkpt lat="44.45452" lon="1.11975">
        <ele>218</ele>
        <time>2009-02-01T09:50:21Z</time>
      </trkpt>
      <trkpt lat="44.45458" lon="1.11974">
        <ele>218</ele>
        <time>2009-02-01T09:50:25Z</time>
      </trkpt>
      <trkpt lat="44.45468" lon="1.11975">
        <ele>218</ele>
        <time>2009-02-01T09:50:28Z</time>
      </trkpt>
      <trkpt lat="44.45475" lon="1.11978">
        <ele>220</ele>
        <time>2009-02-01T09:50:31Z</time>
      </trkpt>
      <trkpt lat="44.45479" lon="1.11982">
        <ele>222</ele>
        <time>2009-02-01T09:50:34Z</time>
      </trkpt>
      <trkpt lat="44.45484" lon="1.11987">
        <ele>223</ele>
        <time>2009-02-01T09:50:37Z</time>
      </trkpt>
      <trkpt lat="44.45489" lon="1.11993">
        <ele>224</ele>
        <time>2009-02-01T09:50:40Z</time>
      </trkpt>
      <trkpt lat="44.45492" lon="1.11998">
        <ele>225</ele>
        <time>2009-02-01T09:50:43Z</time>
      </trkpt>
      <trkpt lat="44.45494" lon="1.12004">
        <ele>226</ele>
        <time>2009-02-01T09:50:46Z</time>
      </trkpt>
      <trkpt lat="44.45496" lon="1.1201">
        <ele>227</ele>
        <time>2009-02-01T09:50:49Z</time>
      </trkpt>
      <trkpt lat="44.45501" lon="1.12015">
        <ele>228</ele>
        <time>2009-02-01T09:50:52Z</time>
      </trkpt>
      <trkpt lat="44.45507" lon="1.12021">
        <ele>228</ele>
        <time>2009-02-01T09:50:55Z</time>
      </trkpt>
      <trkpt lat="44.45512" lon="1.12025">
        <ele>228</ele>
        <time>2009-02-01T09:50:58Z</time>
      </trkpt>
      <trkpt lat="44.45518" lon="1.1203">
        <ele>228</ele>
        <time>2009-02-01T09:51:01Z</time>
      </trkpt>
      <trkpt lat="44.45523" lon="1.12033">
        <ele>228</ele>
        <time>2009-02-01T09:51:04Z</time>
      </trkpt>
      <trkpt lat="44.45529" lon="1.12036">
        <ele>228</ele>
        <time>2009-02-01T09:51:08Z</time>
      </trkpt>
      <trkpt lat="44.45534" lon="1.12039">
        <ele>228</ele>
        <time>2009-02-01T09:51:11Z</time>
      </trkpt>
      <trkpt lat="44.45538" lon="1.12042">
        <ele>228</ele>
        <time>2009-02-01T09:51:14Z</time>
      </trkpt>
      <trkpt lat="44.45543" lon="1.12046">
        <ele>228</ele>
        <time>2009-02-01T09:51:17Z</time>
      </trkpt>
      <trkpt lat="44.45546" lon="1.12049">
        <ele>228</ele>
        <time>2009-02-01T09:51:21Z</time>
      </trkpt>
      <trkpt lat="44.45547" lon="1.1205">
        <ele>228</ele>
        <time>2009-02-01T09:51:26Z</time>
      </trkpt>
      <trkpt lat="44.45548" lon="1.1205">
        <ele>228</ele>
        <time>2009-02-01T09:51:30Z</time>
      </trkpt>
      <trkpt lat="44.45549" lon="1.1205">
        <ele>228</ele>
        <time>2009-02-01T09:51:41Z</time>
      </trkpt>
      <trkpt lat="44.45549" lon="1.12052">
        <ele>228</ele>
        <time>2009-02-01T09:52:09Z</time>
      </trkpt>
      <trkpt lat="44.4555" lon="1.12053">
        <ele>228</ele>
        <time>2009-02-01T09:52:50Z</time>
      </trkpt>
      <trkpt lat="44.45551" lon="1.12054">
        <ele>228</ele>
        <time>2009-02-01T09:53:29Z</time>
      </trkpt>
      <trkpt lat="44.4555" lon="1.12054">
        <ele>228</ele>
        <time>2009-02-01T09:54:21Z</time>
      </trkpt>
      <trkpt lat="44.45549" lon="1.12055">
        <ele>228</ele>
        <time>2009-02-01T09:54:43Z</time>
      </trkpt>
      <trkpt lat="44.45551" lon="1.12056">
        <ele>229</ele>
        <time>2009-02-01T09:55:05Z</time>
      </trkpt>
      <trkpt lat="44.45554" lon="1.12054">
        <ele>229</ele>
        <time>2009-02-01T09:55:08Z</time>
      </trkpt>
      <trkpt lat="44.4556" lon="1.12053">
        <ele>229</ele>
        <time>2009-02-01T09:55:11Z</time>
      </trkpt>
      <trkpt lat="44.45567" lon="1.12053">
        <ele>229</ele>
        <time>2009-02-01T09:55:14Z</time>
      </trkpt>
      <trkpt lat="44.45576" lon="1.1205">
        <ele>229</ele>
        <time>2009-02-01T09:55:17Z</time>
      </trkpt>
      <trkpt lat="44.45584" lon="1.12046">
        <ele>229</ele>
        <time>2009-02-01T09:55:20Z</time>
      </trkpt>
      <trkpt lat="44.4559" lon="1.12042">
        <ele>229</ele>
        <time>2009-02-01T09:55:23Z</time>
      </trkpt>
      <trkpt lat="44.45597" lon="1.12037">
        <ele>229</ele>
        <time>2009-02-01T09:55:26Z</time>
      </trkpt>
      <trkpt lat="44.45603" lon="1.12033">
        <ele>229</ele>
        <time>2009-02-01T09:55:29Z</time>
      </trkpt>
      <trkpt lat="44.45611" lon="1.12026">
        <ele>229</ele>
        <time>2009-02-01T09:55:32Z</time>
      </trkpt>
      <trkpt lat="44.4562" lon="1.12019">
        <ele>229</ele>
        <time>2009-02-01T09:55:35Z</time>
      </trkpt>
      <trkpt lat="44.45627" lon="1.12016">
        <ele>229</ele>
        <time>2009-02-01T09:55:38Z</time>
      </trkpt>
      <trkpt lat="44.45633" lon="1.12009">
        <ele>229</ele>
        <time>2009-02-01T09:55:41Z</time>
      </trkpt>
      <trkpt lat="44.4564" lon="1.12003">
        <ele>229</ele>
        <time>2009-02-01T09:55:44Z</time>
      </trkpt>
      <trkpt lat="44.45647" lon="1.11995">
        <ele>229</ele>
        <time>2009-02-01T09:55:47Z</time>
      </trkpt>
      <trkpt lat="44.45655" lon="1.11987">
        <ele>229</ele>
        <time>2009-02-01T09:55:50Z</time>
      </trkpt>
      <trkpt lat="44.45665" lon="1.11982">
        <ele>229</ele>
        <time>2009-02-01T09:55:53Z</time>
      </trkpt>
      <trkpt lat="44.45676" lon="1.11979">
        <ele>229</ele>
        <time>2009-02-01T09:55:56Z</time>
      </trkpt>
      <trkpt lat="44.45688" lon="1.11976">
        <ele>231</ele>
        <time>2009-02-01T09:55:59Z</time>
      </trkpt>
      <trkpt lat="44.45698" lon="1.11977">
        <ele>232</ele>
        <time>2009-02-01T09:56:02Z</time>
      </trkpt>
      <trkpt lat="44.45706" lon="1.11984">
        <ele>232</ele>
        <time>2009-02-01T09:56:05Z</time>
      </trkpt>
      <trkpt lat="44.45712" lon="1.11992">
        <ele>233</ele>
        <time>2009-02-01T09:56:08Z</time>
      </trkpt>
      <trkpt lat="44.45718" lon="1.12001">
        <ele>233</ele>
        <time>2009-02-01T09:56:11Z</time>
      </trkpt>
      <trkpt lat="44.45726" lon="1.12011">
        <ele>233</ele>
        <time>2009-02-01T09:56:14Z</time>
      </trkpt>
      <trkpt lat="44.45733" lon="1.12022">
        <ele>233</ele>
        <time>2009-02-01T09:56:17Z</time>
      </trkpt>
      <trkpt lat="44.4574" lon="1.12033">
        <ele>233</ele>
        <time>2009-02-01T09:56:20Z</time>
      </trkpt>
      <trkpt lat="44.45748" lon="1.12041">
        <ele>233</ele>
        <time>2009-02-01T09:56:23Z</time>
      </trkpt>
      <trkpt lat="44.45756" lon="1.1205">
        <ele>233</ele>
        <time>2009-02-01T09:56:26Z</time>
      </trkpt>
      <trkpt lat="44.45762" lon="1.12059">
        <ele>233</ele>
        <time>2009-02-01T09:56:29Z</time>
      </trkpt>
      <trkpt lat="44.4577" lon="1.12068">
        <ele>233</ele>
        <time>2009-02-01T09:56:32Z</time>
      </trkpt>
      <trkpt lat="44.45779" lon="1.12079">
        <ele>233</ele>
        <time>2009-02-01T09:56:35Z</time>
      </trkpt>
      <trkpt lat="44.45787" lon="1.1209">
        <ele>233</ele>
        <time>2009-02-01T09:56:38Z</time>
      </trkpt>
      <trkpt lat="44.45796" lon="1.12101">
        <ele>233</ele>
        <time>2009-02-01T09:56:41Z</time>
      </trkpt>
      <trkpt lat="44.45806" lon="1.12112">
        <ele>233</ele>
        <time>2009-02-01T09:56:44Z</time>
      </trkpt>
      <trkpt lat="44.45816" lon="1.12121">
        <ele>233</ele>
        <time>2009-02-01T09:56:47Z</time>
      </trkpt>
      <trkpt lat="44.45825" lon="1.12129">
        <ele>233</ele>
        <time>2009-02-01T09:56:50Z</time>
      </trkpt>
      <trkpt lat="44.45834" lon="1.12136">
        <ele>233</ele>
        <time>2009-02-01T09:56:53Z</time>
      </trkpt>
      <trkpt lat="44.45841" lon="1.12144">
        <ele>233</ele>
        <time>2009-02-01T09:56:56Z</time>
      </trkpt>
      <trkpt lat="44.45848" lon="1.12151">
        <ele>233</ele>
        <time>2009-02-01T09:56:59Z</time>
      </trkpt>
      <trkpt lat="44.45856" lon="1.12158">
        <ele>233</ele>
        <time>2009-02-01T09:57:02Z</time>
      </trkpt>
      <trkpt lat="44.45866" lon="1.12164">
        <ele>233</ele>
        <time>2009-02-01T09:57:05Z</time>
      </trkpt>
      <trkpt lat="44.45877" lon="1.12169">
        <ele>233</ele>
        <time>2009-02-01T09:57:08Z</time>
      </trkpt>
      <trkpt lat="44.45889" lon="1.12172">
        <ele>233</ele>
        <time>2009-02-01T09:57:11Z</time>
      </trkpt>
      <trkpt lat="44.45901" lon="1.12174">
        <ele>233</ele>
        <time>2009-02-01T09:57:14Z</time>
      </trkpt>
      <trkpt lat="44.45912" lon="1.12173">
        <ele>233</ele>
        <time>2009-02-01T09:57:17Z</time>
      </trkpt>
      <trkpt lat="44.45923" lon="1.12171">
        <ele>233</ele>
        <time>2009-02-01T09:57:20Z</time>
      </trkpt>
      <trkpt lat="44.45932" lon="1.12169">
        <ele>233</ele>
        <time>2009-02-01T09:57:23Z</time>
      </trkpt>
      <trkpt lat="44.45943" lon="1.12164">
        <ele>233</ele>
        <time>2009-02-01T09:57:26Z</time>
      </trkpt>
      <trkpt lat="44.45955" lon="1.12158">
        <ele>233</ele>
        <time>2009-02-01T09:57:29Z</time>
      </trkpt>
      <trkpt lat="44.4597" lon="1.12151">
        <ele>233</ele>
        <time>2009-02-01T09:57:32Z</time>
      </trkpt>
      <trkpt lat="44.45984" lon="1.12147">
        <ele>233</ele>
        <time>2009-02-01T09:57:35Z</time>
      </trkpt>
      <trkpt lat="44.45997" lon="1.12147">
        <ele>233</ele>
        <time>2009-02-01T09:57:38Z</time>
      </trkpt>
      <trkpt lat="44.46012" lon="1.12149">
        <ele>233</ele>
        <time>2009-02-01T09:57:41Z</time>
      </trkpt>
      <trkpt lat="44.46027" lon="1.12151">
        <ele>232</ele>
        <time>2009-02-01T09:57:44Z</time>
      </trkpt>
      <trkpt lat="44.4604" lon="1.12157">
        <ele>232</ele>
        <time>2009-02-01T09:57:47Z</time>
      </trkpt>
      <trkpt lat="44.4605" lon="1.12166">
        <ele>231</ele>
        <time>2009-02-01T09:57:50Z</time>
      </trkpt>
      <trkpt lat="44.46058" lon="1.12177">
        <ele>231</ele>
        <time>2009-02-01T09:57:53Z</time>
      </trkpt>
      <trkpt lat="44.46065" lon="1.1219">
        <ele>231</ele>
        <time>2009-02-01T09:57:56Z</time>
      </trkpt>
      <trkpt lat="44.46075" lon="1.12202">
        <ele>231</ele>
        <time>2009-02-01T09:57:59Z</time>
      </trkpt>
      <trkpt lat="44.4609" lon="1.12213">
        <ele>230</ele>
        <time>2009-02-01T09:58:02Z</time>
      </trkpt>
      <trkpt lat="44.46108" lon="1.12224">
        <ele>229</ele>
        <time>2009-02-01T09:58:05Z</time>
      </trkpt>
      <trkpt lat="44.46129" lon="1.12234">
        <ele>228</ele>
        <time>2009-02-01T09:58:08Z</time>
      </trkpt>
      <trkpt lat="44.46151" lon="1.12245">
        <ele>227</ele>
        <time>2009-02-01T09:58:11Z</time>
      </trkpt>
      <trkpt lat="44.46174" lon="1.12254">
        <ele>225</ele>
        <time>2009-02-01T09:58:14Z</time>
      </trkpt>
      <trkpt lat="44.46196" lon="1.12258">
        <ele>224</ele>
        <time>2009-02-01T09:58:17Z</time>
      </trkpt>
      <trkpt lat="44.46217" lon="1.12265">
        <ele>223</ele>
        <time>2009-02-01T09:58:20Z</time>
      </trkpt>
      <trkpt lat="44.46233" lon="1.12273">
        <ele>222</ele>
        <time>2009-02-01T09:58:23Z</time>
      </trkpt>
      <trkpt lat="44.46244" lon="1.12283">
        <ele>222</ele>
        <time>2009-02-01T09:58:26Z</time>
      </trkpt>
      <trkpt lat="44.46253" lon="1.12289">
        <ele>222</ele>
        <time>2009-02-01T09:58:29Z</time>
      </trkpt>
      <trkpt lat="44.46261" lon="1.12295">
        <ele>222</ele>
        <time>2009-02-01T09:58:32Z</time>
      </trkpt>
      <trkpt lat="44.4627" lon="1.12302">
        <ele>222</ele>
        <time>2009-02-01T09:58:35Z</time>
      </trkpt>
      <trkpt lat="44.4628" lon="1.12312">
        <ele>222</ele>
        <time>2009-02-01T09:58:38Z</time>
      </trkpt>
      <trkpt lat="44.46288" lon="1.12324">
        <ele>222</ele>
        <time>2009-02-01T09:58:41Z</time>
      </trkpt>
      <trkpt lat="44.46295" lon="1.12337">
        <ele>222</ele>
        <time>2009-02-01T09:58:44Z</time>
      </trkpt>
      <trkpt lat="44.46301" lon="1.12349">
        <ele>222</ele>
        <time>2009-02-01T09:58:47Z</time>
      </trkpt>
      <trkpt lat="44.46306" lon="1.12359">
        <ele>222</ele>
        <time>2009-02-01T09:58:50Z</time>
      </trkpt>
      <trkpt lat="44.46312" lon="1.1237">
        <ele>222</ele>
        <time>2009-02-01T09:58:53Z</time>
      </trkpt>
      <trkpt lat="44.46319" lon="1.12382">
        <ele>222</ele>
        <time>2009-02-01T09:58:56Z</time>
      </trkpt>
      <trkpt lat="44.46324" lon="1.12395">
        <ele>222</ele>
        <time>2009-02-01T09:58:59Z</time>
      </trkpt>
      <trkpt lat="44.4633" lon="1.12408">
        <ele>222</ele>
        <time>2009-02-01T09:59:02Z</time>
      </trkpt>
      <trkpt lat="44.46335" lon="1.1242">
        <ele>222</ele>
        <time>2009-02-01T09:59:05Z</time>
      </trkpt>
      <trkpt lat="44.46342" lon="1.1243">
        <ele>222</ele>
        <time>2009-02-01T09:59:08Z</time>
      </trkpt>
      <trkpt lat="44.46347" lon="1.1244">
        <ele>222</ele>
        <time>2009-02-01T09:59:11Z</time>
      </trkpt>
      <trkpt lat="44.46354" lon="1.12449">
        <ele>223</ele>
        <time>2009-02-01T09:59:14Z</time>
      </trkpt>
      <trkpt lat="44.4636" lon="1.12459">
        <ele>223</ele>
        <time>2009-02-01T09:59:17Z</time>
      </trkpt>
      <trkpt lat="44.46365" lon="1.1247">
        <ele>223</ele>
        <time>2009-02-01T09:59:20Z</time>
      </trkpt>
      <trkpt lat="44.46371" lon="1.1248">
        <ele>223</ele>
        <time>2009-02-01T09:59:23Z</time>
      </trkpt>
      <trkpt lat="44.46376" lon="1.12488">
        <ele>223</ele>
        <time>2009-02-01T09:59:26Z</time>
      </trkpt>
      <trkpt lat="44.46381" lon="1.12498">
        <ele>223</ele>
        <time>2009-02-01T09:59:29Z</time>
      </trkpt>
      <trkpt lat="44.46386" lon="1.12507">
        <ele>223</ele>
        <time>2009-02-01T09:59:32Z</time>
      </trkpt>
      <trkpt lat="44.46391" lon="1.12514">
        <ele>223</ele>
        <time>2009-02-01T09:59:35Z</time>
      </trkpt>
      <trkpt lat="44.46394" lon="1.12518">
        <ele>223</ele>
        <time>2009-02-01T09:59:38Z</time>
      </trkpt>
      <trkpt lat="44.46398" lon="1.12518">
        <ele>223</ele>
        <time>2009-02-01T09:59:41Z</time>
      </trkpt>
      <trkpt lat="44.46401" lon="1.12518">
        <ele>223</ele>
        <time>2009-02-01T09:59:44Z</time>
      </trkpt>
      <trkpt lat="44.46407" lon="1.12519">
        <ele>224</ele>
        <time>2009-02-01T09:59:47Z</time>
      </trkpt>
      <trkpt lat="44.46412" lon="1.12521">
        <ele>225</ele>
        <time>2009-02-01T09:59:50Z</time>
      </trkpt>
      <trkpt lat="44.46418" lon="1.12521">
        <ele>225</ele>
        <time>2009-02-01T09:59:53Z</time>
      </trkpt>
      <trkpt lat="44.46423" lon="1.12524">
        <ele>226</ele>
        <time>2009-02-01T09:59:56Z</time>
      </trkpt>
      <trkpt lat="44.46429" lon="1.1253">
        <ele>226</ele>
        <time>2009-02-01T09:59:59Z</time>
      </trkpt>
      <trkpt lat="44.46435" lon="1.12533">
        <ele>226</ele>
        <time>2009-02-01T10:00:02Z</time>
      </trkpt>
      <trkpt lat="44.46439" lon="1.12534">
        <ele>226</ele>
        <time>2009-02-01T10:00:05Z</time>
      </trkpt>
      <trkpt lat="44.46442" lon="1.12537">
        <ele>226</ele>
        <time>2009-02-01T10:00:08Z</time>
      </trkpt>
      <trkpt lat="44.46445" lon="1.12534">
        <ele>226</ele>
        <time>2009-02-01T10:00:11Z</time>
      </trkpt>
      <trkpt lat="44.46443" lon="1.12531">
        <ele>226</ele>
        <time>2009-02-01T10:00:15Z</time>
      </trkpt>
      <trkpt lat="44.46442" lon="1.12536">
        <ele>226</ele>
        <time>2009-02-01T10:00:20Z</time>
      </trkpt>
      <trkpt lat="44.46439" lon="1.12538">
        <ele>226</ele>
        <time>2009-02-01T10:00:23Z</time>
      </trkpt>
      <trkpt lat="44.46433" lon="1.12537">
        <ele>226</ele>
        <time>2009-02-01T10:00:29Z</time>
      </trkpt>
      <trkpt lat="44.46428" lon="1.12533">
        <ele>226</ele>
        <time>2009-02-01T10:00:32Z</time>
      </trkpt>
      <trkpt lat="44.46422" lon="1.12528">
        <ele>226</ele>
        <time>2009-02-01T10:00:35Z</time>
      </trkpt>
      <trkpt lat="44.46416" lon="1.12525">
        <ele>226</ele>
        <time>2009-02-01T10:00:38Z</time>
      </trkpt>
      <trkpt lat="44.4641" lon="1.12522">
        <ele>226</ele>
        <time>2009-02-01T10:00:41Z</time>
      </trkpt>
      <trkpt lat="44.46404" lon="1.1252">
        <ele>226</ele>
        <time>2009-02-01T10:00:44Z</time>
      </trkpt>
      <trkpt lat="44.46401" lon="1.12521">
        <ele>226</ele>
        <time>2009-02-01T10:00:47Z</time>
      </trkpt>
      <trkpt lat="44.46402" lon="1.12527">
        <ele>226</ele>
        <time>2009-02-01T10:00:50Z</time>
      </trkpt>
      <trkpt lat="44.46406" lon="1.12531">
        <ele>226</ele>
        <time>2009-02-01T10:00:53Z</time>
      </trkpt>
      <trkpt lat="44.46408" lon="1.12535">
        <ele>226</ele>
        <time>2009-02-01T10:00:59Z</time>
      </trkpt>
      <trkpt lat="44.46407" lon="1.12536">
        <ele>226</ele>
        <time>2009-02-01T10:01:05Z</time>
      </trkpt>
      <trkpt lat="44.46404" lon="1.12533">
        <ele>226</ele>
        <time>2009-02-01T10:01:08Z</time>
      </trkpt>
      <trkpt lat="44.464" lon="1.12527">
        <ele>226</ele>
        <time>2009-02-01T10:01:11Z</time>
      </trkpt>
      <trkpt lat="44.46397" lon="1.12522">
        <ele>226</ele>
        <time>2009-02-01T10:01:14Z</time>
      </trkpt>
      <trkpt lat="44.46393" lon="1.12517">
        <ele>226</ele>
        <time>2009-02-01T10:01:17Z</time>
      </trkpt>
      <trkpt lat="44.46387" lon="1.12511">
        <ele>226</ele>
        <time>2009-02-01T10:01:21Z</time>
      </trkpt>
      <trkpt lat="44.46382" lon="1.12503">
        <ele>226</ele>
        <time>2009-02-01T10:01:24Z</time>
      </trkpt>
      <trkpt lat="44.46376" lon="1.12494">
        <ele>226</ele>
        <time>2009-02-01T10:01:27Z</time>
      </trkpt>
      <trkpt lat="44.46369" lon="1.12485">
        <ele>226</ele>
        <time>2009-02-01T10:01:30Z</time>
      </trkpt>
      <trkpt lat="44.46362" lon="1.12473">
        <ele>226</ele>
        <time>2009-02-01T10:01:33Z</time>
      </trkpt>
      <trkpt lat="44.46355" lon="1.12461">
        <ele>225</ele>
        <time>2009-02-01T10:01:36Z</time>
      </trkpt>
      <trkpt lat="44.46349" lon="1.12449">
        <ele>225</ele>
        <time>2009-02-01T10:01:39Z</time>
      </trkpt>
      <trkpt lat="44.46342" lon="1.12436">
        <ele>225</ele>
        <time>2009-02-01T10:01:42Z</time>
      </trkpt>
      <trkpt lat="44.46335" lon="1.12425">
        <ele>225</ele>
        <time>2009-02-01T10:01:45Z</time>
      </trkpt>
      <trkpt lat="44.46328" lon="1.1241">
        <ele>225</ele>
        <time>2009-02-01T10:01:48Z</time>
      </trkpt>
      <trkpt lat="44.46323" lon="1.12397">
        <ele>225</ele>
        <time>2009-02-01T10:01:51Z</time>
      </trkpt>
      <trkpt lat="44.4632" lon="1.12388">
        <ele>225</ele>
        <time>2009-02-01T10:01:54Z</time>
      </trkpt>
      <trkpt lat="44.46317" lon="1.1238">
        <ele>225</ele>
        <time>2009-02-01T10:01:57Z</time>
      </trkpt>
      <trkpt lat="44.46314" lon="1.12374">
        <ele>225</ele>
        <time>2009-02-01T10:02:00Z</time>
      </trkpt>
      <trkpt lat="44.46309" lon="1.12366">
        <ele>224</ele>
        <time>2009-02-01T10:02:03Z</time>
      </trkpt>
      <trkpt lat="44.46304" lon="1.12358">
        <ele>223</ele>
        <time>2009-02-01T10:02:06Z</time>
      </trkpt>
      <trkpt lat="44.46299" lon="1.12346">
        <ele>223</ele>
        <time>2009-02-01T10:02:09Z</time>
      </trkpt>
      <trkpt lat="44.46291" lon="1.12332">
        <ele>223</ele>
        <time>2009-02-01T10:02:12Z</time>
      </trkpt>
      <trkpt lat="44.46278" lon="1.12316">
        <ele>221</ele>
        <time>2009-02-01T10:02:15Z</time>
      </trkpt>
      <trkpt lat="44.46265" lon="1.12305">
        <ele>220</ele>
        <time>2009-02-01T10:02:18Z</time>
      </trkpt>
      <trkpt lat="44.46251" lon="1.12294">
        <ele>220</ele>
        <time>2009-02-01T10:02:21Z</time>
      </trkpt>
      <trkpt lat="44.46234" lon="1.12282">
        <ele>219</ele>
        <time>2009-02-01T10:02:24Z</time>
      </trkpt>
      <trkpt lat="44.46218" lon="1.1227">
        <ele>219</ele>
        <time>2009-02-01T10:02:27Z</time>
      </trkpt>
      <trkpt lat="44.46201" lon="1.12264">
        <ele>218</ele>
        <time>2009-02-01T10:02:30Z</time>
      </trkpt>
      <trkpt lat="44.46184" lon="1.12258">
        <ele>217</ele>
        <time>2009-02-01T10:02:33Z</time>
      </trkpt>
      <trkpt lat="44.4617" lon="1.12255">
        <ele>215</ele>
        <time>2009-02-01T10:02:36Z</time>
      </trkpt>
      <trkpt lat="44.46157" lon="1.1225">
        <ele>215</ele>
        <time>2009-02-01T10:02:39Z</time>
      </trkpt>
      <trkpt lat="44.46145" lon="1.12244">
        <ele>215</ele>
        <time>2009-02-01T10:02:42Z</time>
      </trkpt>
      <trkpt lat="44.46137" lon="1.12239">
        <ele>215</ele>
        <time>2009-02-01T10:02:45Z</time>
      </trkpt>
      <trkpt lat="44.46128" lon="1.12235">
        <ele>215</ele>
        <time>2009-02-01T10:02:48Z</time>
      </trkpt>
      <trkpt lat="44.4612" lon="1.1223">
        <ele>215</ele>
        <time>2009-02-01T10:02:51Z</time>
      </trkpt>
      <trkpt lat="44.46113" lon="1.12226">
        <ele>215</ele>
        <time>2009-02-01T10:02:54Z</time>
      </trkpt>
      <trkpt lat="44.46106" lon="1.12223">
        <ele>215</ele>
        <time>2009-02-01T10:02:57Z</time>
      </trkpt>
      <trkpt lat="44.461" lon="1.12219">
        <ele>215</ele>
        <time>2009-02-01T10:03:00Z</time>
      </trkpt>
      <trkpt lat="44.46093" lon="1.12215">
        <ele>215</ele>
        <time>2009-02-01T10:03:03Z</time>
      </trkpt>
      <trkpt lat="44.46088" lon="1.12212">
        <ele>215</ele>
        <time>2009-02-01T10:03:06Z</time>
      </trkpt>
      <trkpt lat="44.46083" lon="1.12206">
        <ele>215</ele>
        <time>2009-02-01T10:03:09Z</time>
      </trkpt>
      <trkpt lat="44.46077" lon="1.12201">
        <ele>215</ele>
        <time>2009-02-01T10:03:12Z</time>
      </trkpt>
      <trkpt lat="44.46072" lon="1.12198">
        <ele>215</ele>
        <time>2009-02-01T10:03:15Z</time>
      </trkpt>
      <trkpt lat="44.46068" lon="1.12193">
        <ele>215</ele>
        <time>2009-02-01T10:03:18Z</time>
      </trkpt>
      <trkpt lat="44.46063" lon="1.12189">
        <ele>216</ele>
        <time>2009-02-01T10:03:21Z</time>
      </trkpt>
      <trkpt lat="44.46059" lon="1.12184">
        <ele>217</ele>
        <time>2009-02-01T10:03:24Z</time>
      </trkpt>
      <trkpt lat="44.46055" lon="1.12178">
        <ele>217</ele>
        <time>2009-02-01T10:03:27Z</time>
      </trkpt>
      <trkpt lat="44.4605" lon="1.12172">
        <ele>217</ele>
        <time>2009-02-01T10:03:30Z</time>
      </trkpt>
      <trkpt lat="44.46045" lon="1.12166">
        <ele>217</ele>
        <time>2009-02-01T10:03:33Z</time>
      </trkpt>
      <trkpt lat="44.46039" lon="1.12161">
        <ele>217</ele>
        <time>2009-02-01T10:03:36Z</time>
      </trkpt>
      <trkpt lat="44.46032" lon="1.12157">
        <ele>217</ele>
        <time>2009-02-01T10:03:39Z</time>
      </trkpt>
      <trkpt lat="44.46025" lon="1.12154">
        <ele>218</ele>
        <time>2009-02-01T10:03:42Z</time>
      </trkpt>
      <trkpt lat="44.46017" lon="1.12152">
        <ele>219</ele>
        <time>2009-02-01T10:03:45Z</time>
      </trkpt>
      <trkpt lat="44.46011" lon="1.12151">
        <ele>220</ele>
        <time>2009-02-01T10:03:48Z</time>
      </trkpt>
      <trkpt lat="44.46003" lon="1.12151">
        <ele>222</ele>
        <time>2009-02-01T10:03:51Z</time>
      </trkpt>
      <trkpt lat="44.45996" lon="1.12151">
        <ele>223</ele>
        <time>2009-02-01T10:03:54Z</time>
      </trkpt>
      <trkpt lat="44.45988" lon="1.12151">
        <ele>224</ele>
        <time>2009-02-01T10:03:57Z</time>
      </trkpt>
      <trkpt lat="44.45981" lon="1.12152">
        <ele>224</ele>
        <time>2009-02-01T10:04:00Z</time>
      </trkpt>
      <trkpt lat="44.45975" lon="1.12154">
        <ele>224</ele>
        <time>2009-02-01T10:04:03Z</time>
      </trkpt>
      <trkpt lat="44.45969" lon="1.12158">
        <ele>224</ele>
        <time>2009-02-01T10:04:06Z</time>
      </trkpt>
      <trkpt lat="44.45962" lon="1.12161">
        <ele>224</ele>
        <time>2009-02-01T10:04:09Z</time>
      </trkpt>
      <trkpt lat="44.45955" lon="1.12166">
        <ele>224</ele>
        <time>2009-02-01T10:04:12Z</time>
      </trkpt>
      <trkpt lat="44.45948" lon="1.12171">
        <ele>225</ele>
        <time>2009-02-01T10:04:15Z</time>
      </trkpt>
      <trkpt lat="44.45939" lon="1.12174">
        <ele>225</ele>
        <time>2009-02-01T10:04:18Z</time>
      </trkpt>
      <trkpt lat="44.45929" lon="1.12176">
        <ele>225</ele>
        <time>2009-02-01T10:04:21Z</time>
      </trkpt>
      <trkpt lat="44.4592" lon="1.12179">
        <ele>225</ele>
        <time>2009-02-01T10:04:24Z</time>
      </trkpt>
      <trkpt lat="44.45909" lon="1.12182">
        <ele>225</ele>
        <time>2009-02-01T10:04:27Z</time>
      </trkpt>
      <trkpt lat="44.45898" lon="1.12181">
        <ele>225</ele>
        <time>2009-02-01T10:04:30Z</time>
      </trkpt>
      <trkpt lat="44.45887" lon="1.12179">
        <ele>225</ele>
        <time>2009-02-01T10:04:33Z</time>
      </trkpt>
      <trkpt lat="44.45877" lon="1.12174">
        <ele>225</ele>
        <time>2009-02-01T10:04:36Z</time>
      </trkpt>
      <trkpt lat="44.45867" lon="1.12167">
        <ele>225</ele>
        <time>2009-02-01T10:04:39Z</time>
      </trkpt>
      <trkpt lat="44.45857" lon="1.1216">
        <ele>225</ele>
        <time>2009-02-01T10:04:42Z</time>
      </trkpt>
      <trkpt lat="44.45848" lon="1.12152">
        <ele>225</ele>
        <time>2009-02-01T10:04:45Z</time>
      </trkpt>
      <trkpt lat="44.45839" lon="1.12143">
        <ele>225</ele>
        <time>2009-02-01T10:04:48Z</time>
      </trkpt>
      <trkpt lat="44.45828" lon="1.12133">
        <ele>225</ele>
        <time>2009-02-01T10:04:51Z</time>
      </trkpt>
      <trkpt lat="44.45816" lon="1.12123">
        <ele>225</ele>
        <time>2009-02-01T10:04:54Z</time>
      </trkpt>
      <trkpt lat="44.45805" lon="1.12112">
        <ele>225</ele>
        <time>2009-02-01T10:04:57Z</time>
      </trkpt>
      <trkpt lat="44.45795" lon="1.12101">
        <ele>225</ele>
        <time>2009-02-01T10:05:00Z</time>
      </trkpt>
      <trkpt lat="44.45786" lon="1.12093">
        <ele>225</ele>
        <time>2009-02-01T10:05:03Z</time>
      </trkpt>
      <trkpt lat="44.45779" lon="1.12083">
        <ele>225</ele>
        <time>2009-02-01T10:05:06Z</time>
      </trkpt>
      <trkpt lat="44.45771" lon="1.12072">
        <ele>225</ele>
        <time>2009-02-01T10:05:09Z</time>
      </trkpt>
      <trkpt lat="44.45763" lon="1.12062">
        <ele>225</ele>
        <time>2009-02-01T10:05:12Z</time>
      </trkpt>
      <trkpt lat="44.45755" lon="1.12052">
        <ele>225</ele>
        <time>2009-02-01T10:05:15Z</time>
      </trkpt>
      <trkpt lat="44.45744" lon="1.12043">
        <ele>225</ele>
        <time>2009-02-01T10:05:18Z</time>
      </trkpt>
      <trkpt lat="44.45735" lon="1.1203">
        <ele>225</ele>
        <time>2009-02-01T10:05:21Z</time>
      </trkpt>
      <trkpt lat="44.45726" lon="1.12017">
        <ele>225</ele>
        <time>2009-02-01T10:05:24Z</time>
      </trkpt>
      <trkpt lat="44.45718" lon="1.12005">
        <ele>225</ele>
        <time>2009-02-01T10:05:27Z</time>
      </trkpt>
      <trkpt lat="44.45709" lon="1.11992">
        <ele>225</ele>
        <time>2009-02-01T10:05:30Z</time>
      </trkpt>
      <trkpt lat="44.45699" lon="1.11981">
        <ele>225</ele>
        <time>2009-02-01T10:05:33Z</time>
      </trkpt>
      <trkpt lat="44.45687" lon="1.11975">
        <ele>225</ele>
        <time>2009-02-01T10:05:36Z</time>
      </trkpt>
      <trkpt lat="44.45674" lon="1.11974">
        <ele>225</ele>
        <time>2009-02-01T10:05:39Z</time>
      </trkpt>
      <trkpt lat="44.45662" lon="1.11981">
        <ele>225</ele>
        <time>2009-02-01T10:05:42Z</time>
      </trkpt>
      <trkpt lat="44.45652" lon="1.1199">
        <ele>225</ele>
        <time>2009-02-01T10:05:45Z</time>
      </trkpt>
      <trkpt lat="44.45644" lon="1.12">
        <ele>225</ele>
        <time>2009-02-01T10:05:48Z</time>
      </trkpt>
      <trkpt lat="44.45635" lon="1.12008">
        <ele>225</ele>
        <time>2009-02-01T10:05:51Z</time>
      </trkpt>
      <trkpt lat="44.45627" lon="1.12017">
        <ele>225</ele>
        <time>2009-02-01T10:05:54Z</time>
      </trkpt>
      <trkpt lat="44.45616" lon="1.12024">
        <ele>225</ele>
        <time>2009-02-01T10:05:57Z</time>
      </trkpt>
      <trkpt lat="44.45604" lon="1.12033">
        <ele>225</ele>
        <time>2009-02-01T10:06:00Z</time>
      </trkpt>
      <trkpt lat="44.45592" lon="1.12042">
        <ele>225</ele>
        <time>2009-02-01T10:06:03Z</time>
      </trkpt>
      <trkpt lat="44.4558" lon="1.12049">
        <ele>225</ele>
        <time>2009-02-01T10:06:06Z</time>
      </trkpt>
      <trkpt lat="44.4557" lon="1.12052">
        <ele>225</ele>
        <time>2009-02-01T10:06:09Z</time>
      </trkpt>
      <trkpt lat="44.45559" lon="1.12052">
        <ele>225</ele>
        <time>2009-02-01T10:06:12Z</time>
      </trkpt>
      <trkpt lat="44.45552" lon="1.12058">
        <ele>225</ele>
        <time>2009-02-01T10:06:15Z</time>
      </trkpt>
      <trkpt lat="44.45556" lon="1.12072">
        <ele>225</ele>
        <time>2009-02-01T10:06:18Z</time>
      </trkpt>
      <trkpt lat="44.45558" lon="1.12089">
        <ele>225</ele>
        <time>2009-02-01T10:06:21Z</time>
      </trkpt>
      <trkpt lat="44.45559" lon="1.12112">
        <ele>223</ele>
        <time>2009-02-01T10:06:24Z</time>
      </trkpt>
      <trkpt lat="44.45559" lon="1.12142">
        <ele>220</ele>
        <time>2009-02-01T10:06:27Z</time>
      </trkpt>
      <trkpt lat="44.45558" lon="1.12174">
        <ele>217</ele>
        <time>2009-02-01T10:06:30Z</time>
      </trkpt>
      <trkpt lat="44.45558" lon="1.12203">
        <ele>215</ele>
        <time>2009-02-01T10:06:33Z</time>
      </trkpt>
      <trkpt lat="44.45554" lon="1.12228">
        <ele>213</ele>
        <time>2009-02-01T10:06:36Z</time>
      </trkpt>
      <trkpt lat="44.45554" lon="1.12247">
        <ele>211</ele>
        <time>2009-02-01T10:06:39Z</time>
      </trkpt>
      <trkpt lat="44.45551" lon="1.12259">
        <ele>211</ele>
        <time>2009-02-01T10:06:42Z</time>
      </trkpt>
      <trkpt lat="44.45549" lon="1.12266">
        <ele>211</ele>
        <time>2009-02-01T10:06:48Z</time>
      </trkpt>
      <trkpt lat="44.45547" lon="1.12265">
        <ele>211</ele>
        <time>2009-02-01T10:06:54Z</time>
      </trkpt>
      <trkpt lat="44.45546" lon="1.12266">
        <ele>212</ele>
        <time>2009-02-01T10:06:59Z</time>
      </trkpt>
      <trkpt lat="44.45545" lon="1.12268">
        <ele>214</ele>
        <time>2009-02-01T10:07:02Z</time>
      </trkpt>
      <trkpt lat="44.45544" lon="1.12273">
        <ele>215</ele>
        <time>2009-02-01T10:07:06Z</time>
      </trkpt>
      <trkpt lat="44.45543" lon="1.12276">
        <ele>215</ele>
        <time>2009-02-01T10:07:09Z</time>
      </trkpt>
      <trkpt lat="44.45541" lon="1.12279">
        <ele>216</ele>
        <time>2009-02-01T10:07:14Z</time>
      </trkpt>
      <trkpt lat="44.4554" lon="1.12284">
        <ele>216</ele>
        <time>2009-02-01T10:07:17Z</time>
      </trkpt>
      <trkpt lat="44.45542" lon="1.12294">
        <ele>216</ele>
        <time>2009-02-01T10:07:20Z</time>
      </trkpt>
      <trkpt lat="44.45545" lon="1.12305">
        <ele>216</ele>
        <time>2009-02-01T10:07:23Z</time>
      </trkpt>
      <trkpt lat="44.45547" lon="1.12319">
        <ele>216</ele>
        <time>2009-02-01T10:07:26Z</time>
      </trkpt>
      <trkpt lat="44.45548" lon="1.12334">
        <ele>215</ele>
        <time>2009-02-01T10:07:29Z</time>
      </trkpt>
      <trkpt lat="44.45549" lon="1.12355">
        <ele>213</ele>
        <time>2009-02-01T10:07:32Z</time>
      </trkpt>
      <trkpt lat="44.45545" lon="1.12375">
        <ele>210</ele>
        <time>2009-02-01T10:07:35Z</time>
      </trkpt>
      <trkpt lat="44.45541" lon="1.12385">
        <ele>210</ele>
        <time>2009-02-01T10:07:38Z</time>
      </trkpt>
      <trkpt lat="44.45547" lon="1.12388">
        <ele>210</ele>
        <time>2009-02-01T10:07:41Z</time>
      </trkpt>
      <trkpt lat="44.45551" lon="1.12391">
        <ele>210</ele>
        <time>2009-02-01T10:07:44Z</time>
      </trkpt>
      <trkpt lat="44.45552" lon="1.12401">
        <ele>209</ele>
        <time>2009-02-01T10:07:47Z</time>
      </trkpt>
      <trkpt lat="44.4555" lon="1.12413">
        <ele>208</ele>
        <time>2009-02-01T10:07:50Z</time>
      </trkpt>
      <trkpt lat="44.45545" lon="1.12428">
        <ele>206</ele>
        <time>2009-02-01T10:07:53Z</time>
      </trkpt>
      <trkpt lat="44.45535" lon="1.12439">
        <ele>204</ele>
        <time>2009-02-01T10:07:56Z</time>
      </trkpt>
      <trkpt lat="44.45528" lon="1.12443">
        <ele>202</ele>
        <time>2009-02-01T10:07:59Z</time>
      </trkpt>
      <trkpt lat="44.45531" lon="1.12446">
        <ele>202</ele>
        <time>2009-02-01T10:08:02Z</time>
      </trkpt>
      <trkpt lat="44.45539" lon="1.12453">
        <ele>202</ele>
        <time>2009-02-01T10:08:05Z</time>
      </trkpt>
      <trkpt lat="44.45556" lon="1.12461">
        <ele>202</ele>
        <time>2009-02-01T10:08:08Z</time>
      </trkpt>
      <trkpt lat="44.45575" lon="1.12465">
        <ele>200</ele>
        <time>2009-02-01T10:08:11Z</time>
      </trkpt>
      <trkpt lat="44.45589" lon="1.12464">
        <ele>199</ele>
        <time>2009-02-01T10:08:14Z</time>
      </trkpt>
      <trkpt lat="44.45606" lon="1.12473">
        <ele>197</ele>
        <time>2009-02-01T10:08:17Z</time>
      </trkpt>
      <trkpt lat="44.45624" lon="1.12477">
        <ele>194</ele>
        <time>2009-02-01T10:08:20Z</time>
      </trkpt>
      <trkpt lat="44.45637" lon="1.12475">
        <ele>191</ele>
        <time>2009-02-01T10:08:23Z</time>
      </trkpt>
      <trkpt lat="44.45645" lon="1.12464">
        <ele>188</ele>
        <time>2009-02-01T10:08:26Z</time>
      </trkpt>
      <trkpt lat="44.45649" lon="1.12452">
        <ele>185</ele>
        <time>2009-02-01T10:08:29Z</time>
      </trkpt>
      <trkpt lat="44.45652" lon="1.12432">
        <ele>182</ele>
        <time>2009-02-01T10:08:32Z</time>
      </trkpt>
      <trkpt lat="44.45651" lon="1.12414">
        <ele>180</ele>
        <time>2009-02-01T10:08:35Z</time>
      </trkpt>
      <trkpt lat="44.45654" lon="1.12413">
        <ele>180</ele>
        <time>2009-02-01T10:08:38Z</time>
      </trkpt>
      <trkpt lat="44.45656" lon="1.12421">
        <ele>179</ele>
        <time>2009-02-01T10:08:41Z</time>
      </trkpt>
      <trkpt lat="44.45668" lon="1.12436">
        <ele>177</ele>
        <time>2009-02-01T10:08:44Z</time>
      </trkpt>
      <trkpt lat="44.45682" lon="1.12455">
        <ele>175</ele>
        <time>2009-02-01T10:08:47Z</time>
      </trkpt>
      <trkpt lat="44.45688" lon="1.12481">
        <ele>172</ele>
        <time>2009-02-01T10:08:50Z</time>
      </trkpt>
      <trkpt lat="44.45695" lon="1.12505">
        <ele>169</ele>
        <time>2009-02-01T10:08:53Z</time>
      </trkpt>
      <trkpt lat="44.45693" lon="1.12524">
        <ele>166</ele>
        <time>2009-02-01T10:08:56Z</time>
      </trkpt>
      <trkpt lat="44.45681" lon="1.12536">
        <ele>162</ele>
        <time>2009-02-01T10:08:59Z</time>
      </trkpt>
      <trkpt lat="44.45672" lon="1.12545">
        <ele>157</ele>
        <time>2009-02-01T10:09:02Z</time>
      </trkpt>
      <trkpt lat="44.45666" lon="1.12552">
        <ele>154</ele>
        <time>2009-02-01T10:09:05Z</time>
      </trkpt>
      <trkpt lat="44.45667" lon="1.12553">
        <ele>151</ele>
        <time>2009-02-01T10:09:08Z</time>
      </trkpt>
      <trkpt lat="44.45669" lon="1.12555">
        <ele>151</ele>
        <time>2009-02-01T10:09:14Z</time>
      </trkpt>
      <trkpt lat="44.45681" lon="1.12558">
        <ele>151</ele>
        <time>2009-02-01T10:09:17Z</time>
      </trkpt>
      <trkpt lat="44.45694" lon="1.12558">
        <ele>150</ele>
        <time>2009-02-01T10:09:20Z</time>
      </trkpt>
      <trkpt lat="44.45703" lon="1.12561">
        <ele>148</ele>
        <time>2009-02-01T10:09:24Z</time>
      </trkpt>
      <trkpt lat="44.45706" lon="1.1256">
        <ele>146</ele>
        <time>2009-02-01T10:09:29Z</time>
      </trkpt>
      <trkpt lat="44.45708" lon="1.12562">
        <ele>143</ele>
        <time>2009-02-01T10:09:32Z</time>
      </trkpt>
      <trkpt lat="44.45709" lon="1.12568">
        <ele>142</ele>
        <time>2009-02-01T10:09:36Z</time>
      </trkpt>
      <trkpt lat="44.45709" lon="1.12573">
        <ele>142</ele>
        <time>2009-02-01T10:09:39Z</time>
      </trkpt>
      <trkpt lat="44.45707" lon="1.12578">
        <ele>142</ele>
        <time>2009-02-01T10:09:44Z</time>
      </trkpt>
      <trkpt lat="44.45704" lon="1.12583">
        <ele>142</ele>
        <time>2009-02-01T10:09:47Z</time>
      </trkpt>
      <trkpt lat="44.45701" lon="1.12585">
        <ele>142</ele>
        <time>2009-02-01T10:09:50Z</time>
      </trkpt>
      <trkpt lat="44.45698" lon="1.12588">
        <ele>142</ele>
        <time>2009-02-01T10:09:54Z</time>
      </trkpt>
      <trkpt lat="44.45696" lon="1.12587">
        <ele>142</ele>
        <time>2009-02-01T10:09:57Z</time>
      </trkpt>
      <trkpt lat="44.45693" lon="1.12587">
        <ele>142</ele>
        <time>2009-02-01T10:10:02Z</time>
      </trkpt>
      <trkpt lat="44.45692" lon="1.1259">
        <ele>142</ele>
        <time>2009-02-01T10:10:05Z</time>
      </trkpt>
      <trkpt lat="44.45691" lon="1.12595">
        <ele>143</ele>
        <time>2009-02-01T10:10:09Z</time>
      </trkpt>
      <trkpt lat="44.45688" lon="1.12598">
        <ele>144</ele>
        <time>2009-02-01T10:10:14Z</time>
      </trkpt>
      <trkpt lat="44.45687" lon="1.12596">
        <ele>144</ele>
        <time>2009-02-01T10:10:17Z</time>
      </trkpt>
      <trkpt lat="44.45688" lon="1.12594">
        <ele>142</ele>
        <time>2009-02-01T10:10:20Z</time>
      </trkpt>
      <trkpt lat="44.45687" lon="1.12594">
        <ele>138</ele>
        <time>2009-02-01T10:10:27Z</time>
      </trkpt>
      <trkpt lat="44.45688" lon="1.12594">
        <ele>138</ele>
        <time>2009-02-01T10:10:32Z</time>
      </trkpt>
      <trkpt lat="44.45688" lon="1.12595">
        <ele>138</ele>
        <time>2009-02-01T10:10:35Z</time>
      </trkpt>
      <trkpt lat="44.45687" lon="1.12596">
        <ele>138</ele>
        <time>2009-02-01T10:10:41Z</time>
      </trkpt>
      <trkpt lat="44.45686" lon="1.12594">
        <ele>138</ele>
        <time>2009-02-01T10:10:44Z</time>
      </trkpt>
      <trkpt lat="44.4569" lon="1.12593">
        <ele>138</ele>
        <time>2009-02-01T10:10:47Z</time>
      </trkpt>
      <trkpt lat="44.45696" lon="1.12588">
        <ele>142</ele>
        <time>2009-02-01T10:10:50Z</time>
      </trkpt>
      <trkpt lat="44.45696" lon="1.12581">
        <ele>147</ele>
        <time>2009-02-01T10:10:56Z</time>
      </trkpt>
      <trkpt lat="44.45697" lon="1.12579">
        <ele>153</ele>
        <time>2009-02-01T10:11:02Z</time>
      </trkpt>
      <trkpt lat="44.45697" lon="1.12578">
        <ele>155</ele>
        <time>2009-02-01T10:11:05Z</time>
      </trkpt>
      <trkpt lat="44.45695" lon="1.12577">
        <ele>155</ele>
        <time>2009-02-01T10:11:12Z</time>
      </trkpt>
      <trkpt lat="44.45694" lon="1.12576">
        <ele>155</ele>
        <time>2009-02-01T10:11:18Z</time>
      </trkpt>
      <trkpt lat="44.45694" lon="1.12575">
        <ele>155</ele>
        <time>2009-02-01T10:11:29Z</time>
      </trkpt>
      <trkpt lat="44.45694" lon="1.12573">
        <ele>155</ele>
        <time>2009-02-01T10:11:32Z</time>
      </trkpt>
      <trkpt lat="44.45694" lon="1.12575">
        <ele>149</ele>
        <time>2009-02-01T10:11:44Z</time>
      </trkpt>
      <trkpt lat="44.45694" lon="1.12576">
        <ele>149</ele>
        <time>2009-02-01T10:11:47Z</time>
      </trkpt>
      <trkpt lat="44.45693" lon="1.12578">
        <ele>149</ele>
        <time>2009-02-01T10:11:53Z</time>
      </trkpt>
      <trkpt lat="44.45691" lon="1.12579">
        <ele>149</ele>
        <time>2009-02-01T10:11:56Z</time>
      </trkpt>
      <trkpt lat="44.45688" lon="1.12579">
        <ele>151</ele>
        <time>2009-02-01T10:11:59Z</time>
      </trkpt>
      <trkpt lat="44.45686" lon="1.12577">
        <ele>154</ele>
        <time>2009-02-01T10:12:02Z</time>
      </trkpt>
      <trkpt lat="44.45688" lon="1.12576">
        <ele>158</ele>
        <time>2009-02-01T10:12:08Z</time>
      </trkpt>
      <trkpt lat="44.4569" lon="1.12577">
        <ele>158</ele>
        <time>2009-02-01T10:12:11Z</time>
      </trkpt>
      <trkpt lat="44.45692" lon="1.12578">
        <ele>155</ele>
        <time>2009-02-01T10:12:15Z</time>
      </trkpt>
      <trkpt lat="44.45692" lon="1.12578">
        <ele>150</ele>
        <time>2009-02-01T10:12:23Z</time>
      </trkpt>
      <trkpt lat="44.45692" lon="1.1258">
        <ele>150</ele>
        <time>2009-02-01T10:12:26Z</time>
      </trkpt>
      <trkpt lat="44.45691" lon="1.12578">
        <ele>147</ele>
        <time>2009-02-01T10:12:32Z</time>
      </trkpt>
      <trkpt lat="44.45689" lon="1.12579">
        <ele>147</ele>
        <time>2009-02-01T10:12:36Z</time>
      </trkpt>
      <trkpt lat="44.45688" lon="1.12582">
        <ele>147</ele>
        <time>2009-02-01T10:12:41Z</time>
      </trkpt>
      <trkpt lat="44.45691" lon="1.12585">
        <ele>147</ele>
        <time>2009-02-01T10:12:44Z</time>
      </trkpt>
      <trkpt lat="44.45692" lon="1.12592">
        <ele>147</ele>
        <time>2009-02-01T10:12:47Z</time>
      </trkpt>
      <trkpt lat="44.45692" lon="1.12597">
        <ele>147</ele>
        <time>2009-02-01T10:12:51Z</time>
      </trkpt>
      <trkpt lat="44.45691" lon="1.12601">
        <ele>147</ele>
        <time>2009-02-01T10:12:56Z</time>
      </trkpt>
      <trkpt lat="44.45689" lon="1.12602">
        <ele>147</ele>
        <time>2009-02-01T10:12:59Z</time>
      </trkpt>
      <trkpt lat="44.45684" lon="1.12604">
        <ele>147</ele>
        <time>2009-02-01T10:13:02Z</time>
      </trkpt>
      <trkpt lat="44.45681" lon="1.12604">
        <ele>149</ele>
        <time>2009-02-01T10:13:05Z</time>
      </trkpt>
      <trkpt lat="44.45677" lon="1.12604">
        <ele>150</ele>
        <time>2009-02-01T10:13:08Z</time>
      </trkpt>
      <trkpt lat="44.45673" lon="1.12607">
        <ele>151</ele>
        <time>2009-02-01T10:13:11Z</time>
      </trkpt>
      <trkpt lat="44.45667" lon="1.12609">
        <ele>151</ele>
        <time>2009-02-01T10:13:14Z</time>
      </trkpt>
      <trkpt lat="44.45662" lon="1.12609">
        <ele>151</ele>
        <time>2009-02-01T10:13:17Z</time>
      </trkpt>
      <trkpt lat="44.45657" lon="1.12609">
        <ele>151</ele>
        <time>2009-02-01T10:13:20Z</time>
      </trkpt>
      <trkpt lat="44.45652" lon="1.12608">
        <ele>151</ele>
        <time>2009-02-01T10:13:23Z</time>
      </trkpt>
      <trkpt lat="44.45648" lon="1.12609">
        <ele>151</ele>
        <time>2009-02-01T10:13:26Z</time>
      </trkpt>
      <trkpt lat="44.45641" lon="1.12613">
        <ele>151</ele>
        <time>2009-02-01T10:13:29Z</time>
      </trkpt>
      <trkpt lat="44.45635" lon="1.12616">
        <ele>151</ele>
        <time>2009-02-01T10:13:32Z</time>
      </trkpt>
      <trkpt lat="44.45631" lon="1.12615">
        <ele>151</ele>
        <time>2009-02-01T10:13:35Z</time>
      </trkpt>
      <trkpt lat="44.45624" lon="1.12612">
        <ele>151</ele>
        <time>2009-02-01T10:13:38Z</time>
      </trkpt>
      <trkpt lat="44.45617" lon="1.12609">
        <ele>150</ele>
        <time>2009-02-01T10:13:41Z</time>
      </trkpt>
      <trkpt lat="44.45612" lon="1.12607">
        <ele>149</ele>
        <time>2009-02-01T10:13:44Z</time>
      </trkpt>
      <trkpt lat="44.45608" lon="1.12606">
        <ele>147</ele>
        <time>2009-02-01T10:13:47Z</time>
      </trkpt>
      <trkpt lat="44.45605" lon="1.12606">
        <ele>145</ele>
        <time>2009-02-01T10:13:50Z</time>
      </trkpt>
      <trkpt lat="44.45601" lon="1.12604">
        <ele>145</ele>
        <time>2009-02-01T10:13:53Z</time>
      </trkpt>
      <trkpt lat="44.45595" lon="1.12607">
        <ele>145</ele>
        <time>2009-02-01T10:13:56Z</time>
      </trkpt>
      <trkpt lat="44.45589" lon="1.12609">
        <ele>145</ele>
        <time>2009-02-01T10:13:59Z</time>
      </trkpt>
      <trkpt lat="44.45585" lon="1.12611">
        <ele>145</ele>
        <time>2009-02-01T10:14:02Z</time>
      </trkpt>
      <trkpt lat="44.45579" lon="1.1261">
        <ele>147</ele>
        <time>2009-02-01T10:14:05Z</time>
      </trkpt>
      <trkpt lat="44.45575" lon="1.12611">
        <ele>147</ele>
        <time>2009-02-01T10:14:08Z</time>
      </trkpt>
      <trkpt lat="44.4557" lon="1.12611">
        <ele>147</ele>
        <time>2009-02-01T10:14:11Z</time>
      </trkpt>
      <trkpt lat="44.45567" lon="1.12613">
        <ele>149</ele>
        <time>2009-02-01T10:14:14Z</time>
      </trkpt>
      <trkpt lat="44.45566" lon="1.12618">
        <ele>153</ele>
        <time>2009-02-01T10:14:20Z</time>
      </trkpt>
      <trkpt lat="44.45563" lon="1.12621">
        <ele>153</ele>
        <time>2009-02-01T10:14:23Z</time>
      </trkpt>
      <trkpt lat="44.45561" lon="1.12622">
        <ele>154</ele>
        <time>2009-02-01T10:14:29Z</time>
      </trkpt>
      <trkpt lat="44.45562" lon="1.1263">
        <ele>155</ele>
        <time>2009-02-01T10:14:32Z</time>
      </trkpt>
      <trkpt lat="44.4556" lon="1.12631">
        <ele>155</ele>
        <time>2009-02-01T10:14:36Z</time>
      </trkpt>
      <trkpt lat="44.4556" lon="1.12627">
        <ele>155</ele>
        <time>2009-02-01T10:14:41Z</time>
      </trkpt>
      <trkpt lat="44.45561" lon="1.12629">
        <ele>155</ele>
        <time>2009-02-01T10:14:45Z</time>
      </trkpt>
      <trkpt lat="44.45561" lon="1.12635">
        <ele>155</ele>
        <time>2009-02-01T10:14:50Z</time>
      </trkpt>
      <trkpt lat="44.45558" lon="1.12639">
        <ele>156</ele>
        <time>2009-02-01T10:14:53Z</time>
      </trkpt>
      <trkpt lat="44.45558" lon="1.12643">
        <ele>158</ele>
        <time>2009-02-01T10:14:56Z</time>
      </trkpt>
      <trkpt lat="44.45555" lon="1.12647">
        <ele>160</ele>
        <time>2009-02-01T10:14:59Z</time>
      </trkpt>
      <trkpt lat="44.45553" lon="1.12652">
        <ele>161</ele>
        <time>2009-02-01T10:15:02Z</time>
      </trkpt>
      <trkpt lat="44.45552" lon="1.12657">
        <ele>162</ele>
        <time>2009-02-01T10:15:06Z</time>
      </trkpt>
      <trkpt lat="44.45551" lon="1.12662">
        <ele>162</ele>
        <time>2009-02-01T10:15:09Z</time>
      </trkpt>
      <trkpt lat="44.45548" lon="1.12667">
        <ele>162</ele>
        <time>2009-02-01T10:15:14Z</time>
      </trkpt>
      <trkpt lat="44.45545" lon="1.12671">
        <ele>162</ele>
        <time>2009-02-01T10:15:17Z</time>
      </trkpt>
      <trkpt lat="44.45543" lon="1.12671">
        <ele>162</ele>
        <time>2009-02-01T10:15:20Z</time>
      </trkpt>
      <trkpt lat="44.4554" lon="1.12677">
        <ele>162</ele>
        <time>2009-02-01T10:15:23Z</time>
      </trkpt>
      <trkpt lat="44.45538" lon="1.12682">
        <ele>162</ele>
        <time>2009-02-01T10:15:26Z</time>
      </trkpt>
      <trkpt lat="44.45535" lon="1.12686">
        <ele>162</ele>
        <time>2009-02-01T10:15:29Z</time>
      </trkpt>
      <trkpt lat="44.45532" lon="1.12691">
        <ele>162</ele>
        <time>2009-02-01T10:15:32Z</time>
      </trkpt>
      <trkpt lat="44.45529" lon="1.12693">
        <ele>162</ele>
        <time>2009-02-01T10:15:35Z</time>
      </trkpt>
      <trkpt lat="44.45526" lon="1.12697">
        <ele>164</ele>
        <time>2009-02-01T10:15:38Z</time>
      </trkpt>
      <trkpt lat="44.45525" lon="1.12703">
        <ele>165</ele>
        <time>2009-02-01T10:15:41Z</time>
      </trkpt>
      <trkpt lat="44.45522" lon="1.12711">
        <ele>167</ele>
        <time>2009-02-01T10:15:45Z</time>
      </trkpt>
      <trkpt lat="44.45521" lon="1.12716">
        <ele>169</ele>
        <time>2009-02-01T10:15:48Z</time>
      </trkpt>
      <trkpt lat="44.45518" lon="1.1272">
        <ele>170</ele>
        <time>2009-02-01T10:15:51Z</time>
      </trkpt>
      <trkpt lat="44.45515" lon="1.12725">
        <ele>171</ele>
        <time>2009-02-01T10:15:54Z</time>
      </trkpt>
      <trkpt lat="44.45512" lon="1.12732">
        <ele>171</ele>
        <time>2009-02-01T10:15:59Z</time>
      </trkpt>
      <trkpt lat="44.45508" lon="1.12737">
        <ele>171</ele>
        <time>2009-02-01T10:16:02Z</time>
      </trkpt>
      <trkpt lat="44.45504" lon="1.1274">
        <ele>171</ele>
        <time>2009-02-01T10:16:05Z</time>
      </trkpt>
      <trkpt lat="44.45501" lon="1.12744">
        <ele>171</ele>
        <time>2009-02-01T10:16:08Z</time>
      </trkpt>
      <trkpt lat="44.45497" lon="1.12748">
        <ele>172</ele>
        <time>2009-02-01T10:16:12Z</time>
      </trkpt>
      <trkpt lat="44.45495" lon="1.12753">
        <ele>172</ele>
        <time>2009-02-01T10:16:15Z</time>
      </trkpt>
      <trkpt lat="44.45492" lon="1.12755">
        <ele>172</ele>
        <time>2009-02-01T10:16:18Z</time>
      </trkpt>
      <trkpt lat="44.45489" lon="1.12761">
        <ele>172</ele>
        <time>2009-02-01T10:16:23Z</time>
      </trkpt>
      <trkpt lat="44.45487" lon="1.12766">
        <ele>172</ele>
        <time>2009-02-01T10:16:26Z</time>
      </trkpt>
      <trkpt lat="44.45485" lon="1.1277">
        <ele>172</ele>
        <time>2009-02-01T10:16:29Z</time>
      </trkpt>
      <trkpt lat="44.45484" lon="1.12773">
        <ele>172</ele>
        <time>2009-02-01T10:16:33Z</time>
      </trkpt>
      <trkpt lat="44.45481" lon="1.12779">
        <ele>172</ele>
        <time>2009-02-01T10:16:36Z</time>
      </trkpt>
      <trkpt lat="44.45479" lon="1.12785">
        <ele>172</ele>
        <time>2009-02-01T10:16:39Z</time>
      </trkpt>
      <trkpt lat="44.45478" lon="1.12791">
        <ele>172</ele>
        <time>2009-02-01T10:16:42Z</time>
      </trkpt>
      <trkpt lat="44.45477" lon="1.12797">
        <ele>172</ele>
        <time>2009-02-01T10:16:45Z</time>
      </trkpt>
      <trkpt lat="44.45475" lon="1.12801">
        <ele>172</ele>
        <time>2009-02-01T10:16:48Z</time>
      </trkpt>
      <trkpt lat="44.45472" lon="1.12806">
        <ele>172</ele>
        <time>2009-02-01T10:16:53Z</time>
      </trkpt>
      <trkpt lat="44.45469" lon="1.1281">
        <ele>172</ele>
        <time>2009-02-01T10:16:56Z</time>
      </trkpt>
      <trkpt lat="44.45468" lon="1.12816">
        <ele>172</ele>
        <time>2009-02-01T10:16:59Z</time>
      </trkpt>
      <trkpt lat="44.45466" lon="1.12821">
        <ele>172</ele>
        <time>2009-02-01T10:17:02Z</time>
      </trkpt>
      <trkpt lat="44.45465" lon="1.12823">
        <ele>172</ele>
        <time>2009-02-01T10:17:05Z</time>
      </trkpt>
      <trkpt lat="44.45465" lon="1.12827">
        <ele>172</ele>
        <time>2009-02-01T10:17:08Z</time>
      </trkpt>
      <trkpt lat="44.45465" lon="1.12832">
        <ele>172</ele>
        <time>2009-02-01T10:17:11Z</time>
      </trkpt>
      <trkpt lat="44.45464" lon="1.12837">
        <ele>172</ele>
        <time>2009-02-01T10:17:14Z</time>
      </trkpt>
      <trkpt lat="44.45464" lon="1.12843">
        <ele>172</ele>
        <time>2009-02-01T10:17:18Z</time>
      </trkpt>
      <trkpt lat="44.45462" lon="1.12848">
        <ele>173</ele>
        <time>2009-02-01T10:17:21Z</time>
      </trkpt>
      <trkpt lat="44.4546" lon="1.12854">
        <ele>175</ele>
        <time>2009-02-01T10:17:26Z</time>
      </trkpt>
      <trkpt lat="44.45459" lon="1.12857">
        <ele>176</ele>
        <time>2009-02-01T10:17:29Z</time>
      </trkpt>
      <trkpt lat="44.45455" lon="1.12863">
        <ele>178</ele>
        <time>2009-02-01T10:17:32Z</time>
      </trkpt>
      <trkpt lat="44.45454" lon="1.1287">
        <ele>179</ele>
        <time>2009-02-01T10:17:35Z</time>
      </trkpt>
      <trkpt lat="44.45453" lon="1.12876">
        <ele>179</ele>
        <time>2009-02-01T10:17:38Z</time>
      </trkpt>
      <trkpt lat="44.45453" lon="1.12883">
        <ele>179</ele>
        <time>2009-02-01T10:17:41Z</time>
      </trkpt>
      <trkpt lat="44.45453" lon="1.12889">
        <ele>179</ele>
        <time>2009-02-01T10:17:44Z</time>
      </trkpt>
      <trkpt lat="44.45451" lon="1.12896">
        <ele>179</ele>
        <time>2009-02-01T10:17:48Z</time>
      </trkpt>
      <trkpt lat="44.4545" lon="1.129">
        <ele>179</ele>
        <time>2009-02-01T10:17:51Z</time>
      </trkpt>
      <trkpt lat="44.45448" lon="1.12904">
        <ele>179</ele>
        <time>2009-02-01T10:17:54Z</time>
      </trkpt>
      <trkpt lat="44.45446" lon="1.1291">
        <ele>179</ele>
        <time>2009-02-01T10:17:57Z</time>
      </trkpt>
      <trkpt lat="44.45445" lon="1.12915">
        <ele>179</ele>
        <time>2009-02-01T10:18:00Z</time>
      </trkpt>
      <trkpt lat="44.45445" lon="1.12923">
        <ele>178</ele>
        <time>2009-02-01T10:18:03Z</time>
      </trkpt>
      <trkpt lat="44.45444" lon="1.1293">
        <ele>177</ele>
        <time>2009-02-01T10:18:06Z</time>
      </trkpt>
      <trkpt lat="44.45444" lon="1.12936">
        <ele>176</ele>
        <time>2009-02-01T10:18:09Z</time>
      </trkpt>
      <trkpt lat="44.45444" lon="1.12943">
        <ele>175</ele>
        <time>2009-02-01T10:18:12Z</time>
      </trkpt>
      <trkpt lat="44.45444" lon="1.12949">
        <ele>175</ele>
        <time>2009-02-01T10:18:15Z</time>
      </trkpt>
      <trkpt lat="44.45443" lon="1.12956">
        <ele>175</ele>
        <time>2009-02-01T10:18:18Z</time>
      </trkpt>
      <trkpt lat="44.45442" lon="1.12962">
        <ele>175</ele>
        <time>2009-02-01T10:18:21Z</time>
      </trkpt>
      <trkpt lat="44.45441" lon="1.12966">
        <ele>175</ele>
        <time>2009-02-01T10:18:24Z</time>
      </trkpt>
      <trkpt lat="44.45439" lon="1.12969">
        <ele>175</ele>
        <time>2009-02-01T10:18:29Z</time>
      </trkpt>
      <trkpt lat="44.45435" lon="1.12971">
        <ele>175</ele>
        <time>2009-02-01T10:18:33Z</time>
      </trkpt>
      <trkpt lat="44.45433" lon="1.12971">
        <ele>175</ele>
        <time>2009-02-01T10:18:36Z</time>
      </trkpt>
      <trkpt lat="44.45432" lon="1.12972">
        <ele>176</ele>
        <time>2009-02-01T10:18:41Z</time>
      </trkpt>
      <trkpt lat="44.45429" lon="1.12976">
        <ele>180</ele>
        <time>2009-02-01T10:18:45Z</time>
      </trkpt>
      <trkpt lat="44.45429" lon="1.12983">
        <ele>180</ele>
        <time>2009-02-01T10:18:48Z</time>
      </trkpt>
      <trkpt lat="44.45426" lon="1.1299">
        <ele>180</ele>
        <time>2009-02-01T10:18:53Z</time>
      </trkpt>
      <trkpt lat="44.45424" lon="1.12996">
        <ele>178</ele>
        <time>2009-02-01T10:18:56Z</time>
      </trkpt>
      <trkpt lat="44.45421" lon="1.13001">
        <ele>175</ele>
        <time>2009-02-01T10:18:59Z</time>
      </trkpt>
      <trkpt lat="44.45419" lon="1.13006">
        <ele>172</ele>
        <time>2009-02-01T10:19:02Z</time>
      </trkpt>
      <trkpt lat="44.45418" lon="1.1301">
        <ele>169</ele>
        <time>2009-02-01T10:19:05Z</time>
      </trkpt>
      <trkpt lat="44.45416" lon="1.13013">
        <ele>165</ele>
        <time>2009-02-01T10:19:09Z</time>
      </trkpt>
      <trkpt lat="44.45417" lon="1.13016">
        <ele>163</ele>
        <time>2009-02-01T10:19:12Z</time>
      </trkpt>
      <trkpt lat="44.45415" lon="1.13022">
        <ele>162</ele>
        <time>2009-02-01T10:19:15Z</time>
      </trkpt>
      <trkpt lat="44.45415" lon="1.13026">
        <ele>161</ele>
        <time>2009-02-01T10:19:18Z</time>
      </trkpt>
      <trkpt lat="44.45415" lon="1.13034">
        <ele>161</ele>
        <time>2009-02-01T10:19:21Z</time>
      </trkpt>
      <trkpt lat="44.45413" lon="1.13039">
        <ele>161</ele>
        <time>2009-02-01T10:19:24Z</time>
      </trkpt>
      <trkpt lat="44.45413" lon="1.13045">
        <ele>161</ele>
        <time>2009-02-01T10:19:27Z</time>
      </trkpt>
      <trkpt lat="44.45414" lon="1.1305">
        <ele>161</ele>
        <time>2009-02-01T10:19:30Z</time>
      </trkpt>
      <trkpt lat="44.45413" lon="1.13054">
        <ele>161</ele>
        <time>2009-02-01T10:19:33Z</time>
      </trkpt>
      <trkpt lat="44.45412" lon="1.13058">
        <ele>161</ele>
        <time>2009-02-01T10:19:36Z</time>
      </trkpt>
      <trkpt lat="44.4541" lon="1.13062">
        <ele>161</ele>
        <time>2009-02-01T10:19:39Z</time>
      </trkpt>
      <trkpt lat="44.45409" lon="1.13064">
        <ele>161</ele>
        <time>2009-02-01T10:19:42Z</time>
      </trkpt>
      <trkpt lat="44.45405" lon="1.13063">
        <ele>161</ele>
        <time>2009-02-01T10:19:47Z</time>
      </trkpt>
      <trkpt lat="44.45404" lon="1.13065">
        <ele>162</ele>
        <time>2009-02-01T10:19:50Z</time>
      </trkpt>
      <trkpt lat="44.45403" lon="1.13068">
        <ele>162</ele>
        <time>2009-02-01T10:19:54Z</time>
      </trkpt>
      <trkpt lat="44.45402" lon="1.13069">
        <ele>162</ele>
        <time>2009-02-01T10:19:57Z</time>
      </trkpt>
      <trkpt lat="44.454" lon="1.13072">
        <ele>162</ele>
        <time>2009-02-01T10:20:02Z</time>
      </trkpt>
      <trkpt lat="44.45398" lon="1.13075">
        <ele>164</ele>
        <time>2009-02-01T10:20:06Z</time>
      </trkpt>
      <trkpt lat="44.45397" lon="1.13077">
        <ele>165</ele>
        <time>2009-02-01T10:20:09Z</time>
      </trkpt>
      <trkpt lat="44.45398" lon="1.13079">
        <ele>166</ele>
        <time>2009-02-01T10:20:12Z</time>
      </trkpt>
      <trkpt lat="44.45398" lon="1.1308">
        <ele>167</ele>
        <time>2009-02-01T10:20:15Z</time>
      </trkpt>
      <trkpt lat="44.45397" lon="1.13082">
        <ele>168</ele>
        <time>2009-02-01T10:20:23Z</time>
      </trkpt>
      <trkpt lat="44.45398" lon="1.1308">
        <ele>169</ele>
        <time>2009-02-01T10:20:26Z</time>
      </trkpt>
      <trkpt lat="44.45398" lon="1.13082">
        <ele>172</ele>
        <time>2009-02-01T10:20:36Z</time>
      </trkpt>
      <trkpt lat="44.45397" lon="1.13087">
        <ele>172</ele>
        <time>2009-02-01T10:20:39Z</time>
      </trkpt>
      <trkpt lat="44.45398" lon="1.13091">
        <ele>172</ele>
        <time>2009-02-01T10:20:48Z</time>
      </trkpt>
      <trkpt lat="44.45398" lon="1.13093">
        <ele>172</ele>
        <time>2009-02-01T10:20:51Z</time>
      </trkpt>
      <trkpt lat="44.45399" lon="1.13093">
        <ele>172</ele>
        <time>2009-02-01T10:20:54Z</time>
      </trkpt>
      <trkpt lat="44.45402" lon="1.13096">
        <ele>172</ele>
        <time>2009-02-01T10:20:59Z</time>
      </trkpt>
      <trkpt lat="44.45406" lon="1.13102">
        <ele>172</ele>
        <time>2009-02-01T10:21:02Z</time>
      </trkpt>
      <trkpt lat="44.45407" lon="1.13106">
        <ele>172</ele>
        <time>2009-02-01T10:21:05Z</time>
      </trkpt>
      <trkpt lat="44.45409" lon="1.13111">
        <ele>173</ele>
        <time>2009-02-01T10:21:09Z</time>
      </trkpt>
      <trkpt lat="44.45412" lon="1.13116">
        <ele>174</ele>
        <time>2009-02-01T10:21:12Z</time>
      </trkpt>
      <trkpt lat="44.45412" lon="1.1312">
        <ele>175</ele>
        <time>2009-02-01T10:21:17Z</time>
      </trkpt>
      <trkpt lat="44.45414" lon="1.13126">
        <ele>176</ele>
        <time>2009-02-01T10:21:20Z</time>
      </trkpt>
      <trkpt lat="44.45415" lon="1.1313">
        <ele>176</ele>
        <time>2009-02-01T10:21:23Z</time>
      </trkpt>
      <trkpt lat="44.45417" lon="1.13136">
        <ele>178</ele>
        <time>2009-02-01T10:21:26Z</time>
      </trkpt>
      <trkpt lat="44.45419" lon="1.13143">
        <ele>180</ele>
        <time>2009-02-01T10:21:29Z</time>
      </trkpt>
      <trkpt lat="44.4542" lon="1.13149">
        <ele>181</ele>
        <time>2009-02-01T10:21:32Z</time>
      </trkpt>
      <trkpt lat="44.45422" lon="1.13152">
        <ele>182</ele>
        <time>2009-02-01T10:21:35Z</time>
      </trkpt>
      <trkpt lat="44.45423" lon="1.13158">
        <ele>184</ele>
        <time>2009-02-01T10:21:39Z</time>
      </trkpt>
      <trkpt lat="44.45423" lon="1.13163">
        <ele>185</ele>
        <time>2009-02-01T10:21:42Z</time>
      </trkpt>
      <trkpt lat="44.45424" lon="1.13169">
        <ele>187</ele>
        <time>2009-02-01T10:21:45Z</time>
      </trkpt>
      <trkpt lat="44.45424" lon="1.13174">
        <ele>190</ele>
        <time>2009-02-01T10:21:48Z</time>
      </trkpt>
      <trkpt lat="44.45422" lon="1.1318">
        <ele>191</ele>
        <time>2009-02-01T10:21:51Z</time>
      </trkpt>
      <trkpt lat="44.45422" lon="1.13186">
        <ele>191</ele>
        <time>2009-02-01T10:21:54Z</time>
      </trkpt>
      <trkpt lat="44.45423" lon="1.13192">
        <ele>193</ele>
        <time>2009-02-01T10:21:57Z</time>
      </trkpt>
      <trkpt lat="44.45423" lon="1.13196">
        <ele>196</ele>
        <time>2009-02-01T10:22:00Z</time>
      </trkpt>
      <trkpt lat="44.45425" lon="1.13203">
        <ele>199</ele>
        <time>2009-02-01T10:22:03Z</time>
      </trkpt>
      <trkpt lat="44.45425" lon="1.13211">
        <ele>203</ele>
        <time>2009-02-01T10:22:08Z</time>
      </trkpt>
      <trkpt lat="44.45423" lon="1.13216">
        <ele>206</ele>
        <time>2009-02-01T10:22:11Z</time>
      </trkpt>
      <trkpt lat="44.45422" lon="1.13222">
        <ele>207</ele>
        <time>2009-02-01T10:22:14Z</time>
      </trkpt>
      <trkpt lat="44.45419" lon="1.13228">
        <ele>207</ele>
        <time>2009-02-01T10:22:17Z</time>
      </trkpt>
      <trkpt lat="44.45417" lon="1.13233">
        <ele>207</ele>
        <time>2009-02-01T10:22:20Z</time>
      </trkpt>
      <trkpt lat="44.45415" lon="1.13237">
        <ele>207</ele>
        <time>2009-02-01T10:22:23Z</time>
      </trkpt>
      <trkpt lat="44.45412" lon="1.13242">
        <ele>207</ele>
        <time>2009-02-01T10:22:27Z</time>
      </trkpt>
      <trkpt lat="44.45412" lon="1.13247">
        <ele>206</ele>
        <time>2009-02-01T10:22:30Z</time>
      </trkpt>
      <trkpt lat="44.4541" lon="1.13252">
        <ele>206</ele>
        <time>2009-02-01T10:22:33Z</time>
      </trkpt>
      <trkpt lat="44.45408" lon="1.13258">
        <ele>206</ele>
        <time>2009-02-01T10:22:38Z</time>
      </trkpt>
      <trkpt lat="44.45407" lon="1.13264">
        <ele>203</ele>
        <time>2009-02-01T10:22:41Z</time>
      </trkpt>
      <trkpt lat="44.45406" lon="1.1327">
        <ele>202</ele>
        <time>2009-02-01T10:22:47Z</time>
      </trkpt>
      <trkpt lat="44.45407" lon="1.13275">
        <ele>202</ele>
        <time>2009-02-01T10:22:50Z</time>
      </trkpt>
      <trkpt lat="44.45407" lon="1.1328">
        <ele>202</ele>
        <time>2009-02-01T10:22:53Z</time>
      </trkpt>
      <trkpt lat="44.45407" lon="1.13287">
        <ele>202</ele>
        <time>2009-02-01T10:22:57Z</time>
      </trkpt>
      <trkpt lat="44.45405" lon="1.13292">
        <ele>202</ele>
        <time>2009-02-01T10:23:00Z</time>
      </trkpt>
      <trkpt lat="44.45406" lon="1.13298">
        <ele>202</ele>
        <time>2009-02-01T10:23:03Z</time>
      </trkpt>
      <trkpt lat="44.45405" lon="1.13304">
        <ele>202</ele>
        <time>2009-02-01T10:23:08Z</time>
      </trkpt>
      <trkpt lat="44.45405" lon="1.13309">
        <ele>202</ele>
        <time>2009-02-01T10:23:11Z</time>
      </trkpt>
      <trkpt lat="44.45404" lon="1.13313">
        <ele>202</ele>
        <time>2009-02-01T10:23:14Z</time>
      </trkpt>
      <trkpt lat="44.45404" lon="1.13316">
        <ele>202</ele>
        <time>2009-02-01T10:23:17Z</time>
      </trkpt>
      <trkpt lat="44.45403" lon="1.13321">
        <ele>202</ele>
        <time>2009-02-01T10:23:23Z</time>
      </trkpt>
      <trkpt lat="44.45403" lon="1.13326">
        <ele>202</ele>
        <time>2009-02-01T10:23:26Z</time>
      </trkpt>
      <trkpt lat="44.45403" lon="1.13331">
        <ele>202</ele>
        <time>2009-02-01T10:23:29Z</time>
      </trkpt>
      <trkpt lat="44.45403" lon="1.13338">
        <ele>202</ele>
        <time>2009-02-01T10:23:35Z</time>
      </trkpt>
      <trkpt lat="44.45403" lon="1.13344">
        <ele>202</ele>
        <time>2009-02-01T10:23:38Z</time>
      </trkpt>
      <trkpt lat="44.45403" lon="1.13349">
        <ele>202</ele>
        <time>2009-02-01T10:23:41Z</time>
      </trkpt>
      <trkpt lat="44.45404" lon="1.13354">
        <ele>202</ele>
        <time>2009-02-01T10:23:44Z</time>
      </trkpt>
      <trkpt lat="44.45406" lon="1.13359">
        <ele>203</ele>
        <time>2009-02-01T10:23:47Z</time>
      </trkpt>
      <trkpt lat="44.45406" lon="1.13363">
        <ele>205</ele>
        <time>2009-02-01T10:23:50Z</time>
      </trkpt>
      <trkpt lat="44.45406" lon="1.13368">
        <ele>205</ele>
        <time>2009-02-01T10:23:53Z</time>
      </trkpt>
      <trkpt lat="44.45407" lon="1.13372">
        <ele>205</ele>
        <time>2009-02-01T10:23:56Z</time>
      </trkpt>
      <trkpt lat="44.45407" lon="1.13377">
        <ele>205</ele>
        <time>2009-02-01T10:23:59Z</time>
      </trkpt>
      <trkpt lat="44.45409" lon="1.13385">
        <ele>205</ele>
        <time>2009-02-01T10:24:03Z</time>
      </trkpt>
      <trkpt lat="44.4541" lon="1.13388">
        <ele>205</ele>
        <time>2009-02-01T10:24:06Z</time>
      </trkpt>
      <trkpt lat="44.45411" lon="1.13394">
        <ele>205</ele>
        <time>2009-02-01T10:24:11Z</time>
      </trkpt>
      <trkpt lat="44.45412" lon="1.13399">
        <ele>205</ele>
        <time>2009-02-01T10:24:14Z</time>
      </trkpt>
      <trkpt lat="44.45411" lon="1.13404">
        <ele>205</ele>
        <time>2009-02-01T10:24:18Z</time>
      </trkpt>
      <trkpt lat="44.45414" lon="1.13407">
        <ele>207</ele>
        <time>2009-02-01T10:24:23Z</time>
      </trkpt>
      <trkpt lat="44.45415" lon="1.13409">
        <ele>207</ele>
        <time>2009-02-01T10:24:26Z</time>
      </trkpt>
      <trkpt lat="44.45415" lon="1.13412">
        <ele>207</ele>
        <time>2009-02-01T10:24:29Z</time>
      </trkpt>
      <trkpt lat="44.45418" lon="1.13414">
        <ele>207</ele>
        <time>2009-02-01T10:24:35Z</time>
      </trkpt>
      <trkpt lat="44.4542" lon="1.13417">
        <ele>207</ele>
        <time>2009-02-01T10:24:38Z</time>
      </trkpt>
      <trkpt lat="44.45423" lon="1.13422">
        <ele>207</ele>
        <time>2009-02-01T10:24:42Z</time>
      </trkpt>
      <trkpt lat="44.45424" lon="1.13424">
        <ele>205</ele>
        <time>2009-02-01T10:24:47Z</time>
      </trkpt>
      <trkpt lat="44.45427" lon="1.13426">
        <ele>204</ele>
        <time>2009-02-01T10:24:51Z</time>
      </trkpt>
      <trkpt lat="44.45428" lon="1.13427">
        <ele>204</ele>
        <time>2009-02-01T10:24:54Z</time>
      </trkpt>
      <trkpt lat="44.45431" lon="1.1343">
        <ele>204</ele>
        <time>2009-02-01T10:25:00Z</time>
      </trkpt>
      <trkpt lat="44.45434" lon="1.13434">
        <ele>204</ele>
        <time>2009-02-01T10:25:05Z</time>
      </trkpt>
      <trkpt lat="44.45436" lon="1.13439">
        <ele>204</ele>
        <time>2009-02-01T10:25:08Z</time>
      </trkpt>
      <trkpt lat="44.45439" lon="1.13442">
        <ele>204</ele>
        <time>2009-02-01T10:25:12Z</time>
      </trkpt>
      <trkpt lat="44.45441" lon="1.13446">
        <ele>204</ele>
        <time>2009-02-01T10:25:17Z</time>
      </trkpt>
      <trkpt lat="44.45444" lon="1.1345">
        <ele>203</ele>
        <time>2009-02-01T10:25:20Z</time>
      </trkpt>
      <trkpt lat="44.45447" lon="1.13452">
        <ele>200</ele>
        <time>2009-02-01T10:25:24Z</time>
      </trkpt>
      <trkpt lat="44.45449" lon="1.13456">
        <ele>199</ele>
        <time>2009-02-01T10:25:29Z</time>
      </trkpt>
      <trkpt lat="44.45451" lon="1.1346">
        <ele>199</ele>
        <time>2009-02-01T10:25:33Z</time>
      </trkpt>
      <trkpt lat="44.45452" lon="1.13464">
        <ele>199</ele>
        <time>2009-02-01T10:25:38Z</time>
      </trkpt>
      <trkpt lat="44.45454" lon="1.13465">
        <ele>199</ele>
        <time>2009-02-01T10:25:41Z</time>
      </trkpt>
      <trkpt lat="44.45455" lon="1.13464">
        <ele>199</ele>
        <time>2009-02-01T10:25:44Z</time>
      </trkpt>
      <trkpt lat="44.45455" lon="1.13466">
        <ele>199</ele>
        <time>2009-02-01T10:25:51Z</time>
      </trkpt>
      <trkpt lat="44.45457" lon="1.1347">
        <ele>199</ele>
        <time>2009-02-01T10:25:54Z</time>
      </trkpt>
      <trkpt lat="44.45459" lon="1.13474">
        <ele>199</ele>
        <time>2009-02-01T10:25:57Z</time>
      </trkpt>
      <trkpt lat="44.45461" lon="1.13479">
        <ele>199</ele>
        <time>2009-02-01T10:26:00Z</time>
      </trkpt>
      <trkpt lat="44.45463" lon="1.13484">
        <ele>199</ele>
        <time>2009-02-01T10:26:03Z</time>
      </trkpt>
      <trkpt lat="44.45465" lon="1.13489">
        <ele>199</ele>
        <time>2009-02-01T10:26:06Z</time>
      </trkpt>
      <trkpt lat="44.45468" lon="1.13495">
        <ele>199</ele>
        <time>2009-02-01T10:26:09Z</time>
      </trkpt>
      <trkpt lat="44.45471" lon="1.135">
        <ele>199</ele>
        <time>2009-02-01T10:26:12Z</time>
      </trkpt>
      <trkpt lat="44.45474" lon="1.13505">
        <ele>200</ele>
        <time>2009-02-01T10:26:17Z</time>
      </trkpt>
      <trkpt lat="44.45477" lon="1.13512">
        <ele>201</ele>
        <time>2009-02-01T10:26:20Z</time>
      </trkpt>
      <trkpt lat="44.45479" lon="1.13516">
        <ele>202</ele>
        <time>2009-02-01T10:26:23Z</time>
      </trkpt>
      <trkpt lat="44.45481" lon="1.1352">
        <ele>203</ele>
        <time>2009-02-01T10:26:26Z</time>
      </trkpt>
      <trkpt lat="44.45484" lon="1.13524">
        <ele>206</ele>
        <time>2009-02-01T10:26:29Z</time>
      </trkpt>
      <trkpt lat="44.45487" lon="1.1353">
        <ele>207</ele>
        <time>2009-02-01T10:26:33Z</time>
      </trkpt>
      <trkpt lat="44.45491" lon="1.13532">
        <ele>208</ele>
        <time>2009-02-01T10:26:36Z</time>
      </trkpt>
      <trkpt lat="44.45495" lon="1.13529">
        <ele>209</ele>
        <time>2009-02-01T10:26:41Z</time>
      </trkpt>
      <trkpt lat="44.45499" lon="1.1353">
        <ele>211</ele>
        <time>2009-02-01T10:26:45Z</time>
      </trkpt>
      <trkpt lat="44.45502" lon="1.13532">
        <ele>212</ele>
        <time>2009-02-01T10:26:50Z</time>
      </trkpt>
      <trkpt lat="44.45505" lon="1.13535">
        <ele>213</ele>
        <time>2009-02-01T10:26:53Z</time>
      </trkpt>
      <trkpt lat="44.45509" lon="1.13537">
        <ele>213</ele>
        <time>2009-02-01T10:26:57Z</time>
      </trkpt>
      <trkpt lat="44.45513" lon="1.13541">
        <ele>213</ele>
        <time>2009-02-01T10:27:02Z</time>
      </trkpt>
      <trkpt lat="44.45517" lon="1.13544">
        <ele>213</ele>
        <time>2009-02-01T10:27:05Z</time>
      </trkpt>
      <trkpt lat="44.4552" lon="1.13548">
        <ele>213</ele>
        <time>2009-02-01T10:27:09Z</time>
      </trkpt>
      <trkpt lat="44.45524" lon="1.13551">
        <ele>213</ele>
        <time>2009-02-01T10:27:14Z</time>
      </trkpt>
      <trkpt lat="44.45527" lon="1.13555">
        <ele>213</ele>
        <time>2009-02-01T10:27:17Z</time>
      </trkpt>
      <trkpt lat="44.4553" lon="1.13558">
        <ele>213</ele>
        <time>2009-02-01T10:27:21Z</time>
      </trkpt>
      <trkpt lat="44.45533" lon="1.13562">
        <ele>213</ele>
        <time>2009-02-01T10:27:26Z</time>
      </trkpt>
      <trkpt lat="44.45536" lon="1.13565">
        <ele>213</ele>
        <time>2009-02-01T10:27:29Z</time>
      </trkpt>
      <trkpt lat="44.45539" lon="1.13569">
        <ele>214</ele>
        <time>2009-02-01T10:27:33Z</time>
      </trkpt>
      <trkpt lat="44.45541" lon="1.13574">
        <ele>215</ele>
        <time>2009-02-01T10:27:38Z</time>
      </trkpt>
      <trkpt lat="44.45542" lon="1.13578">
        <ele>216</ele>
        <time>2009-02-01T10:27:41Z</time>
      </trkpt>
      <trkpt lat="44.45546" lon="1.13579">
        <ele>218</ele>
        <time>2009-02-01T10:27:44Z</time>
      </trkpt>
      <trkpt lat="44.45548" lon="1.13584">
        <ele>219</ele>
        <time>2009-02-01T10:27:48Z</time>
      </trkpt>
      <trkpt lat="44.4555" lon="1.13589">
        <ele>221</ele>
        <time>2009-02-01T10:27:53Z</time>
      </trkpt>
      <trkpt lat="44.45554" lon="1.1359">
        <ele>222</ele>
        <time>2009-02-01T10:27:56Z</time>
      </trkpt>
      <trkpt lat="44.45556" lon="1.13593">
        <ele>223</ele>
        <time>2009-02-01T10:28:00Z</time>
      </trkpt>
      <trkpt lat="44.4556" lon="1.13596">
        <ele>224</ele>
        <time>2009-02-01T10:28:05Z</time>
      </trkpt>
      <trkpt lat="44.45564" lon="1.136">
        <ele>224</ele>
        <time>2009-02-01T10:28:08Z</time>
      </trkpt>
      <trkpt lat="44.45567" lon="1.13604">
        <ele>225</ele>
        <time>2009-02-01T10:28:12Z</time>
      </trkpt>
      <trkpt lat="44.45568" lon="1.1361">
        <ele>225</ele>
        <time>2009-02-01T10:28:15Z</time>
      </trkpt>
      <trkpt lat="44.4557" lon="1.13616">
        <ele>226</ele>
        <time>2009-02-01T10:28:18Z</time>
      </trkpt>
      <trkpt lat="44.45572" lon="1.13625">
        <ele>226</ele>
        <time>2009-02-01T10:28:21Z</time>
      </trkpt>
      <trkpt lat="44.45572" lon="1.13631">
        <ele>226</ele>
        <time>2009-02-01T10:28:24Z</time>
      </trkpt>
      <trkpt lat="44.4557" lon="1.13635">
        <ele>226</ele>
        <time>2009-02-01T10:28:29Z</time>
      </trkpt>
      <trkpt lat="44.45567" lon="1.13636">
        <ele>226</ele>
        <time>2009-02-01T10:28:32Z</time>
      </trkpt>
      <trkpt lat="44.45563" lon="1.13641">
        <ele>226</ele>
        <time>2009-02-01T10:28:35Z</time>
      </trkpt>
      <trkpt lat="44.4556" lon="1.13644">
        <ele>226</ele>
        <time>2009-02-01T10:28:38Z</time>
      </trkpt>
      <trkpt lat="44.45557" lon="1.13646">
        <ele>226</ele>
        <time>2009-02-01T10:28:42Z</time>
      </trkpt>
      <trkpt lat="44.45553" lon="1.1365">
        <ele>226</ele>
        <time>2009-02-01T10:28:47Z</time>
      </trkpt>
      <trkpt lat="44.4555" lon="1.13654">
        <ele>226</ele>
        <time>2009-02-01T10:28:50Z</time>
      </trkpt>
      <trkpt lat="44.45546" lon="1.13657">
        <ele>226</ele>
        <time>2009-02-01T10:28:54Z</time>
      </trkpt>
      <trkpt lat="44.45544" lon="1.13661">
        <ele>226</ele>
        <time>2009-02-01T10:28:59Z</time>
      </trkpt>
      <trkpt lat="44.45541" lon="1.13663">
        <ele>226</ele>
        <time>2009-02-01T10:29:02Z</time>
      </trkpt>
      <trkpt lat="44.45536" lon="1.13668">
        <ele>226</ele>
        <time>2009-02-01T10:29:05Z</time>
      </trkpt>
      <trkpt lat="44.45531" lon="1.13671">
        <ele>226</ele>
        <time>2009-02-01T10:29:08Z</time>
      </trkpt>
      <trkpt lat="44.45526" lon="1.13675">
        <ele>226</ele>
        <time>2009-02-01T10:29:11Z</time>
      </trkpt>
      <trkpt lat="44.4552" lon="1.13679">
        <ele>226</ele>
        <time>2009-02-01T10:29:14Z</time>
      </trkpt>
      <trkpt lat="44.45513" lon="1.13682">
        <ele>226</ele>
        <time>2009-02-01T10:29:17Z</time>
      </trkpt>
      <trkpt lat="44.45506" lon="1.13686">
        <ele>226</ele>
        <time>2009-02-01T10:29:20Z</time>
      </trkpt>
      <trkpt lat="44.45499" lon="1.1369">
        <ele>226</ele>
        <time>2009-02-01T10:29:23Z</time>
      </trkpt>
      <trkpt lat="44.45493" lon="1.13694">
        <ele>226</ele>
        <time>2009-02-01T10:29:26Z</time>
      </trkpt>
      <trkpt lat="44.45487" lon="1.13696">
        <ele>226</ele>
        <time>2009-02-01T10:29:29Z</time>
      </trkpt>
      <trkpt lat="44.4548" lon="1.13701">
        <ele>226</ele>
        <time>2009-02-01T10:29:32Z</time>
      </trkpt>
      <trkpt lat="44.45472" lon="1.13705">
        <ele>226</ele>
        <time>2009-02-01T10:29:35Z</time>
      </trkpt>
      <trkpt lat="44.45464" lon="1.13709">
        <ele>226</ele>
        <time>2009-02-01T10:29:38Z</time>
      </trkpt>
      <trkpt lat="44.45454" lon="1.13712">
        <ele>226</ele>
        <time>2009-02-01T10:29:41Z</time>
      </trkpt>
      <trkpt lat="44.45445" lon="1.13715">
        <ele>226</ele>
        <time>2009-02-01T10:29:44Z</time>
      </trkpt>
      <trkpt lat="44.45434" lon="1.13716">
        <ele>226</ele>
        <time>2009-02-01T10:29:47Z</time>
      </trkpt>
      <trkpt lat="44.45424" lon="1.13715">
        <ele>226</ele>
        <time>2009-02-01T10:29:50Z</time>
      </trkpt>
      <trkpt lat="44.45412" lon="1.13713">
        <ele>226</ele>
        <time>2009-02-01T10:29:53Z</time>
      </trkpt>
      <trkpt lat="44.454" lon="1.13711">
        <ele>226</ele>
        <time>2009-02-01T10:29:56Z</time>
      </trkpt>
      <trkpt lat="44.45389" lon="1.13708">
        <ele>226</ele>
        <time>2009-02-01T10:29:59Z</time>
      </trkpt>
      <trkpt lat="44.45376" lon="1.13706">
        <ele>225</ele>
        <time>2009-02-01T10:30:02Z</time>
      </trkpt>
      <trkpt lat="44.45362" lon="1.13703">
        <ele>224</ele>
        <time>2009-02-01T10:30:05Z</time>
      </trkpt>
      <trkpt lat="44.45346" lon="1.137">
        <ele>223</ele>
        <time>2009-02-01T10:30:08Z</time>
      </trkpt>
      <trkpt lat="44.45331" lon="1.13697">
        <ele>222</ele>
        <time>2009-02-01T10:30:11Z</time>
      </trkpt>
      <trkpt lat="44.45317" lon="1.13694">
        <ele>222</ele>
        <time>2009-02-01T10:30:14Z</time>
      </trkpt>
      <trkpt lat="44.45304" lon="1.13692">
        <ele>222</ele>
        <time>2009-02-01T10:30:17Z</time>
      </trkpt>
      <trkpt lat="44.45292" lon="1.1369">
        <ele>222</ele>
        <time>2009-02-01T10:30:20Z</time>
      </trkpt>
      <trkpt lat="44.45282" lon="1.13689">
        <ele>222</ele>
        <time>2009-02-01T10:30:23Z</time>
      </trkpt>
      <trkpt lat="44.45273" lon="1.13688">
        <ele>222</ele>
        <time>2009-02-01T10:30:26Z</time>
      </trkpt>
      <trkpt lat="44.45265" lon="1.13687">
        <ele>222</ele>
        <time>2009-02-01T10:30:29Z</time>
      </trkpt>
      <trkpt lat="44.45258" lon="1.13685">
        <ele>222</ele>
        <time>2009-02-01T10:30:32Z</time>
      </trkpt>
      <trkpt lat="44.4525" lon="1.13684">
        <ele>222</ele>
        <time>2009-02-01T10:30:36Z</time>
      </trkpt>
      <trkpt lat="44.45244" lon="1.13683">
        <ele>222</ele>
        <time>2009-02-01T10:30:39Z</time>
      </trkpt>
      <trkpt lat="44.45238" lon="1.13681">
        <ele>222</ele>
        <time>2009-02-01T10:30:42Z</time>
      </trkpt>
      <trkpt lat="44.45229" lon="1.1368">
        <ele>222</ele>
        <time>2009-02-01T10:30:45Z</time>
      </trkpt>
      <trkpt lat="44.4522" lon="1.13678">
        <ele>222</ele>
        <time>2009-02-01T10:30:48Z</time>
      </trkpt>
      <trkpt lat="44.45209" lon="1.13677">
        <ele>222</ele>
        <time>2009-02-01T10:30:53Z</time>
      </trkpt>
      <trkpt lat="44.45201" lon="1.13677">
        <ele>222</ele>
        <time>2009-02-01T10:30:56Z</time>
      </trkpt>
      <trkpt lat="44.45193" lon="1.13676">
        <ele>222</ele>
        <time>2009-02-01T10:30:59Z</time>
      </trkpt>
      <trkpt lat="44.45184" lon="1.13676">
        <ele>222</ele>
        <time>2009-02-01T10:31:02Z</time>
      </trkpt>
      <trkpt lat="44.45175" lon="1.13676">
        <ele>222</ele>
        <time>2009-02-01T10:31:05Z</time>
      </trkpt>
      <trkpt lat="44.45166" lon="1.13676">
        <ele>222</ele>
        <time>2009-02-01T10:31:08Z</time>
      </trkpt>
      <trkpt lat="44.45158" lon="1.13675">
        <ele>222</ele>
        <time>2009-02-01T10:31:11Z</time>
      </trkpt>
      <trkpt lat="44.4515" lon="1.13676">
        <ele>222</ele>
        <time>2009-02-01T10:31:14Z</time>
      </trkpt>
      <trkpt lat="44.45142" lon="1.13675">
        <ele>222</ele>
        <time>2009-02-01T10:31:17Z</time>
      </trkpt>
      <trkpt lat="44.45135" lon="1.13674">
        <ele>222</ele>
        <time>2009-02-01T10:31:20Z</time>
      </trkpt>
      <trkpt lat="44.45128" lon="1.13673">
        <ele>222</ele>
        <time>2009-02-01T10:31:23Z</time>
      </trkpt>
      <trkpt lat="44.45121" lon="1.13673">
        <ele>222</ele>
        <time>2009-02-01T10:31:26Z</time>
      </trkpt>
      <trkpt lat="44.45113" lon="1.13673">
        <ele>222</ele>
        <time>2009-02-01T10:31:29Z</time>
      </trkpt>
      <trkpt lat="44.45105" lon="1.13672">
        <ele>222</ele>
        <time>2009-02-01T10:31:32Z</time>
      </trkpt>
      <trkpt lat="44.45098" lon="1.13672">
        <ele>222</ele>
        <time>2009-02-01T10:31:35Z</time>
      </trkpt>
      <trkpt lat="44.45091" lon="1.13671">
        <ele>222</ele>
        <time>2009-02-01T10:31:38Z</time>
      </trkpt>
      <trkpt lat="44.45084" lon="1.13671">
        <ele>222</ele>
        <time>2009-02-01T10:31:41Z</time>
      </trkpt>
      <trkpt lat="44.45077" lon="1.1367">
        <ele>222</ele>
        <time>2009-02-01T10:31:44Z</time>
      </trkpt>
      <trkpt lat="44.4507" lon="1.13669">
        <ele>222</ele>
        <time>2009-02-01T10:31:47Z</time>
      </trkpt>
      <trkpt lat="44.45063" lon="1.13668">
        <ele>222</ele>
        <time>2009-02-01T10:31:50Z</time>
      </trkpt>
      <trkpt lat="44.45056" lon="1.13667">
        <ele>222</ele>
        <time>2009-02-01T10:31:53Z</time>
      </trkpt>
      <trkpt lat="44.45049" lon="1.13667">
        <ele>222</ele>
        <time>2009-02-01T10:31:56Z</time>
      </trkpt>
      <trkpt lat="44.45042" lon="1.13665">
        <ele>222</ele>
        <time>2009-02-01T10:31:59Z</time>
      </trkpt>
      <trkpt lat="44.45036" lon="1.13664">
        <ele>222</ele>
        <time>2009-02-01T10:32:02Z</time>
      </trkpt>
      <trkpt lat="44.45028" lon="1.13662">
        <ele>222</ele>
        <time>2009-02-01T10:32:05Z</time>
      </trkpt>
      <trkpt lat="44.45021" lon="1.13661">
        <ele>223</ele>
        <time>2009-02-01T10:32:08Z</time>
      </trkpt>
      <trkpt lat="44.45014" lon="1.13659">
        <ele>223</ele>
        <time>2009-02-01T10:32:11Z</time>
      </trkpt>
      <trkpt lat="44.45008" lon="1.13658">
        <ele>223</ele>
        <time>2009-02-01T10:32:14Z</time>
      </trkpt>
      <trkpt lat="44.45" lon="1.13655">
        <ele>223</ele>
        <time>2009-02-01T10:32:17Z</time>
      </trkpt>
      <trkpt lat="44.44993" lon="1.13651">
        <ele>223</ele>
        <time>2009-02-01T10:32:20Z</time>
      </trkpt>
      <trkpt lat="44.44984" lon="1.13647">
        <ele>223</ele>
        <time>2009-02-01T10:32:23Z</time>
      </trkpt>
      <trkpt lat="44.44975" lon="1.13644">
        <ele>223</ele>
        <time>2009-02-01T10:32:26Z</time>
      </trkpt>
      <trkpt lat="44.44966" lon="1.1364">
        <ele>223</ele>
        <time>2009-02-01T10:32:29Z</time>
      </trkpt>
      <trkpt lat="44.44957" lon="1.13637">
        <ele>223</ele>
        <time>2009-02-01T10:32:32Z</time>
      </trkpt>
      <trkpt lat="44.44948" lon="1.13633">
        <ele>223</ele>
        <time>2009-02-01T10:32:35Z</time>
      </trkpt>
      <trkpt lat="44.44938" lon="1.13627">
        <ele>223</ele>
        <time>2009-02-01T10:32:38Z</time>
      </trkpt>
      <trkpt lat="44.44927" lon="1.13623">
        <ele>223</ele>
        <time>2009-02-01T10:32:41Z</time>
      </trkpt>
      <trkpt lat="44.44916" lon="1.13617">
        <ele>223</ele>
        <time>2009-02-01T10:32:44Z</time>
      </trkpt>
      <trkpt lat="44.44903" lon="1.1361">
        <ele>223</ele>
        <time>2009-02-01T10:32:47Z</time>
      </trkpt>
      <trkpt lat="44.44891" lon="1.13604">
        <ele>223</ele>
        <time>2009-02-01T10:32:50Z</time>
      </trkpt>
      <trkpt lat="44.44876" lon="1.13593">
        <ele>223</ele>
        <time>2009-02-01T10:32:53Z</time>
      </trkpt>
      <trkpt lat="44.44866" lon="1.13585">
        <ele>223</ele>
        <time>2009-02-01T10:32:56Z</time>
      </trkpt>
      <trkpt lat="44.44857" lon="1.13575">
        <ele>223</ele>
        <time>2009-02-01T10:32:59Z</time>
      </trkpt>
      <trkpt lat="44.44849" lon="1.13564">
        <ele>223</ele>
        <time>2009-02-01T10:33:02Z</time>
      </trkpt>
      <trkpt lat="44.44843" lon="1.13553">
        <ele>223</ele>
        <time>2009-02-01T10:33:05Z</time>
      </trkpt>
      <trkpt lat="44.44836" lon="1.13539">
        <ele>223</ele>
        <time>2009-02-01T10:33:09Z</time>
      </trkpt>
      <trkpt lat="44.44831" lon="1.13529">
        <ele>223</ele>
        <time>2009-02-01T10:33:12Z</time>
      </trkpt>
      <trkpt lat="44.44827" lon="1.13519">
        <ele>223</ele>
        <time>2009-02-01T10:33:15Z</time>
      </trkpt>
      <trkpt lat="44.44822" lon="1.1351">
        <ele>223</ele>
        <time>2009-02-01T10:33:18Z</time>
      </trkpt>
      <trkpt lat="44.44817" lon="1.135">
        <ele>223</ele>
        <time>2009-02-01T10:33:21Z</time>
      </trkpt>
      <trkpt lat="44.44813" lon="1.1349">
        <ele>223</ele>
        <time>2009-02-01T10:33:24Z</time>
      </trkpt>
      <trkpt lat="44.4481" lon="1.13482">
        <ele>223</ele>
        <time>2009-02-01T10:33:27Z</time>
      </trkpt>
      <trkpt lat="44.44809" lon="1.13474">
        <ele>223</ele>
        <time>2009-02-01T10:33:30Z</time>
      </trkpt>
      <trkpt lat="44.44807" lon="1.13466">
        <ele>223</ele>
        <time>2009-02-01T10:33:33Z</time>
      </trkpt>
      <trkpt lat="44.44804" lon="1.13457">
        <ele>223</ele>
        <time>2009-02-01T10:33:36Z</time>
      </trkpt>
      <trkpt lat="44.44803" lon="1.13446">
        <ele>223</ele>
        <time>2009-02-01T10:33:39Z</time>
      </trkpt>
      <trkpt lat="44.44802" lon="1.13435">
        <ele>223</ele>
        <time>2009-02-01T10:33:42Z</time>
      </trkpt>
      <trkpt lat="44.44802" lon="1.13424">
        <ele>224</ele>
        <time>2009-02-01T10:33:45Z</time>
      </trkpt>
      <trkpt lat="44.44803" lon="1.13414">
        <ele>224</ele>
        <time>2009-02-01T10:33:48Z</time>
      </trkpt>
      <trkpt lat="44.44804" lon="1.13404">
        <ele>225</ele>
        <time>2009-02-01T10:33:51Z</time>
      </trkpt>
      <trkpt lat="44.44805" lon="1.13394">
        <ele>225</ele>
        <time>2009-02-01T10:33:54Z</time>
      </trkpt>
      <trkpt lat="44.44805" lon="1.13385">
        <ele>226</ele>
        <time>2009-02-01T10:33:57Z</time>
      </trkpt>
      <trkpt lat="44.44805" lon="1.13374">
        <ele>226</ele>
        <time>2009-02-01T10:34:00Z</time>
      </trkpt>
      <trkpt lat="44.44806" lon="1.13362">
        <ele>227</ele>
        <time>2009-02-01T10:34:03Z</time>
      </trkpt>
      <trkpt lat="44.44806" lon="1.13351">
        <ele>227</ele>
        <time>2009-02-01T10:34:06Z</time>
      </trkpt>
      <trkpt lat="44.44806" lon="1.1334">
        <ele>227</ele>
        <time>2009-02-01T10:34:09Z</time>
      </trkpt>
      <trkpt lat="44.44806" lon="1.13328">
        <ele>227</ele>
        <time>2009-02-01T10:34:12Z</time>
      </trkpt>
      <trkpt lat="44.44805" lon="1.13317">
        <ele>227</ele>
        <time>2009-02-01T10:34:15Z</time>
      </trkpt>
      <trkpt lat="44.44808" lon="1.13311">
        <ele>227</ele>
        <time>2009-02-01T10:34:18Z</time>
      </trkpt>
      <trkpt lat="44.44815" lon="1.13307">
        <ele>227</ele>
        <time>2009-02-01T10:34:21Z</time>
      </trkpt>
      <trkpt lat="44.44822" lon="1.133">
        <ele>228</ele>
        <time>2009-02-01T10:34:24Z</time>
      </trkpt>
      <trkpt lat="44.44828" lon="1.1329">
        <ele>228</ele>
        <time>2009-02-01T10:34:27Z</time>
      </trkpt>
      <trkpt lat="44.44834" lon="1.13276">
        <ele>228</ele>
        <time>2009-02-01T10:34:30Z</time>
      </trkpt>
      <trkpt lat="44.44839" lon="1.13258">
        <ele>228</ele>
        <time>2009-02-01T10:34:33Z</time>
      </trkpt>
      <trkpt lat="44.44841" lon="1.1324">
        <ele>228</ele>
        <time>2009-02-01T10:34:36Z</time>
      </trkpt>
      <trkpt lat="44.44841" lon="1.13225">
        <ele>228</ele>
        <time>2009-02-01T10:34:39Z</time>
      </trkpt>
      <trkpt lat="44.44841" lon="1.13214">
        <ele>228</ele>
        <time>2009-02-01T10:34:42Z</time>
      </trkpt>
      <trkpt lat="44.4484" lon="1.13204">
        <ele>228</ele>
        <time>2009-02-01T10:34:45Z</time>
      </trkpt>
      <trkpt lat="44.44836" lon="1.13197">
        <ele>228</ele>
        <time>2009-02-01T10:34:48Z</time>
      </trkpt>
      <trkpt lat="44.4483" lon="1.1319">
        <ele>228</ele>
        <time>2009-02-01T10:34:51Z</time>
      </trkpt>
      <trkpt lat="44.4482" lon="1.13182">
        <ele>228</ele>
        <time>2009-02-01T10:34:54Z</time>
      </trkpt>
      <trkpt lat="44.44808" lon="1.13172">
        <ele>228</ele>
        <time>2009-02-01T10:34:57Z</time>
      </trkpt>
      <trkpt lat="44.44792" lon="1.13159">
        <ele>228</ele>
        <time>2009-02-01T10:35:00Z</time>
      </trkpt>
      <trkpt lat="44.4477" lon="1.13141">
        <ele>226</ele>
        <time>2009-02-01T10:35:03Z</time>
      </trkpt>
      <trkpt lat="44.44743" lon="1.13117">
        <ele>223</ele>
        <time>2009-02-01T10:35:06Z</time>
      </trkpt>
      <trkpt lat="44.44713" lon="1.13091">
        <ele>220</ele>
        <time>2009-02-01T10:35:09Z</time>
      </trkpt>
      <trkpt lat="44.44684" lon="1.13064">
        <ele>217</ele>
        <time>2009-02-01T10:35:12Z</time>
      </trkpt>
      <trkpt lat="44.44661" lon="1.13043">
        <ele>214</ele>
        <time>2009-02-01T10:35:15Z</time>
      </trkpt>
      <trkpt lat="44.44647" lon="1.13031">
        <ele>214</ele>
        <time>2009-02-01T10:35:18Z</time>
      </trkpt>
      <trkpt lat="44.44637" lon="1.13024">
        <ele>214</ele>
        <time>2009-02-01T10:35:21Z</time>
      </trkpt>
      <trkpt lat="44.44631" lon="1.13019">
        <ele>215</ele>
        <time>2009-02-01T10:35:24Z</time>
      </trkpt>
      <trkpt lat="44.44627" lon="1.13012">
        <ele>216</ele>
        <time>2009-02-01T10:35:27Z</time>
      </trkpt>
      <trkpt lat="44.44623" lon="1.13002">
        <ele>217</ele>
        <time>2009-02-01T10:35:30Z</time>
      </trkpt>
      <trkpt lat="44.44621" lon="1.12992">
        <ele>217</ele>
        <time>2009-02-01T10:35:33Z</time>
      </trkpt>
      <trkpt lat="44.44618" lon="1.12982">
        <ele>218</ele>
        <time>2009-02-01T10:35:36Z</time>
      </trkpt>
      <trkpt lat="44.44615" lon="1.12971">
        <ele>218</ele>
        <time>2009-02-01T10:35:39Z</time>
      </trkpt>
      <trkpt lat="44.44612" lon="1.12961">
        <ele>218</ele>
        <time>2009-02-01T10:35:42Z</time>
      </trkpt>
      <trkpt lat="44.4461" lon="1.12952">
        <ele>218</ele>
        <time>2009-02-01T10:35:45Z</time>
      </trkpt>
      <trkpt lat="44.44607" lon="1.12942">
        <ele>218</ele>
        <time>2009-02-01T10:35:48Z</time>
      </trkpt>
      <trkpt lat="44.44604" lon="1.12933">
        <ele>219</ele>
        <time>2009-02-01T10:35:51Z</time>
      </trkpt>
      <trkpt lat="44.44601" lon="1.12923">
        <ele>220</ele>
        <time>2009-02-01T10:35:54Z</time>
      </trkpt>
      <trkpt lat="44.44598" lon="1.12913">
        <ele>221</ele>
        <time>2009-02-01T10:35:57Z</time>
      </trkpt>
      <trkpt lat="44.44595" lon="1.12902">
        <ele>221</ele>
        <time>2009-02-01T10:36:00Z</time>
      </trkpt>
      <trkpt lat="44.44592" lon="1.12891">
        <ele>221</ele>
        <time>2009-02-01T10:36:03Z</time>
      </trkpt>
      <trkpt lat="44.44589" lon="1.1288">
        <ele>221</ele>
        <time>2009-02-01T10:36:06Z</time>
      </trkpt>
      <trkpt lat="44.44585" lon="1.1287">
        <ele>221</ele>
        <time>2009-02-01T10:36:09Z</time>
      </trkpt>
      <trkpt lat="44.44581" lon="1.12859">
        <ele>221</ele>
        <time>2009-02-01T10:36:12Z</time>
      </trkpt>
      <trkpt lat="44.44577" lon="1.12848">
        <ele>221</ele>
        <time>2009-02-01T10:36:15Z</time>
      </trkpt>
      <trkpt lat="44.44574" lon="1.12837">
        <ele>222</ele>
        <time>2009-02-01T10:36:18Z</time>
      </trkpt>
      <trkpt lat="44.4457" lon="1.12826">
        <ele>222</ele>
        <time>2009-02-01T10:36:21Z</time>
      </trkpt>
      <trkpt lat="44.44567" lon="1.12814">
        <ele>223</ele>
        <time>2009-02-01T10:36:24Z</time>
      </trkpt>
      <trkpt lat="44.44563" lon="1.12802">
        <ele>223</ele>
        <time>2009-02-01T10:36:27Z</time>
      </trkpt>
      <trkpt lat="44.4456" lon="1.1279">
        <ele>224</ele>
        <time>2009-02-01T10:36:30Z</time>
      </trkpt>
      <trkpt lat="44.44556" lon="1.12777">
        <ele>224</ele>
        <time>2009-02-01T10:36:33Z</time>
      </trkpt>
      <trkpt lat="44.44552" lon="1.12766">
        <ele>224</ele>
        <time>2009-02-01T10:36:36Z</time>
      </trkpt>
      <trkpt lat="44.44549" lon="1.12754">
        <ele>224</ele>
        <time>2009-02-01T10:36:39Z</time>
      </trkpt>
      <trkpt lat="44.44546" lon="1.12743">
        <ele>225</ele>
        <time>2009-02-01T10:36:42Z</time>
      </trkpt>
      <trkpt lat="44.44542" lon="1.12732">
        <ele>225</ele>
        <time>2009-02-01T10:36:45Z</time>
      </trkpt>
      <trkpt lat="44.44539" lon="1.12722">
        <ele>226</ele>
        <time>2009-02-01T10:36:48Z</time>
      </trkpt>
      <trkpt lat="44.44535" lon="1.12714">
        <ele>226</ele>
        <time>2009-02-01T10:36:51Z</time>
      </trkpt>
      <trkpt lat="44.44534" lon="1.12709">
        <ele>226</ele>
        <time>2009-02-01T10:36:54Z</time>
      </trkpt>
      <trkpt lat="44.44534" lon="1.12708">
        <ele>226</ele>
        <time>2009-02-01T10:36:58Z</time>
      </trkpt>
      <trkpt lat="44.44534" lon="1.12709">
        <ele>227</ele>
        <time>2009-02-01T10:37:23Z</time>
      </trkpt>
      <trkpt lat="44.44535" lon="1.12708">
        <ele>228</ele>
        <time>2009-02-01T10:37:38Z</time>
      </trkpt>
      <trkpt lat="44.44536" lon="1.12706">
        <ele>229</ele>
        <time>2009-02-01T10:37:43Z</time>
      </trkpt>
      <trkpt lat="44.44536" lon="1.12705">
        <ele>229</ele>
        <time>2009-02-01T10:37:46Z</time>
      </trkpt>
      <trkpt lat="44.44535" lon="1.12705">
        <ele>232</ele>
        <time>2009-02-01T10:38:02Z</time>
      </trkpt>
      <trkpt lat="44.44536" lon="1.12704">
        <ele>232</ele>
        <time>2009-02-01T10:38:14Z</time>
      </trkpt>
      <trkpt lat="44.44536" lon="1.12706">
        <ele>232</ele>
        <time>2009-02-01T10:38:41Z</time>
      </trkpt>
      <trkpt lat="44.44536" lon="1.12708">
        <ele>232</ele>
        <time>2009-02-01T10:38:51Z</time>
      </trkpt>
      <trkpt lat="44.44535" lon="1.12706">
        <ele>232</ele>
        <time>2009-02-01T10:38:54Z</time>
      </trkpt>
      <trkpt lat="44.44534" lon="1.12702">
        <ele>232</ele>
        <time>2009-02-01T10:38:57Z</time>
      </trkpt>
      <trkpt lat="44.4453" lon="1.12694">
        <ele>232</ele>
        <time>2009-02-01T10:39:01Z</time>
      </trkpt>
      <trkpt lat="44.44527" lon="1.12685">
        <ele>232</ele>
        <time>2009-02-01T10:39:04Z</time>
      </trkpt>
      <trkpt lat="44.44524" lon="1.12676">
        <ele>232</ele>
        <time>2009-02-01T10:39:07Z</time>
      </trkpt>
      <trkpt lat="44.44518" lon="1.12661">
        <ele>232</ele>
        <time>2009-02-01T10:39:11Z</time>
      </trkpt>
      <trkpt lat="44.44514" lon="1.1265">
        <ele>232</ele>
        <time>2009-02-01T10:39:14Z</time>
      </trkpt>
      <trkpt lat="44.4451" lon="1.12637">
        <ele>232</ele>
        <time>2009-02-01T10:39:17Z</time>
      </trkpt>
      <trkpt lat="44.44505" lon="1.12622">
        <ele>232</ele>
        <time>2009-02-01T10:39:20Z</time>
      </trkpt>
      <trkpt lat="44.44501" lon="1.12608">
        <ele>232</ele>
        <time>2009-02-01T10:39:23Z</time>
      </trkpt>
      <trkpt lat="44.44497" lon="1.12594">
        <ele>232</ele>
        <time>2009-02-01T10:39:26Z</time>
      </trkpt>
      <trkpt lat="44.44494" lon="1.12581">
        <ele>232</ele>
        <time>2009-02-01T10:39:29Z</time>
      </trkpt>
      <trkpt lat="44.44492" lon="1.12567">
        <ele>232</ele>
        <time>2009-02-01T10:39:32Z</time>
      </trkpt>
      <trkpt lat="44.44491" lon="1.12553">
        <ele>232</ele>
        <time>2009-02-01T10:39:35Z</time>
      </trkpt>
      <trkpt lat="44.44489" lon="1.12538">
        <ele>232</ele>
        <time>2009-02-01T10:39:38Z</time>
      </trkpt>
      <trkpt lat="44.44489" lon="1.12523">
        <ele>232</ele>
        <time>2009-02-01T10:39:41Z</time>
      </trkpt>
      <trkpt lat="44.44488" lon="1.12509">
        <ele>232</ele>
        <time>2009-02-01T10:39:44Z</time>
      </trkpt>
      <trkpt lat="44.44488" lon="1.12495">
        <ele>232</ele>
        <time>2009-02-01T10:39:47Z</time>
      </trkpt>
      <trkpt lat="44.44487" lon="1.12481">
        <ele>232</ele>
        <time>2009-02-01T10:39:50Z</time>
      </trkpt>
      <trkpt lat="44.44489" lon="1.1247">
        <ele>232</ele>
        <time>2009-02-01T10:39:53Z</time>
      </trkpt>
      <trkpt lat="44.44488" lon="1.12458">
        <ele>232</ele>
        <time>2009-02-01T10:39:56Z</time>
      </trkpt>
      <trkpt lat="44.44488" lon="1.12443">
        <ele>231</ele>
        <time>2009-02-01T10:39:59Z</time>
      </trkpt>
      <trkpt lat="44.44489" lon="1.12428">
        <ele>231</ele>
        <time>2009-02-01T10:40:02Z</time>
      </trkpt>
      <trkpt lat="44.44491" lon="1.12416">
        <ele>230</ele>
        <time>2009-02-01T10:40:05Z</time>
      </trkpt>
      <trkpt lat="44.44493" lon="1.12404">
        <ele>230</ele>
        <time>2009-02-01T10:40:08Z</time>
      </trkpt>
      <trkpt lat="44.44494" lon="1.12393">
        <ele>229</ele>
        <time>2009-02-01T10:40:11Z</time>
      </trkpt>
      <trkpt lat="44.44496" lon="1.12382">
        <ele>229</ele>
        <time>2009-02-01T10:40:14Z</time>
      </trkpt>
      <trkpt lat="44.44497" lon="1.12372">
        <ele>229</ele>
        <time>2009-02-01T10:40:17Z</time>
      </trkpt>
      <trkpt lat="44.44498" lon="1.12362">
        <ele>229</ele>
        <time>2009-02-01T10:40:20Z</time>
      </trkpt>
      <trkpt lat="44.44498" lon="1.12352">
        <ele>229</ele>
        <time>2009-02-01T10:40:23Z</time>
      </trkpt>
      <trkpt lat="44.44497" lon="1.12343">
        <ele>229</ele>
        <time>2009-02-01T10:40:26Z</time>
      </trkpt>
      <trkpt lat="44.44494" lon="1.12334">
        <ele>229</ele>
        <time>2009-02-01T10:40:29Z</time>
      </trkpt>
      <trkpt lat="44.44491" lon="1.12329">
        <ele>229</ele>
        <time>2009-02-01T10:40:32Z</time>
      </trkpt>
      <trkpt lat="44.44487" lon="1.12323">
        <ele>229</ele>
        <time>2009-02-01T10:40:35Z</time>
      </trkpt>
      <trkpt lat="44.44483" lon="1.12317">
        <ele>229</ele>
        <time>2009-02-01T10:40:38Z</time>
      </trkpt>
      <trkpt lat="44.44479" lon="1.1231">
        <ele>229</ele>
        <time>2009-02-01T10:40:41Z</time>
      </trkpt>
      <trkpt lat="44.44474" lon="1.12305">
        <ele>229</ele>
        <time>2009-02-01T10:40:45Z</time>
      </trkpt>
      <trkpt lat="44.4447" lon="1.12298">
        <ele>230</ele>
        <time>2009-02-01T10:40:48Z</time>
      </trkpt>
      <trkpt lat="44.44467" lon="1.12291">
        <ele>231</ele>
        <time>2009-02-01T10:40:51Z</time>
      </trkpt>
      <trkpt lat="44.44465" lon="1.12285">
        <ele>232</ele>
        <time>2009-02-01T10:40:54Z</time>
      </trkpt>
      <trkpt lat="44.44461" lon="1.12277">
        <ele>233</ele>
        <time>2009-02-01T10:40:57Z</time>
      </trkpt>
      <trkpt lat="44.44461" lon="1.12269">
        <ele>233</ele>
        <time>2009-02-01T10:41:00Z</time>
      </trkpt>
      <trkpt lat="44.4446" lon="1.12261">
        <ele>233</ele>
        <time>2009-02-01T10:41:03Z</time>
      </trkpt>
      <trkpt lat="44.44458" lon="1.12254">
        <ele>233</ele>
        <time>2009-02-01T10:41:06Z</time>
      </trkpt>
      <trkpt lat="44.44455" lon="1.12247">
        <ele>233</ele>
        <time>2009-02-01T10:41:09Z</time>
      </trkpt>
      <trkpt lat="44.44453" lon="1.12239">
        <ele>235</ele>
        <time>2009-02-01T10:41:12Z</time>
      </trkpt>
      <trkpt lat="44.4445" lon="1.1223">
        <ele>236</ele>
        <time>2009-02-01T10:41:15Z</time>
      </trkpt>
      <trkpt lat="44.44448" lon="1.12221">
        <ele>236</ele>
        <time>2009-02-01T10:41:18Z</time>
      </trkpt>
      <trkpt lat="44.44443" lon="1.12214">
        <ele>237</ele>
        <time>2009-02-01T10:41:21Z</time>
      </trkpt>
      <trkpt lat="44.44438" lon="1.12206">
        <ele>238</ele>
        <time>2009-02-01T10:41:24Z</time>
      </trkpt>
      <trkpt lat="44.44433" lon="1.12199">
        <ele>238</ele>
        <time>2009-02-01T10:41:27Z</time>
      </trkpt>
      <trkpt lat="44.44428" lon="1.12191">
        <ele>239</ele>
        <time>2009-02-01T10:41:30Z</time>
      </trkpt>
      <trkpt lat="44.44424" lon="1.12182">
        <ele>239</ele>
        <time>2009-02-01T10:41:33Z</time>
      </trkpt>
      <trkpt lat="44.4442" lon="1.12176">
        <ele>239</ele>
        <time>2009-02-01T10:41:36Z</time>
      </trkpt>
      <trkpt lat="44.44415" lon="1.1217">
        <ele>239</ele>
        <time>2009-02-01T10:41:39Z</time>
      </trkpt>
      <trkpt lat="44.44411" lon="1.12165">
        <ele>241</ele>
        <time>2009-02-01T10:41:42Z</time>
      </trkpt>
      <trkpt lat="44.44407" lon="1.12158">
        <ele>242</ele>
        <time>2009-02-01T10:41:45Z</time>
      </trkpt>
      <trkpt lat="44.44404" lon="1.12152">
        <ele>242</ele>
        <time>2009-02-01T10:41:48Z</time>
      </trkpt>
      <trkpt lat="44.44402" lon="1.12145">
        <ele>243</ele>
        <time>2009-02-01T10:41:51Z</time>
      </trkpt>
      <trkpt lat="44.444" lon="1.12138">
        <ele>243</ele>
        <time>2009-02-01T10:41:54Z</time>
      </trkpt>
      <trkpt lat="44.44397" lon="1.12131">
        <ele>243</ele>
        <time>2009-02-01T10:41:57Z</time>
      </trkpt>
      <trkpt lat="44.44395" lon="1.12124">
        <ele>243</ele>
        <time>2009-02-01T10:42:00Z</time>
      </trkpt>
      <trkpt lat="44.44398" lon="1.12117">
        <ele>244</ele>
        <time>2009-02-01T10:42:03Z</time>
      </trkpt>
      <trkpt lat="44.44402" lon="1.12114">
        <ele>244</ele>
        <time>2009-02-01T10:42:06Z</time>
      </trkpt>
      <trkpt lat="44.44405" lon="1.12111">
        <ele>244</ele>
        <time>2009-02-01T10:42:10Z</time>
      </trkpt>
      <trkpt lat="44.4441" lon="1.12108">
        <ele>244</ele>
        <time>2009-02-01T10:42:14Z</time>
      </trkpt>
      <trkpt lat="44.44414" lon="1.12106">
        <ele>244</ele>
        <time>2009-02-01T10:42:17Z</time>
      </trkpt>
      <trkpt lat="44.44418" lon="1.12104">
        <ele>244</ele>
        <time>2009-02-01T10:42:20Z</time>
      </trkpt>
      <trkpt lat="44.44421" lon="1.12105">
        <ele>244</ele>
        <time>2009-02-01T10:42:23Z</time>
      </trkpt>
      <trkpt lat="44.44425" lon="1.12109">
        <ele>244</ele>
        <time>2009-02-01T10:42:27Z</time>
      </trkpt>
      <trkpt lat="44.44427" lon="1.12109">
        <ele>244</ele>
        <time>2009-02-01T10:42:30Z</time>
      </trkpt>
      <trkpt lat="44.44425" lon="1.12106">
        <ele>244</ele>
        <time>2009-02-01T10:42:33Z</time>
      </trkpt>
      <trkpt lat="44.44424" lon="1.12109">
        <ele>244</ele>
        <time>2009-02-01T10:42:39Z</time>
      </trkpt>
      <trkpt lat="44.44425" lon="1.1211">
        <ele>244</ele>
        <time>2009-02-01T10:42:43Z</time>
      </trkpt>
      <trkpt lat="44.44427" lon="1.12112">
        <ele>244</ele>
        <time>2009-02-01T10:42:49Z</time>
      </trkpt>
      <trkpt lat="44.44428" lon="1.12113">
        <ele>244</ele>
        <time>2009-02-01T10:42:53Z</time>
      </trkpt>
      <trkpt lat="44.44429" lon="1.12114">
        <ele>244</ele>
        <time>2009-02-01T10:43:02Z</time>
      </trkpt>
      <trkpt lat="44.4443" lon="1.12115">
        <ele>243</ele>
        <time>2009-02-01T10:43:19Z</time>
      </trkpt>
      <trkpt lat="44.44432" lon="1.12113">
        <ele>243</ele>
        <time>2009-02-01T10:43:28Z</time>
      </trkpt>
      <trkpt lat="44.4443" lon="1.12114">
        <ele>243</ele>
        <time>2009-02-01T10:43:42Z</time>
      </trkpt>
      <trkpt lat="44.44429" lon="1.12114">
        <ele>243</ele>
        <time>2009-02-01T10:43:50Z</time>
      </trkpt>
      <trkpt lat="44.4443" lon="1.12115">
        <ele>244</ele>
        <time>2009-02-01T10:44:09Z</time>
      </trkpt>
      <trkpt lat="44.44435" lon="1.12112">
        <ele>244</ele>
        <time>2009-02-01T10:44:13Z</time>
      </trkpt>
      <trkpt lat="44.44434" lon="1.12112">
        <ele>246</ele>
        <time>2009-02-01T10:44:26Z</time>
      </trkpt>
      <trkpt lat="44.44433" lon="1.12114">
        <ele>248</ele>
        <time>2009-02-01T10:44:35Z</time>
      </trkpt>
      <trkpt lat="44.44435" lon="1.12112">
        <ele>251</ele>
        <time>2009-02-01T10:44:45Z</time>
      </trkpt>
      <trkpt lat="44.44436" lon="1.12112">
        <ele>251</ele>
        <time>2009-02-01T10:44:48Z</time>
      </trkpt>
      <trkpt lat="44.44439" lon="1.12111">
        <ele>251</ele>
        <time>2009-02-01T10:44:52Z</time>
      </trkpt>
      <trkpt lat="44.44442" lon="1.12109">
        <ele>251</ele>
        <time>2009-02-01T10:44:55Z</time>
      </trkpt>
      <trkpt lat="44.44444" lon="1.12111">
        <ele>251</ele>
        <time>2009-02-01T10:44:58Z</time>
      </trkpt>
      <trkpt lat="44.44444" lon="1.12109">
        <ele>251</ele>
        <time>2009-02-01T10:45:13Z</time>
      </trkpt>
      <trkpt lat="44.44444" lon="1.12108">
        <ele>251</ele>
        <time>2009-02-01T10:45:25Z</time>
      </trkpt>
      <trkpt lat="44.44445" lon="1.12106">
        <ele>255</ele>
        <time>2009-02-01T10:45:42Z</time>
      </trkpt>
      <trkpt lat="44.44446" lon="1.12105">
        <ele>259</ele>
        <time>2009-02-01T10:46:01Z</time>
      </trkpt>
      <trkpt lat="44.44445" lon="1.12105">
        <ele>260</ele>
        <time>2009-02-01T10:46:07Z</time>
      </trkpt>
      <trkpt lat="44.44444" lon="1.12106">
        <ele>262</ele>
        <time>2009-02-01T10:46:15Z</time>
      </trkpt>
      <trkpt lat="44.44443" lon="1.12106">
        <ele>263</ele>
        <time>2009-02-01T10:46:28Z</time>
      </trkpt>
      <trkpt lat="44.44442" lon="1.12105">
        <ele>265</ele>
        <time>2009-02-01T10:46:48Z</time>
      </trkpt>
      <trkpt lat="44.44443" lon="1.12104">
        <ele>266</ele>
        <time>2009-02-01T10:48:03Z</time>
      </trkpt>
      <trkpt lat="44.44444" lon="1.12104">
        <ele>266</ele>
        <time>2009-02-01T10:48:18Z</time>
      </trkpt>
      <trkpt lat="44.44445" lon="1.12104">
        <ele>266</ele>
        <time>2009-02-01T10:48:33Z</time>
      </trkpt>
      <trkpt lat="44.44446" lon="1.12105">
        <ele>266</ele>
        <time>2009-02-01T10:49:09Z</time>
      </trkpt>
      <trkpt lat="44.44447" lon="1.12107">
        <ele>266</ele>
        <time>2009-02-01T10:49:26Z</time>
      </trkpt>
      <trkpt lat="44.44448" lon="1.12108">
        <ele>262</ele>
        <time>2009-02-01T10:49:33Z</time>
      </trkpt>
      <trkpt lat="44.44449" lon="1.12109">
        <ele>258</ele>
        <time>2009-02-01T10:49:51Z</time>
      </trkpt>
      <trkpt lat="44.44449" lon="1.12111">
        <ele>258</ele>
        <time>2009-02-01T10:50:13Z</time>
      </trkpt>
      <trkpt lat="44.4445" lon="1.12111">
        <ele>258</ele>
        <time>2009-02-01T10:50:24Z</time>
      </trkpt>
      <trkpt lat="44.44452" lon="1.12111">
        <ele>258</ele>
        <time>2009-02-01T10:50:37Z</time>
      </trkpt>
      <trkpt lat="44.44453" lon="1.12111">
        <ele>258</ele>
        <time>2009-02-01T10:51:19Z</time>
      </trkpt>
      <trkpt lat="44.44451" lon="1.12111">
        <ele>256</ele>
        <time>2009-02-01T10:51:54Z</time>
      </trkpt>
      <trkpt lat="44.44448" lon="1.12111">
        <ele>256</ele>
        <time>2009-02-01T10:51:58Z</time>
      </trkpt>
      <trkpt lat="44.44445" lon="1.12113">
        <ele>256</ele>
        <time>2009-02-01T10:52:04Z</time>
      </trkpt>
      <trkpt lat="44.44443" lon="1.12113">
        <ele>256</ele>
        <time>2009-02-01T10:52:07Z</time>
      </trkpt>
      <trkpt lat="44.44444" lon="1.12114">
        <ele>256</ele>
        <time>2009-02-01T10:52:12Z</time>
      </trkpt>
      <trkpt lat="44.44444" lon="1.12114">
        <ele>256</ele>
        <time>2009-02-01T10:52:12Z</time>
      </trkpt>
    </trkseg>
  </trk>
</gpx>